<?xml version="1.0" encoding="UTF-8" standalone="no" ?>
<gpx xmlns="http://www.topografix.com/GPX/1/1" xmlns:xsi="http://www.w3.org/2001/XMLSchema-instance" xsi:schemaLocation="http://www.topografix.com/GPX/1/1 http://www.topografix.com/GPX/1/1/gpx.xsd" version="1.1" creator="VisuGPX - https://www.visugpx.com">
  <metadata>
    <name>Refuge du Merlet - Berlanche,Merlet,Passoire</name>
    <desc><![CDATA[Rando en 3j. avec 2 nuits au Refuge du Merlet.
J2 en aval dans l'optique de ramener du bois.
Orientations Est et Nord pour profiter des meilleures conditions de neige.
]]></desc>
  </metadata>
  <trk>
    <name><![CDATA[J1-Refuge du Merlet]]></name>
    <trkseg>
      <trkpt lat="45.31619" lon="6.25079">
        <ele>1042</ele>
        <time>2020-02-07T14:11:46.113Z</time>
      </trkpt>
      <trkpt lat="45.3161" lon="6.25075">
        <ele>1045</ele>
        <time>2020-02-07T14:12:14.113Z</time>
      </trkpt>
      <trkpt lat="45.31604" lon="6.25065">
        <ele>1054</ele>
        <time>2020-02-07T14:13:09.112Z</time>
      </trkpt>
      <trkpt lat="45.31606" lon="6.2505">
        <ele>1056</ele>
        <time>2020-02-07T14:13:29.109Z</time>
      </trkpt>
      <trkpt lat="45.31611" lon="6.25031">
        <ele>1058</ele>
        <time>2020-02-07T14:13:55.109Z</time>
      </trkpt>
      <trkpt lat="45.31615" lon="6.25014">
        <ele>1058</ele>
        <time>2020-02-07T14:13:57.109Z</time>
      </trkpt>
      <trkpt lat="45.31621" lon="6.25">
        <ele>1059</ele>
        <time>2020-02-07T14:14:00.474Z</time>
      </trkpt>
      <trkpt lat="45.31627" lon="6.24985">
        <ele>1059</ele>
        <time>2020-02-07T14:14:03.474Z</time>
      </trkpt>
      <trkpt lat="45.31629" lon="6.24968">
        <ele>1060</ele>
        <time>2020-02-07T14:14:08.474Z</time>
      </trkpt>
      <trkpt lat="45.31635" lon="6.24953">
        <ele>1061</ele>
        <time>2020-02-07T14:14:12.474Z</time>
      </trkpt>
      <trkpt lat="45.31642" lon="6.24943">
        <ele>1061</ele>
        <time>2020-02-07T14:14:18.474Z</time>
      </trkpt>
      <trkpt lat="45.31647" lon="6.24931">
        <ele>1063</ele>
        <time>2020-02-07T14:14:25.474Z</time>
      </trkpt>
      <trkpt lat="45.31652" lon="6.2492">
        <ele>1064</ele>
        <time>2020-02-07T14:14:37.474Z</time>
      </trkpt>
      <trkpt lat="45.31656" lon="6.24905">
        <ele>1065</ele>
        <time>2020-02-07T14:14:44.474Z</time>
      </trkpt>
      <trkpt lat="45.31662" lon="6.24892">
        <ele>1066.5142821396</ele>
        <time>2020-02-07T14:14:57.474Z</time>
      </trkpt>
      <trkpt lat="45.31669" lon="6.24884">
        <ele>1068</ele>
        <time>2020-02-07T14:15:09.474Z</time>
      </trkpt>
      <trkpt lat="45.31673" lon="6.24871">
        <ele>1069</ele>
        <time>2020-02-07T14:15:17.462Z</time>
      </trkpt>
      <trkpt lat="45.31675" lon="6.24858">
        <ele>1072</ele>
        <time>2020-02-07T14:15:36.474Z</time>
      </trkpt>
      <trkpt lat="45.31681" lon="6.24846">
        <ele>1074</ele>
        <time>2020-02-07T14:15:47.462Z</time>
      </trkpt>
      <trkpt lat="45.31679" lon="6.24833">
        <ele>1076</ele>
        <time>2020-02-07T14:16:06.474Z</time>
      </trkpt>
      <trkpt lat="45.31689" lon="6.24829">
        <ele>1077.6839936</ele>
        <time>2020-02-07T14:16:18.474Z</time>
      </trkpt>
      <trkpt lat="45.31688" lon="6.24816">
        <ele>1079</ele>
        <time>2020-02-07T14:16:32.474Z</time>
      </trkpt>
      <trkpt lat="45.31692" lon="6.24803">
        <ele>1080</ele>
        <time>2020-02-07T14:16:42.474Z</time>
      </trkpt>
      <trkpt lat="45.31688" lon="6.2479">
        <ele>1083</ele>
        <time>2020-02-07T14:17:28.474Z</time>
      </trkpt>
      <trkpt lat="45.31696" lon="6.24782">
        <ele>1085.510445423</ele>
        <time>2020-02-07T14:17:42.474Z</time>
      </trkpt>
      <trkpt lat="45.31704" lon="6.24776">
        <ele>1087</ele>
        <time>2020-02-07T14:18:18.462Z</time>
      </trkpt>
      <trkpt lat="45.31706" lon="6.24763">
        <ele>1089</ele>
        <time>2020-02-07T14:18:42.462Z</time>
      </trkpt>
      <trkpt lat="45.31714" lon="6.24747">
        <ele>1091</ele>
        <time>2020-02-07T14:18:50.474Z</time>
      </trkpt>
      <trkpt lat="45.31712" lon="6.24735">
        <ele>1093</ele>
        <time>2020-02-07T14:18:58.474Z</time>
      </trkpt>
      <trkpt lat="45.31717" lon="6.24724">
        <ele>1095</ele>
        <time>2020-02-07T14:19:12.474Z</time>
      </trkpt>
      <trkpt lat="45.31723" lon="6.24714">
        <ele>1097.542026082</ele>
        <time>2020-02-07T14:19:22.474Z</time>
      </trkpt>
      <trkpt lat="45.31721" lon="6.24702">
        <ele>1100</ele>
        <time>2020-02-07T14:19:39.474Z</time>
      </trkpt>
      <trkpt lat="45.31731" lon="6.24704">
        <ele>1101</ele>
        <time>2020-02-07T14:20:07.474Z</time>
      </trkpt>
      <trkpt lat="45.31737" lon="6.24692">
        <ele>1102</ele>
        <time>2020-02-07T14:20:30.474Z</time>
      </trkpt>
      <trkpt lat="45.31737" lon="6.24679">
        <ele>1102</ele>
        <time>2020-02-07T14:20:40.474Z</time>
      </trkpt>
      <trkpt lat="45.31738" lon="6.24666">
        <ele>1108.6839936</ele>
        <time>2020-02-07T14:21:41.474Z</time>
      </trkpt>
      <trkpt lat="45.31744" lon="6.24656">
        <ele>1110</ele>
        <time>2020-02-07T14:21:52.474Z</time>
      </trkpt>
      <trkpt lat="45.31752" lon="6.24648">
        <ele>1111</ele>
        <time>2020-02-07T14:22:02.474Z</time>
      </trkpt>
      <trkpt lat="45.31759" lon="6.2464">
        <ele>1113</ele>
        <time>2020-02-07T14:22:18.474Z</time>
      </trkpt>
      <trkpt lat="45.31767" lon="6.24635">
        <ele>1115</ele>
        <time>2020-02-07T14:22:33.474Z</time>
      </trkpt>
      <trkpt lat="45.31777" lon="6.24631">
        <ele>1118</ele>
        <time>2020-02-07T14:22:45.474Z</time>
      </trkpt>
      <trkpt lat="45.31778" lon="6.24616">
        <ele>1119</ele>
        <time>2020-02-07T14:22:57.474Z</time>
      </trkpt>
      <trkpt lat="45.31782" lon="6.24604">
        <ele>1122.6839936</ele>
        <time>2020-02-07T14:23:15.474Z</time>
      </trkpt>
      <trkpt lat="45.31783" lon="6.24591">
        <ele>1125</ele>
        <time>2020-02-07T14:23:32.474Z</time>
      </trkpt>
      <trkpt lat="45.31788" lon="6.24579">
        <ele>1127</ele>
        <time>2020-02-07T14:24:02.474Z</time>
      </trkpt>
      <trkpt lat="45.3179" lon="6.24565">
        <ele>1128</ele>
        <time>2020-02-07T14:24:16.474Z</time>
      </trkpt>
      <trkpt lat="45.31792" lon="6.24552">
        <ele>1130</ele>
        <time>2020-02-07T14:24:33.474Z</time>
      </trkpt>
      <trkpt lat="45.318" lon="6.24541">
        <ele>1132</ele>
        <time>2020-02-07T14:24:41.474Z</time>
      </trkpt>
      <trkpt lat="45.31801" lon="6.24529">
        <ele>1135</ele>
        <time>2020-02-07T14:25:03.474Z</time>
      </trkpt>
      <trkpt lat="45.31806" lon="6.24516">
        <ele>1136.6839936</ele>
        <time>2020-02-07T14:25:14.474Z</time>
      </trkpt>
      <trkpt lat="45.31808" lon="6.24504">
        <ele>1139</ele>
        <time>2020-02-07T14:25:26.474Z</time>
      </trkpt>
      <trkpt lat="45.31815" lon="6.24493">
        <ele>1142</ele>
        <time>2020-02-07T14:25:46.474Z</time>
      </trkpt>
      <trkpt lat="45.31822" lon="6.24483">
        <ele>1143</ele>
        <time>2020-02-07T14:25:58.474Z</time>
      </trkpt>
      <trkpt lat="45.31825" lon="6.24471">
        <ele>1145</ele>
        <time>2020-02-07T14:26:10.474Z</time>
      </trkpt>
      <trkpt lat="45.31825" lon="6.24457">
        <ele>1146</ele>
        <time>2020-02-07T14:26:16.474Z</time>
      </trkpt>
      <trkpt lat="45.31834" lon="6.24451">
        <ele>1148</ele>
        <time>2020-02-07T14:26:27.474Z</time>
      </trkpt>
      <trkpt lat="45.31842" lon="6.24447">
        <ele>1153</ele>
        <time>2020-02-07T14:26:56.474Z</time>
      </trkpt>
      <trkpt lat="45.31852" lon="6.24442">
        <ele>1155</ele>
        <time>2020-02-07T14:27:09.474Z</time>
      </trkpt>
      <trkpt lat="45.31855" lon="6.2443">
        <ele>1158</ele>
        <time>2020-02-07T14:27:25.474Z</time>
      </trkpt>
      <trkpt lat="45.31865" lon="6.24428">
        <ele>1159</ele>
        <time>2020-02-07T14:27:56.474Z</time>
      </trkpt>
      <trkpt lat="45.3187" lon="6.24417">
        <ele>1163</ele>
        <time>2020-02-07T14:28:21.474Z</time>
      </trkpt>
      <trkpt lat="45.31873" lon="6.24404">
        <ele>1167</ele>
        <time>2020-02-07T14:29:25.474Z</time>
      </trkpt>
      <trkpt lat="45.31883" lon="6.24402">
        <ele>1169</ele>
        <time>2020-02-07T14:29:39.474Z</time>
      </trkpt>
      <trkpt lat="45.31887" lon="6.24389">
        <ele>1172</ele>
        <time>2020-02-07T14:29:51.474Z</time>
      </trkpt>
      <trkpt lat="45.31896" lon="6.24383">
        <ele>1176</ele>
        <time>2020-02-07T14:30:15.474Z</time>
      </trkpt>
      <trkpt lat="45.31901" lon="6.24372">
        <ele>1177</ele>
        <time>2020-02-07T14:30:24.474Z</time>
      </trkpt>
      <trkpt lat="45.31906" lon="6.24361">
        <ele>1179</ele>
        <time>2020-02-07T14:30:30.474Z</time>
      </trkpt>
      <trkpt lat="45.31912" lon="6.24351">
        <ele>1182</ele>
        <time>2020-02-07T14:30:44.474Z</time>
      </trkpt>
      <trkpt lat="45.31916" lon="6.24338">
        <ele>1183</ele>
        <time>2020-02-07T14:30:53.474Z</time>
      </trkpt>
      <trkpt lat="45.31919" lon="6.24324">
        <ele>1183</ele>
        <time>2020-02-07T14:31:01.474Z</time>
      </trkpt>
      <trkpt lat="45.31926" lon="6.24316">
        <ele>1186</ele>
        <time>2020-02-07T14:31:16.472Z</time>
      </trkpt>
      <trkpt lat="45.31933" lon="6.24304">
        <ele>1188</ele>
        <time>2020-02-07T14:31:30.474Z</time>
      </trkpt>
      <trkpt lat="45.31937" lon="6.24292">
        <ele>1190</ele>
        <time>2020-02-07T14:31:45.464Z</time>
      </trkpt>
      <trkpt lat="45.31941" lon="6.2428">
        <ele>1192</ele>
        <time>2020-02-07T14:31:59.474Z</time>
      </trkpt>
      <trkpt lat="45.3195" lon="6.24274">
        <ele>1193</ele>
        <time>2020-02-07T14:32:07.474Z</time>
      </trkpt>
      <trkpt lat="45.31958" lon="6.24269">
        <ele>1195</ele>
        <time>2020-02-07T14:32:23.462Z</time>
      </trkpt>
      <trkpt lat="45.31967" lon="6.24265">
        <ele>1198</ele>
        <time>2020-02-07T14:32:33.462Z</time>
      </trkpt>
      <trkpt lat="45.31976" lon="6.24258">
        <ele>1200</ele>
        <time>2020-02-07T14:32:50.474Z</time>
      </trkpt>
      <trkpt lat="45.31984" lon="6.24252">
        <ele>1201</ele>
        <time>2020-02-07T14:33:00.462Z</time>
      </trkpt>
      <trkpt lat="45.31992" lon="6.24243">
        <ele>1201</ele>
        <time>2020-02-07T14:33:12.464Z</time>
      </trkpt>
      <trkpt lat="45.32" lon="6.24238">
        <ele>1202</ele>
        <time>2020-02-07T14:33:24.474Z</time>
      </trkpt>
      <trkpt lat="45.32006" lon="6.24228">
        <ele>1205</ele>
        <time>2020-02-07T14:33:35.462Z</time>
      </trkpt>
      <trkpt lat="45.3201" lon="6.24216">
        <ele>1206</ele>
        <time>2020-02-07T14:33:45.464Z</time>
      </trkpt>
      <trkpt lat="45.32018" lon="6.2421">
        <ele>1208</ele>
        <time>2020-02-07T14:34:00.464Z</time>
      </trkpt>
      <trkpt lat="45.32025" lon="6.24201">
        <ele>1212</ele>
        <time>2020-02-07T14:34:19.460Z</time>
      </trkpt>
      <trkpt lat="45.32026" lon="6.24187">
        <ele>1212.6839936</ele>
        <time>2020-02-07T14:34:26.474Z</time>
      </trkpt>
      <trkpt lat="45.32027" lon="6.24174">
        <ele>1216</ele>
        <time>2020-02-07T14:34:39.474Z</time>
      </trkpt>
      <trkpt lat="45.32031" lon="6.24163">
        <ele>1219.5037630166</ele>
        <time>2020-02-07T14:35:02.460Z</time>
      </trkpt>
      <trkpt lat="45.32035" lon="6.24151">
        <ele>1223</ele>
        <time>2020-02-07T14:35:22.462Z</time>
      </trkpt>
      <trkpt lat="45.32043" lon="6.24144">
        <ele>1225.6618545546</ele>
        <time>2020-02-07T14:35:36.462Z</time>
      </trkpt>
      <trkpt lat="45.32049" lon="6.24134">
        <ele>1228</ele>
        <time>2020-02-07T14:35:51.464Z</time>
      </trkpt>
      <trkpt lat="45.32057" lon="6.24129">
        <ele>1229.6648600653</ele>
        <time>2020-02-07T14:35:59.578Z</time>
      </trkpt>
      <trkpt lat="45.32063" lon="6.24117">
        <ele>1231</ele>
        <time>2020-02-07T14:36:10.474Z</time>
      </trkpt>
      <trkpt lat="45.32062" lon="6.24103">
        <ele>1234</ele>
        <time>2020-02-07T14:36:27.474Z</time>
      </trkpt>
      <trkpt lat="45.32067" lon="6.24092">
        <ele>1236</ele>
        <time>2020-02-07T14:36:44.474Z</time>
      </trkpt>
      <trkpt lat="45.32073" lon="6.24082">
        <ele>1238</ele>
        <time>2020-02-07T14:36:57.474Z</time>
      </trkpt>
      <trkpt lat="45.32078" lon="6.24071">
        <ele>1240</ele>
        <time>2020-02-07T14:37:15.460Z</time>
      </trkpt>
      <trkpt lat="45.32087" lon="6.24063">
        <ele>1243</ele>
        <time>2020-02-07T14:37:31.460Z</time>
      </trkpt>
      <trkpt lat="45.32094" lon="6.24054">
        <ele>1246</ele>
        <time>2020-02-07T14:37:49.474Z</time>
      </trkpt>
      <trkpt lat="45.32101" lon="6.24045">
        <ele>1249</ele>
        <time>2020-02-07T14:38:03.460Z</time>
      </trkpt>
      <trkpt lat="45.32109" lon="6.24037">
        <ele>1252</ele>
        <time>2020-02-07T14:38:24.462Z</time>
      </trkpt>
      <trkpt lat="45.32115" lon="6.24026">
        <ele>1254</ele>
        <time>2020-02-07T14:38:37.474Z</time>
      </trkpt>
      <trkpt lat="45.32112" lon="6.24012">
        <ele>1255</ele>
        <time>2020-02-07T14:38:45.474Z</time>
      </trkpt>
      <trkpt lat="45.3212" lon="6.24005">
        <ele>1257</ele>
        <time>2020-02-07T14:38:59.460Z</time>
      </trkpt>
      <trkpt lat="45.32124" lon="6.23994">
        <ele>1260</ele>
        <time>2020-02-07T14:39:14.472Z</time>
      </trkpt>
      <trkpt lat="45.32129" lon="6.23981">
        <ele>1262.6839936</ele>
        <time>2020-02-07T14:39:31.474Z</time>
      </trkpt>
      <trkpt lat="45.32123" lon="6.23972">
        <ele>1265</ele>
        <time>2020-02-07T14:39:50.474Z</time>
      </trkpt>
      <trkpt lat="45.32128" lon="6.23961">
        <ele>1269</ele>
        <time>2020-02-07T14:40:14.474Z</time>
      </trkpt>
      <trkpt lat="45.32137" lon="6.23958">
        <ele>1272.5014949325</ele>
        <time>2020-02-07T14:40:30.462Z</time>
      </trkpt>
      <trkpt lat="45.32144" lon="6.23948">
        <ele>1275</ele>
        <time>2020-02-07T14:40:42.461Z</time>
      </trkpt>
      <trkpt lat="45.32149" lon="6.23937">
        <ele>1278</ele>
        <time>2020-02-07T14:41:00.574Z</time>
      </trkpt>
      <trkpt lat="45.32158" lon="6.23934">
        <ele>1283</ele>
        <time>2020-02-07T14:41:21.461Z</time>
      </trkpt>
      <trkpt lat="45.32158" lon="6.2392">
        <ele>1284</ele>
        <time>2020-02-07T14:41:33.474Z</time>
      </trkpt>
      <trkpt lat="45.32161" lon="6.23907">
        <ele>1290</ele>
        <time>2020-02-07T14:42:03.463Z</time>
      </trkpt>
      <trkpt lat="45.3217" lon="6.23901">
        <ele>1293</ele>
        <time>2020-02-07T14:42:14.476Z</time>
      </trkpt>
      <trkpt lat="45.32177" lon="6.23892">
        <ele>1296</ele>
        <time>2020-02-07T14:42:32.474Z</time>
      </trkpt>
      <trkpt lat="45.32185" lon="6.23886">
        <ele>1299</ele>
        <time>2020-02-07T14:42:50.461Z</time>
      </trkpt>
      <trkpt lat="45.32194" lon="6.23883">
        <ele>1302</ele>
        <time>2020-02-07T14:43:06.574Z</time>
      </trkpt>
      <trkpt lat="45.32203" lon="6.23877">
        <ele>1304</ele>
        <time>2020-02-07T14:43:22.461Z</time>
      </trkpt>
      <trkpt lat="45.32212" lon="6.23872">
        <ele>1307</ele>
        <time>2020-02-07T14:43:36.461Z</time>
      </trkpt>
      <trkpt lat="45.32219" lon="6.23863">
        <ele>1310</ele>
        <time>2020-02-07T14:43:51.461Z</time>
      </trkpt>
      <trkpt lat="45.32229" lon="6.23864">
        <ele>1311</ele>
        <time>2020-02-07T14:44:03.476Z</time>
      </trkpt>
      <trkpt lat="45.32238" lon="6.23864">
        <ele>1313</ele>
        <time>2020-02-07T14:44:19.461Z</time>
      </trkpt>
      <trkpt lat="45.32236" lon="6.23851">
        <ele>1315</ele>
        <time>2020-02-07T14:44:25.474Z</time>
      </trkpt>
      <trkpt lat="45.32246" lon="6.23849">
        <ele>1316</ele>
        <time>2020-02-07T14:44:36.474Z</time>
      </trkpt>
      <trkpt lat="45.32255" lon="6.23846">
        <ele>1317</ele>
        <time>2020-02-07T14:44:47.471Z</time>
      </trkpt>
      <trkpt lat="45.32264" lon="6.23848">
        <ele>1319</ele>
        <time>2020-02-07T14:44:56.474Z</time>
      </trkpt>
      <trkpt lat="45.32272" lon="6.2384">
        <ele>1321</ele>
        <time>2020-02-07T14:45:06.474Z</time>
      </trkpt>
      <trkpt lat="45.32279" lon="6.23832">
        <ele>1322</ele>
        <time>2020-02-07T14:45:19.476Z</time>
      </trkpt>
      <trkpt lat="45.32289" lon="6.23829">
        <ele>1324</ele>
        <time>2020-02-07T14:45:29.471Z</time>
      </trkpt>
      <trkpt lat="45.32296" lon="6.23821">
        <ele>1326</ele>
        <time>2020-02-07T14:45:43.462Z</time>
      </trkpt>
      <trkpt lat="45.32304" lon="6.23813">
        <ele>1328</ele>
        <time>2020-02-07T14:45:59.471Z</time>
      </trkpt>
      <trkpt lat="45.32313" lon="6.23809">
        <ele>1330</ele>
        <time>2020-02-07T14:46:17.476Z</time>
      </trkpt>
      <trkpt lat="45.3232" lon="6.23799">
        <ele>1332</ele>
        <time>2020-02-07T14:46:26.474Z</time>
      </trkpt>
      <trkpt lat="45.32327" lon="6.2379">
        <ele>1334</ele>
        <time>2020-02-07T14:46:38.474Z</time>
      </trkpt>
      <trkpt lat="45.32333" lon="6.23782">
        <ele>1335</ele>
        <time>2020-02-07T14:46:48.474Z</time>
      </trkpt>
      <trkpt lat="45.3234" lon="6.23772">
        <ele>1338.6808026479</ele>
        <time>2020-02-07T14:47:05.474Z</time>
      </trkpt>
      <trkpt lat="45.32348" lon="6.23765">
        <ele>1341</ele>
        <time>2020-02-07T14:47:18.474Z</time>
      </trkpt>
      <trkpt lat="45.32351" lon="6.23753">
        <ele>1346</ele>
        <time>2020-02-07T14:47:37.474Z</time>
      </trkpt>
      <trkpt lat="45.32359" lon="6.23744">
        <ele>1347</ele>
        <time>2020-02-07T14:48:47.474Z</time>
      </trkpt>
      <trkpt lat="45.32354" lon="6.23756">
        <ele>1346</ele>
        <time>2020-02-07T14:49:14.474Z</time>
      </trkpt>
      <trkpt lat="45.32363" lon="6.23756">
        <ele>1346</ele>
        <time>2020-02-07T14:49:19.474Z</time>
      </trkpt>
      <trkpt lat="45.32358" lon="6.23768">
        <ele>1347</ele>
        <time>2020-02-07T14:50:11.473Z</time>
      </trkpt>
      <trkpt lat="45.32366" lon="6.23754">
        <ele>1347</ele>
        <time>2020-02-07T14:50:22.474Z</time>
      </trkpt>
      <trkpt lat="45.32359" lon="6.23744">
        <ele>1347</ele>
        <time>2020-02-07T14:50:46.474Z</time>
      </trkpt>
      <trkpt lat="45.32356" lon="6.23732">
        <ele>1348</ele>
        <time>2020-02-07T14:54:55.474Z</time>
      </trkpt>
      <trkpt lat="45.3236" lon="6.23745">
        <ele>1348</ele>
        <time>2020-02-07T14:55:07.474Z</time>
      </trkpt>
      <trkpt lat="45.3237" lon="6.23742">
        <ele>1348</ele>
        <time>2020-02-07T14:55:41.474Z</time>
      </trkpt>
      <trkpt lat="45.3238" lon="6.23748">
        <ele>1348</ele>
        <time>2020-02-07T14:56:19.460Z</time>
      </trkpt>
      <trkpt lat="45.32371" lon="6.23741">
        <ele>1348</ele>
        <time>2020-02-07T14:56:31.460Z</time>
      </trkpt>
      <trkpt lat="45.32379" lon="6.23751">
        <ele>1348</ele>
        <time>2020-02-07T14:57:12.475Z</time>
      </trkpt>
      <trkpt lat="45.32386" lon="6.23742">
        <ele>1352</ele>
        <time>2020-02-07T14:57:40.474Z</time>
      </trkpt>
      <trkpt lat="45.3239" lon="6.2373">
        <ele>1354</ele>
        <time>2020-02-07T14:57:51.474Z</time>
      </trkpt>
      <trkpt lat="45.32394" lon="6.23717">
        <ele>1356.6839936</ele>
        <time>2020-02-07T14:58:04.474Z</time>
      </trkpt>
      <trkpt lat="45.32403" lon="6.23719">
        <ele>1359</ele>
        <time>2020-02-07T14:58:18.474Z</time>
      </trkpt>
      <trkpt lat="45.32412" lon="6.23713">
        <ele>1362</ele>
        <time>2020-02-07T14:58:43.463Z</time>
      </trkpt>
      <trkpt lat="45.32414" lon="6.23701">
        <ele>1364</ele>
        <time>2020-02-07T14:59:07.477Z</time>
      </trkpt>
      <trkpt lat="45.32418" lon="6.23689">
        <ele>1367</ele>
        <time>2020-02-07T14:59:20.471Z</time>
      </trkpt>
      <trkpt lat="45.32427" lon="6.23686">
        <ele>1370</ele>
        <time>2020-02-07T14:59:35.475Z</time>
      </trkpt>
      <trkpt lat="45.32434" lon="6.23676">
        <ele>1373</ele>
        <time>2020-02-07T14:59:57.461Z</time>
      </trkpt>
      <trkpt lat="45.32436" lon="6.23663">
        <ele>1376</ele>
        <time>2020-02-07T15:00:13.463Z</time>
      </trkpt>
      <trkpt lat="45.32441" lon="6.23652">
        <ele>1377</ele>
        <time>2020-02-07T15:00:25.476Z</time>
      </trkpt>
      <trkpt lat="45.32449" lon="6.23647">
        <ele>1380</ele>
        <time>2020-02-07T15:00:43.461Z</time>
      </trkpt>
      <trkpt lat="45.32459" lon="6.23651">
        <ele>1381.6809984</ele>
        <time>2020-02-07T15:01:15.471Z</time>
      </trkpt>
      <trkpt lat="45.32452" lon="6.23665">
        <ele>1383</ele>
        <time>2020-02-07T15:01:29.474Z</time>
      </trkpt>
      <trkpt lat="45.32462" lon="6.23671">
        <ele>1385</ele>
        <time>2020-02-07T15:01:42.474Z</time>
      </trkpt>
      <trkpt lat="45.32465" lon="6.23684">
        <ele>1388</ele>
        <time>2020-02-07T15:01:57.476Z</time>
      </trkpt>
      <trkpt lat="45.32473" lon="6.23678">
        <ele>1393</ele>
        <time>2020-02-07T15:02:29.464Z</time>
      </trkpt>
      <trkpt lat="45.32482" lon="6.23671">
        <ele>1396</ele>
        <time>2020-02-07T15:02:46.464Z</time>
      </trkpt>
      <trkpt lat="45.3249" lon="6.23664">
        <ele>1401</ele>
        <time>2020-02-07T15:03:06.464Z</time>
      </trkpt>
      <trkpt lat="45.32495" lon="6.23652">
        <ele>1403</ele>
        <time>2020-02-07T15:03:22.474Z</time>
      </trkpt>
      <trkpt lat="45.32493" lon="6.23638">
        <ele>1404</ele>
        <time>2020-02-07T15:03:31.476Z</time>
      </trkpt>
      <trkpt lat="45.32495" lon="6.23625">
        <ele>1406</ele>
        <time>2020-02-07T15:03:45.461Z</time>
      </trkpt>
      <trkpt lat="45.32496" lon="6.23613">
        <ele>1406</ele>
        <time>2020-02-07T15:03:56.476Z</time>
      </trkpt>
      <trkpt lat="45.32498" lon="6.236">
        <ele>1408</ele>
        <time>2020-02-07T15:04:11.474Z</time>
      </trkpt>
      <trkpt lat="45.325" lon="6.23587">
        <ele>1410</ele>
        <time>2020-02-07T15:04:25.474Z</time>
      </trkpt>
      <trkpt lat="45.325" lon="6.23574">
        <ele>1412</ele>
        <time>2020-02-07T15:04:40.474Z</time>
      </trkpt>
      <trkpt lat="45.32503" lon="6.23561">
        <ele>1415</ele>
        <time>2020-02-07T15:04:57.473Z</time>
      </trkpt>
      <trkpt lat="45.32508" lon="6.2355">
        <ele>1419</ele>
        <time>2020-02-07T15:05:21.464Z</time>
      </trkpt>
      <trkpt lat="45.3251" lon="6.23538">
        <ele>1424</ele>
        <time>2020-02-07T15:05:42.474Z</time>
      </trkpt>
      <trkpt lat="45.32516" lon="6.23528">
        <ele>1425</ele>
        <time>2020-02-07T15:05:52.476Z</time>
      </trkpt>
      <trkpt lat="45.32515" lon="6.23515">
        <ele>1429</ele>
        <time>2020-02-07T15:06:23.474Z</time>
      </trkpt>
      <trkpt lat="45.32512" lon="6.23502">
        <ele>1431</ele>
        <time>2020-02-07T15:07:01.474Z</time>
      </trkpt>
      <trkpt lat="45.32512" lon="6.23489">
        <ele>1433</ele>
        <time>2020-02-07T15:07:10.474Z</time>
      </trkpt>
      <trkpt lat="45.32509" lon="6.23477">
        <ele>1434.6839936</ele>
        <time>2020-02-07T15:07:27.474Z</time>
      </trkpt>
      <trkpt lat="45.32518" lon="6.23467">
        <ele>1439</ele>
        <time>2020-02-07T15:07:49.474Z</time>
      </trkpt>
      <trkpt lat="45.32527" lon="6.23464">
        <ele>1440</ele>
        <time>2020-02-07T15:07:55.474Z</time>
      </trkpt>
      <trkpt lat="45.32536" lon="6.23461">
        <ele>1443</ele>
        <time>2020-02-07T15:08:18.474Z</time>
      </trkpt>
      <trkpt lat="45.32544" lon="6.23468">
        <ele>1444.5376766965</ele>
        <time>2020-02-07T15:08:27.471Z</time>
      </trkpt>
      <trkpt lat="45.3255" lon="6.23458">
        <ele>1449</ele>
        <time>2020-02-07T15:08:59.474Z</time>
      </trkpt>
      <trkpt lat="45.32544" lon="6.23448">
        <ele>1451</ele>
        <time>2020-02-07T15:09:12.474Z</time>
      </trkpt>
      <trkpt lat="45.32543" lon="6.23435">
        <ele>1454</ele>
        <time>2020-02-07T15:09:29.474Z</time>
      </trkpt>
      <trkpt lat="45.32552" lon="6.23441">
        <ele>1455</ele>
        <time>2020-02-07T15:09:34.474Z</time>
      </trkpt>
      <trkpt lat="45.32561" lon="6.23445">
        <ele>1456</ele>
        <time>2020-02-07T15:09:40.474Z</time>
      </trkpt>
      <trkpt lat="45.32552" lon="6.23442">
        <ele>1456</ele>
        <time>2020-02-07T15:09:51.474Z</time>
      </trkpt>
      <trkpt lat="45.32543" lon="6.23439">
        <ele>1456</ele>
        <time>2020-02-07T15:09:52.474Z</time>
      </trkpt>
      <trkpt lat="45.32553" lon="6.23436">
        <ele>1457</ele>
        <time>2020-02-07T15:10:04.474Z</time>
      </trkpt>
      <trkpt lat="45.32563" lon="6.23437">
        <ele>1459</ele>
        <time>2020-02-07T15:10:15.474Z</time>
      </trkpt>
      <trkpt lat="45.32573" lon="6.23435">
        <ele>1461</ele>
        <time>2020-02-07T15:10:22.474Z</time>
      </trkpt>
      <trkpt lat="45.32569" lon="6.23423">
        <ele>1465</ele>
        <time>2020-02-07T15:10:41.474Z</time>
      </trkpt>
      <trkpt lat="45.32577" lon="6.23418">
        <ele>1469</ele>
        <time>2020-02-07T15:11:00.474Z</time>
      </trkpt>
      <trkpt lat="45.32588" lon="6.2342">
        <ele>1471</ele>
        <time>2020-02-07T15:11:14.573Z</time>
      </trkpt>
      <trkpt lat="45.32597" lon="6.23425">
        <ele>1471.5435852834</ele>
        <time>2020-02-07T15:11:22.474Z</time>
      </trkpt>
      <trkpt lat="45.32596" lon="6.23411">
        <ele>1480</ele>
        <time>2020-02-07T15:12:27.474Z</time>
      </trkpt>
      <trkpt lat="45.32587" lon="6.23406">
        <ele>1483</ele>
        <time>2020-02-07T15:13:04.461Z</time>
      </trkpt>
      <trkpt lat="45.32584" lon="6.23393">
        <ele>1482.6839936</ele>
        <time>2020-02-07T15:14:13.474Z</time>
      </trkpt>
      <trkpt lat="45.32588" lon="6.2338">
        <ele>1483</ele>
        <time>2020-02-07T15:14:26.474Z</time>
      </trkpt>
      <trkpt lat="45.32579" lon="6.23375">
        <ele>1483</ele>
        <time>2020-02-07T15:14:52.474Z</time>
      </trkpt>
      <trkpt lat="45.32569" lon="6.23373">
        <ele>1483</ele>
        <time>2020-02-07T15:15:02.474Z</time>
      </trkpt>
      <trkpt lat="45.32561" lon="6.23366">
        <ele>1484</ele>
        <time>2020-02-07T15:15:13.474Z</time>
      </trkpt>
      <trkpt lat="45.32565" lon="6.23353">
        <ele>1486</ele>
        <time>2020-02-07T15:15:28.474Z</time>
      </trkpt>
      <trkpt lat="45.32561" lon="6.23338">
        <ele>1487</ele>
        <time>2020-02-07T15:15:40.578Z</time>
      </trkpt>
      <trkpt lat="45.32564" lon="6.23323">
        <ele>1487</ele>
        <time>2020-02-07T15:15:55.474Z</time>
      </trkpt>
      <trkpt lat="45.32566" lon="6.2331">
        <ele>1488</ele>
        <time>2020-02-07T15:16:05.474Z</time>
      </trkpt>
      <trkpt lat="45.32567" lon="6.23297">
        <ele>1489</ele>
        <time>2020-02-07T15:16:16.474Z</time>
      </trkpt>
      <trkpt lat="45.32559" lon="6.23288">
        <ele>1491</ele>
        <time>2020-02-07T15:16:23.474Z</time>
      </trkpt>
      <trkpt lat="45.32557" lon="6.23275">
        <ele>1491</ele>
        <time>2020-02-07T15:16:30.474Z</time>
      </trkpt>
      <trkpt lat="45.3255" lon="6.23267">
        <ele>1491</ele>
        <time>2020-02-07T15:16:36.474Z</time>
      </trkpt>
      <trkpt lat="45.32546" lon="6.23255">
        <ele>1492</ele>
        <time>2020-02-07T15:16:41.474Z</time>
      </trkpt>
      <trkpt lat="45.32555" lon="6.23255">
        <ele>1492</ele>
        <time>2020-02-07T15:16:51.464Z</time>
      </trkpt>
      <trkpt lat="45.32548" lon="6.23247">
        <ele>1493</ele>
        <time>2020-02-07T15:17:03.474Z</time>
      </trkpt>
      <trkpt lat="45.32545" lon="6.23233">
        <ele>1494</ele>
        <time>2020-02-07T15:17:17.474Z</time>
      </trkpt>
      <trkpt lat="45.32553" lon="6.23226">
        <ele>1496</ele>
        <time>2020-02-07T15:17:31.474Z</time>
      </trkpt>
      <trkpt lat="45.3255" lon="6.2321">
        <ele>1498</ele>
        <time>2020-02-07T15:17:51.474Z</time>
      </trkpt>
      <trkpt lat="45.32542" lon="6.23203">
        <ele>1499</ele>
        <time>2020-02-07T15:18:11.474Z</time>
      </trkpt>
      <trkpt lat="45.32535" lon="6.23189">
        <ele>1502</ele>
        <time>2020-02-07T15:18:31.474Z</time>
      </trkpt>
      <trkpt lat="45.32528" lon="6.2318">
        <ele>1502.6839936</ele>
        <time>2020-02-07T15:18:41.474Z</time>
      </trkpt>
      <trkpt lat="45.3253" lon="6.23167">
        <ele>1503</ele>
        <time>2020-02-07T15:18:56.579Z</time>
      </trkpt>
      <trkpt lat="45.32537" lon="6.23159">
        <ele>1504</ele>
        <time>2020-02-07T15:19:02.460Z</time>
      </trkpt>
      <trkpt lat="45.32547" lon="6.2316">
        <ele>1505</ele>
        <time>2020-02-07T15:19:10.473Z</time>
      </trkpt>
      <trkpt lat="45.32556" lon="6.23165">
        <ele>1507</ele>
        <time>2020-02-07T15:19:27.460Z</time>
      </trkpt>
      <trkpt lat="45.32547" lon="6.23164">
        <ele>1510</ele>
        <time>2020-02-07T15:19:48.474Z</time>
      </trkpt>
      <trkpt lat="45.32544" lon="6.23151">
        <ele>1510</ele>
        <time>2020-02-07T15:20:03.474Z</time>
      </trkpt>
      <trkpt lat="45.32541" lon="6.23136">
        <ele>1513</ele>
        <time>2020-02-07T15:20:25.459Z</time>
      </trkpt>
      <trkpt lat="45.32541" lon="6.23122">
        <ele>1514</ele>
        <time>2020-02-07T15:20:39.464Z</time>
      </trkpt>
      <trkpt lat="45.32533" lon="6.23114">
        <ele>1514</ele>
        <time>2020-02-07T15:20:47.464Z</time>
      </trkpt>
      <trkpt lat="45.32526" lon="6.23104">
        <ele>1515</ele>
        <time>2020-02-07T15:20:58.464Z</time>
      </trkpt>
      <trkpt lat="45.32522" lon="6.23091">
        <ele>1517</ele>
        <time>2020-02-07T15:21:13.574Z</time>
      </trkpt>
      <trkpt lat="45.3252" lon="6.23078">
        <ele>1518</ele>
        <time>2020-02-07T15:21:25.464Z</time>
      </trkpt>
      <trkpt lat="45.32517" lon="6.23065">
        <ele>1519</ele>
        <time>2020-02-07T15:21:44.464Z</time>
      </trkpt>
      <trkpt lat="45.3251" lon="6.23055">
        <ele>1521</ele>
        <time>2020-02-07T15:22:00.474Z</time>
      </trkpt>
      <trkpt lat="45.32508" lon="6.23041">
        <ele>1522.4356656014</ele>
        <time>2020-02-07T15:22:17.474Z</time>
      </trkpt>
      <trkpt lat="45.32499" lon="6.23033">
        <ele>1525</ele>
        <time>2020-02-07T15:22:32.474Z</time>
      </trkpt>
      <trkpt lat="45.32491" lon="6.23026">
        <ele>1526</ele>
        <time>2020-02-07T15:22:44.474Z</time>
      </trkpt>
      <trkpt lat="45.32487" lon="6.23013">
        <ele>1526</ele>
        <time>2020-02-07T15:22:49.474Z</time>
      </trkpt>
      <trkpt lat="45.32477" lon="6.23013">
        <ele>1527</ele>
        <time>2020-02-07T15:22:57.474Z</time>
      </trkpt>
      <trkpt lat="45.32479" lon="6.23">
        <ele>1528</ele>
        <time>2020-02-07T15:23:17.464Z</time>
      </trkpt>
      <trkpt lat="45.32478" lon="6.23017">
        <ele>1528</ele>
        <time>2020-02-07T15:23:40.474Z</time>
      </trkpt>
      <trkpt lat="45.32475" lon="6.23032">
        <ele>1529</ele>
        <time>2020-02-07T15:24:05.474Z</time>
      </trkpt>
      <trkpt lat="45.32474" lon="6.23047">
        <ele>1530</ele>
        <time>2020-02-07T15:24:16.474Z</time>
      </trkpt>
      <trkpt lat="45.32463" lon="6.23043">
        <ele>1532</ele>
        <time>2020-02-07T15:24:36.474Z</time>
      </trkpt>
      <trkpt lat="45.32465" lon="6.23031">
        <ele>1533</ele>
        <time>2020-02-07T15:24:46.460Z</time>
      </trkpt>
      <trkpt lat="45.32463" lon="6.23017">
        <ele>1533.4970149111</ele>
        <time>2020-02-07T15:24:57.464Z</time>
      </trkpt>
      <trkpt lat="45.32459" lon="6.23005">
        <ele>1535</ele>
        <time>2020-02-07T15:25:10.474Z</time>
      </trkpt>
      <trkpt lat="45.32456" lon="6.2299">
        <ele>1536</ele>
        <time>2020-02-07T15:25:20.460Z</time>
      </trkpt>
      <trkpt lat="45.32456" lon="6.22976">
        <ele>1537</ele>
        <time>2020-02-07T15:25:33.470Z</time>
      </trkpt>
      <trkpt lat="45.32449" lon="6.22963">
        <ele>1537</ele>
        <time>2020-02-07T15:25:45.474Z</time>
      </trkpt>
      <trkpt lat="45.32453" lon="6.2295">
        <ele>1539.5150328181</ele>
        <time>2020-02-07T15:26:04.475Z</time>
      </trkpt>
      <trkpt lat="45.32451" lon="6.22936">
        <ele>1541</ele>
        <time>2020-02-07T15:26:18.474Z</time>
      </trkpt>
      <trkpt lat="45.32451" lon="6.22922">
        <ele>1541.6700032</ele>
        <time>2020-02-07T15:26:28.460Z</time>
      </trkpt>
      <trkpt lat="45.32449" lon="6.22909">
        <ele>1544</ele>
        <time>2020-02-07T15:26:41.460Z</time>
      </trkpt>
      <trkpt lat="45.32446" lon="6.22895">
        <ele>1546</ele>
        <time>2020-02-07T15:26:51.459Z</time>
      </trkpt>
      <trkpt lat="45.32445" lon="6.22882">
        <ele>1546.4999952239</ele>
        <time>2020-02-07T15:27:01.460Z</time>
      </trkpt>
      <trkpt lat="45.3245" lon="6.2287">
        <ele>1548</ele>
        <time>2020-02-07T15:27:14.470Z</time>
      </trkpt>
      <trkpt lat="45.3245" lon="6.22855">
        <ele>1550</ele>
        <time>2020-02-07T15:27:31.474Z</time>
      </trkpt>
      <trkpt lat="45.32444" lon="6.22844">
        <ele>1551</ele>
        <time>2020-02-07T15:27:39.460Z</time>
      </trkpt>
      <trkpt lat="45.32443" lon="6.22828">
        <ele>1551.6699904</ele>
        <time>2020-02-07T15:27:49.460Z</time>
      </trkpt>
      <trkpt lat="45.32437" lon="6.22817">
        <ele>1554</ele>
        <time>2020-02-07T15:28:09.460Z</time>
      </trkpt>
      <trkpt lat="45.32439" lon="6.22803">
        <ele>1554</ele>
        <time>2020-02-07T15:28:23.474Z</time>
      </trkpt>
      <trkpt lat="45.32439" lon="6.22789">
        <ele>1554</ele>
        <time>2020-02-07T15:28:30.460Z</time>
      </trkpt>
      <trkpt lat="45.32442" lon="6.22777">
        <ele>1555</ele>
        <time>2020-02-07T15:28:41.460Z</time>
      </trkpt>
      <trkpt lat="45.32446" lon="6.22763">
        <ele>1557</ele>
        <time>2020-02-07T15:28:55.474Z</time>
      </trkpt>
      <trkpt lat="45.32444" lon="6.2275">
        <ele>1558</ele>
        <time>2020-02-07T15:29:03.460Z</time>
      </trkpt>
      <trkpt lat="45.32446" lon="6.22737">
        <ele>1559</ele>
        <time>2020-02-07T15:29:12.464Z</time>
      </trkpt>
      <trkpt lat="45.32453" lon="6.22728">
        <ele>1561</ele>
        <time>2020-02-07T15:29:31.460Z</time>
      </trkpt>
      <trkpt lat="45.32444" lon="6.22732">
        <ele>1563</ele>
        <time>2020-02-07T15:29:48.474Z</time>
      </trkpt>
      <trkpt lat="45.32437" lon="6.22742">
        <ele>1564</ele>
        <time>2020-02-07T15:30:03.575Z</time>
      </trkpt>
      <trkpt lat="45.32437" lon="6.22755">
        <ele>1565</ele>
        <time>2020-02-07T15:30:11.474Z</time>
      </trkpt>
      <trkpt lat="45.32427" lon="6.22756">
        <ele>1566</ele>
        <time>2020-02-07T15:30:23.574Z</time>
      </trkpt>
      <trkpt lat="45.32417" lon="6.2276">
        <ele>1568</ele>
        <time>2020-02-07T15:30:34.474Z</time>
      </trkpt>
      <trkpt lat="45.32413" lon="6.22772">
        <ele>1568</ele>
        <time>2020-02-07T15:30:45.474Z</time>
      </trkpt>
      <trkpt lat="45.3241" lon="6.22784">
        <ele>1570</ele>
        <time>2020-02-07T15:30:59.474Z</time>
      </trkpt>
      <trkpt lat="45.32406" lon="6.22797">
        <ele>1572</ele>
        <time>2020-02-07T15:31:17.474Z</time>
      </trkpt>
      <trkpt lat="45.32409" lon="6.2281">
        <ele>1573</ele>
        <time>2020-02-07T15:31:29.474Z</time>
      </trkpt>
      <trkpt lat="45.32406" lon="6.22822">
        <ele>1575</ele>
        <time>2020-02-07T15:31:42.474Z</time>
      </trkpt>
      <trkpt lat="45.32409" lon="6.22834">
        <ele>1575</ele>
        <time>2020-02-07T15:31:51.461Z</time>
      </trkpt>
      <trkpt lat="45.32403" lon="6.22845">
        <ele>1576</ele>
        <time>2020-02-07T15:32:05.474Z</time>
      </trkpt>
      <trkpt lat="45.32396" lon="6.22856">
        <ele>1576</ele>
        <time>2020-02-07T15:32:16.463Z</time>
      </trkpt>
      <trkpt lat="45.32397" lon="6.22869">
        <ele>1577</ele>
        <time>2020-02-07T15:32:29.463Z</time>
      </trkpt>
      <trkpt lat="45.32399" lon="6.22882">
        <ele>1579</ele>
        <time>2020-02-07T15:32:39.463Z</time>
      </trkpt>
      <trkpt lat="45.32398" lon="6.22896">
        <ele>1581</ele>
        <time>2020-02-07T15:32:53.463Z</time>
      </trkpt>
      <trkpt lat="45.32398" lon="6.22909">
        <ele>1582</ele>
        <time>2020-02-07T15:33:07.463Z</time>
      </trkpt>
      <trkpt lat="45.32395" lon="6.22921">
        <ele>1585</ele>
        <time>2020-02-07T15:33:20.461Z</time>
      </trkpt>
      <trkpt lat="45.32394" lon="6.22934">
        <ele>1586</ele>
        <time>2020-02-07T15:33:31.461Z</time>
      </trkpt>
      <trkpt lat="45.32389" lon="6.22945">
        <ele>1586.6839936</ele>
        <time>2020-02-07T15:33:59.474Z</time>
      </trkpt>
      <trkpt lat="45.32387" lon="6.22957">
        <ele>1588</ele>
        <time>2020-02-07T15:34:08.461Z</time>
      </trkpt>
      <trkpt lat="45.32385" lon="6.22971">
        <ele>1589.6638252676</ele>
        <time>2020-02-07T15:34:19.474Z</time>
      </trkpt>
      <trkpt lat="45.32375" lon="6.22966">
        <ele>1590</ele>
        <time>2020-02-07T15:34:23.474Z</time>
      </trkpt>
      <trkpt lat="45.32374" lon="6.22951">
        <ele>1590</ele>
        <time>2020-02-07T15:34:29.462Z</time>
      </trkpt>
      <trkpt lat="45.32376" lon="6.22938">
        <ele>1590</ele>
        <time>2020-02-07T15:34:40.460Z</time>
      </trkpt>
      <trkpt lat="45.32378" lon="6.22924">
        <ele>1592</ele>
        <time>2020-02-07T15:34:54.460Z</time>
      </trkpt>
      <trkpt lat="45.32376" lon="6.22911">
        <ele>1594</ele>
        <time>2020-02-07T15:35:06.474Z</time>
      </trkpt>
      <trkpt lat="45.32375" lon="6.22897">
        <ele>1596</ele>
        <time>2020-02-07T15:35:26.474Z</time>
      </trkpt>
      <trkpt lat="45.3237" lon="6.22887">
        <ele>1596</ele>
        <time>2020-02-07T15:35:29.460Z</time>
      </trkpt>
      <trkpt lat="45.3237" lon="6.22874">
        <ele>1598</ele>
        <time>2020-02-07T15:35:42.460Z</time>
      </trkpt>
      <trkpt lat="45.32366" lon="6.2286">
        <ele>1598</ele>
        <time>2020-02-07T15:35:52.460Z</time>
      </trkpt>
      <trkpt lat="45.32366" lon="6.22847">
        <ele>1600</ele>
        <time>2020-02-07T15:36:07.461Z</time>
      </trkpt>
      <trkpt lat="45.32362" lon="6.22834">
        <ele>1601</ele>
        <time>2020-02-07T15:36:22.460Z</time>
      </trkpt>
      <trkpt lat="45.32358" lon="6.22819">
        <ele>1603</ele>
        <time>2020-02-07T15:36:44.575Z</time>
      </trkpt>
      <trkpt lat="45.3236" lon="6.22805">
        <ele>1604</ele>
        <time>2020-02-07T15:36:58.578Z</time>
      </trkpt>
      <trkpt lat="45.32356" lon="6.22794">
        <ele>1607</ele>
        <time>2020-02-07T15:37:13.474Z</time>
      </trkpt>
      <trkpt lat="45.32354" lon="6.22781">
        <ele>1608</ele>
        <time>2020-02-07T15:37:26.474Z</time>
      </trkpt>
      <trkpt lat="45.32354" lon="6.22765">
        <ele>1610</ele>
        <time>2020-02-07T15:37:42.474Z</time>
      </trkpt>
      <trkpt lat="45.32349" lon="6.22753">
        <ele>1611</ele>
        <time>2020-02-07T15:38:03.474Z</time>
      </trkpt>
      <trkpt lat="45.32349" lon="6.2274">
        <ele>1614</ele>
        <time>2020-02-07T15:38:39.476Z</time>
      </trkpt>
      <trkpt lat="45.32352" lon="6.22727">
        <ele>1615</ele>
        <time>2020-02-07T15:38:55.461Z</time>
      </trkpt>
      <trkpt lat="45.32347" lon="6.22715">
        <ele>1618</ele>
        <time>2020-02-07T15:39:14.474Z</time>
      </trkpt>
      <trkpt lat="45.32349" lon="6.22703">
        <ele>1619.3303035788</ele>
        <time>2020-02-07T15:39:23.463Z</time>
      </trkpt>
      <trkpt lat="45.32347" lon="6.22687">
        <ele>1620</ele>
        <time>2020-02-07T15:39:37.471Z</time>
      </trkpt>
      <trkpt lat="45.32353" lon="6.22678">
        <ele>1619</ele>
        <time>2020-02-07T15:39:53.461Z</time>
      </trkpt>
      <trkpt lat="45.32356" lon="6.22665">
        <ele>1619</ele>
        <time>2020-02-07T15:40:08.461Z</time>
      </trkpt>
      <trkpt lat="45.32359" lon="6.22652">
        <ele>1621</ele>
        <time>2020-02-07T15:40:21.473Z</time>
      </trkpt>
      <trkpt lat="45.32367" lon="6.22644">
        <ele>1623</ele>
        <time>2020-02-07T15:40:34.463Z</time>
      </trkpt>
      <trkpt lat="45.32373" lon="6.22634">
        <ele>1625</ele>
        <time>2020-02-07T15:40:47.463Z</time>
      </trkpt>
      <trkpt lat="45.32382" lon="6.22628">
        <ele>1626</ele>
        <time>2020-02-07T15:41:00.474Z</time>
      </trkpt>
      <trkpt lat="45.3239" lon="6.22623">
        <ele>1627</ele>
        <time>2020-02-07T15:41:15.474Z</time>
      </trkpt>
      <trkpt lat="45.324" lon="6.2262">
        <ele>1628</ele>
        <time>2020-02-07T15:41:24.464Z</time>
      </trkpt>
      <trkpt lat="45.32404" lon="6.22607">
        <ele>1630</ele>
        <time>2020-02-07T15:41:43.474Z</time>
      </trkpt>
      <trkpt lat="45.32401" lon="6.22595">
        <ele>1631</ele>
        <time>2020-02-07T15:41:51.474Z</time>
      </trkpt>
      <trkpt lat="45.3241" lon="6.22588">
        <ele>1632</ele>
        <time>2020-02-07T15:41:58.463Z</time>
      </trkpt>
      <trkpt lat="45.32413" lon="6.22577">
        <ele>1633</ele>
        <time>2020-02-07T15:42:09.462Z</time>
      </trkpt>
      <trkpt lat="45.32423" lon="6.22574">
        <ele>1635</ele>
        <time>2020-02-07T15:42:22.474Z</time>
      </trkpt>
      <trkpt lat="45.3243" lon="6.22567">
        <ele>1636</ele>
        <time>2020-02-07T15:42:37.463Z</time>
      </trkpt>
      <trkpt lat="45.32435" lon="6.22555">
        <ele>1638</ele>
        <time>2020-02-07T15:42:52.463Z</time>
      </trkpt>
      <trkpt lat="45.32443" lon="6.22547">
        <ele>1639.5060150521</ele>
        <time>2020-02-07T15:43:03.463Z</time>
      </trkpt>
      <trkpt lat="45.32448" lon="6.22536">
        <ele>1641</ele>
        <time>2020-02-07T15:43:21.463Z</time>
      </trkpt>
      <trkpt lat="45.32456" lon="6.22528">
        <ele>1643</ele>
        <time>2020-02-07T15:43:33.474Z</time>
      </trkpt>
      <trkpt lat="45.32465" lon="6.22533">
        <ele>1643</ele>
        <time>2020-02-07T15:43:41.463Z</time>
      </trkpt>
      <trkpt lat="45.32476" lon="6.22529">
        <ele>1645</ele>
        <time>2020-02-07T15:43:52.463Z</time>
      </trkpt>
      <trkpt lat="45.32484" lon="6.22522">
        <ele>1646</ele>
        <time>2020-02-07T15:44:03.462Z</time>
      </trkpt>
      <trkpt lat="45.32474" lon="6.22528">
        <ele>1648</ele>
        <time>2020-02-07T15:44:19.474Z</time>
      </trkpt>
      <trkpt lat="45.32465" lon="6.22524">
        <ele>1649</ele>
        <time>2020-02-07T15:44:27.474Z</time>
      </trkpt>
      <trkpt lat="45.32456" lon="6.22518">
        <ele>1649</ele>
        <time>2020-02-07T15:44:35.474Z</time>
      </trkpt>
      <trkpt lat="45.32446" lon="6.22519">
        <ele>1649</ele>
        <time>2020-02-07T15:44:43.474Z</time>
      </trkpt>
      <trkpt lat="45.32438" lon="6.22528">
        <ele>1652</ele>
        <time>2020-02-07T15:44:59.472Z</time>
      </trkpt>
      <trkpt lat="45.32428" lon="6.22521">
        <ele>1652.5089552666</ele>
        <time>2020-02-07T15:45:06.472Z</time>
      </trkpt>
      <trkpt lat="45.32418" lon="6.22521">
        <ele>1654</ele>
        <time>2020-02-07T15:45:30.462Z</time>
      </trkpt>
      <trkpt lat="45.32409" lon="6.22524">
        <ele>1655</ele>
        <time>2020-02-07T15:45:45.474Z</time>
      </trkpt>
      <trkpt lat="45.32401" lon="6.2253">
        <ele>1658</ele>
        <time>2020-02-07T15:45:58.463Z</time>
      </trkpt>
      <trkpt lat="45.32391" lon="6.22532">
        <ele>1659</ele>
        <time>2020-02-07T15:46:10.462Z</time>
      </trkpt>
      <trkpt lat="45.32387" lon="6.22521">
        <ele>1659</ele>
        <time>2020-02-07T15:46:17.462Z</time>
      </trkpt>
      <trkpt lat="45.32388" lon="6.22507">
        <ele>1661</ele>
        <time>2020-02-07T15:46:28.463Z</time>
      </trkpt>
      <trkpt lat="45.32394" lon="6.22496">
        <ele>1661</ele>
        <time>2020-02-07T15:46:40.462Z</time>
      </trkpt>
      <trkpt lat="45.32401" lon="6.22487">
        <ele>1663</ele>
        <time>2020-02-07T15:46:52.473Z</time>
      </trkpt>
      <trkpt lat="45.32398" lon="6.22474">
        <ele>1663</ele>
        <time>2020-02-07T15:47:01.463Z</time>
      </trkpt>
      <trkpt lat="45.32407" lon="6.22469">
        <ele>1664</ele>
        <time>2020-02-07T15:47:11.462Z</time>
      </trkpt>
      <trkpt lat="45.32411" lon="6.22457">
        <ele>1666</ele>
        <time>2020-02-07T15:47:24.462Z</time>
      </trkpt>
      <trkpt lat="45.3242" lon="6.22449">
        <ele>1667</ele>
        <time>2020-02-07T15:47:35.575Z</time>
      </trkpt>
      <trkpt lat="45.3243" lon="6.2245">
        <ele>1668</ele>
        <time>2020-02-07T15:47:44.474Z</time>
      </trkpt>
      <trkpt lat="45.32439" lon="6.22445">
        <ele>1668</ele>
        <time>2020-02-07T15:47:52.463Z</time>
      </trkpt>
      <trkpt lat="45.32448" lon="6.22445">
        <ele>1669</ele>
        <time>2020-02-07T15:48:03.474Z</time>
      </trkpt>
      <trkpt lat="45.32458" lon="6.22445">
        <ele>1670</ele>
        <time>2020-02-07T15:48:16.474Z</time>
      </trkpt>
      <trkpt lat="45.32446" lon="6.22454">
        <ele>1671</ele>
        <time>2020-02-07T15:48:52.473Z</time>
      </trkpt>
      <trkpt lat="45.32457" lon="6.22454">
        <ele>1671</ele>
        <time>2020-02-07T15:49:14.464Z</time>
      </trkpt>
      <trkpt lat="45.32467" lon="6.22445">
        <ele>1672</ele>
        <time>2020-02-07T15:50:01.464Z</time>
      </trkpt>
      <trkpt lat="45.32477" lon="6.2244">
        <ele>1672</ele>
        <time>2020-02-07T15:50:05.463Z</time>
      </trkpt>
      <trkpt lat="45.32468" lon="6.22443">
        <ele>1672</ele>
        <time>2020-02-07T15:50:10.463Z</time>
      </trkpt>
      <trkpt lat="45.32475" lon="6.22436">
        <ele>1672</ele>
        <time>2020-02-07T15:50:14.474Z</time>
      </trkpt>
      <trkpt lat="45.32469" lon="6.22451">
        <ele>1671.3160064</ele>
        <time>2020-02-07T15:50:17.474Z</time>
      </trkpt>
      <trkpt lat="45.3246" lon="6.2245">
        <ele>1671</ele>
        <time>2020-02-07T15:50:23.463Z</time>
      </trkpt>
      <trkpt lat="45.32452" lon="6.22459">
        <ele>1673</ele>
        <time>2020-02-07T15:51:39.474Z</time>
      </trkpt>
      <trkpt lat="45.32461" lon="6.22447">
        <ele>1673</ele>
        <time>2020-02-07T15:52:55.474Z</time>
      </trkpt>
      <trkpt lat="45.32448" lon="6.22449">
        <ele>1672</ele>
        <time>2020-02-07T15:53:19.474Z</time>
      </trkpt>
      <trkpt lat="45.32442" lon="6.2244">
        <ele>1674</ele>
        <time>2020-02-07T15:55:53.464Z</time>
      </trkpt>
      <trkpt lat="45.32432" lon="6.22439">
        <ele>1675.5014949325</ele>
        <time>2020-02-07T15:56:07.462Z</time>
      </trkpt>
      <trkpt lat="45.32424" lon="6.22443">
        <ele>1677</ele>
        <time>2020-02-07T15:56:20.463Z</time>
      </trkpt>
      <trkpt lat="45.32415" lon="6.22438">
        <ele>1678</ele>
        <time>2020-02-07T15:56:31.463Z</time>
      </trkpt>
      <trkpt lat="45.3242" lon="6.22426">
        <ele>1678</ele>
        <time>2020-02-07T15:56:44.473Z</time>
      </trkpt>
      <trkpt lat="45.32426" lon="6.22414">
        <ele>1681</ele>
        <time>2020-02-07T15:57:01.474Z</time>
      </trkpt>
      <trkpt lat="45.32434" lon="6.22406">
        <ele>1682.5014949325</ele>
        <time>2020-02-07T15:57:11.462Z</time>
      </trkpt>
      <trkpt lat="45.3244" lon="6.22396">
        <ele>1683</ele>
        <time>2020-02-07T15:57:24.463Z</time>
      </trkpt>
      <trkpt lat="45.32432" lon="6.22388">
        <ele>1687</ele>
        <time>2020-02-07T15:57:42.473Z</time>
      </trkpt>
      <trkpt lat="45.32424" lon="6.22392">
        <ele>1689</ele>
        <time>2020-02-07T15:57:54.463Z</time>
      </trkpt>
      <trkpt lat="45.32415" lon="6.22396">
        <ele>1689</ele>
        <time>2020-02-07T15:58:05.463Z</time>
      </trkpt>
      <trkpt lat="45.3242" lon="6.22383">
        <ele>1693</ele>
        <time>2020-02-07T15:58:24.474Z</time>
      </trkpt>
      <trkpt lat="45.32428" lon="6.22375">
        <ele>1693</ele>
        <time>2020-02-07T15:58:36.463Z</time>
      </trkpt>
      <trkpt lat="45.32437" lon="6.22368">
        <ele>1693.5260912312</ele>
        <time>2020-02-07T15:58:48.463Z</time>
      </trkpt>
      <trkpt lat="45.32441" lon="6.22356">
        <ele>1696</ele>
        <time>2020-02-07T15:59:02.474Z</time>
      </trkpt>
      <trkpt lat="45.32445" lon="6.22344">
        <ele>1698</ele>
        <time>2020-02-07T15:59:11.463Z</time>
      </trkpt>
      <trkpt lat="45.32453" lon="6.22337">
        <ele>1698</ele>
        <time>2020-02-07T15:59:19.474Z</time>
      </trkpt>
      <trkpt lat="45.32463" lon="6.22332">
        <ele>1698</ele>
        <time>2020-02-07T15:59:24.463Z</time>
      </trkpt>
      <trkpt lat="45.32472" lon="6.22325">
        <ele>1699.5302289122</ele>
        <time>2020-02-07T15:59:36.474Z</time>
      </trkpt>
      <trkpt lat="45.32482" lon="6.22325">
        <ele>1700</ele>
        <time>2020-02-07T15:59:47.474Z</time>
      </trkpt>
      <trkpt lat="45.32487" lon="6.22313">
        <ele>1702.672</ele>
        <time>2020-02-07T16:00:01.462Z</time>
      </trkpt>
      <trkpt lat="45.32481" lon="6.22303">
        <ele>1706</ele>
        <time>2020-02-07T16:00:47.462Z</time>
      </trkpt>
      <trkpt lat="45.32473" lon="6.22296">
        <ele>1707</ele>
        <time>2020-02-07T16:00:57.474Z</time>
      </trkpt>
      <trkpt lat="45.32469" lon="6.22285">
        <ele>1708</ele>
        <time>2020-02-07T16:01:08.463Z</time>
      </trkpt>
      <trkpt lat="45.32472" lon="6.22273">
        <ele>1709</ele>
        <time>2020-02-07T16:01:19.463Z</time>
      </trkpt>
      <trkpt lat="45.32475" lon="6.2226">
        <ele>1713</ele>
        <time>2020-02-07T16:01:37.473Z</time>
      </trkpt>
      <trkpt lat="45.32482" lon="6.2225">
        <ele>1715</ele>
        <time>2020-02-07T16:01:48.463Z</time>
      </trkpt>
      <trkpt lat="45.32489" lon="6.22242">
        <ele>1714</ele>
        <time>2020-02-07T16:02:41.474Z</time>
      </trkpt>
      <trkpt lat="45.3248" lon="6.22239">
        <ele>1715</ele>
        <time>2020-02-07T16:03:00.464Z</time>
      </trkpt>
      <trkpt lat="45.32489" lon="6.22242">
        <ele>1714</ele>
        <time>2020-02-07T16:04:00.474Z</time>
      </trkpt>
      <trkpt lat="45.32488" lon="6.22228">
        <ele>1716</ele>
        <time>2020-02-07T16:04:34.464Z</time>
      </trkpt>
      <trkpt lat="45.32489" lon="6.22216">
        <ele>1718</ele>
        <time>2020-02-07T16:04:45.474Z</time>
      </trkpt>
      <trkpt lat="45.32488" lon="6.22202">
        <ele>1722</ele>
        <time>2020-02-07T16:05:02.464Z</time>
      </trkpt>
      <trkpt lat="45.32492" lon="6.2219">
        <ele>1722.6739968</ele>
        <time>2020-02-07T16:05:36.464Z</time>
      </trkpt>
      <trkpt lat="45.32492" lon="6.22177">
        <ele>1725.5275381676</ele>
        <time>2020-02-07T16:05:46.464Z</time>
      </trkpt>
      <trkpt lat="45.32497" lon="6.22165">
        <ele>1728</ele>
        <time>2020-02-07T16:05:58.464Z</time>
      </trkpt>
      <trkpt lat="45.32499" lon="6.22152">
        <ele>1731</ele>
        <time>2020-02-07T16:06:15.474Z</time>
      </trkpt>
      <trkpt lat="45.32502" lon="6.22139">
        <ele>1735</ele>
        <time>2020-02-07T16:06:33.464Z</time>
      </trkpt>
      <trkpt lat="45.32504" lon="6.22125">
        <ele>1736.5067657306</ele>
        <time>2020-02-07T16:06:46.464Z</time>
      </trkpt>
      <trkpt lat="45.32506" lon="6.22112">
        <ele>1739</ele>
        <time>2020-02-07T16:07:02.463Z</time>
      </trkpt>
      <trkpt lat="45.32506" lon="6.22099">
        <ele>1741</ele>
        <time>2020-02-07T16:07:12.464Z</time>
      </trkpt>
      <trkpt lat="45.32507" lon="6.22086">
        <ele>1743</ele>
        <time>2020-02-07T16:07:22.463Z</time>
      </trkpt>
      <trkpt lat="45.32512" lon="6.22074">
        <ele>1743.6839936</ele>
        <time>2020-02-07T16:09:18.474Z</time>
      </trkpt>
      <trkpt lat="45.32503" lon="6.22072">
        <ele>1742</ele>
        <time>2020-02-07T16:10:44.463Z</time>
      </trkpt>
      <trkpt lat="45.32512" lon="6.22073">
        <ele>1742</ele>
        <time>2020-02-07T16:10:58.473Z</time>
      </trkpt>
      <trkpt lat="45.3251" lon="6.22059">
        <ele>1742</ele>
        <time>2020-02-07T16:12:02.463Z</time>
      </trkpt>
      <trkpt lat="45.32513" lon="6.22046">
        <ele>1742</ele>
        <time>2020-02-07T16:12:06.465Z</time>
      </trkpt>
      <trkpt lat="45.32515" lon="6.22031">
        <ele>1743</ele>
        <time>2020-02-07T16:12:10.465Z</time>
      </trkpt>
      <trkpt lat="45.32515" lon="6.22017">
        <ele>1742</ele>
        <time>2020-02-07T16:12:16.465Z</time>
      </trkpt>
      <trkpt lat="45.32516" lon="6.22004">
        <ele>1743</ele>
        <time>2020-02-07T16:12:24.460Z</time>
      </trkpt>
      <trkpt lat="45.32518" lon="6.21991">
        <ele>1744</ele>
        <time>2020-02-07T16:12:33.473Z</time>
      </trkpt>
      <trkpt lat="45.32523" lon="6.2198">
        <ele>1743</ele>
        <time>2020-02-07T16:12:41.463Z</time>
      </trkpt>
      <trkpt lat="45.32528" lon="6.21967">
        <ele>1744</ele>
        <time>2020-02-07T16:12:50.463Z</time>
      </trkpt>
      <trkpt lat="45.32532" lon="6.21956">
        <ele>1743</ele>
        <time>2020-02-07T16:12:58.473Z</time>
      </trkpt>
      <trkpt lat="45.32536" lon="6.21943">
        <ele>1743</ele>
        <time>2020-02-07T16:13:07.460Z</time>
      </trkpt>
      <trkpt lat="45.32538" lon="6.21929">
        <ele>1744</ele>
        <time>2020-02-07T16:13:16.463Z</time>
      </trkpt>
      <trkpt lat="45.32537" lon="6.21916">
        <ele>1744</ele>
        <time>2020-02-07T16:13:25.463Z</time>
      </trkpt>
      <trkpt lat="45.32535" lon="6.21902">
        <ele>1744</ele>
        <time>2020-02-07T16:13:35.460Z</time>
      </trkpt>
      <trkpt lat="45.32532" lon="6.2189">
        <ele>1745</ele>
        <time>2020-02-07T16:13:45.474Z</time>
      </trkpt>
      <trkpt lat="45.32532" lon="6.21876">
        <ele>1746</ele>
        <time>2020-02-07T16:13:55.463Z</time>
      </trkpt>
      <trkpt lat="45.32532" lon="6.21862">
        <ele>1746</ele>
        <time>2020-02-07T16:14:05.460Z</time>
      </trkpt>
      <trkpt lat="45.32531" lon="6.21849">
        <ele>1747</ele>
        <time>2020-02-07T16:14:17.463Z</time>
      </trkpt>
      <trkpt lat="45.32533" lon="6.21834">
        <ele>1749</ele>
        <time>2020-02-07T16:14:33.475Z</time>
      </trkpt>
      <trkpt lat="45.32532" lon="6.2182">
        <ele>1750</ele>
        <time>2020-02-07T16:14:50.465Z</time>
      </trkpt>
      <trkpt lat="45.32533" lon="6.21808">
        <ele>1751</ele>
        <time>2020-02-07T16:15:02.460Z</time>
      </trkpt>
      <trkpt lat="45.32535" lon="6.21795">
        <ele>1752</ele>
        <time>2020-02-07T16:15:14.460Z</time>
      </trkpt>
      <trkpt lat="45.32539" lon="6.21782">
        <ele>1754</ele>
        <time>2020-02-07T16:15:26.460Z</time>
      </trkpt>
      <trkpt lat="45.3254" lon="6.21769">
        <ele>1755.6729984</ele>
        <time>2020-02-07T16:15:37.463Z</time>
      </trkpt>
      <trkpt lat="45.32546" lon="6.21759">
        <ele>1757</ele>
        <time>2020-02-07T16:15:54.463Z</time>
      </trkpt>
      <trkpt lat="45.32553" lon="6.21752">
        <ele>1759.5022400107</ele>
        <time>2020-02-07T16:16:06.463Z</time>
      </trkpt>
      <trkpt lat="45.3256" lon="6.21743">
        <ele>1762</ele>
        <time>2020-02-07T16:16:18.472Z</time>
      </trkpt>
      <trkpt lat="45.32564" lon="6.21731">
        <ele>1764</ele>
        <time>2020-02-07T16:16:30.462Z</time>
      </trkpt>
      <trkpt lat="45.32568" lon="6.21719">
        <ele>1765</ele>
        <time>2020-02-07T16:16:42.460Z</time>
      </trkpt>
      <trkpt lat="45.32571" lon="6.21706">
        <ele>1767</ele>
        <time>2020-02-07T16:16:54.460Z</time>
      </trkpt>
      <trkpt lat="45.32566" lon="6.21694">
        <ele>1770</ele>
        <time>2020-02-07T16:17:40.462Z</time>
      </trkpt>
      <trkpt lat="45.32568" lon="6.21681">
        <ele>1771</ele>
        <time>2020-02-07T16:18:00.462Z</time>
      </trkpt>
      <trkpt lat="45.3257" lon="6.21668">
        <ele>1772</ele>
        <time>2020-02-07T16:18:10.462Z</time>
      </trkpt>
      <trkpt lat="45.32569" lon="6.21654">
        <ele>1773</ele>
        <time>2020-02-07T16:18:21.462Z</time>
      </trkpt>
      <trkpt lat="45.32571" lon="6.21641">
        <ele>1773</ele>
        <time>2020-02-07T16:18:31.462Z</time>
      </trkpt>
      <trkpt lat="45.3257" lon="6.21628">
        <ele>1773</ele>
        <time>2020-02-07T16:18:43.463Z</time>
      </trkpt>
      <trkpt lat="45.3257" lon="6.21614">
        <ele>1773</ele>
        <time>2020-02-07T16:18:52.472Z</time>
      </trkpt>
      <trkpt lat="45.32569" lon="6.21601">
        <ele>1773</ele>
        <time>2020-02-07T16:19:00.461Z</time>
      </trkpt>
      <trkpt lat="45.3257" lon="6.21588">
        <ele>1774</ele>
        <time>2020-02-07T16:19:11.461Z</time>
      </trkpt>
      <trkpt lat="45.32571" lon="6.21574">
        <ele>1776</ele>
        <time>2020-02-07T16:19:24.461Z</time>
      </trkpt>
      <trkpt lat="45.32572" lon="6.21561">
        <ele>1777</ele>
        <time>2020-02-07T16:19:35.462Z</time>
      </trkpt>
      <trkpt lat="45.32572" lon="6.21547">
        <ele>1777</ele>
        <time>2020-02-07T16:19:48.462Z</time>
      </trkpt>
      <trkpt lat="45.32573" lon="6.21533">
        <ele>1778</ele>
        <time>2020-02-07T16:20:00.462Z</time>
      </trkpt>
      <trkpt lat="45.32575" lon="6.2152">
        <ele>1778.6870016</ele>
        <time>2020-02-07T16:20:12.477Z</time>
      </trkpt>
      <trkpt lat="45.3258" lon="6.21508">
        <ele>1780</ele>
        <time>2020-02-07T16:20:23.461Z</time>
      </trkpt>
      <trkpt lat="45.32585" lon="6.21497">
        <ele>1781</ele>
        <time>2020-02-07T16:20:36.462Z</time>
      </trkpt>
      <trkpt lat="45.32586" lon="6.21484">
        <ele>1782</ele>
        <time>2020-02-07T16:20:47.472Z</time>
      </trkpt>
      <trkpt lat="45.32591" lon="6.2147">
        <ele>1784</ele>
        <time>2020-02-07T16:21:00.462Z</time>
      </trkpt>
      <trkpt lat="45.32593" lon="6.21458">
        <ele>1785.6710016</ele>
        <time>2020-02-07T16:21:15.461Z</time>
      </trkpt>
      <trkpt lat="45.32597" lon="6.21445">
        <ele>1788</ele>
        <time>2020-02-07T16:21:29.462Z</time>
      </trkpt>
      <trkpt lat="45.32602" lon="6.21434">
        <ele>1789.6752464958</ele>
        <time>2020-02-07T16:21:42.472Z</time>
      </trkpt>
      <trkpt lat="45.32607" lon="6.21423">
        <ele>1791</ele>
        <time>2020-02-07T16:21:54.462Z</time>
      </trkpt>
      <trkpt lat="45.32614" lon="6.21415">
        <ele>1793</ele>
        <time>2020-02-07T16:22:04.462Z</time>
      </trkpt>
      <trkpt lat="45.32622" lon="6.21406">
        <ele>1795</ele>
        <time>2020-02-07T16:22:14.462Z</time>
      </trkpt>
      <trkpt lat="45.32628" lon="6.21396">
        <ele>1795</ele>
        <time>2020-02-07T16:22:26.462Z</time>
      </trkpt>
      <trkpt lat="45.3263" lon="6.21381">
        <ele>1798</ele>
        <time>2020-02-07T16:22:38.462Z</time>
      </trkpt>
      <trkpt lat="45.32634" lon="6.21369">
        <ele>1798</ele>
        <time>2020-02-07T16:22:49.462Z</time>
      </trkpt>
      <trkpt lat="45.32635" lon="6.21356">
        <ele>1800</ele>
        <time>2020-02-07T16:23:00.461Z</time>
      </trkpt>
      <trkpt lat="45.32631" lon="6.21344">
        <ele>1803</ele>
        <time>2020-02-07T16:23:11.461Z</time>
      </trkpt>
      <trkpt lat="45.32628" lon="6.21332">
        <ele>1805</ele>
        <time>2020-02-07T16:23:22.472Z</time>
      </trkpt>
      <trkpt lat="45.32634" lon="6.2132">
        <ele>1808</ele>
        <time>2020-02-07T16:23:34.461Z</time>
      </trkpt>
      <trkpt lat="45.32639" lon="6.21308">
        <ele>1810.5122137106</ele>
        <time>2020-02-07T16:23:48.461Z</time>
      </trkpt>
      <trkpt lat="45.32643" lon="6.21296">
        <ele>1813</ele>
        <time>2020-02-07T16:24:00.462Z</time>
      </trkpt>
      <trkpt lat="45.32641" lon="6.21283">
        <ele>1816</ele>
        <time>2020-02-07T16:24:12.474Z</time>
      </trkpt>
      <trkpt lat="45.32641" lon="6.2127">
        <ele>1820</ele>
        <time>2020-02-07T16:24:27.461Z</time>
      </trkpt>
      <trkpt lat="45.32645" lon="6.21258">
        <ele>1823</ele>
        <time>2020-02-07T16:24:42.461Z</time>
      </trkpt>
      <trkpt lat="45.32645" lon="6.21245">
        <ele>1824.6710016</ele>
        <time>2020-02-07T16:24:54.461Z</time>
      </trkpt>
      <trkpt lat="45.32646" lon="6.21231">
        <ele>1827</ele>
        <time>2020-02-07T16:25:06.462Z</time>
      </trkpt>
      <trkpt lat="45.32648" lon="6.21219">
        <ele>1828</ele>
        <time>2020-02-07T16:25:16.461Z</time>
      </trkpt>
      <trkpt lat="45.3265" lon="6.21206">
        <ele>1831</ele>
        <time>2020-02-07T16:25:29.461Z</time>
      </trkpt>
      <trkpt lat="45.32653" lon="6.21194">
        <ele>1833</ele>
        <time>2020-02-07T16:25:41.461Z</time>
      </trkpt>
      <trkpt lat="45.32655" lon="6.21181">
        <ele>1834</ele>
        <time>2020-02-07T16:25:53.477Z</time>
      </trkpt>
      <trkpt lat="45.32659" lon="6.21167">
        <ele>1835.6710016</ele>
        <time>2020-02-07T16:26:04.461Z</time>
      </trkpt>
      <trkpt lat="45.32662" lon="6.21154">
        <ele>1838</ele>
        <time>2020-02-07T16:26:16.462Z</time>
      </trkpt>
      <trkpt lat="45.32661" lon="6.21141">
        <ele>1840</ele>
        <time>2020-02-07T16:26:29.461Z</time>
      </trkpt>
      <trkpt lat="45.32659" lon="6.21128">
        <ele>1843</ele>
        <time>2020-02-07T16:26:40.462Z</time>
      </trkpt>
      <trkpt lat="45.32659" lon="6.21115">
        <ele>1844</ele>
        <time>2020-02-07T16:26:50.462Z</time>
      </trkpt>
      <trkpt lat="45.3266" lon="6.21102">
        <ele>1845</ele>
        <time>2020-02-07T16:26:58.477Z</time>
      </trkpt>
      <trkpt lat="45.32658" lon="6.21087">
        <ele>1847</ele>
        <time>2020-02-07T16:27:07.461Z</time>
      </trkpt>
      <trkpt lat="45.32655" lon="6.21075">
        <ele>1846</ele>
        <time>2020-02-07T16:27:13.476Z</time>
      </trkpt>
      <trkpt lat="45.32655" lon="6.21062">
        <ele>1846</ele>
        <time>2020-02-07T16:27:21.461Z</time>
      </trkpt>
      <trkpt lat="45.32658" lon="6.21049">
        <ele>1846</ele>
        <time>2020-02-07T16:27:30.461Z</time>
      </trkpt>
      <trkpt lat="45.32661" lon="6.21036">
        <ele>1847</ele>
        <time>2020-02-07T16:27:38.471Z</time>
      </trkpt>
      <trkpt lat="45.32662" lon="6.21023">
        <ele>1848</ele>
        <time>2020-02-07T16:27:47.461Z</time>
      </trkpt>
      <trkpt lat="45.32666" lon="6.21011">
        <ele>1848.5231973584</ele>
        <time>2020-02-07T16:27:56.461Z</time>
      </trkpt>
      <trkpt lat="45.32671" lon="6.20997">
        <ele>1849</ele>
        <time>2020-02-07T16:28:05.464Z</time>
      </trkpt>
      <trkpt lat="45.32673" lon="6.20984">
        <ele>1850</ele>
        <time>2020-02-07T16:28:14.464Z</time>
      </trkpt>
      <trkpt lat="45.32675" lon="6.2097">
        <ele>1849</ele>
        <time>2020-02-07T16:28:22.461Z</time>
      </trkpt>
      <trkpt lat="45.3268" lon="6.20958">
        <ele>1849</ele>
        <time>2020-02-07T16:28:30.460Z</time>
      </trkpt>
      <trkpt lat="45.32681" lon="6.20945">
        <ele>1850</ele>
        <time>2020-02-07T16:28:38.474Z</time>
      </trkpt>
      <trkpt lat="45.32684" lon="6.20932">
        <ele>1850</ele>
        <time>2020-02-07T16:28:45.461Z</time>
      </trkpt>
      <trkpt lat="45.32687" lon="6.20919">
        <ele>1851</ele>
        <time>2020-02-07T16:28:52.461Z</time>
      </trkpt>
      <trkpt lat="45.3269" lon="6.20906">
        <ele>1851.6710016</ele>
        <time>2020-02-07T16:29:00.461Z</time>
      </trkpt>
      <trkpt lat="45.32692" lon="6.20893">
        <ele>1852.5011232303</ele>
        <time>2020-02-07T16:29:07.461Z</time>
      </trkpt>
      <trkpt lat="45.32693" lon="6.2088">
        <ele>1854</ele>
        <time>2020-02-07T16:29:14.462Z</time>
      </trkpt>
      <trkpt lat="45.32693" lon="6.20866">
        <ele>1855</ele>
        <time>2020-02-07T16:29:21.462Z</time>
      </trkpt>
      <trkpt lat="45.32693" lon="6.20852">
        <ele>1856.5122137106</ele>
        <time>2020-02-07T16:29:30.461Z</time>
      </trkpt>
      <trkpt lat="45.32695" lon="6.20838">
        <ele>1859</ele>
        <time>2020-02-07T16:29:40.462Z</time>
      </trkpt>
      <trkpt lat="45.32696" lon="6.20825">
        <ele>1861</ele>
        <time>2020-02-07T16:29:50.462Z</time>
      </trkpt>
      <trkpt lat="45.32698" lon="6.2081">
        <ele>1863</ele>
        <time>2020-02-07T16:30:00.462Z</time>
      </trkpt>
      <trkpt lat="45.327" lon="6.20797">
        <ele>1864</ele>
        <time>2020-02-07T16:30:09.461Z</time>
      </trkpt>
      <trkpt lat="45.327" lon="6.20783">
        <ele>1865</ele>
        <time>2020-02-07T16:30:19.461Z</time>
      </trkpt>
      <trkpt lat="45.32701" lon="6.20769">
        <ele>1867.6710016</ele>
        <time>2020-02-07T16:30:31.461Z</time>
      </trkpt>
      <trkpt lat="45.32705" lon="6.20758">
        <ele>1869</ele>
        <time>2020-02-07T16:30:40.462Z</time>
      </trkpt>
      <trkpt lat="45.32708" lon="6.20745">
        <ele>1870</ele>
        <time>2020-02-07T16:30:49.461Z</time>
      </trkpt>
      <trkpt lat="45.32713" lon="6.20734">
        <ele>1872</ele>
        <time>2020-02-07T16:30:58.477Z</time>
      </trkpt>
      <trkpt lat="45.32716" lon="6.20721">
        <ele>1871</ele>
        <time>2020-02-07T16:31:08.472Z</time>
      </trkpt>
      <trkpt lat="45.32719" lon="6.20709">
        <ele>1872</ele>
        <time>2020-02-07T16:31:17.462Z</time>
      </trkpt>
      <trkpt lat="45.32723" lon="6.20696">
        <ele>1874</ele>
        <time>2020-02-07T16:31:26.462Z</time>
      </trkpt>
      <trkpt lat="45.32728" lon="6.20684">
        <ele>1875</ele>
        <time>2020-02-07T16:31:36.461Z</time>
      </trkpt>
      <trkpt lat="45.32734" lon="6.20672">
        <ele>1876</ele>
        <time>2020-02-07T16:31:45.461Z</time>
      </trkpt>
      <trkpt lat="45.32741" lon="6.2066">
        <ele>1875</ele>
        <time>2020-02-07T16:31:51.461Z</time>
      </trkpt>
      <trkpt lat="45.32745" lon="6.20646">
        <ele>1873.672</ele>
        <time>2020-02-07T16:31:55.462Z</time>
      </trkpt>
      <trkpt lat="45.3275" lon="6.20634">
        <ele>1873</ele>
        <time>2020-02-07T16:32:00.461Z</time>
      </trkpt>
      <trkpt lat="45.32751" lon="6.20621">
        <ele>1872</ele>
        <time>2020-02-07T16:32:08.474Z</time>
      </trkpt>
      <trkpt lat="45.32754" lon="6.20608">
        <ele>1875</ele>
        <time>2020-02-07T16:32:18.476Z</time>
      </trkpt>
      <trkpt lat="45.32756" lon="6.20595">
        <ele>1878</ele>
        <time>2020-02-07T16:32:29.463Z</time>
      </trkpt>
      <trkpt lat="45.32756" lon="6.20581">
        <ele>1881</ele>
        <time>2020-02-07T16:32:39.461Z</time>
      </trkpt>
      <trkpt lat="45.32756" lon="6.20568">
        <ele>1882</ele>
        <time>2020-02-07T16:32:48.476Z</time>
      </trkpt>
      <trkpt lat="45.32755" lon="6.20554">
        <ele>1884</ele>
        <time>2020-02-07T16:32:57.461Z</time>
      </trkpt>
      <trkpt lat="45.32757" lon="6.20541">
        <ele>1885</ele>
        <time>2020-02-07T16:33:06.463Z</time>
      </trkpt>
      <trkpt lat="45.32759" lon="6.20527">
        <ele>1886</ele>
        <time>2020-02-07T16:33:15.463Z</time>
      </trkpt>
      <trkpt lat="45.32763" lon="6.20514">
        <ele>1887.6809984</ele>
        <time>2020-02-07T16:33:23.471Z</time>
      </trkpt>
      <trkpt lat="45.32764" lon="6.205">
        <ele>1889</ele>
        <time>2020-02-07T16:33:32.463Z</time>
      </trkpt>
      <trkpt lat="45.32765" lon="6.20488">
        <ele>1891</ele>
        <time>2020-02-07T16:33:40.461Z</time>
      </trkpt>
      <trkpt lat="45.32769" lon="6.20476">
        <ele>1892</ele>
        <time>2020-02-07T16:33:48.473Z</time>
      </trkpt>
      <trkpt lat="45.32769" lon="6.20463">
        <ele>1894</ele>
        <time>2020-02-07T16:33:59.463Z</time>
      </trkpt>
      <trkpt lat="45.32767" lon="6.2045">
        <ele>1897.6514558401</ele>
        <time>2020-02-07T16:34:11.461Z</time>
      </trkpt>
      <trkpt lat="45.32764" lon="6.20437">
        <ele>1899.6848495035</ele>
        <time>2020-02-07T16:34:23.478Z</time>
      </trkpt>
      <trkpt lat="45.32763" lon="6.20423">
        <ele>1902</ele>
        <time>2020-02-07T16:34:33.473Z</time>
      </trkpt>
      <trkpt lat="45.32761" lon="6.2041">
        <ele>1902</ele>
        <time>2020-02-07T16:34:41.474Z</time>
      </trkpt>
      <trkpt lat="45.32759" lon="6.20397">
        <ele>1903</ele>
        <time>2020-02-07T16:34:48.474Z</time>
      </trkpt>
      <trkpt lat="45.32758" lon="6.20384">
        <ele>1904</ele>
        <time>2020-02-07T16:34:56.474Z</time>
      </trkpt>
      <trkpt lat="45.32756" lon="6.2037">
        <ele>1904</ele>
        <time>2020-02-07T16:35:05.474Z</time>
      </trkpt>
      <trkpt lat="45.32755" lon="6.20357">
        <ele>1906</ele>
        <time>2020-02-07T16:35:14.473Z</time>
      </trkpt>
      <trkpt lat="45.32755" lon="6.20343">
        <ele>1907</ele>
        <time>2020-02-07T16:35:23.461Z</time>
      </trkpt>
      <trkpt lat="45.32753" lon="6.2033">
        <ele>1908</ele>
        <time>2020-02-07T16:35:33.461Z</time>
      </trkpt>
      <trkpt lat="45.32752" lon="6.20315">
        <ele>1910</ele>
        <time>2020-02-07T16:35:42.461Z</time>
      </trkpt>
      <trkpt lat="45.32757" lon="6.20303">
        <ele>1912</ele>
        <time>2020-02-07T16:35:52.463Z</time>
      </trkpt>
      <trkpt lat="45.32761" lon="6.2029">
        <ele>1912</ele>
        <time>2020-02-07T16:36:00.460Z</time>
      </trkpt>
      <trkpt lat="45.32761" lon="6.20274">
        <ele>1913</ele>
        <time>2020-02-07T16:36:09.473Z</time>
      </trkpt>
      <trkpt lat="45.32762" lon="6.20261">
        <ele>1913</ele>
        <time>2020-02-07T16:36:14.475Z</time>
      </trkpt>
      <trkpt lat="45.32763" lon="6.20248">
        <ele>1911.3357104607</ele>
        <time>2020-02-07T16:36:20.461Z</time>
      </trkpt>
      <trkpt lat="45.32763" lon="6.20235">
        <ele>1911.6729984</ele>
        <time>2020-02-07T16:36:27.463Z</time>
      </trkpt>
      <trkpt lat="45.32767" lon="6.20223">
        <ele>1912.6729984</ele>
        <time>2020-02-07T16:36:35.463Z</time>
      </trkpt>
      <trkpt lat="45.32768" lon="6.2021">
        <ele>1913</ele>
        <time>2020-02-07T16:36:43.460Z</time>
      </trkpt>
      <trkpt lat="45.32766" lon="6.20197">
        <ele>1914</ele>
        <time>2020-02-07T16:36:50.461Z</time>
      </trkpt>
      <trkpt lat="45.32765" lon="6.20185">
        <ele>1914</ele>
        <time>2020-02-07T16:36:57.465Z</time>
      </trkpt>
      <trkpt lat="45.32764" lon="6.20171">
        <ele>1914.5084627276</ele>
        <time>2020-02-07T16:37:06.461Z</time>
      </trkpt>
      <trkpt lat="45.32766" lon="6.20158">
        <ele>1915</ele>
        <time>2020-02-07T16:37:13.465Z</time>
      </trkpt>
      <trkpt lat="45.32769" lon="6.20145">
        <ele>1915</ele>
        <time>2020-02-07T16:37:21.463Z</time>
      </trkpt>
      <trkpt lat="45.32772" lon="6.20132">
        <ele>1916</ele>
        <time>2020-02-07T16:37:28.463Z</time>
      </trkpt>
      <trkpt lat="45.32776" lon="6.2012">
        <ele>1917</ele>
        <time>2020-02-07T16:37:35.463Z</time>
      </trkpt>
      <trkpt lat="45.32778" lon="6.20104">
        <ele>1917</ele>
        <time>2020-02-07T16:37:41.460Z</time>
      </trkpt>
      <trkpt lat="45.3278" lon="6.20088">
        <ele>1917</ele>
        <time>2020-02-07T16:37:46.463Z</time>
      </trkpt>
      <trkpt lat="45.3278" lon="6.20074">
        <ele>1918</ele>
        <time>2020-02-07T16:37:51.460Z</time>
      </trkpt>
      <trkpt lat="45.32783" lon="6.20062">
        <ele>1920</ele>
        <time>2020-02-07T16:38:05.460Z</time>
      </trkpt>
      <trkpt lat="45.32785" lon="6.20049">
        <ele>1920</ele>
        <time>2020-02-07T16:38:17.463Z</time>
      </trkpt>
      <trkpt lat="45.32783" lon="6.20037">
        <ele>1922</ele>
        <time>2020-02-07T16:38:27.460Z</time>
      </trkpt>
      <trkpt lat="45.32785" lon="6.20023">
        <ele>1924</ele>
        <time>2020-02-07T16:38:41.460Z</time>
      </trkpt>
      <trkpt lat="45.32786" lon="6.2001">
        <ele>1927</ele>
        <time>2020-02-07T16:38:55.460Z</time>
      </trkpt>
      <trkpt lat="45.32788" lon="6.19998">
        <ele>1928</ele>
        <time>2020-02-07T16:39:05.460Z</time>
      </trkpt>
      <trkpt lat="45.3279" lon="6.19985">
        <ele>1928</ele>
        <time>2020-02-07T16:39:18.465Z</time>
      </trkpt>
      <trkpt lat="45.32795" lon="6.19973">
        <ele>1930</ele>
        <time>2020-02-07T16:39:31.463Z</time>
      </trkpt>
      <trkpt lat="45.32801" lon="6.19962">
        <ele>1931</ele>
        <time>2020-02-07T16:39:43.460Z</time>
      </trkpt>
      <trkpt lat="45.32804" lon="6.19949">
        <ele>1933</ele>
        <time>2020-02-07T16:39:54.473Z</time>
      </trkpt>
      <trkpt lat="45.32805" lon="6.19935">
        <ele>1933.5060150521</ele>
        <time>2020-02-07T16:40:07.463Z</time>
      </trkpt>
      <trkpt lat="45.32807" lon="6.19922">
        <ele>1935</ele>
        <time>2020-02-07T16:40:17.460Z</time>
      </trkpt>
      <trkpt lat="45.32808" lon="6.1991">
        <ele>1936</ele>
        <time>2020-02-07T16:40:28.464Z</time>
      </trkpt>
      <trkpt lat="45.3281" lon="6.19896">
        <ele>1936</ele>
        <time>2020-02-07T16:40:37.460Z</time>
      </trkpt>
      <trkpt lat="45.32812" lon="6.19884">
        <ele>1938</ele>
        <time>2020-02-07T16:40:46.464Z</time>
      </trkpt>
      <trkpt lat="45.32816" lon="6.19871">
        <ele>1938</ele>
        <time>2020-02-07T16:40:57.460Z</time>
      </trkpt>
      <trkpt lat="45.32816" lon="6.19858">
        <ele>1938</ele>
        <time>2020-02-07T16:41:06.460Z</time>
      </trkpt>
      <trkpt lat="45.32815" lon="6.19844">
        <ele>1938</ele>
        <time>2020-02-07T16:41:16.460Z</time>
      </trkpt>
      <trkpt lat="45.32814" lon="6.19831">
        <ele>1940</ele>
        <time>2020-02-07T16:41:29.474Z</time>
      </trkpt>
      <trkpt lat="45.32814" lon="6.19818">
        <ele>1943</ele>
        <time>2020-02-07T16:41:47.464Z</time>
      </trkpt>
      <trkpt lat="45.32811" lon="6.19805">
        <ele>1945</ele>
        <time>2020-02-07T16:42:00.465Z</time>
      </trkpt>
      <trkpt lat="45.32813" lon="6.19792">
        <ele>1947</ele>
        <time>2020-02-07T16:42:14.474Z</time>
      </trkpt>
      <trkpt lat="45.32822" lon="6.198">
        <ele>1948.5638653745</ele>
        <time>2020-02-07T16:43:05.461Z</time>
      </trkpt>
      <trkpt lat="45.3281" lon="6.19785">
        <ele>1949</ele>
        <time>2020-02-07T16:43:14.474Z</time>
      </trkpt>
      <trkpt lat="45.32817" lon="6.19795">
        <ele>1949</ele>
        <time>2020-02-07T16:43:18.461Z</time>
      </trkpt>
      <trkpt lat="45.32822" lon="6.19784">
        <ele>1949</ele>
        <time>2020-02-07T16:43:40.460Z</time>
      </trkpt>
      <trkpt lat="45.32822" lon="6.1977">
        <ele>1949.6700032</ele>
        <time>2020-02-07T16:43:50.460Z</time>
      </trkpt>
      <trkpt lat="45.32816" lon="6.1976">
        <ele>1951</ele>
        <time>2020-02-07T16:43:59.462Z</time>
      </trkpt>
      <trkpt lat="45.32815" lon="6.19747">
        <ele>1953</ele>
        <time>2020-02-07T16:44:09.465Z</time>
      </trkpt>
      <trkpt lat="45.32816" lon="6.19734">
        <ele>1953</ele>
        <time>2020-02-07T16:44:17.465Z</time>
      </trkpt>
      <trkpt lat="45.32815" lon="6.19721">
        <ele>1953</ele>
        <time>2020-02-07T16:44:25.465Z</time>
      </trkpt>
      <trkpt lat="45.32817" lon="6.19708">
        <ele>1956</ele>
        <time>2020-02-07T16:44:39.465Z</time>
      </trkpt>
      <trkpt lat="45.32819" lon="6.19695">
        <ele>1958</ele>
        <time>2020-02-07T16:44:52.461Z</time>
      </trkpt>
      <trkpt lat="45.32818" lon="6.19682">
        <ele>1960</ele>
        <time>2020-02-07T16:45:03.462Z</time>
      </trkpt>
      <trkpt lat="45.32814" lon="6.19671">
        <ele>1963</ele>
        <time>2020-02-07T16:45:12.474Z</time>
      </trkpt>
      <trkpt lat="45.32809" lon="6.1966">
        <ele>1965</ele>
        <time>2020-02-07T16:45:24.474Z</time>
      </trkpt>
      <trkpt lat="45.32804" lon="6.1965">
        <ele>1966</ele>
        <time>2020-02-07T16:45:34.474Z</time>
      </trkpt>
      <trkpt lat="45.32798" lon="6.19639">
        <ele>1968</ele>
        <time>2020-02-07T16:45:45.474Z</time>
      </trkpt>
      <trkpt lat="45.32793" lon="6.19628">
        <ele>1969.5420175862</ele>
        <time>2020-02-07T16:45:59.474Z</time>
      </trkpt>
      <trkpt lat="45.32802" lon="6.19623">
        <ele>1973</ele>
        <time>2020-02-07T16:46:15.460Z</time>
      </trkpt>
      <trkpt lat="45.32797" lon="6.19612">
        <ele>1974</ele>
        <time>2020-02-07T16:46:35.461Z</time>
      </trkpt>
      <trkpt lat="45.32804" lon="6.19603">
        <ele>1979</ele>
        <time>2020-02-07T16:47:02.464Z</time>
      </trkpt>
      <trkpt lat="45.32813" lon="6.19595">
        <ele>1981</ele>
        <time>2020-02-07T16:47:16.460Z</time>
      </trkpt>
      <trkpt lat="45.3282" lon="6.19587">
        <ele>1984</ele>
        <time>2020-02-07T16:47:29.464Z</time>
      </trkpt>
      <trkpt lat="45.32828" lon="6.19582">
        <ele>1985</ele>
        <time>2020-02-07T16:47:42.460Z</time>
      </trkpt>
      <trkpt lat="45.32837" lon="6.19585">
        <ele>1989</ele>
        <time>2020-02-07T16:48:21.464Z</time>
      </trkpt>
      <trkpt lat="45.32842" lon="6.19573">
        <ele>1993</ele>
        <time>2020-02-07T16:48:44.469Z</time>
      </trkpt>
      <trkpt lat="45.32851" lon="6.19571">
        <ele>1996</ele>
        <time>2020-02-07T16:49:04.460Z</time>
      </trkpt>
      <trkpt lat="45.3286" lon="6.19571">
        <ele>1997</ele>
        <time>2020-02-07T16:49:17.460Z</time>
      </trkpt>
      <trkpt lat="45.3287" lon="6.19576">
        <ele>1999.6739968</ele>
        <time>2020-02-07T16:49:32.464Z</time>
      </trkpt>
      <trkpt lat="45.32878" lon="6.19579">
        <ele>2001</ele>
        <time>2020-02-07T16:49:45.464Z</time>
      </trkpt>
      <trkpt lat="45.32889" lon="6.19582">
        <ele>2002</ele>
        <time>2020-02-07T16:49:56.460Z</time>
      </trkpt>
      <trkpt lat="45.32898" lon="6.19585">
        <ele>2002.4992378645</ele>
        <time>2020-02-07T16:50:13.464Z</time>
      </trkpt>
      <trkpt lat="45.32908" lon="6.19586">
        <ele>2004</ele>
        <time>2020-02-07T16:51:24.472Z</time>
      </trkpt>
      <trkpt lat="45.32911" lon="6.19599">
        <ele>2004</ele>
        <time>2020-02-07T16:51:31.460Z</time>
      </trkpt>
      <trkpt lat="45.32915" lon="6.19611">
        <ele>2003</ele>
        <time>2020-02-07T16:51:40.460Z</time>
      </trkpt>
      <trkpt lat="45.32906" lon="6.19615">
        <ele>2003</ele>
        <time>2020-02-07T16:58:17.461Z</time>
      </trkpt>
      <trkpt lat="45.32904" lon="6.19601">
        <ele>2005</ele>
        <time>2020-02-07T17:00:10.473Z</time>
      </trkpt>
      <trkpt lat="45.32897" lon="6.19592">
        <ele>2005</ele>
        <time>2020-02-07T17:00:22.463Z</time>
      </trkpt>
      <trkpt lat="45.32889" lon="6.19589">
        <ele>2004</ele>
        <time>2020-02-07T17:00:33.463Z</time>
      </trkpt>
      <trkpt lat="45.3288" lon="6.19591">
        <ele>2003</ele>
        <time>2020-02-07T17:02:18.463Z</time>
      </trkpt>
      <trkpt lat="45.32888" lon="6.19587">
        <ele>2004</ele>
        <time>2020-02-07T17:03:00.473Z</time>
      </trkpt>
      <trkpt lat="45.3288" lon="6.19591">
        <ele>2003</ele>
        <time>2020-02-07T17:03:19.463Z</time>
      </trkpt>
      <trkpt lat="45.32889" lon="6.19588">
        <ele>2005</ele>
        <time>2020-02-07T17:03:41.464Z</time>
      </trkpt>
      <trkpt lat="45.32898" lon="6.19584">
        <ele>2006</ele>
        <time>2020-02-07T17:04:07.461Z</time>
      </trkpt>
      <trkpt lat="45.32889" lon="6.19582">
        <ele>2007</ele>
        <time>2020-02-07T17:05:19.463Z</time>
      </trkpt>
      <trkpt lat="45.3288" lon="6.19576">
        <ele>2007</ele>
        <time>2020-02-07T17:05:24.463Z</time>
      </trkpt>
      <trkpt lat="45.32888" lon="6.19583">
        <ele>2007</ele>
        <time>2020-02-07T17:06:12.474Z</time>
      </trkpt>
      <trkpt lat="45.32897" lon="6.19584">
        <ele>2007.4084837013</ele>
        <time>2020-02-07T17:06:33.474Z</time>
      </trkpt>
      <trkpt lat="45.32905" lon="6.19588">
        <ele>2007</ele>
        <time>2020-02-07T17:07:48.474Z</time>
      </trkpt>
      <trkpt lat="45.32914" lon="6.19585">
        <ele>2008</ele>
        <time>2020-02-07T17:08:11.463Z</time>
      </trkpt>
      <trkpt lat="45.32923" lon="6.19578">
        <ele>2010</ele>
        <time>2020-02-07T17:08:25.463Z</time>
      </trkpt>
      <trkpt lat="45.32931" lon="6.19574">
        <ele>2011</ele>
        <time>2020-02-07T17:08:36.464Z</time>
      </trkpt>
      <trkpt lat="45.3294" lon="6.19574">
        <ele>2012</ele>
        <time>2020-02-07T17:08:53.471Z</time>
      </trkpt>
      <trkpt lat="45.32951" lon="6.19576">
        <ele>2014</ele>
        <time>2020-02-07T17:09:06.474Z</time>
      </trkpt>
      <trkpt lat="45.3296" lon="6.19579">
        <ele>2017</ele>
        <time>2020-02-07T17:09:19.474Z</time>
      </trkpt>
      <trkpt lat="45.32969" lon="6.19578">
        <ele>2019</ele>
        <time>2020-02-07T17:09:34.474Z</time>
      </trkpt>
      <trkpt lat="45.32978" lon="6.19579">
        <ele>2020.6729984</ele>
        <time>2020-02-07T17:09:47.463Z</time>
      </trkpt>
      <trkpt lat="45.32987" lon="6.19582">
        <ele>2024</ele>
        <time>2020-02-07T17:10:04.474Z</time>
      </trkpt>
      <trkpt lat="45.32996" lon="6.19586">
        <ele>2027</ele>
        <time>2020-02-07T17:10:29.473Z</time>
      </trkpt>
      <trkpt lat="45.32999" lon="6.19574">
        <ele>2033</ele>
        <time>2020-02-07T17:10:55.463Z</time>
      </trkpt>
      <trkpt lat="45.32999" lon="6.19561">
        <ele>2035</ele>
        <time>2020-02-07T17:11:11.464Z</time>
      </trkpt>
      <trkpt lat="45.33007" lon="6.19555">
        <ele>2037</ele>
        <time>2020-02-07T17:11:36.463Z</time>
      </trkpt>
      <trkpt lat="45.33005" lon="6.19541">
        <ele>2041</ele>
        <time>2020-02-07T17:12:03.464Z</time>
      </trkpt>
      <trkpt lat="45.33006" lon="6.19528">
        <ele>2044</ele>
        <time>2020-02-07T17:12:38.463Z</time>
      </trkpt>
      <trkpt lat="45.33008" lon="6.19516">
        <ele>2046</ele>
        <time>2020-02-07T17:12:57.463Z</time>
      </trkpt>
      <trkpt lat="45.33015" lon="6.19505">
        <ele>2049</ele>
        <time>2020-02-07T17:13:18.473Z</time>
      </trkpt>
      <trkpt lat="45.33021" lon="6.19494">
        <ele>2055</ele>
        <time>2020-02-07T17:13:42.463Z</time>
      </trkpt>
      <trkpt lat="45.3303" lon="6.19492">
        <ele>2058</ele>
        <time>2020-02-07T17:14:02.463Z</time>
      </trkpt>
      <trkpt lat="45.33039" lon="6.19493">
        <ele>2059</ele>
        <time>2020-02-07T17:14:13.473Z</time>
      </trkpt>
      <trkpt lat="45.33048" lon="6.19489">
        <ele>2061</ele>
        <time>2020-02-07T17:14:27.461Z</time>
      </trkpt>
      <trkpt lat="45.33055" lon="6.19482">
        <ele>2063</ele>
        <time>2020-02-07T17:14:42.463Z</time>
      </trkpt>
      <trkpt lat="45.33063" lon="6.19475">
        <ele>2065</ele>
        <time>2020-02-07T17:14:55.463Z</time>
      </trkpt>
      <trkpt lat="45.3307" lon="6.19467">
        <ele>2067</ele>
        <time>2020-02-07T17:15:12.463Z</time>
      </trkpt>
      <trkpt lat="45.33078" lon="6.19459">
        <ele>2069</ele>
        <time>2020-02-07T17:15:27.461Z</time>
      </trkpt>
      <trkpt lat="45.33085" lon="6.19451">
        <ele>2070</ele>
        <time>2020-02-07T17:15:37.463Z</time>
      </trkpt>
      <trkpt lat="45.33093" lon="6.19444">
        <ele>2071.6809984</ele>
        <time>2020-02-07T17:15:48.471Z</time>
      </trkpt>
      <trkpt lat="45.33101" lon="6.19436">
        <ele>2073</ele>
        <time>2020-02-07T17:16:04.461Z</time>
      </trkpt>
      <trkpt lat="45.33108" lon="6.19428">
        <ele>2078</ele>
        <time>2020-02-07T17:16:24.463Z</time>
      </trkpt>
      <trkpt lat="45.33113" lon="6.19418">
        <ele>2079.6729984</ele>
        <time>2020-02-07T17:16:35.463Z</time>
      </trkpt>
      <trkpt lat="45.33123" lon="6.19412">
        <ele>2080.5082101885</ele>
        <time>2020-02-07T17:16:48.471Z</time>
      </trkpt>
      <trkpt lat="45.33128" lon="6.19401">
        <ele>2084</ele>
        <time>2020-02-07T17:17:11.474Z</time>
      </trkpt>
      <trkpt lat="45.33134" lon="6.19392">
        <ele>2088</ele>
        <time>2020-02-07T17:17:47.474Z</time>
      </trkpt>
      <trkpt lat="45.33144" lon="6.1939">
        <ele>2088</ele>
        <time>2020-02-07T17:18:39.463Z</time>
      </trkpt>
      <trkpt lat="45.3315" lon="6.19379">
        <ele>2091</ele>
        <time>2020-02-07T17:20:26.473Z</time>
      </trkpt>
      <trkpt lat="45.33152" lon="6.19366">
        <ele>2094</ele>
        <time>2020-02-07T17:20:45.464Z</time>
      </trkpt>
      <trkpt lat="45.33144" lon="6.19359">
        <ele>2097</ele>
        <time>2020-02-07T17:21:00.464Z</time>
      </trkpt>
      <trkpt lat="45.3314" lon="6.19347">
        <ele>2098</ele>
        <time>2020-02-07T17:21:13.464Z</time>
      </trkpt>
      <trkpt lat="45.33141" lon="6.19333">
        <ele>2100.5260824398</ele>
        <time>2020-02-07T17:21:27.463Z</time>
      </trkpt>
      <trkpt lat="45.33143" lon="6.1932">
        <ele>2104</ele>
        <time>2020-02-07T17:21:51.472Z</time>
      </trkpt>
      <trkpt lat="45.33149" lon="6.19311">
        <ele>2105.4078786092</ele>
        <time>2020-02-07T17:22:04.463Z</time>
      </trkpt>
      <trkpt lat="45.33152" lon="6.19298">
        <ele>2108</ele>
        <time>2020-02-07T17:22:23.463Z</time>
      </trkpt>
      <trkpt lat="45.33158" lon="6.19288">
        <ele>2110</ele>
        <time>2020-02-07T17:22:38.462Z</time>
      </trkpt>
      <trkpt lat="45.33164" lon="6.19279">
        <ele>2112</ele>
        <time>2020-02-07T17:22:51.472Z</time>
      </trkpt>
      <trkpt lat="45.33172" lon="6.1927">
        <ele>2113</ele>
        <time>2020-02-07T17:23:02.462Z</time>
      </trkpt>
      <trkpt lat="45.33172" lon="6.19256">
        <ele>2116</ele>
        <time>2020-02-07T17:23:36.474Z</time>
      </trkpt>
      <trkpt lat="45.33176" lon="6.19244">
        <ele>2117</ele>
        <time>2020-02-07T17:23:55.462Z</time>
      </trkpt>
      <trkpt lat="45.33181" lon="6.19233">
        <ele>2118.6829952</ele>
        <time>2020-02-07T17:24:12.473Z</time>
      </trkpt>
      <trkpt lat="45.33184" lon="6.19221">
        <ele>2120</ele>
        <time>2020-02-07T17:24:26.462Z</time>
      </trkpt>
      <trkpt lat="45.33187" lon="6.19208">
        <ele>2124</ele>
        <time>2020-02-07T17:24:42.472Z</time>
      </trkpt>
      <trkpt lat="45.33186" lon="6.19195">
        <ele>2126</ele>
        <time>2020-02-07T17:24:57.475Z</time>
      </trkpt>
      <trkpt lat="45.33181" lon="6.19184">
        <ele>2128</ele>
        <time>2020-02-07T17:25:10.462Z</time>
      </trkpt>
      <trkpt lat="45.33187" lon="6.19174">
        <ele>2130.672</ele>
        <time>2020-02-07T17:25:26.462Z</time>
      </trkpt>
      <trkpt lat="45.33191" lon="6.19162">
        <ele>2132</ele>
        <time>2020-02-07T17:25:41.574Z</time>
      </trkpt>
      <trkpt lat="45.33191" lon="6.19149">
        <ele>2133</ele>
        <time>2020-02-07T17:25:55.472Z</time>
      </trkpt>
      <trkpt lat="45.33194" lon="6.19135">
        <ele>2135.5145051445</ele>
        <time>2020-02-07T17:26:11.464Z</time>
      </trkpt>
      <trkpt lat="45.33194" lon="6.19122">
        <ele>2138</ele>
        <time>2020-02-07T17:26:25.474Z</time>
      </trkpt>
      <trkpt lat="45.33188" lon="6.1911">
        <ele>2139</ele>
        <time>2020-02-07T17:26:38.460Z</time>
      </trkpt>
      <trkpt lat="45.33189" lon="6.19097">
        <ele>2143.347070413</ele>
        <time>2020-02-07T17:26:56.477Z</time>
      </trkpt>
      <trkpt lat="45.332" lon="6.19091">
        <ele>2145</ele>
        <time>2020-02-07T17:28:03.472Z</time>
      </trkpt>
      <trkpt lat="45.33191" lon="6.19085">
        <ele>2144</ele>
        <time>2020-02-07T17:28:50.474Z</time>
      </trkpt>
      <trkpt lat="45.33199" lon="6.19089">
        <ele>2145</ele>
        <time>2020-02-07T17:29:03.476Z</time>
      </trkpt>
      <trkpt lat="45.33208" lon="6.19095">
        <ele>2147.510445423</ele>
        <time>2020-02-07T17:29:55.474Z</time>
      </trkpt>
      <trkpt lat="45.33216" lon="6.19098">
        <ele>2150</ele>
        <time>2020-02-07T17:30:10.462Z</time>
      </trkpt>
      <trkpt lat="45.33225" lon="6.19098">
        <ele>2152.672</ele>
        <time>2020-02-07T17:30:31.462Z</time>
      </trkpt>
      <trkpt lat="45.33225" lon="6.19084">
        <ele>2156</ele>
        <time>2020-02-07T17:31:00.461Z</time>
      </trkpt>
      <trkpt lat="45.3322" lon="6.19072">
        <ele>2158</ele>
        <time>2020-02-07T17:31:13.461Z</time>
      </trkpt>
      <trkpt lat="45.33222" lon="6.1906">
        <ele>2160</ele>
        <time>2020-02-07T17:31:28.574Z</time>
      </trkpt>
      <trkpt lat="45.33224" lon="6.19048">
        <ele>2162</ele>
        <time>2020-02-07T17:31:42.476Z</time>
      </trkpt>
      <trkpt lat="45.33221" lon="6.19034">
        <ele>2164</ele>
        <time>2020-02-07T17:31:59.462Z</time>
      </trkpt>
      <trkpt lat="45.33224" lon="6.19021">
        <ele>2166</ele>
        <time>2020-02-07T17:32:16.461Z</time>
      </trkpt>
      <trkpt lat="45.33222" lon="6.19007">
        <ele>2169</ele>
        <time>2020-02-07T17:32:32.476Z</time>
      </trkpt>
      <trkpt lat="45.3322" lon="6.18994">
        <ele>2172</ele>
        <time>2020-02-07T17:32:52.461Z</time>
      </trkpt>
      <trkpt lat="45.33213" lon="6.18984">
        <ele>2173</ele>
        <time>2020-02-07T17:33:36.462Z</time>
      </trkpt>
      <trkpt lat="45.33221" lon="6.18989">
        <ele>2176</ele>
        <time>2020-02-07T17:33:52.462Z</time>
      </trkpt>
      <trkpt lat="45.33231" lon="6.18995">
        <ele>2180</ele>
        <time>2020-02-07T17:34:10.474Z</time>
      </trkpt>
      <trkpt lat="45.33237" lon="6.19005">
        <ele>2181</ele>
        <time>2020-02-07T17:34:33.463Z</time>
      </trkpt>
      <trkpt lat="45.33228" lon="6.18993">
        <ele>2181</ele>
        <time>2020-02-07T17:34:58.474Z</time>
      </trkpt>
      <trkpt lat="45.33234" lon="6.19003">
        <ele>2181.5161788235</ele>
        <time>2020-02-07T17:35:04.461Z</time>
      </trkpt>
      <trkpt lat="45.33228" lon="6.18993">
        <ele>2181</ele>
        <time>2020-02-07T17:35:29.474Z</time>
      </trkpt>
      <trkpt lat="45.33223" lon="6.18981">
        <ele>2181</ele>
        <time>2020-02-07T17:35:31.474Z</time>
      </trkpt>
      <trkpt lat="45.33226" lon="6.18994">
        <ele>2181</ele>
        <time>2020-02-07T17:35:41.476Z</time>
      </trkpt>
      <trkpt lat="45.33233" lon="6.18986">
        <ele>2184</ele>
        <time>2020-02-07T17:36:10.462Z</time>
      </trkpt>
      <trkpt lat="45.33228" lon="6.18974">
        <ele>2186</ele>
        <time>2020-02-07T17:36:23.462Z</time>
      </trkpt>
      <trkpt lat="45.33237" lon="6.1897">
        <ele>2188</ele>
        <time>2020-02-07T17:36:42.477Z</time>
      </trkpt>
      <trkpt lat="45.33245" lon="6.18979">
        <ele>2188</ele>
        <time>2020-02-07T17:36:50.474Z</time>
      </trkpt>
      <trkpt lat="45.3325" lon="6.1899">
        <ele>2191</ele>
        <time>2020-02-07T17:37:12.462Z</time>
      </trkpt>
      <trkpt lat="45.33259" lon="6.18995">
        <ele>2193</ele>
        <time>2020-02-07T17:37:26.474Z</time>
      </trkpt>
      <trkpt lat="45.33268" lon="6.18999">
        <ele>2194</ele>
        <time>2020-02-07T17:37:32.461Z</time>
      </trkpt>
      <trkpt lat="45.33259" lon="6.18994">
        <ele>2198</ele>
        <time>2020-02-07T17:38:52.461Z</time>
      </trkpt>
      <trkpt lat="45.33249" lon="6.18994">
        <ele>2198</ele>
        <time>2020-02-07T17:39:00.461Z</time>
      </trkpt>
      <trkpt lat="45.33239" lon="6.18988">
        <ele>2198</ele>
        <time>2020-02-07T17:39:09.462Z</time>
      </trkpt>
      <trkpt lat="45.33249" lon="6.18997">
        <ele>2198</ele>
        <time>2020-02-07T17:39:25.461Z</time>
      </trkpt>
      <trkpt lat="45.33258" lon="6.19003">
        <ele>2198</ele>
        <time>2020-02-07T17:39:33.472Z</time>
      </trkpt>
      <trkpt lat="45.3325" lon="6.18994">
        <ele>2198</ele>
        <time>2020-02-07T17:39:48.477Z</time>
      </trkpt>
      <trkpt lat="45.33258" lon="6.18988">
        <ele>2198.672</ele>
        <time>2020-02-07T17:40:05.462Z</time>
      </trkpt>
      <trkpt lat="45.33263" lon="6.18976">
        <ele>2201</ele>
        <time>2020-02-07T17:40:22.462Z</time>
      </trkpt>
      <trkpt lat="45.33266" lon="6.18964">
        <ele>2204.3639936</ele>
        <time>2020-02-07T17:40:43.472Z</time>
      </trkpt>
      <trkpt lat="45.33259" lon="6.18955">
        <ele>2206</ele>
        <time>2020-02-07T17:40:53.476Z</time>
      </trkpt>
      <trkpt lat="45.3325" lon="6.18946">
        <ele>2207.328</ele>
        <time>2020-02-07T17:41:01.462Z</time>
      </trkpt>
      <trkpt lat="45.33263" lon="6.18945">
        <ele>2210</ele>
        <time>2020-02-07T17:41:13.476Z</time>
      </trkpt>
      <trkpt lat="45.33258" lon="6.18933">
        <ele>2210</ele>
        <time>2020-02-07T17:41:23.474Z</time>
      </trkpt>
      <trkpt lat="45.33248" lon="6.18928">
        <ele>2210</ele>
        <time>2020-02-07T17:41:27.461Z</time>
      </trkpt>
      <trkpt lat="45.33257" lon="6.18936">
        <ele>2210</ele>
        <time>2020-02-07T17:41:37.474Z</time>
      </trkpt>
      <trkpt lat="45.33267" lon="6.18941">
        <ele>2210</ele>
        <time>2020-02-07T17:41:42.461Z</time>
      </trkpt>
      <trkpt lat="45.33275" lon="6.18949">
        <ele>2211</ele>
        <time>2020-02-07T17:42:17.461Z</time>
      </trkpt>
      <trkpt lat="45.33283" lon="6.18957">
        <ele>2212</ele>
        <time>2020-02-07T17:42:26.474Z</time>
      </trkpt>
      <trkpt lat="45.3329" lon="6.18968">
        <ele>2216</ele>
        <time>2020-02-07T17:42:45.474Z</time>
      </trkpt>
      <trkpt lat="45.33299" lon="6.18971">
        <ele>2218</ele>
        <time>2020-02-07T17:43:11.461Z</time>
      </trkpt>
      <trkpt lat="45.33292" lon="6.18959">
        <ele>2219</ele>
        <time>2020-02-07T17:43:28.473Z</time>
      </trkpt>
      <trkpt lat="45.33286" lon="6.18947">
        <ele>2221</ele>
        <time>2020-02-07T17:43:40.462Z</time>
      </trkpt>
      <trkpt lat="45.33285" lon="6.18933">
        <ele>2223</ele>
        <time>2020-02-07T17:43:52.462Z</time>
      </trkpt>
      <trkpt lat="45.33293" lon="6.18924">
        <ele>2225</ele>
        <time>2020-02-07T17:44:05.463Z</time>
      </trkpt>
      <trkpt lat="45.33289" lon="6.18912">
        <ele>2227</ele>
        <time>2020-02-07T17:44:17.462Z</time>
      </trkpt>
      <trkpt lat="45.33287" lon="6.189">
        <ele>2228.684992</ele>
        <time>2020-02-07T17:44:28.475Z</time>
      </trkpt>
      <trkpt lat="45.33297" lon="6.18906">
        <ele>2231</ele>
        <time>2020-02-07T17:44:32.461Z</time>
      </trkpt>
      <trkpt lat="45.33309" lon="6.18913">
        <ele>2229</ele>
        <time>2020-02-07T17:44:57.462Z</time>
      </trkpt>
      <trkpt lat="45.33291" lon="6.18901">
        <ele>2231</ele>
        <time>2020-02-07T17:45:16.474Z</time>
      </trkpt>
      <trkpt lat="45.33283" lon="6.18908">
        <ele>2233</ele>
        <time>2020-02-07T17:45:50.474Z</time>
      </trkpt>
      <trkpt lat="45.33294" lon="6.18907">
        <ele>2233</ele>
        <time>2020-02-07T17:46:01.461Z</time>
      </trkpt>
      <trkpt lat="45.33313" lon="6.18922">
        <ele>2233</ele>
        <time>2020-02-07T17:46:06.474Z</time>
      </trkpt>
      <trkpt lat="45.33341" lon="6.18935">
        <ele>2234</ele>
        <time>2020-02-07T17:46:27.474Z</time>
      </trkpt>
      <trkpt lat="45.33359" lon="6.18943">
        <ele>2234</ele>
        <time>2020-02-07T17:46:28.474Z</time>
      </trkpt>
      <trkpt lat="45.33348" lon="6.18939">
        <ele>2234</ele>
        <time>2020-02-07T17:46:34.476Z</time>
      </trkpt>
      <trkpt lat="45.33339" lon="6.18936">
        <ele>2234</ele>
        <time>2020-02-07T17:46:38.461Z</time>
      </trkpt>
      <trkpt lat="45.33329" lon="6.18932">
        <ele>2234.6610048</ele>
        <time>2020-02-07T17:46:42.461Z</time>
      </trkpt>
      <trkpt lat="45.3332" lon="6.18928">
        <ele>2235</ele>
        <time>2020-02-07T17:46:47.474Z</time>
      </trkpt>
      <trkpt lat="45.33326" lon="6.18916">
        <ele>2244</ele>
        <time>2020-02-07T17:47:40.462Z</time>
      </trkpt>
      <trkpt lat="45.3332" lon="6.18904">
        <ele>2245</ele>
        <time>2020-02-07T17:47:51.472Z</time>
      </trkpt>
      <trkpt lat="45.33322" lon="6.1889">
        <ele>2247</ele>
        <time>2020-02-07T17:48:07.579Z</time>
      </trkpt>
      <trkpt lat="45.33315" lon="6.18881">
        <ele>2248</ele>
        <time>2020-02-07T17:48:13.474Z</time>
      </trkpt>
      <trkpt lat="45.33322" lon="6.18874">
        <ele>2251</ele>
        <time>2020-02-07T17:49:25.475Z</time>
      </trkpt>
      <trkpt lat="45.3333" lon="6.18883">
        <ele>2253</ele>
        <time>2020-02-07T17:49:38.460Z</time>
      </trkpt>
      <trkpt lat="45.33338" lon="6.18887">
        <ele>2255</ele>
        <time>2020-02-07T17:50:07.461Z</time>
      </trkpt>
      <trkpt lat="45.33349" lon="6.18892">
        <ele>2255</ele>
        <time>2020-02-07T17:50:25.475Z</time>
      </trkpt>
      <trkpt lat="45.33358" lon="6.18893">
        <ele>2255</ele>
        <time>2020-02-07T17:50:33.461Z</time>
      </trkpt>
      <trkpt lat="45.33365" lon="6.18902">
        <ele>2255.6480128</ele>
        <time>2020-02-07T17:50:55.476Z</time>
      </trkpt>
      <trkpt lat="45.33346" lon="6.18897">
        <ele>2255.8392543033</ele>
        <time>2020-02-07T17:51:04.474Z</time>
      </trkpt>
      <trkpt lat="45.33352" lon="6.18908">
        <ele>2260.684992</ele>
        <time>2020-02-07T17:51:28.475Z</time>
      </trkpt>
      <trkpt lat="45.33355" lon="6.1892">
        <ele>2262</ele>
        <time>2020-02-07T17:51:40.460Z</time>
      </trkpt>
      <trkpt lat="45.33362" lon="6.18929">
        <ele>2265</ele>
        <time>2020-02-07T17:51:51.460Z</time>
      </trkpt>
      <trkpt lat="45.33364" lon="6.18916">
        <ele>2267</ele>
        <time>2020-02-07T17:52:34.462Z</time>
      </trkpt>
      <trkpt lat="45.33365" lon="6.18902">
        <ele>2269</ele>
        <time>2020-02-07T17:52:51.463Z</time>
      </trkpt>
      <trkpt lat="45.33363" lon="6.18889">
        <ele>2271</ele>
        <time>2020-02-07T17:53:03.473Z</time>
      </trkpt>
      <trkpt lat="45.33361" lon="6.18876">
        <ele>2273</ele>
        <time>2020-02-07T17:53:14.463Z</time>
      </trkpt>
      <trkpt lat="45.33361" lon="6.18862">
        <ele>2275</ele>
        <time>2020-02-07T17:53:26.463Z</time>
      </trkpt>
      <trkpt lat="45.33358" lon="6.18849">
        <ele>2276.672</ele>
        <time>2020-02-07T17:53:37.462Z</time>
      </trkpt>
      <trkpt lat="45.33354" lon="6.18837">
        <ele>2278</ele>
        <time>2020-02-07T17:54:06.464Z</time>
      </trkpt>
      <trkpt lat="45.33359" lon="6.18826">
        <ele>2287</ele>
        <time>2020-02-07T17:55:41.463Z</time>
      </trkpt>
      <trkpt lat="45.33353" lon="6.18816">
        <ele>2290</ele>
        <time>2020-02-07T17:55:59.464Z</time>
      </trkpt>
      <trkpt lat="45.33346" lon="6.18808">
        <ele>2292</ele>
        <time>2020-02-07T17:56:11.464Z</time>
      </trkpt>
      <trkpt lat="45.3334" lon="6.18797">
        <ele>2293</ele>
        <time>2020-02-07T17:56:23.473Z</time>
      </trkpt>
      <trkpt lat="45.33334" lon="6.18787">
        <ele>2294</ele>
        <time>2020-02-07T17:56:34.464Z</time>
      </trkpt>
      <trkpt lat="45.33328" lon="6.18777">
        <ele>2294</ele>
        <time>2020-02-07T17:56:47.459Z</time>
      </trkpt>
      <trkpt lat="45.33336" lon="6.18782">
        <ele>2294</ele>
        <time>2020-02-07T17:58:07.460Z</time>
      </trkpt>
      <trkpt lat="45.33341" lon="6.18793">
        <ele>2294</ele>
        <time>2020-02-07T17:58:18.460Z</time>
      </trkpt>
      <trkpt lat="45.33348" lon="6.18785">
        <ele>2299</ele>
        <time>2020-02-07T17:59:43.461Z</time>
      </trkpt>
      <trkpt lat="45.33339" lon="6.18781">
        <ele>2299</ele>
        <time>2020-02-07T18:08:38.460Z</time>
      </trkpt>
      <trkpt lat="45.33329" lon="6.18779">
        <ele>2295.3299968</ele>
        <time>2020-02-07T18:08:46.460Z</time>
      </trkpt>
      <trkpt lat="45.33322" lon="6.18769">
        <ele>2293</ele>
        <time>2020-02-07T18:15:48.461Z</time>
      </trkpt>
      <trkpt lat="45.33314" lon="6.18763">
        <ele>2292.3140096</ele>
        <time>2020-02-07T18:16:11.476Z</time>
      </trkpt>
      <trkpt lat="45.33325" lon="6.18763">
        <ele>2291</ele>
        <time>2020-02-07T18:17:29.460Z</time>
      </trkpt>
      <trkpt lat="45.33327" lon="6.1875">
        <ele>2286</ele>
        <time>2020-02-07T18:17:48.464Z</time>
      </trkpt>
      <trkpt lat="45.3333" lon="6.18738">
        <ele>2281</ele>
        <time>2020-02-07T18:18:07.464Z</time>
      </trkpt>
      <trkpt lat="45.3334" lon="6.18732">
        <ele>2278</ele>
        <time>2020-02-07T18:29:37.460Z</time>
      </trkpt>
      <trkpt lat="45.33348" lon="6.18719">
        <ele>2276.315008</ele>
        <time>2020-02-07T18:29:40.475Z</time>
      </trkpt>
      <trkpt lat="45.33353" lon="6.18706">
        <ele>2275.328</ele>
        <time>2020-02-07T18:29:42.462Z</time>
      </trkpt>
      <trkpt lat="45.33356" lon="6.18693">
        <ele>2273.501501357</ele>
        <time>2020-02-07T18:29:44.463Z</time>
      </trkpt>
      <trkpt lat="45.33361" lon="6.18682">
        <ele>2269.656</ele>
        <time>2020-02-07T18:29:46.462Z</time>
      </trkpt>
      <trkpt lat="45.33364" lon="6.18666">
        <ele>2264.6600192</ele>
        <time>2020-02-07T18:29:49.460Z</time>
      </trkpt>
      <trkpt lat="45.33367" lon="6.18652">
        <ele>2259.656</ele>
        <time>2020-02-07T18:29:52.462Z</time>
      </trkpt>
      <trkpt lat="45.33367" lon="6.18639">
        <ele>2256.32</ele>
        <time>2020-02-07T18:29:55.470Z</time>
      </trkpt>
      <trkpt lat="45.33366" lon="6.18626">
        <ele>2250.9940202699</ele>
        <time>2020-02-07T18:29:58.462Z</time>
      </trkpt>
      <trkpt lat="45.33365" lon="6.18613">
        <ele>2242.9900288</ele>
        <time>2020-02-07T18:30:01.460Z</time>
      </trkpt>
      <trkpt lat="45.33373" lon="6.18603">
        <ele>2233.6599936</ele>
        <time>2020-02-07T18:30:24.460Z</time>
      </trkpt>
      <trkpt lat="45.3338" lon="6.18588">
        <ele>2225.3725701808</ele>
        <time>2020-02-07T18:30:27.460Z</time>
      </trkpt>
      <trkpt lat="45.33386" lon="6.18575">
        <ele>2218.9617694118</ele>
        <time>2020-02-07T18:30:29.463Z</time>
      </trkpt>
      <trkpt lat="45.33391" lon="6.1856">
        <ele>2211.9880596445</ele>
        <time>2020-02-07T18:30:31.464Z</time>
      </trkpt>
      <trkpt lat="45.334" lon="6.18547">
        <ele>2205.6435759004</ele>
        <time>2020-02-07T18:30:33.475Z</time>
      </trkpt>
      <trkpt lat="45.3341" lon="6.18535">
        <ele>2203.3300096</ele>
        <time>2020-02-07T18:30:35.460Z</time>
      </trkpt>
      <trkpt lat="45.33417" lon="6.18525">
        <ele>2201.3300096</ele>
        <time>2020-02-07T18:30:37.460Z</time>
      </trkpt>
      <trkpt lat="45.33424" lon="6.18513">
        <ele>2198</ele>
        <time>2020-02-07T18:30:40.461Z</time>
      </trkpt>
      <trkpt lat="45.33423" lon="6.185">
        <ele>2197</ele>
        <time>2020-02-07T18:31:51.462Z</time>
      </trkpt>
      <trkpt lat="45.33424" lon="6.18485">
        <ele>2196.3170048</ele>
        <time>2020-02-07T18:31:53.473Z</time>
      </trkpt>
      <trkpt lat="45.33427" lon="6.18469">
        <ele>2193.328</ele>
        <time>2020-02-07T18:31:56.462Z</time>
      </trkpt>
      <trkpt lat="45.33427" lon="6.18455">
        <ele>2192</ele>
        <time>2020-02-07T18:31:59.463Z</time>
      </trkpt>
      <trkpt lat="45.3342" lon="6.18441">
        <ele>2190</ele>
        <time>2020-02-07T18:32:02.463Z</time>
      </trkpt>
      <trkpt lat="45.33417" lon="6.18423">
        <ele>2186.328</ele>
        <time>2020-02-07T18:32:05.462Z</time>
      </trkpt>
      <trkpt lat="45.33414" lon="6.18407">
        <ele>2183.6500096</ele>
        <time>2020-02-07T18:32:07.465Z</time>
      </trkpt>
      <trkpt lat="45.33411" lon="6.18391">
        <ele>2180.328</ele>
        <time>2020-02-07T18:32:09.462Z</time>
      </trkpt>
      <trkpt lat="45.33411" lon="6.18375">
        <ele>2178.0121115152</ele>
        <time>2020-02-07T18:32:11.462Z</time>
      </trkpt>
      <trkpt lat="45.3342" lon="6.18362">
        <ele>2175.315008</ele>
        <time>2020-02-07T18:32:13.475Z</time>
      </trkpt>
      <trkpt lat="45.33428" lon="6.18351">
        <ele>2172.3270016</ele>
        <time>2020-02-07T18:32:15.463Z</time>
      </trkpt>
      <trkpt lat="45.33435" lon="6.18338">
        <ele>2171.3270016</ele>
        <time>2020-02-07T18:32:17.463Z</time>
      </trkpt>
      <trkpt lat="45.3344" lon="6.18325">
        <ele>2170</ele>
        <time>2020-02-07T18:32:19.463Z</time>
      </trkpt>
      <trkpt lat="45.33441" lon="6.18311">
        <ele>2168</ele>
        <time>2020-02-07T18:32:23.473Z</time>
      </trkpt>
      <trkpt lat="45.33441" lon="6.18298">
        <ele>2168</ele>
        <time>2020-02-07T18:32:31.465Z</time>
      </trkpt>
      <trkpt lat="45.33444" lon="6.18284">
        <ele>2168</ele>
        <time>2020-02-07T18:32:44.465Z</time>
      </trkpt>
      <trkpt lat="45.33448" lon="6.18271">
        <ele>2166</ele>
        <time>2020-02-07T18:32:48.473Z</time>
      </trkpt>
      <trkpt lat="45.33459" lon="6.18265">
        <ele>2162.4999952239</ele>
        <time>2020-02-07T18:32:52.460Z</time>
      </trkpt>
      <trkpt lat="45.3347" lon="6.1826">
        <ele>2159.3270016</ele>
        <time>2020-02-07T18:32:55.463Z</time>
      </trkpt>
      <trkpt lat="45.3348" lon="6.18248">
        <ele>2154.3180032</ele>
        <time>2020-02-07T18:32:58.472Z</time>
      </trkpt>
      <trkpt lat="45.33484" lon="6.18232">
        <ele>2148.9759397917</ele>
        <time>2020-02-07T18:33:00.463Z</time>
      </trkpt>
      <trkpt lat="45.33485" lon="6.18217">
        <ele>2142.6540032</ele>
        <time>2020-02-07T18:33:02.463Z</time>
      </trkpt>
      <trkpt lat="45.33483" lon="6.18202">
        <ele>2140.4977599893</ele>
        <time>2020-02-07T18:33:04.463Z</time>
      </trkpt>
      <trkpt lat="45.33485" lon="6.18184">
        <ele>2137.3270016</ele>
        <time>2020-02-07T18:33:07.463Z</time>
      </trkpt>
      <trkpt lat="45.33493" lon="6.18175">
        <ele>2134</ele>
        <time>2020-02-07T18:34:38.463Z</time>
      </trkpt>
      <trkpt lat="45.33499" lon="6.18157">
        <ele>2132.656</ele>
        <time>2020-02-07T18:34:41.462Z</time>
      </trkpt>
      <trkpt lat="45.33504" lon="6.18142">
        <ele>2129.5052993939</ele>
        <time>2020-02-07T18:34:43.463Z</time>
      </trkpt>
      <trkpt lat="45.3351" lon="6.18127">
        <ele>2125.656</ele>
        <time>2020-02-07T18:34:45.462Z</time>
      </trkpt>
      <trkpt lat="45.33515" lon="6.18112">
        <ele>2121.6540032</ele>
        <time>2020-02-07T18:34:47.463Z</time>
      </trkpt>
      <trkpt lat="45.33522" lon="6.18099">
        <ele>2115.9389952</ele>
        <time>2020-02-07T18:34:49.477Z</time>
      </trkpt>
      <trkpt lat="45.33528" lon="6.18085">
        <ele>2112.295148382</ele>
        <time>2020-02-07T18:34:51.463Z</time>
      </trkpt>
      <trkpt lat="45.33534" lon="6.1807">
        <ele>2106.6540032</ele>
        <time>2020-02-07T18:34:53.463Z</time>
      </trkpt>
      <trkpt lat="45.33538" lon="6.18051">
        <ele>2103.4710236337</ele>
        <time>2020-02-07T18:34:55.465Z</time>
      </trkpt>
      <trkpt lat="45.33538" lon="6.18033">
        <ele>2100.3270016</ele>
        <time>2020-02-07T18:34:57.463Z</time>
      </trkpt>
      <trkpt lat="45.33537" lon="6.18016">
        <ele>2097.4910447334</ele>
        <time>2020-02-07T18:34:59.472Z</time>
      </trkpt>
      <trkpt lat="45.33536" lon="6.18001">
        <ele>2092.656</ele>
        <time>2020-02-07T18:35:01.462Z</time>
      </trkpt>
      <trkpt lat="45.33531" lon="6.17988">
        <ele>2091.328</ele>
        <time>2020-02-07T18:35:03.462Z</time>
      </trkpt>
      <trkpt lat="45.33528" lon="6.17973">
        <ele>2089.3270016</ele>
        <time>2020-02-07T18:35:05.463Z</time>
      </trkpt>
      <trkpt lat="45.33526" lon="6.17958">
        <ele>2086.328</ele>
        <time>2020-02-07T18:35:07.462Z</time>
      </trkpt>
      <trkpt lat="45.33524" lon="6.17944">
        <ele>2085</ele>
        <time>2020-02-07T18:35:10.465Z</time>
      </trkpt>
      <trkpt lat="45.33522" lon="6.17929">
        <ele>2083</ele>
        <time>2020-02-07T18:35:14.472Z</time>
      </trkpt>
      <trkpt lat="45.33523" lon="6.17916">
        <ele>2081</ele>
        <time>2020-02-07T18:35:17.465Z</time>
      </trkpt>
      <trkpt lat="45.33523" lon="6.17901">
        <ele>2079</ele>
        <time>2020-02-07T18:35:21.462Z</time>
      </trkpt>
      <trkpt lat="45.33523" lon="6.17887">
        <ele>2079</ele>
        <time>2020-02-07T18:35:25.462Z</time>
      </trkpt>
      <trkpt lat="45.33522" lon="6.17872">
        <ele>2078</ele>
        <time>2020-02-07T18:35:30.462Z</time>
      </trkpt>
      <trkpt lat="45.33523" lon="6.17859">
        <ele>2076</ele>
        <time>2020-02-07T18:35:33.464Z</time>
      </trkpt>
      <trkpt lat="45.33521" lon="6.17843">
        <ele>2075</ele>
        <time>2020-02-07T18:36:16.464Z</time>
      </trkpt>
      <trkpt lat="45.33524" lon="6.17831">
        <ele>2074.3180032</ele>
        <time>2020-02-07T18:36:19.472Z</time>
      </trkpt>
      <trkpt lat="45.33526" lon="6.17816">
        <ele>2072.3346513573</ele>
        <time>2020-02-07T18:36:22.462Z</time>
      </trkpt>
      <trkpt lat="45.33528" lon="6.178">
        <ele>2071</ele>
        <time>2020-02-07T18:36:26.463Z</time>
      </trkpt>
      <trkpt lat="45.3353" lon="6.17787">
        <ele>2069.9587758811</ele>
        <time>2020-02-07T18:36:29.472Z</time>
      </trkpt>
      <trkpt lat="45.33533" lon="6.17773">
        <ele>2067.328</ele>
        <time>2020-02-07T18:36:32.462Z</time>
      </trkpt>
      <trkpt lat="45.33535" lon="6.17757">
        <ele>2066</ele>
        <time>2020-02-07T18:36:35.462Z</time>
      </trkpt>
      <trkpt lat="45.33536" lon="6.17738">
        <ele>2064.5022520355</ele>
        <time>2020-02-07T18:36:38.462Z</time>
      </trkpt>
      <trkpt lat="45.33538" lon="6.17725">
        <ele>2064</ele>
        <time>2020-02-07T18:36:40.460Z</time>
      </trkpt>
      <trkpt lat="45.33539" lon="6.17711">
        <ele>2063</ele>
        <time>2020-02-07T18:36:42.463Z</time>
      </trkpt>
      <trkpt lat="45.33541" lon="6.17697">
        <ele>2062</ele>
        <time>2020-02-07T18:36:44.475Z</time>
      </trkpt>
      <trkpt lat="45.33543" lon="6.17683">
        <ele>2060.328</ele>
        <time>2020-02-07T18:36:46.462Z</time>
      </trkpt>
      <trkpt lat="45.33545" lon="6.17669">
        <ele>2059</ele>
        <time>2020-02-07T18:36:48.463Z</time>
      </trkpt>
      <trkpt lat="45.33547" lon="6.17656">
        <ele>2058</ele>
        <time>2020-02-07T18:36:50.460Z</time>
      </trkpt>
      <trkpt lat="45.3355" lon="6.17643">
        <ele>2056.3260032</ele>
        <time>2020-02-07T18:36:52.464Z</time>
      </trkpt>
      <trkpt lat="45.33554" lon="6.1763">
        <ele>2055</ele>
        <time>2020-02-07T18:36:54.475Z</time>
      </trkpt>
      <trkpt lat="45.33559" lon="6.17617">
        <ele>2053.3270016</ele>
        <time>2020-02-07T18:36:56.463Z</time>
      </trkpt>
      <trkpt lat="45.33564" lon="6.17599">
        <ele>2051.4865647119</ele>
        <time>2020-02-07T18:36:59.478Z</time>
      </trkpt>
      <trkpt lat="45.33568" lon="6.17587">
        <ele>2050.3400064</ele>
        <time>2020-02-07T18:37:01.460Z</time>
      </trkpt>
      <trkpt lat="45.33574" lon="6.1757">
        <ele>2049.3170048</ele>
        <time>2020-02-07T18:37:04.473Z</time>
      </trkpt>
      <trkpt lat="45.33577" lon="6.17555">
        <ele>2048</ele>
        <time>2020-02-07T18:37:06.460Z</time>
      </trkpt>
      <trkpt lat="45.33582" lon="6.17542">
        <ele>2046.6441120369</ele>
        <time>2020-02-07T18:37:08.463Z</time>
      </trkpt>
      <trkpt lat="45.33584" lon="6.17528">
        <ele>2043.6599936</ele>
        <time>2020-02-07T18:37:10.460Z</time>
      </trkpt>
      <trkpt lat="45.33585" lon="6.17513">
        <ele>2042</ele>
        <time>2020-02-07T18:37:12.463Z</time>
      </trkpt>
      <trkpt lat="45.33586" lon="6.17495">
        <ele>2041.3219968</ele>
        <time>2020-02-07T18:37:14.478Z</time>
      </trkpt>
      <trkpt lat="45.33586" lon="6.17478">
        <ele>2039.3303035788</ele>
        <time>2020-02-07T18:37:16.463Z</time>
      </trkpt>
      <trkpt lat="45.33587" lon="6.17463">
        <ele>2037.4977599893</ele>
        <time>2020-02-07T18:37:18.463Z</time>
      </trkpt>
      <trkpt lat="45.33586" lon="6.17449">
        <ele>2036</ele>
        <time>2020-02-07T18:37:20.463Z</time>
      </trkpt>
      <trkpt lat="45.33583" lon="6.17436">
        <ele>2036</ele>
        <time>2020-02-07T18:37:22.463Z</time>
      </trkpt>
      <trkpt lat="45.3358" lon="6.17422">
        <ele>2034.3400064</ele>
        <time>2020-02-07T18:37:25.460Z</time>
      </trkpt>
      <trkpt lat="45.33579" lon="6.17407">
        <ele>2033.4739175602</ele>
        <time>2020-02-07T18:37:27.463Z</time>
      </trkpt>
      <trkpt lat="45.33579" lon="6.17387">
        <ele>2031.4977599893</ele>
        <time>2020-02-07T18:37:30.463Z</time>
      </trkpt>
      <trkpt lat="45.33579" lon="6.17374">
        <ele>2030</ele>
        <time>2020-02-07T18:37:32.463Z</time>
      </trkpt>
      <trkpt lat="45.3358" lon="6.17362">
        <ele>2028.3369984</ele>
        <time>2020-02-07T18:37:35.463Z</time>
      </trkpt>
      <trkpt lat="45.33581" lon="6.17348">
        <ele>2025.3202058337</ele>
        <time>2020-02-07T18:37:39.473Z</time>
      </trkpt>
      <trkpt lat="45.33574" lon="6.17356">
        <ele>2024</ele>
        <time>2020-02-07T18:38:51.463Z</time>
      </trkpt>
      <trkpt lat="45.33567" lon="6.17364">
        <ele>2024</ele>
        <time>2020-02-07T18:39:33.463Z</time>
      </trkpt>
      <trkpt lat="45.3356" lon="6.17373">
        <ele>2024</ele>
        <time>2020-02-07T18:39:46.463Z</time>
      </trkpt>
      <trkpt lat="45.33551" lon="6.17384">
        <ele>2023</ele>
        <time>2020-02-07T18:39:50.463Z</time>
      </trkpt>
      <trkpt lat="45.33542" lon="6.1739">
        <ele>2021</ele>
        <time>2020-02-07T18:39:53.463Z</time>
      </trkpt>
      <trkpt lat="45.33527" lon="6.17384">
        <ele>2013.3739472415</ele>
        <time>2020-02-07T18:39:59.474Z</time>
      </trkpt>
      <trkpt lat="45.33515" lon="6.17389">
        <ele>2010</ele>
        <time>2020-02-07T18:40:02.474Z</time>
      </trkpt>
      <trkpt lat="45.33506" lon="6.17392">
        <ele>2007.328</ele>
        <time>2020-02-07T18:40:05.462Z</time>
      </trkpt>
      <trkpt lat="45.33494" lon="6.17386">
        <ele>2003.3336729229</ele>
        <time>2020-02-07T18:40:09.463Z</time>
      </trkpt>
      <trkpt lat="45.33488" lon="6.17373">
        <ele>1999.3250048</ele>
        <time>2020-02-07T18:40:12.465Z</time>
      </trkpt>
      <trkpt lat="45.33494" lon="6.17362">
        <ele>1997.4947356264</ele>
        <time>2020-02-07T18:40:14.462Z</time>
      </trkpt>
      <trkpt lat="45.33499" lon="6.17346">
        <ele>1995.4909090909</ele>
        <time>2020-02-07T18:40:17.462Z</time>
      </trkpt>
      <trkpt lat="45.33503" lon="6.1733">
        <ele>1993.3313120604</ele>
        <time>2020-02-07T18:40:20.462Z</time>
      </trkpt>
      <trkpt lat="45.33506" lon="6.17318">
        <ele>1993</ele>
        <time>2020-02-07T18:40:22.463Z</time>
      </trkpt>
      <trkpt lat="45.33506" lon="6.17304">
        <ele>1992.4985050675</ele>
        <time>2020-02-07T18:40:24.462Z</time>
      </trkpt>
      <trkpt lat="45.33507" lon="6.1729">
        <ele>1989.328</ele>
        <time>2020-02-07T18:40:26.462Z</time>
      </trkpt>
      <trkpt lat="45.3351" lon="6.17273">
        <ele>1986.328</ele>
        <time>2020-02-07T18:40:29.462Z</time>
      </trkpt>
      <trkpt lat="45.33511" lon="6.17257">
        <ele>1985</ele>
        <time>2020-02-07T18:40:32.462Z</time>
      </trkpt>
      <trkpt lat="45.33514" lon="6.17238">
        <ele>1983.3346513573</ele>
        <time>2020-02-07T18:40:35.462Z</time>
      </trkpt>
      <trkpt lat="45.33516" lon="6.17224">
        <ele>1982.4710236337</ele>
        <time>2020-02-07T18:40:37.475Z</time>
      </trkpt>
      <trkpt lat="45.33518" lon="6.17205">
        <ele>1980</ele>
        <time>2020-02-07T18:40:40.474Z</time>
      </trkpt>
      <trkpt lat="45.3352" lon="6.17191">
        <ele>1979</ele>
        <time>2020-02-07T18:40:43.474Z</time>
      </trkpt>
      <trkpt lat="45.33522" lon="6.17178">
        <ele>1978</ele>
        <time>2020-02-07T18:40:46.474Z</time>
      </trkpt>
      <trkpt lat="45.33526" lon="6.17161">
        <ele>1978</ele>
        <time>2020-02-07T18:40:50.462Z</time>
      </trkpt>
      <trkpt lat="45.33531" lon="6.17146">
        <ele>1976.3229952</ele>
        <time>2020-02-07T18:40:53.477Z</time>
      </trkpt>
      <trkpt lat="45.33536" lon="6.1713">
        <ele>1974.4753557052</ele>
        <time>2020-02-07T18:40:56.462Z</time>
      </trkpt>
      <trkpt lat="45.33539" lon="6.17117">
        <ele>1973</ele>
        <time>2020-02-07T18:40:59.462Z</time>
      </trkpt>
      <trkpt lat="45.33539" lon="6.17102">
        <ele>1973</ele>
        <time>2020-02-07T18:41:03.472Z</time>
      </trkpt>
      <trkpt lat="45.3354" lon="6.17088">
        <ele>1971.5022520355</ele>
        <time>2020-02-07T18:41:06.462Z</time>
      </trkpt>
      <trkpt lat="45.33538" lon="6.17075">
        <ele>1969.3379968</ele>
        <time>2020-02-07T18:41:09.462Z</time>
      </trkpt>
      <trkpt lat="45.33529" lon="6.17073">
        <ele>1963.6320128</ele>
        <time>2020-02-07T18:41:13.474Z</time>
      </trkpt>
      <trkpt lat="45.33516" lon="6.17083">
        <ele>1961.4647152941</ele>
        <time>2020-02-07T18:41:15.474Z</time>
      </trkpt>
      <trkpt lat="45.33506" lon="6.17078">
        <ele>1957.9955199786</ele>
        <time>2020-02-07T18:41:18.463Z</time>
      </trkpt>
      <trkpt lat="45.33503" lon="6.1706">
        <ele>1954.3180032</ele>
        <time>2020-02-07T18:41:21.472Z</time>
      </trkpt>
      <trkpt lat="45.33499" lon="6.17044">
        <ele>1952.3270016</ele>
        <time>2020-02-07T18:41:23.463Z</time>
      </trkpt>
      <trkpt lat="45.33491" lon="6.17029">
        <ele>1949.3170048</ele>
        <time>2020-02-07T18:41:26.473Z</time>
      </trkpt>
      <trkpt lat="45.33483" lon="6.17024">
        <ele>1948</ele>
        <time>2020-02-07T18:41:53.575Z</time>
      </trkpt>
      <trkpt lat="45.33473" lon="6.17024">
        <ele>1948</ele>
        <time>2020-02-07T18:41:59.463Z</time>
      </trkpt>
      <trkpt lat="45.33465" lon="6.17015">
        <ele>1947</ele>
        <time>2020-02-07T18:42:02.473Z</time>
      </trkpt>
      <trkpt lat="45.33456" lon="6.1701">
        <ele>1944.6540032</ele>
        <time>2020-02-07T18:42:05.463Z</time>
      </trkpt>
      <trkpt lat="45.33447" lon="6.17008">
        <ele>1942.3140948849</ele>
        <time>2020-02-07T18:42:08.575Z</time>
      </trkpt>
      <trkpt lat="45.33457" lon="6.17011">
        <ele>1940</ele>
        <time>2020-02-07T18:42:48.463Z</time>
      </trkpt>
      <trkpt lat="45.33448" lon="6.17016">
        <ele>1940</ele>
        <time>2020-02-07T18:43:15.474Z</time>
      </trkpt>
      <trkpt lat="45.33447" lon="6.17015">
        <ele>1941</ele>
        <time>2020-02-07T18:43:41.474Z</time>
      </trkpt>
    </trkseg>
  </trk>
  <trk>
    <name><![CDATA[J2 - Pic N. de Berlanche - Pic S. du Merlet]]></name>
    <trkseg>
      <trkpt lat="45.33454" lon="6.17019">
        <ele>1926</ele>
        <time>2020-02-08T08:37:41.038Z</time>
      </trkpt>
      <trkpt lat="45.33446" lon="6.17013">
        <ele>1926</ele>
        <time>2020-02-08T08:38:51.038Z</time>
      </trkpt>
      <trkpt lat="45.3345" lon="6.17014">
        <ele>1924.9689984</ele>
        <time>2020-02-08T08:39:53.631Z</time>
      </trkpt>
      <trkpt lat="45.33452" lon="6.17012">
        <ele>1924</ele>
        <time>2020-02-08T08:40:03.631Z</time>
      </trkpt>
      <trkpt lat="45.33455" lon="6.17011">
        <ele>1924</ele>
        <time>2020-02-08T08:40:05.631Z</time>
      </trkpt>
      <trkpt lat="45.33456" lon="6.1701">
        <ele>1924</ele>
        <time>2020-02-08T08:40:07.631Z</time>
      </trkpt>
      <trkpt lat="45.33458" lon="6.17007">
        <ele>1924</ele>
        <time>2020-02-08T08:40:10.631Z</time>
      </trkpt>
      <trkpt lat="45.3346" lon="6.17004">
        <ele>1924</ele>
        <time>2020-02-08T08:40:13.631Z</time>
      </trkpt>
      <trkpt lat="45.33461" lon="6.17001">
        <ele>1924</ele>
        <time>2020-02-08T08:40:16.631Z</time>
      </trkpt>
      <trkpt lat="45.33462" lon="6.16998">
        <ele>1924.976152498</ele>
        <time>2020-02-08T08:40:19.631Z</time>
      </trkpt>
      <trkpt lat="45.33463" lon="6.16995">
        <ele>1924</ele>
        <time>2020-02-08T08:40:24.631Z</time>
      </trkpt>
      <trkpt lat="45.33464" lon="6.16993">
        <ele>1925</ele>
        <time>2020-02-08T08:40:27.631Z</time>
      </trkpt>
      <trkpt lat="45.33465" lon="6.1699">
        <ele>1925</ele>
        <time>2020-02-08T08:40:29.631Z</time>
      </trkpt>
      <trkpt lat="45.33466" lon="6.16988">
        <ele>1925</ele>
        <time>2020-02-08T08:40:31.631Z</time>
      </trkpt>
      <trkpt lat="45.33468" lon="6.16984">
        <ele>1925</ele>
        <time>2020-02-08T08:40:33.631Z</time>
      </trkpt>
      <trkpt lat="45.33467" lon="6.16981">
        <ele>1925.0310016</ele>
        <time>2020-02-08T08:40:36.631Z</time>
      </trkpt>
      <trkpt lat="45.33466" lon="6.16978">
        <ele>1926</ele>
        <time>2020-02-08T08:40:39.631Z</time>
      </trkpt>
      <trkpt lat="45.33466" lon="6.16975">
        <ele>1926</ele>
        <time>2020-02-08T08:40:42.631Z</time>
      </trkpt>
      <trkpt lat="45.33465" lon="6.16963">
        <ele>1926</ele>
        <time>2020-02-08T08:40:55.631Z</time>
      </trkpt>
      <trkpt lat="45.33466" lon="6.16948">
        <ele>1922.9800064</ele>
        <time>2020-02-08T08:43:47.620Z</time>
      </trkpt>
      <trkpt lat="45.33459" lon="6.16931">
        <ele>1919.9400064</ele>
        <time>2020-02-08T08:43:50.660Z</time>
      </trkpt>
      <trkpt lat="45.33456" lon="6.16912">
        <ele>1917.9799936</ele>
        <time>2020-02-08T08:43:52.620Z</time>
      </trkpt>
      <trkpt lat="45.33455" lon="6.16893">
        <ele>1915.9848436364</ele>
        <time>2020-02-08T08:43:54.620Z</time>
      </trkpt>
      <trkpt lat="45.33453" lon="6.16874">
        <ele>1914.9500032</ele>
        <time>2020-02-08T08:43:56.650Z</time>
      </trkpt>
      <trkpt lat="45.33452" lon="6.16857">
        <ele>1914</ele>
        <time>2020-02-08T08:43:58.631Z</time>
      </trkpt>
      <trkpt lat="45.33453" lon="6.16837">
        <ele>1913</ele>
        <time>2020-02-08T08:44:00.631Z</time>
      </trkpt>
      <trkpt lat="45.33457" lon="6.1682">
        <ele>1912.9765139394</ele>
        <time>2020-02-08T08:44:02.631Z</time>
      </trkpt>
      <trkpt lat="45.33463" lon="6.16805">
        <ele>1912</ele>
        <time>2020-02-08T08:44:04.631Z</time>
      </trkpt>
      <trkpt lat="45.3347" lon="6.16791">
        <ele>1911</ele>
        <time>2020-02-08T08:44:06.631Z</time>
      </trkpt>
      <trkpt lat="45.33477" lon="6.16776">
        <ele>1910.2069179417</ele>
        <time>2020-02-08T08:44:08.631Z</time>
      </trkpt>
      <trkpt lat="45.33483" lon="6.1676">
        <ele>1908</ele>
        <time>2020-02-08T08:44:10.631Z</time>
      </trkpt>
      <trkpt lat="45.33489" lon="6.16742">
        <ele>1906.9689984</ele>
        <time>2020-02-08T08:44:12.631Z</time>
      </trkpt>
      <trkpt lat="45.33494" lon="6.16724">
        <ele>1905</ele>
        <time>2020-02-08T08:44:14.631Z</time>
      </trkpt>
      <trkpt lat="45.33503" lon="6.16711">
        <ele>1903</ele>
        <time>2020-02-08T08:44:17.619Z</time>
      </trkpt>
      <trkpt lat="45.33509" lon="6.16698">
        <ele>1903</ele>
        <time>2020-02-08T08:44:20.601Z</time>
      </trkpt>
      <trkpt lat="45.33512" lon="6.16685">
        <ele>1903</ele>
        <time>2020-02-08T08:44:40.631Z</time>
      </trkpt>
      <trkpt lat="45.33516" lon="6.16668">
        <ele>1902</ele>
        <time>2020-02-08T08:44:43.631Z</time>
      </trkpt>
      <trkpt lat="45.33522" lon="6.16652">
        <ele>1901.2213710623</ele>
        <time>2020-02-08T08:44:46.620Z</time>
      </trkpt>
      <trkpt lat="45.33528" lon="6.16636">
        <ele>1899.9862620183</ele>
        <time>2020-02-08T08:44:49.618Z</time>
      </trkpt>
      <trkpt lat="45.33533" lon="6.16623">
        <ele>1899</ele>
        <time>2020-02-08T08:44:51.648Z</time>
      </trkpt>
      <trkpt lat="45.33536" lon="6.16611">
        <ele>1898.9820032</ele>
        <time>2020-02-08T08:44:53.618Z</time>
      </trkpt>
      <trkpt lat="45.33539" lon="6.16598">
        <ele>1897</ele>
        <time>2020-02-08T08:44:55.633Z</time>
      </trkpt>
      <trkpt lat="45.33542" lon="6.16584">
        <ele>1896.8669952</ele>
        <time>2020-02-08T08:44:57.733Z</time>
      </trkpt>
      <trkpt lat="45.33547" lon="6.16569">
        <ele>1895</ele>
        <time>2020-02-08T08:44:59.631Z</time>
      </trkpt>
      <trkpt lat="45.33551" lon="6.16554">
        <ele>1893.9689984</ele>
        <time>2020-02-08T08:45:01.631Z</time>
      </trkpt>
      <trkpt lat="45.33554" lon="6.1654">
        <ele>1893</ele>
        <time>2020-02-08T08:45:03.631Z</time>
      </trkpt>
      <trkpt lat="45.33557" lon="6.16528">
        <ele>1892.2069257505</ele>
        <time>2020-02-08T08:45:05.631Z</time>
      </trkpt>
      <trkpt lat="45.3356" lon="6.16511">
        <ele>1891</ele>
        <time>2020-02-08T08:45:08.631Z</time>
      </trkpt>
      <trkpt lat="45.33566" lon="6.16498">
        <ele>1891</ele>
        <time>2020-02-08T08:45:12.631Z</time>
      </trkpt>
      <trkpt lat="45.33573" lon="6.16488">
        <ele>1891</ele>
        <time>2020-02-08T08:45:18.617Z</time>
      </trkpt>
      <trkpt lat="45.3358" lon="6.16477">
        <ele>1890</ele>
        <time>2020-02-08T08:45:22.617Z</time>
      </trkpt>
      <trkpt lat="45.33587" lon="6.16468">
        <ele>1890</ele>
        <time>2020-02-08T08:45:26.590Z</time>
      </trkpt>
      <trkpt lat="45.33595" lon="6.16461">
        <ele>1889.9765139394</ele>
        <time>2020-02-08T08:45:31.631Z</time>
      </trkpt>
      <trkpt lat="45.33603" lon="6.16455">
        <ele>1889</ele>
        <time>2020-02-08T08:45:36.631Z</time>
      </trkpt>
      <trkpt lat="45.33612" lon="6.16459">
        <ele>1889</ele>
        <time>2020-02-08T08:46:22.648Z</time>
      </trkpt>
      <trkpt lat="45.33622" lon="6.16468">
        <ele>1887.9689984</ele>
        <time>2020-02-08T08:46:28.631Z</time>
      </trkpt>
      <trkpt lat="45.33632" lon="6.16477">
        <ele>1884.9379968</ele>
        <time>2020-02-08T08:46:31.631Z</time>
      </trkpt>
      <trkpt lat="45.33646" lon="6.16472">
        <ele>1878.9530278788</ele>
        <time>2020-02-08T08:46:34.631Z</time>
      </trkpt>
      <trkpt lat="45.33661" lon="6.16458">
        <ele>1874.9379968</ele>
        <time>2020-02-08T08:46:36.631Z</time>
      </trkpt>
      <trkpt lat="45.33672" lon="6.16447">
        <ele>1871.9379968</ele>
        <time>2020-02-08T08:46:38.631Z</time>
      </trkpt>
      <trkpt lat="45.33683" lon="6.16437">
        <ele>1869.3751493336</ele>
        <time>2020-02-08T08:46:40.631Z</time>
      </trkpt>
      <trkpt lat="45.33691" lon="6.16426">
        <ele>1867.9689984</ele>
        <time>2020-02-08T08:46:42.631Z</time>
      </trkpt>
      <trkpt lat="45.33698" lon="6.16417">
        <ele>1866.9379968</ele>
        <time>2020-02-08T08:46:44.631Z</time>
      </trkpt>
      <trkpt lat="45.33699" lon="6.16401">
        <ele>1864</ele>
        <time>2020-02-08T08:46:47.618Z</time>
      </trkpt>
      <trkpt lat="45.33703" lon="6.16414">
        <ele>1864</ele>
        <time>2020-02-08T08:47:10.631Z</time>
      </trkpt>
      <trkpt lat="45.33712" lon="6.16404">
        <ele>1861.9872192174</ele>
        <time>2020-02-08T08:47:24.617Z</time>
      </trkpt>
      <trkpt lat="45.33724" lon="6.16401">
        <ele>1858.9980032</ele>
        <time>2020-02-08T08:47:27.601Z</time>
      </trkpt>
      <trkpt lat="45.33731" lon="6.16392">
        <ele>1855.9689984</ele>
        <time>2020-02-08T08:47:29.631Z</time>
      </trkpt>
      <trkpt lat="45.33738" lon="6.1638">
        <ele>1852.9689984</ele>
        <time>2020-02-08T08:47:31.631Z</time>
      </trkpt>
      <trkpt lat="45.33745" lon="6.1637">
        <ele>1850.9363492966</ele>
        <time>2020-02-08T08:47:33.631Z</time>
      </trkpt>
      <trkpt lat="45.33748" lon="6.16351">
        <ele>1845.9533809405</ele>
        <time>2020-02-08T08:47:35.631Z</time>
      </trkpt>
      <trkpt lat="45.33752" lon="6.16333">
        <ele>1841.8319653744</ele>
        <time>2020-02-08T08:47:37.631Z</time>
      </trkpt>
      <trkpt lat="45.33756" lon="6.16317">
        <ele>1835.9069952</ele>
        <time>2020-02-08T08:47:39.631Z</time>
      </trkpt>
      <trkpt lat="45.33759" lon="6.16301">
        <ele>1831.9766904702</ele>
        <time>2020-02-08T08:47:41.631Z</time>
      </trkpt>
      <trkpt lat="45.33765" lon="6.1629">
        <ele>1826.8759936</ele>
        <time>2020-02-08T08:47:43.631Z</time>
      </trkpt>
      <trkpt lat="45.33773" lon="6.16283">
        <ele>1822</ele>
        <time>2020-02-08T08:47:45.600Z</time>
      </trkpt>
      <trkpt lat="45.33783" lon="6.16278">
        <ele>1816.9799936</ele>
        <time>2020-02-08T08:47:48.620Z</time>
      </trkpt>
      <trkpt lat="45.33791" lon="6.16269">
        <ele>1815</ele>
        <time>2020-02-08T08:47:51.618Z</time>
      </trkpt>
      <trkpt lat="45.33788" lon="6.16282">
        <ele>1814</ele>
        <time>2020-02-08T08:47:58.631Z</time>
      </trkpt>
      <trkpt lat="45.33781" lon="6.16291">
        <ele>1814</ele>
        <time>2020-02-08T08:48:03.631Z</time>
      </trkpt>
      <trkpt lat="45.3378" lon="6.16278">
        <ele>1806.9600128</ele>
        <time>2020-02-08T08:48:27.620Z</time>
      </trkpt>
      <trkpt lat="45.33784" lon="6.16263">
        <ele>1798.9079157478</ele>
        <time>2020-02-08T08:48:30.631Z</time>
      </trkpt>
      <trkpt lat="45.3379" lon="6.16253">
        <ele>1793.9640064</ele>
        <time>2020-02-08T08:48:32.618Z</time>
      </trkpt>
      <trkpt lat="45.33799" lon="6.16242">
        <ele>1789.6461274886</ele>
        <time>2020-02-08T08:48:34.620Z</time>
      </trkpt>
      <trkpt lat="45.33806" lon="6.1623">
        <ele>1782.952</ele>
        <time>2020-02-08T08:48:36.616Z</time>
      </trkpt>
      <trkpt lat="45.33814" lon="6.16212">
        <ele>1776.9799936</ele>
        <time>2020-02-08T08:48:38.620Z</time>
      </trkpt>
      <trkpt lat="45.3382" lon="6.16202">
        <ele>1775.9579904</ele>
        <time>2020-02-08T08:48:39.621Z</time>
      </trkpt>
      <trkpt lat="45.33829" lon="6.16185">
        <ele>1772.9872192174</ele>
        <time>2020-02-08T08:48:41.617Z</time>
      </trkpt>
      <trkpt lat="45.33837" lon="6.16172">
        <ele>1770.9529984</ele>
        <time>2020-02-08T08:48:43.647Z</time>
      </trkpt>
      <trkpt lat="45.33845" lon="6.16158">
        <ele>1768.9650048</ele>
        <time>2020-02-08T08:48:45.635Z</time>
      </trkpt>
      <trkpt lat="45.33853" lon="6.16145">
        <ele>1766.9800064</ele>
        <time>2020-02-08T08:48:47.620Z</time>
      </trkpt>
      <trkpt lat="45.33863" lon="6.16133">
        <ele>1766</ele>
        <time>2020-02-08T08:48:49.621Z</time>
      </trkpt>
      <trkpt lat="45.3387" lon="6.16123">
        <ele>1764.9529984</ele>
        <time>2020-02-08T08:48:51.647Z</time>
      </trkpt>
      <trkpt lat="45.33879" lon="6.16117">
        <ele>1763.2146155588</ele>
        <time>2020-02-08T08:48:53.621Z</time>
      </trkpt>
      <trkpt lat="45.33888" lon="6.1611">
        <ele>1762</ele>
        <time>2020-02-08T08:48:55.602Z</time>
      </trkpt>
      <trkpt lat="45.33898" lon="6.16103">
        <ele>1761.9800064</ele>
        <time>2020-02-08T08:48:57.620Z</time>
      </trkpt>
      <trkpt lat="45.33908" lon="6.16096">
        <ele>1759.9872192174</ele>
        <time>2020-02-08T08:48:59.617Z</time>
      </trkpt>
      <trkpt lat="45.3392" lon="6.16091">
        <ele>1758.9529984</ele>
        <time>2020-02-08T08:49:01.647Z</time>
      </trkpt>
      <trkpt lat="45.33931" lon="6.16086">
        <ele>1757</ele>
        <time>2020-02-08T08:49:03.617Z</time>
      </trkpt>
      <trkpt lat="45.33941" lon="6.16079">
        <ele>1756.968</ele>
        <time>2020-02-08T08:49:05.632Z</time>
      </trkpt>
      <trkpt lat="45.33949" lon="6.16071">
        <ele>1756</ele>
        <time>2020-02-08T08:49:07.621Z</time>
      </trkpt>
      <trkpt lat="45.33957" lon="6.16064">
        <ele>1755.9842068793</ele>
        <time>2020-02-08T08:49:09.621Z</time>
      </trkpt>
      <trkpt lat="45.33965" lon="6.16057">
        <ele>1754.9646127489</ele>
        <time>2020-02-08T08:49:11.646Z</time>
      </trkpt>
      <trkpt lat="45.33974" lon="6.16055">
        <ele>1753.9529984</ele>
        <time>2020-02-08T08:49:13.647Z</time>
      </trkpt>
      <trkpt lat="45.33984" lon="6.16054">
        <ele>1752.968</ele>
        <time>2020-02-08T08:49:15.632Z</time>
      </trkpt>
      <trkpt lat="45.33995" lon="6.16056">
        <ele>1751.9830016</ele>
        <time>2020-02-08T08:49:17.617Z</time>
      </trkpt>
      <trkpt lat="45.34004" lon="6.16055">
        <ele>1750.9872192174</ele>
        <time>2020-02-08T08:49:19.617Z</time>
      </trkpt>
      <trkpt lat="45.34013" lon="6.16053">
        <ele>1749.9500032</ele>
        <time>2020-02-08T08:49:21.650Z</time>
      </trkpt>
      <trkpt lat="45.34023" lon="6.16054">
        <ele>1749</ele>
        <time>2020-02-08T08:49:23.621Z</time>
      </trkpt>
      <trkpt lat="45.34032" lon="6.16054">
        <ele>1748.9689984</ele>
        <time>2020-02-08T08:49:25.631Z</time>
      </trkpt>
      <trkpt lat="45.34043" lon="6.1605">
        <ele>1746.7299968</ele>
        <time>2020-02-08T08:49:27.735Z</time>
      </trkpt>
      <trkpt lat="45.34055" lon="6.16047">
        <ele>1743.4378763636</ele>
        <time>2020-02-08T08:49:29.631Z</time>
      </trkpt>
      <trkpt lat="45.34071" lon="6.16045">
        <ele>1741.2038537656</ele>
        <time>2020-02-08T08:49:31.635Z</time>
      </trkpt>
      <trkpt lat="45.34082" lon="6.16044">
        <ele>1739.0179968</ele>
        <time>2020-02-08T08:49:33.591Z</time>
      </trkpt>
      <trkpt lat="45.341" lon="6.16031">
        <ele>1736</ele>
        <time>2020-02-08T08:49:37.631Z</time>
      </trkpt>
      <trkpt lat="45.34114" lon="6.16031">
        <ele>1735.9689984</ele>
        <time>2020-02-08T08:49:39.631Z</time>
      </trkpt>
      <trkpt lat="45.34125" lon="6.16033">
        <ele>1734.9689984</ele>
        <time>2020-02-08T08:49:41.631Z</time>
      </trkpt>
      <trkpt lat="45.34136" lon="6.16033">
        <ele>1733.9789952</ele>
        <time>2020-02-08T08:49:43.621Z</time>
      </trkpt>
      <trkpt lat="45.34147" lon="6.16032">
        <ele>1732.8984947934</ele>
        <time>2020-02-08T08:49:45.735Z</time>
      </trkpt>
      <trkpt lat="45.34157" lon="6.16036">
        <ele>1732</ele>
        <time>2020-02-08T08:49:47.631Z</time>
      </trkpt>
      <trkpt lat="45.34156" lon="6.16023">
        <ele>1728.9689984</ele>
        <time>2020-02-08T08:50:29.631Z</time>
      </trkpt>
      <trkpt lat="45.34165" lon="6.1603">
        <ele>1727</ele>
        <time>2020-02-08T08:51:48.631Z</time>
      </trkpt>
      <trkpt lat="45.34156" lon="6.16022">
        <ele>1728</ele>
        <time>2020-02-08T08:52:44.620Z</time>
      </trkpt>
      <trkpt lat="45.34147" lon="6.16017">
        <ele>1728</ele>
        <time>2020-02-08T08:53:55.631Z</time>
      </trkpt>
      <trkpt lat="45.34154" lon="6.16026">
        <ele>1728</ele>
        <time>2020-02-08T08:54:01.618Z</time>
      </trkpt>
      <trkpt lat="45.34144" lon="6.16031">
        <ele>1725</ele>
        <time>2020-02-08T08:59:28.620Z</time>
      </trkpt>
      <trkpt lat="45.34153" lon="6.16028">
        <ele>1725</ele>
        <time>2020-02-08T08:59:37.631Z</time>
      </trkpt>
      <trkpt lat="45.34158" lon="6.16016">
        <ele>1726</ele>
        <time>2020-02-08T09:01:42.619Z</time>
      </trkpt>
      <trkpt lat="45.34159" lon="6.16003">
        <ele>1726</ele>
        <time>2020-02-08T09:03:01.620Z</time>
      </trkpt>
      <trkpt lat="45.34154" lon="6.15991">
        <ele>1726</ele>
        <time>2020-02-08T09:03:07.620Z</time>
      </trkpt>
      <trkpt lat="45.34153" lon="6.15978">
        <ele>1727.9799936</ele>
        <time>2020-02-08T09:03:18.620Z</time>
      </trkpt>
      <trkpt lat="45.34152" lon="6.15964">
        <ele>1728.0039936</ele>
        <time>2020-02-08T09:03:29.604Z</time>
      </trkpt>
      <trkpt lat="45.34157" lon="6.15952">
        <ele>1729</ele>
        <time>2020-02-08T09:03:40.619Z</time>
      </trkpt>
      <trkpt lat="45.34155" lon="6.15937">
        <ele>1729</ele>
        <time>2020-02-08T09:03:50.619Z</time>
      </trkpt>
      <trkpt lat="45.34153" lon="6.15924">
        <ele>1728</ele>
        <time>2020-02-08T09:03:57.620Z</time>
      </trkpt>
      <trkpt lat="45.3416" lon="6.15916">
        <ele>1730</ele>
        <time>2020-02-08T09:04:23.620Z</time>
      </trkpt>
      <trkpt lat="45.34169" lon="6.15915">
        <ele>1730</ele>
        <time>2020-02-08T09:04:30.620Z</time>
      </trkpt>
      <trkpt lat="45.34179" lon="6.15912">
        <ele>1731</ele>
        <time>2020-02-08T09:04:47.621Z</time>
      </trkpt>
      <trkpt lat="45.34189" lon="6.15916">
        <ele>1731</ele>
        <time>2020-02-08T09:04:56.620Z</time>
      </trkpt>
      <trkpt lat="45.34199" lon="6.15919">
        <ele>1731.9651490909</ele>
        <time>2020-02-08T09:05:03.646Z</time>
      </trkpt>
      <trkpt lat="45.34208" lon="6.1592">
        <ele>1732</ele>
        <time>2020-02-08T09:05:13.620Z</time>
      </trkpt>
      <trkpt lat="45.34217" lon="6.1592">
        <ele>1733</ele>
        <time>2020-02-08T09:05:24.631Z</time>
      </trkpt>
      <trkpt lat="45.34227" lon="6.15917">
        <ele>1734</ele>
        <time>2020-02-08T09:05:34.631Z</time>
      </trkpt>
      <trkpt lat="45.34237" lon="6.15917">
        <ele>1734</ele>
        <time>2020-02-08T09:05:44.631Z</time>
      </trkpt>
      <trkpt lat="45.34245" lon="6.1591">
        <ele>1736</ele>
        <time>2020-02-08T09:05:56.621Z</time>
      </trkpt>
      <trkpt lat="45.34253" lon="6.15906">
        <ele>1736</ele>
        <time>2020-02-08T09:06:06.619Z</time>
      </trkpt>
      <trkpt lat="45.34258" lon="6.15894">
        <ele>1736</ele>
        <time>2020-02-08T09:06:41.631Z</time>
      </trkpt>
      <trkpt lat="45.3425" lon="6.15886">
        <ele>1739</ele>
        <time>2020-02-08T09:07:29.619Z</time>
      </trkpt>
      <trkpt lat="45.34245" lon="6.15874">
        <ele>1739</ele>
        <time>2020-02-08T09:07:42.630Z</time>
      </trkpt>
      <trkpt lat="45.34242" lon="6.15861">
        <ele>1740</ele>
        <time>2020-02-08T09:08:16.620Z</time>
      </trkpt>
      <trkpt lat="45.34248" lon="6.1585">
        <ele>1736.9799936</ele>
        <time>2020-02-08T09:08:20.620Z</time>
      </trkpt>
      <trkpt lat="45.34255" lon="6.15839">
        <ele>1735</ele>
        <time>2020-02-08T09:08:27.630Z</time>
      </trkpt>
      <trkpt lat="45.34264" lon="6.15834">
        <ele>1734</ele>
        <time>2020-02-08T09:08:35.618Z</time>
      </trkpt>
      <trkpt lat="45.34258" lon="6.15817">
        <ele>1734</ele>
        <time>2020-02-08T09:08:56.631Z</time>
      </trkpt>
      <trkpt lat="45.34267" lon="6.15816">
        <ele>1734</ele>
        <time>2020-02-08T09:09:22.620Z</time>
      </trkpt>
      <trkpt lat="45.34277" lon="6.15808">
        <ele>1731.9640064</ele>
        <time>2020-02-08T09:09:26.618Z</time>
      </trkpt>
      <trkpt lat="45.34284" lon="6.15798">
        <ele>1727.9970048</ele>
        <time>2020-02-08T09:09:30.603Z</time>
      </trkpt>
      <trkpt lat="45.34295" lon="6.15799">
        <ele>1726</ele>
        <time>2020-02-08T09:10:44.620Z</time>
      </trkpt>
      <trkpt lat="45.34302" lon="6.1579">
        <ele>1716.9510016</ele>
        <time>2020-02-08T09:11:23.649Z</time>
      </trkpt>
      <trkpt lat="45.34308" lon="6.15779">
        <ele>1713</ele>
        <time>2020-02-08T09:11:35.631Z</time>
      </trkpt>
      <trkpt lat="45.34313" lon="6.15765">
        <ele>1710</ele>
        <time>2020-02-08T09:11:52.631Z</time>
      </trkpt>
      <trkpt lat="45.34302" lon="6.15767">
        <ele>1710</ele>
        <time>2020-02-08T09:12:41.631Z</time>
      </trkpt>
      <trkpt lat="45.34298" lon="6.15753">
        <ele>1709</ele>
        <time>2020-02-08T09:12:51.631Z</time>
      </trkpt>
      <trkpt lat="45.34306" lon="6.15758">
        <ele>1709</ele>
        <time>2020-02-08T09:13:06.631Z</time>
      </trkpt>
      <trkpt lat="45.34311" lon="6.15745">
        <ele>1707.9849575578</ele>
        <time>2020-02-08T09:13:10.620Z</time>
      </trkpt>
      <trkpt lat="45.34317" lon="6.15732">
        <ele>1706</ele>
        <time>2020-02-08T09:13:13.600Z</time>
      </trkpt>
      <trkpt lat="45.34325" lon="6.15719">
        <ele>1705</ele>
        <time>2020-02-08T09:13:20.733Z</time>
      </trkpt>
      <trkpt lat="45.34333" lon="6.15711">
        <ele>1705</ele>
        <time>2020-02-08T09:13:28.733Z</time>
      </trkpt>
      <trkpt lat="45.34341" lon="6.15703">
        <ele>1705</ele>
        <time>2020-02-08T09:13:35.620Z</time>
      </trkpt>
      <trkpt lat="45.34341" lon="6.1569">
        <ele>1705</ele>
        <time>2020-02-08T09:13:46.619Z</time>
      </trkpt>
      <trkpt lat="45.34343" lon="6.15675">
        <ele>1704</ele>
        <time>2020-02-08T09:13:54.630Z</time>
      </trkpt>
      <trkpt lat="45.34349" lon="6.15664">
        <ele>1703</ele>
        <time>2020-02-08T09:14:03.631Z</time>
      </trkpt>
      <trkpt lat="45.34358" lon="6.15663">
        <ele>1703</ele>
        <time>2020-02-08T09:14:27.631Z</time>
      </trkpt>
      <trkpt lat="45.34347" lon="6.15653">
        <ele>1703</ele>
        <time>2020-02-08T09:15:09.600Z</time>
      </trkpt>
      <trkpt lat="45.34332" lon="6.15656">
        <ele>1703</ele>
        <time>2020-02-08T09:15:27.631Z</time>
      </trkpt>
      <trkpt lat="45.34341" lon="6.15663">
        <ele>1703</ele>
        <time>2020-02-08T09:15:37.631Z</time>
      </trkpt>
      <trkpt lat="45.34346" lon="6.15651">
        <ele>1703</ele>
        <time>2020-02-08T09:15:45.631Z</time>
      </trkpt>
      <trkpt lat="45.34351" lon="6.1564">
        <ele>1703</ele>
        <time>2020-02-08T09:15:54.631Z</time>
      </trkpt>
      <trkpt lat="45.34353" lon="6.15628">
        <ele>1703.022729697</ele>
        <time>2020-02-08T09:16:05.630Z</time>
      </trkpt>
      <trkpt lat="45.34349" lon="6.15615">
        <ele>1704</ele>
        <time>2020-02-08T09:16:12.620Z</time>
      </trkpt>
      <trkpt lat="45.34357" lon="6.15605">
        <ele>1704</ele>
        <time>2020-02-08T09:16:18.631Z</time>
      </trkpt>
      <trkpt lat="45.34363" lon="6.15592">
        <ele>1706</ele>
        <time>2020-02-08T09:16:29.732Z</time>
      </trkpt>
      <trkpt lat="45.3437" lon="6.1558">
        <ele>1706</ele>
        <time>2020-02-08T09:16:44.620Z</time>
      </trkpt>
      <trkpt lat="45.34369" lon="6.15568">
        <ele>1707</ele>
        <time>2020-02-08T09:16:56.620Z</time>
      </trkpt>
      <trkpt lat="45.34369" lon="6.15554">
        <ele>1707</ele>
        <time>2020-02-08T09:17:03.630Z</time>
      </trkpt>
      <trkpt lat="45.34371" lon="6.15542">
        <ele>1708</ele>
        <time>2020-02-08T09:17:12.617Z</time>
      </trkpt>
      <trkpt lat="45.34379" lon="6.15533">
        <ele>1709</ele>
        <time>2020-02-08T09:17:24.647Z</time>
      </trkpt>
      <trkpt lat="45.34382" lon="6.15521">
        <ele>1711</ele>
        <time>2020-02-08T09:17:38.634Z</time>
      </trkpt>
      <trkpt lat="45.34385" lon="6.15508">
        <ele>1712.0053447198</ele>
        <time>2020-02-08T09:17:49.617Z</time>
      </trkpt>
      <trkpt lat="45.34387" lon="6.15495">
        <ele>1712</ele>
        <time>2020-02-08T09:18:00.617Z</time>
      </trkpt>
      <trkpt lat="45.34391" lon="6.15482">
        <ele>1713</ele>
        <time>2020-02-08T09:18:14.617Z</time>
      </trkpt>
      <trkpt lat="45.344" lon="6.15479">
        <ele>1713</ele>
        <time>2020-02-08T09:18:23.632Z</time>
      </trkpt>
      <trkpt lat="45.34402" lon="6.15465">
        <ele>1714</ele>
        <time>2020-02-08T09:18:35.620Z</time>
      </trkpt>
      <trkpt lat="45.34407" lon="6.15454">
        <ele>1714</ele>
        <time>2020-02-08T09:18:46.620Z</time>
      </trkpt>
      <trkpt lat="45.34409" lon="6.15441">
        <ele>1716</ele>
        <time>2020-02-08T09:18:57.617Z</time>
      </trkpt>
      <trkpt lat="45.34417" lon="6.15431">
        <ele>1717</ele>
        <time>2020-02-08T09:19:14.620Z</time>
      </trkpt>
      <trkpt lat="45.34424" lon="6.15423">
        <ele>1717</ele>
        <time>2020-02-08T09:19:27.617Z</time>
      </trkpt>
      <trkpt lat="45.34434" lon="6.15421">
        <ele>1714</ele>
        <time>2020-02-08T09:19:39.620Z</time>
      </trkpt>
      <trkpt lat="45.34443" lon="6.15426">
        <ele>1713</ele>
        <time>2020-02-08T09:19:58.589Z</time>
      </trkpt>
      <trkpt lat="45.34435" lon="6.1542">
        <ele>1714</ele>
        <time>2020-02-08T09:20:42.619Z</time>
      </trkpt>
      <trkpt lat="45.34428" lon="6.15408">
        <ele>1713</ele>
        <time>2020-02-08T09:20:57.732Z</time>
      </trkpt>
      <trkpt lat="45.34434" lon="6.1542">
        <ele>1713</ele>
        <time>2020-02-08T09:21:03.619Z</time>
      </trkpt>
      <trkpt lat="45.34427" lon="6.15411">
        <ele>1713</ele>
        <time>2020-02-08T09:21:08.619Z</time>
      </trkpt>
      <trkpt lat="45.34436" lon="6.15418">
        <ele>1713</ele>
        <time>2020-02-08T09:21:25.630Z</time>
      </trkpt>
      <trkpt lat="45.34445" lon="6.15412">
        <ele>1714</ele>
        <time>2020-02-08T09:23:20.620Z</time>
      </trkpt>
      <trkpt lat="45.34435" lon="6.15415">
        <ele>1715</ele>
        <time>2020-02-08T09:23:36.619Z</time>
      </trkpt>
      <trkpt lat="45.34442" lon="6.15426">
        <ele>1715</ele>
        <time>2020-02-08T09:23:52.616Z</time>
      </trkpt>
      <trkpt lat="45.34437" lon="6.15415">
        <ele>1715</ele>
        <time>2020-02-08T09:24:16.620Z</time>
      </trkpt>
      <trkpt lat="45.34443" lon="6.15425">
        <ele>1716</ele>
        <time>2020-02-08T09:24:57.629Z</time>
      </trkpt>
      <trkpt lat="45.34436" lon="6.15409">
        <ele>1715</ele>
        <time>2020-02-08T09:25:13.631Z</time>
      </trkpt>
      <trkpt lat="45.3444" lon="6.1542">
        <ele>1715</ele>
        <time>2020-02-08T09:25:59.630Z</time>
      </trkpt>
      <trkpt lat="45.3445" lon="6.1542">
        <ele>1715</ele>
        <time>2020-02-08T09:26:38.620Z</time>
      </trkpt>
      <trkpt lat="45.34442" lon="6.15412">
        <ele>1717</ele>
        <time>2020-02-08T09:27:08.621Z</time>
      </trkpt>
      <trkpt lat="45.34433" lon="6.15411">
        <ele>1723</ele>
        <time>2020-02-08T09:28:23.621Z</time>
      </trkpt>
      <trkpt lat="45.34438" lon="6.15399">
        <ele>1724.0210048</ele>
        <time>2020-02-08T09:28:39.621Z</time>
      </trkpt>
      <trkpt lat="45.34431" lon="6.15389">
        <ele>1728</ele>
        <time>2020-02-08T09:29:06.620Z</time>
      </trkpt>
      <trkpt lat="45.34437" lon="6.15378">
        <ele>1736</ele>
        <time>2020-02-08T09:30:26.618Z</time>
      </trkpt>
      <trkpt lat="45.34428" lon="6.15373">
        <ele>1739.0300032</ele>
        <time>2020-02-08T09:31:15.630Z</time>
      </trkpt>
      <trkpt lat="45.34418" lon="6.15373">
        <ele>1741.0210048</ele>
        <time>2020-02-08T09:31:31.621Z</time>
      </trkpt>
      <trkpt lat="45.3442" lon="6.15359">
        <ele>1745.0151466667</ele>
        <time>2020-02-08T09:32:07.620Z</time>
      </trkpt>
      <trkpt lat="45.34429" lon="6.15354">
        <ele>1746</ele>
        <time>2020-02-08T09:32:19.620Z</time>
      </trkpt>
      <trkpt lat="45.34438" lon="6.15351">
        <ele>1748</ele>
        <time>2020-02-08T09:32:34.620Z</time>
      </trkpt>
      <trkpt lat="45.3443" lon="6.15363">
        <ele>1752</ele>
        <time>2020-02-08T09:33:30.621Z</time>
      </trkpt>
      <trkpt lat="45.34429" lon="6.1535">
        <ele>1753</ele>
        <time>2020-02-08T09:34:01.631Z</time>
      </trkpt>
      <trkpt lat="45.34435" lon="6.15339">
        <ele>1755</ele>
        <time>2020-02-08T09:34:18.631Z</time>
      </trkpt>
      <trkpt lat="45.34438" lon="6.15327">
        <ele>1761</ele>
        <time>2020-02-08T09:35:40.620Z</time>
      </trkpt>
      <trkpt lat="45.34428" lon="6.15332">
        <ele>1765.0310016</ele>
        <time>2020-02-08T09:37:05.631Z</time>
      </trkpt>
      <trkpt lat="45.34431" lon="6.1532">
        <ele>1768</ele>
        <time>2020-02-08T09:37:30.620Z</time>
      </trkpt>
      <trkpt lat="45.34439" lon="6.15312">
        <ele>1770</ele>
        <time>2020-02-08T09:37:44.618Z</time>
      </trkpt>
      <trkpt lat="45.34431" lon="6.15305">
        <ele>1771</ele>
        <time>2020-02-08T09:38:05.620Z</time>
      </trkpt>
      <trkpt lat="45.34439" lon="6.15312">
        <ele>1771</ele>
        <time>2020-02-08T09:38:23.620Z</time>
      </trkpt>
      <trkpt lat="45.34438" lon="6.1533">
        <ele>1771</ele>
        <time>2020-02-08T09:38:52.631Z</time>
      </trkpt>
      <trkpt lat="45.34445" lon="6.15342">
        <ele>1771</ele>
        <time>2020-02-08T09:38:53.631Z</time>
      </trkpt>
      <trkpt lat="45.34434" lon="6.1533">
        <ele>1771</ele>
        <time>2020-02-08T09:38:55.630Z</time>
      </trkpt>
      <trkpt lat="45.34428" lon="6.15322">
        <ele>1771</ele>
        <time>2020-02-08T09:38:59.620Z</time>
      </trkpt>
      <trkpt lat="45.3442" lon="6.15315">
        <ele>1774</ele>
        <time>2020-02-08T09:39:35.602Z</time>
      </trkpt>
      <trkpt lat="45.34424" lon="6.15304">
        <ele>1776</ele>
        <time>2020-02-08T09:39:58.620Z</time>
      </trkpt>
      <trkpt lat="45.34433" lon="6.15299">
        <ele>1778</ele>
        <time>2020-02-08T09:40:11.620Z</time>
      </trkpt>
      <trkpt lat="45.34442" lon="6.15298">
        <ele>1779.0199936</ele>
        <time>2020-02-08T09:40:23.620Z</time>
      </trkpt>
      <trkpt lat="45.34451" lon="6.153">
        <ele>1781</ele>
        <time>2020-02-08T09:40:48.631Z</time>
      </trkpt>
      <trkpt lat="45.34442" lon="6.15293">
        <ele>1783</ele>
        <time>2020-02-08T09:42:20.631Z</time>
      </trkpt>
      <trkpt lat="45.34451" lon="6.15297">
        <ele>1784</ele>
        <time>2020-02-08T09:42:50.622Z</time>
      </trkpt>
      <trkpt lat="45.34452" lon="6.15311">
        <ele>1784</ele>
        <time>2020-02-08T09:43:53.631Z</time>
      </trkpt>
      <trkpt lat="45.34453" lon="6.15297">
        <ele>1785</ele>
        <time>2020-02-08T09:44:18.631Z</time>
      </trkpt>
      <trkpt lat="45.34455" lon="6.15311">
        <ele>1784</ele>
        <time>2020-02-08T09:44:36.631Z</time>
      </trkpt>
      <trkpt lat="45.34447" lon="6.15305">
        <ele>1785</ele>
        <time>2020-02-08T09:44:51.617Z</time>
      </trkpt>
      <trkpt lat="45.3444" lon="6.15298">
        <ele>1786.0169984</ele>
        <time>2020-02-08T09:45:21.617Z</time>
      </trkpt>
      <trkpt lat="45.34432" lon="6.15292">
        <ele>1789</ele>
        <time>2020-02-08T09:45:31.617Z</time>
      </trkpt>
      <trkpt lat="45.34432" lon="6.15279">
        <ele>1793</ele>
        <time>2020-02-08T09:45:52.620Z</time>
      </trkpt>
      <trkpt lat="45.34423" lon="6.15277">
        <ele>1796</ele>
        <time>2020-02-08T09:46:13.662Z</time>
      </trkpt>
      <trkpt lat="45.34414" lon="6.15272">
        <ele>1796</ele>
        <time>2020-02-08T09:46:27.621Z</time>
      </trkpt>
      <trkpt lat="45.3442" lon="6.15261">
        <ele>1799</ele>
        <time>2020-02-08T09:46:42.621Z</time>
      </trkpt>
      <trkpt lat="45.34429" lon="6.15261">
        <ele>1801</ele>
        <time>2020-02-08T09:46:58.632Z</time>
      </trkpt>
      <trkpt lat="45.34438" lon="6.15256">
        <ele>1804</ele>
        <time>2020-02-08T09:47:13.631Z</time>
      </trkpt>
      <trkpt lat="45.3443" lon="6.15249">
        <ele>1810</ele>
        <time>2020-02-08T09:47:52.617Z</time>
      </trkpt>
      <trkpt lat="45.34425" lon="6.15238">
        <ele>1813</ele>
        <time>2020-02-08T09:48:08.587Z</time>
      </trkpt>
      <trkpt lat="45.34427" lon="6.15226">
        <ele>1817</ele>
        <time>2020-02-08T09:48:30.631Z</time>
      </trkpt>
      <trkpt lat="45.34435" lon="6.15219">
        <ele>1820</ele>
        <time>2020-02-08T09:48:52.620Z</time>
      </trkpt>
      <trkpt lat="45.34443" lon="6.1521">
        <ele>1822</ele>
        <time>2020-02-08T09:49:03.631Z</time>
      </trkpt>
      <trkpt lat="45.34436" lon="6.15201">
        <ele>1827.0169984</ele>
        <time>2020-02-08T09:49:33.617Z</time>
      </trkpt>
      <trkpt lat="45.34429" lon="6.15191">
        <ele>1830</ele>
        <time>2020-02-08T09:49:50.618Z</time>
      </trkpt>
      <trkpt lat="45.34421" lon="6.15185">
        <ele>1831</ele>
        <time>2020-02-08T09:50:03.618Z</time>
      </trkpt>
      <trkpt lat="45.34412" lon="6.15182">
        <ele>1833.0329984</ele>
        <time>2020-02-08T09:50:16.633Z</time>
      </trkpt>
      <trkpt lat="45.34402" lon="6.1518">
        <ele>1835.0210048</ele>
        <time>2020-02-08T09:50:28.621Z</time>
      </trkpt>
      <trkpt lat="45.34393" lon="6.15175">
        <ele>1838</ele>
        <time>2020-02-08T09:50:47.617Z</time>
      </trkpt>
      <trkpt lat="45.34386" lon="6.15165">
        <ele>1840</ele>
        <time>2020-02-08T09:51:06.617Z</time>
      </trkpt>
      <trkpt lat="45.34379" lon="6.15156">
        <ele>1842</ele>
        <time>2020-02-08T09:51:24.617Z</time>
      </trkpt>
      <trkpt lat="45.34375" lon="6.15144">
        <ele>1845</ele>
        <time>2020-02-08T09:51:44.620Z</time>
      </trkpt>
      <trkpt lat="45.34374" lon="6.15128">
        <ele>1847</ele>
        <time>2020-02-08T09:51:56.590Z</time>
      </trkpt>
      <trkpt lat="45.34381" lon="6.1512">
        <ele>1850</ele>
        <time>2020-02-08T09:52:15.590Z</time>
      </trkpt>
      <trkpt lat="45.34382" lon="6.15106">
        <ele>1853</ele>
        <time>2020-02-08T09:52:39.617Z</time>
      </trkpt>
      <trkpt lat="45.34378" lon="6.15094">
        <ele>1855</ele>
        <time>2020-02-08T09:52:55.620Z</time>
      </trkpt>
      <trkpt lat="45.34369" lon="6.1509">
        <ele>1858</ele>
        <time>2020-02-08T09:53:17.618Z</time>
      </trkpt>
      <trkpt lat="45.34363" lon="6.15081">
        <ele>1860.0179968</ele>
        <time>2020-02-08T09:53:39.618Z</time>
      </trkpt>
      <trkpt lat="45.34369" lon="6.15071">
        <ele>1863</ele>
        <time>2020-02-08T09:54:00.619Z</time>
      </trkpt>
      <trkpt lat="45.34375" lon="6.15061">
        <ele>1864</ele>
        <time>2020-02-08T09:54:11.619Z</time>
      </trkpt>
      <trkpt lat="45.34382" lon="6.15055">
        <ele>1868</ele>
        <time>2020-02-08T09:54:35.618Z</time>
      </trkpt>
      <trkpt lat="45.3439" lon="6.15047">
        <ele>1869</ele>
        <time>2020-02-08T09:54:48.631Z</time>
      </trkpt>
      <trkpt lat="45.34399" lon="6.15044">
        <ele>1873</ele>
        <time>2020-02-08T09:55:05.631Z</time>
      </trkpt>
      <trkpt lat="45.34399" lon="6.1503">
        <ele>1876</ele>
        <time>2020-02-08T09:55:39.621Z</time>
      </trkpt>
      <trkpt lat="45.34396" lon="6.15018">
        <ele>1879</ele>
        <time>2020-02-08T09:56:01.619Z</time>
      </trkpt>
      <trkpt lat="45.34392" lon="6.15006">
        <ele>1882.9910016</ele>
        <time>2020-02-08T09:56:22.591Z</time>
      </trkpt>
      <trkpt lat="45.34397" lon="6.14995">
        <ele>1887</ele>
        <time>2020-02-08T09:56:50.621Z</time>
      </trkpt>
      <trkpt lat="45.34406" lon="6.14996">
        <ele>1890</ele>
        <time>2020-02-08T09:57:03.632Z</time>
      </trkpt>
      <trkpt lat="45.34415" lon="6.14997">
        <ele>1893</ele>
        <time>2020-02-08T09:58:40.635Z</time>
      </trkpt>
      <trkpt lat="45.34425" lon="6.14994">
        <ele>1893</ele>
        <time>2020-02-08T09:58:58.621Z</time>
      </trkpt>
      <trkpt lat="45.34436" lon="6.14993">
        <ele>1893</ele>
        <time>2020-02-08T09:59:01.621Z</time>
      </trkpt>
      <trkpt lat="45.34427" lon="6.14996">
        <ele>1893</ele>
        <time>2020-02-08T09:59:15.631Z</time>
      </trkpt>
      <trkpt lat="45.34418" lon="6.14991">
        <ele>1893</ele>
        <time>2020-02-08T10:00:30.631Z</time>
      </trkpt>
      <trkpt lat="45.34425" lon="6.15001">
        <ele>1894</ele>
        <time>2020-02-08T10:01:17.618Z</time>
      </trkpt>
      <trkpt lat="45.34437" lon="6.15">
        <ele>1895</ele>
        <time>2020-02-08T10:03:11.618Z</time>
      </trkpt>
      <trkpt lat="45.34447" lon="6.14995">
        <ele>1895</ele>
        <time>2020-02-08T10:04:03.631Z</time>
      </trkpt>
      <trkpt lat="45.34425" lon="6.14995">
        <ele>1895</ele>
        <time>2020-02-08T10:04:17.631Z</time>
      </trkpt>
      <trkpt lat="45.34415" lon="6.14999">
        <ele>1895</ele>
        <time>2020-02-08T10:04:28.631Z</time>
      </trkpt>
      <trkpt lat="45.3443" lon="6.15001">
        <ele>1895</ele>
        <time>2020-02-08T10:04:45.631Z</time>
      </trkpt>
      <trkpt lat="45.34441" lon="6.15002">
        <ele>1895</ele>
        <time>2020-02-08T10:04:51.631Z</time>
      </trkpt>
      <trkpt lat="45.34432" lon="6.14999">
        <ele>1896</ele>
        <time>2020-02-08T10:05:01.632Z</time>
      </trkpt>
      <trkpt lat="45.34423" lon="6.15001">
        <ele>1896</ele>
        <time>2020-02-08T10:05:21.632Z</time>
      </trkpt>
      <trkpt lat="45.34413" lon="6.15002">
        <ele>1896.032</ele>
        <time>2020-02-08T10:05:26.632Z</time>
      </trkpt>
      <trkpt lat="45.34422" lon="6.14996">
        <ele>1899.0229640937</ele>
        <time>2020-02-08T10:06:32.631Z</time>
      </trkpt>
      <trkpt lat="45.34423" lon="6.14983">
        <ele>1901.0169984</ele>
        <time>2020-02-08T10:06:43.617Z</time>
      </trkpt>
      <trkpt lat="45.3442" lon="6.1497">
        <ele>1903</ele>
        <time>2020-02-08T10:07:17.622Z</time>
      </trkpt>
      <trkpt lat="45.34415" lon="6.14957">
        <ele>1905</ele>
        <time>2020-02-08T10:07:31.631Z</time>
      </trkpt>
      <trkpt lat="45.34413" lon="6.14944">
        <ele>1907</ele>
        <time>2020-02-08T10:07:46.603Z</time>
      </trkpt>
      <trkpt lat="45.34409" lon="6.14932">
        <ele>1910</ele>
        <time>2020-02-08T10:08:03.617Z</time>
      </trkpt>
      <trkpt lat="45.34408" lon="6.1492">
        <ele>1911</ele>
        <time>2020-02-08T10:08:18.617Z</time>
      </trkpt>
      <trkpt lat="45.34404" lon="6.14907">
        <ele>1913</ele>
        <time>2020-02-08T10:08:36.631Z</time>
      </trkpt>
      <trkpt lat="45.34401" lon="6.14895">
        <ele>1915</ele>
        <time>2020-02-08T10:08:50.621Z</time>
      </trkpt>
      <trkpt lat="45.34399" lon="6.14882">
        <ele>1917</ele>
        <time>2020-02-08T10:09:08.619Z</time>
      </trkpt>
      <trkpt lat="45.34396" lon="6.1487">
        <ele>1920</ele>
        <time>2020-02-08T10:09:26.631Z</time>
      </trkpt>
      <trkpt lat="45.34393" lon="6.14858">
        <ele>1922.0128775758</ele>
        <time>2020-02-08T10:09:43.617Z</time>
      </trkpt>
      <trkpt lat="45.34401" lon="6.14851">
        <ele>1926.0210048</ele>
        <time>2020-02-08T10:10:04.621Z</time>
      </trkpt>
      <trkpt lat="45.34408" lon="6.14841">
        <ele>1930</ele>
        <time>2020-02-08T10:10:26.621Z</time>
      </trkpt>
      <trkpt lat="45.34413" lon="6.1483">
        <ele>1932</ele>
        <time>2020-02-08T10:10:42.631Z</time>
      </trkpt>
      <trkpt lat="45.34413" lon="6.14817">
        <ele>1935</ele>
        <time>2020-02-08T10:10:59.617Z</time>
      </trkpt>
      <trkpt lat="45.34415" lon="6.14804">
        <ele>1938</ele>
        <time>2020-02-08T10:11:16.622Z</time>
      </trkpt>
      <trkpt lat="45.34424" lon="6.14802">
        <ele>1943</ele>
        <time>2020-02-08T10:11:46.621Z</time>
      </trkpt>
      <trkpt lat="45.34434" lon="6.14801">
        <ele>1946</ele>
        <time>2020-02-08T10:12:03.617Z</time>
      </trkpt>
      <trkpt lat="45.34443" lon="6.148">
        <ele>1949</ele>
        <time>2020-02-08T10:12:24.617Z</time>
      </trkpt>
      <trkpt lat="45.34452" lon="6.14798">
        <ele>1951.7823103129</ele>
        <time>2020-02-08T10:12:48.617Z</time>
      </trkpt>
      <trkpt lat="45.34461" lon="6.14796">
        <ele>1954</ele>
        <time>2020-02-08T10:13:04.617Z</time>
      </trkpt>
      <trkpt lat="45.34471" lon="6.14795">
        <ele>1956</ele>
        <time>2020-02-08T10:13:17.632Z</time>
      </trkpt>
      <trkpt lat="45.3448" lon="6.14794">
        <ele>1959</ele>
        <time>2020-02-08T10:13:34.617Z</time>
      </trkpt>
      <trkpt lat="45.34485" lon="6.14784">
        <ele>1965</ele>
        <time>2020-02-08T10:14:14.617Z</time>
      </trkpt>
      <trkpt lat="45.34483" lon="6.14771">
        <ele>1968</ele>
        <time>2020-02-08T10:14:33.618Z</time>
      </trkpt>
      <trkpt lat="45.3448" lon="6.14758">
        <ele>1970</ele>
        <time>2020-02-08T10:14:49.618Z</time>
      </trkpt>
      <trkpt lat="45.34475" lon="6.14747">
        <ele>1971.0477284849</ele>
        <time>2020-02-08T10:15:02.663Z</time>
      </trkpt>
      <trkpt lat="45.34469" lon="6.14736">
        <ele>1974</ele>
        <time>2020-02-08T10:15:19.618Z</time>
      </trkpt>
      <trkpt lat="45.34463" lon="6.14726">
        <ele>1977</ele>
        <time>2020-02-08T10:15:34.618Z</time>
      </trkpt>
      <trkpt lat="45.34457" lon="6.14716">
        <ele>1978.0169984</ele>
        <time>2020-02-08T10:15:50.617Z</time>
      </trkpt>
      <trkpt lat="45.34449" lon="6.14709">
        <ele>1981</ele>
        <time>2020-02-08T10:16:06.620Z</time>
      </trkpt>
      <trkpt lat="45.34444" lon="6.14697">
        <ele>1982.0128775758</ele>
        <time>2020-02-08T10:16:21.617Z</time>
      </trkpt>
      <trkpt lat="45.34436" lon="6.1469">
        <ele>1986</ele>
        <time>2020-02-08T10:16:40.620Z</time>
      </trkpt>
      <trkpt lat="45.34427" lon="6.14686">
        <ele>1989</ele>
        <time>2020-02-08T10:16:58.617Z</time>
      </trkpt>
      <trkpt lat="45.34418" lon="6.14683">
        <ele>1991</ele>
        <time>2020-02-08T10:17:13.620Z</time>
      </trkpt>
      <trkpt lat="45.34412" lon="6.14674">
        <ele>1994</ele>
        <time>2020-02-08T10:17:31.621Z</time>
      </trkpt>
      <trkpt lat="45.34406" lon="6.14663">
        <ele>1997</ele>
        <time>2020-02-08T10:17:48.618Z</time>
      </trkpt>
      <trkpt lat="45.344" lon="6.14653">
        <ele>1999</ele>
        <time>2020-02-08T10:18:10.631Z</time>
      </trkpt>
      <trkpt lat="45.34398" lon="6.1464">
        <ele>2003</ele>
        <time>2020-02-08T10:18:48.618Z</time>
      </trkpt>
      <trkpt lat="45.34395" lon="6.14628">
        <ele>2006.0210048</ele>
        <time>2020-02-08T10:19:03.621Z</time>
      </trkpt>
      <trkpt lat="45.34388" lon="6.1462">
        <ele>2007.0179968</ele>
        <time>2020-02-08T10:19:13.618Z</time>
      </trkpt>
      <trkpt lat="45.34379" lon="6.14613">
        <ele>2011</ele>
        <time>2020-02-08T10:19:29.588Z</time>
      </trkpt>
      <trkpt lat="45.3437" lon="6.14613">
        <ele>2013</ele>
        <time>2020-02-08T10:19:43.618Z</time>
      </trkpt>
      <trkpt lat="45.34361" lon="6.14615">
        <ele>2017</ele>
        <time>2020-02-08T10:19:56.631Z</time>
      </trkpt>
      <trkpt lat="45.34351" lon="6.14615">
        <ele>2018</ele>
        <time>2020-02-08T10:20:10.618Z</time>
      </trkpt>
      <trkpt lat="45.34342" lon="6.14615">
        <ele>2021</ele>
        <time>2020-02-08T10:20:25.650Z</time>
      </trkpt>
      <trkpt lat="45.34333" lon="6.1461">
        <ele>2023</ele>
        <time>2020-02-08T10:20:40.621Z</time>
      </trkpt>
      <trkpt lat="45.34324" lon="6.14609">
        <ele>2025</ele>
        <time>2020-02-08T10:20:50.617Z</time>
      </trkpt>
      <trkpt lat="45.34316" lon="6.14602">
        <ele>2028</ele>
        <time>2020-02-08T10:21:09.617Z</time>
      </trkpt>
      <trkpt lat="45.34312" lon="6.1459">
        <ele>2030</ele>
        <time>2020-02-08T10:21:37.617Z</time>
      </trkpt>
      <trkpt lat="45.34322" lon="6.14588">
        <ele>2032</ele>
        <time>2020-02-08T10:21:57.620Z</time>
      </trkpt>
      <trkpt lat="45.34315" lon="6.1458">
        <ele>2034</ele>
        <time>2020-02-08T10:22:25.617Z</time>
      </trkpt>
      <trkpt lat="45.3431" lon="6.14568">
        <ele>2035</ele>
        <time>2020-02-08T10:22:34.618Z</time>
      </trkpt>
      <trkpt lat="45.34305" lon="6.14557">
        <ele>2036</ele>
        <time>2020-02-08T10:22:42.618Z</time>
      </trkpt>
      <trkpt lat="45.34303" lon="6.14544">
        <ele>2037</ele>
        <time>2020-02-08T10:22:52.617Z</time>
      </trkpt>
      <trkpt lat="45.34301" lon="6.14531">
        <ele>2039</ele>
        <time>2020-02-08T10:23:04.618Z</time>
      </trkpt>
      <trkpt lat="45.34298" lon="6.14518">
        <ele>2039.0274759634</ele>
        <time>2020-02-08T10:23:14.618Z</time>
      </trkpt>
      <trkpt lat="45.34293" lon="6.14507">
        <ele>2043</ele>
        <time>2020-02-08T10:23:28.618Z</time>
      </trkpt>
      <trkpt lat="45.3429" lon="6.14495">
        <ele>2045.0127807826</ele>
        <time>2020-02-08T10:23:43.617Z</time>
      </trkpt>
      <trkpt lat="45.34289" lon="6.14482">
        <ele>2048</ele>
        <time>2020-02-08T10:23:59.618Z</time>
      </trkpt>
      <trkpt lat="45.34286" lon="6.14469">
        <ele>2051.0210048</ele>
        <time>2020-02-08T10:24:17.621Z</time>
      </trkpt>
      <trkpt lat="45.34284" lon="6.14456">
        <ele>2054</ele>
        <time>2020-02-08T10:24:34.618Z</time>
      </trkpt>
      <trkpt lat="45.34282" lon="6.14442">
        <ele>2056.0329984</ele>
        <time>2020-02-08T10:24:46.633Z</time>
      </trkpt>
      <trkpt lat="45.3428" lon="6.14429">
        <ele>2059</ele>
        <time>2020-02-08T10:25:01.633Z</time>
      </trkpt>
      <trkpt lat="45.34277" lon="6.14417">
        <ele>2062</ele>
        <time>2020-02-08T10:25:18.618Z</time>
      </trkpt>
      <trkpt lat="45.34274" lon="6.14404">
        <ele>2064</ele>
        <time>2020-02-08T10:25:31.633Z</time>
      </trkpt>
      <trkpt lat="45.34283" lon="6.14404">
        <ele>2073</ele>
        <time>2020-02-08T10:27:07.631Z</time>
      </trkpt>
      <trkpt lat="45.34291" lon="6.14411">
        <ele>2075</ele>
        <time>2020-02-08T10:27:26.618Z</time>
      </trkpt>
      <trkpt lat="45.34299" lon="6.14417">
        <ele>2078</ele>
        <time>2020-02-08T10:27:41.620Z</time>
      </trkpt>
      <trkpt lat="45.34307" lon="6.14422">
        <ele>2080</ele>
        <time>2020-02-08T10:29:02.620Z</time>
      </trkpt>
      <trkpt lat="45.34303" lon="6.14411">
        <ele>2083</ele>
        <time>2020-02-08T10:29:35.632Z</time>
      </trkpt>
      <trkpt lat="45.34302" lon="6.14397">
        <ele>2086</ele>
        <time>2020-02-08T10:29:55.663Z</time>
      </trkpt>
      <trkpt lat="45.34299" lon="6.14385">
        <ele>2088</ele>
        <time>2020-02-08T10:30:10.632Z</time>
      </trkpt>
      <trkpt lat="45.34296" lon="6.14372">
        <ele>2090</ele>
        <time>2020-02-08T10:30:24.618Z</time>
      </trkpt>
      <trkpt lat="45.34305" lon="6.14374">
        <ele>2094</ele>
        <time>2020-02-08T10:31:48.619Z</time>
      </trkpt>
      <trkpt lat="45.34312" lon="6.14382">
        <ele>2096</ele>
        <time>2020-02-08T10:32:07.619Z</time>
      </trkpt>
      <trkpt lat="45.3432" lon="6.1439">
        <ele>2099</ele>
        <time>2020-02-08T10:32:24.620Z</time>
      </trkpt>
      <trkpt lat="45.34326" lon="6.14399">
        <ele>2102</ele>
        <time>2020-02-08T10:32:37.629Z</time>
      </trkpt>
      <trkpt lat="45.34325" lon="6.14386">
        <ele>2105</ele>
        <time>2020-02-08T10:33:02.633Z</time>
      </trkpt>
      <trkpt lat="45.34323" lon="6.14373">
        <ele>2106</ele>
        <time>2020-02-08T10:33:16.619Z</time>
      </trkpt>
      <trkpt lat="45.34319" lon="6.14361">
        <ele>2109</ele>
        <time>2020-02-08T10:33:29.619Z</time>
      </trkpt>
      <trkpt lat="45.34318" lon="6.14348">
        <ele>2112</ele>
        <time>2020-02-08T10:33:45.619Z</time>
      </trkpt>
      <trkpt lat="45.34319" lon="6.14334">
        <ele>2114</ele>
        <time>2020-02-08T10:33:57.629Z</time>
      </trkpt>
      <trkpt lat="45.34327" lon="6.14342">
        <ele>2119</ele>
        <time>2020-02-08T10:35:16.619Z</time>
      </trkpt>
      <trkpt lat="45.34334" lon="6.14352">
        <ele>2122</ele>
        <time>2020-02-08T10:35:31.619Z</time>
      </trkpt>
      <trkpt lat="45.3434" lon="6.14361">
        <ele>2123</ele>
        <time>2020-02-08T10:35:48.619Z</time>
      </trkpt>
      <trkpt lat="45.34341" lon="6.14347">
        <ele>2131</ele>
        <time>2020-02-08T10:36:30.617Z</time>
      </trkpt>
      <trkpt lat="45.34338" lon="6.14335">
        <ele>2132</ele>
        <time>2020-02-08T10:36:48.631Z</time>
      </trkpt>
      <trkpt lat="45.34337" lon="6.14322">
        <ele>2135</ele>
        <time>2020-02-08T10:37:03.619Z</time>
      </trkpt>
      <trkpt lat="45.34335" lon="6.14309">
        <ele>2137</ele>
        <time>2020-02-08T10:37:16.619Z</time>
      </trkpt>
      <trkpt lat="45.34343" lon="6.14315">
        <ele>2141</ele>
        <time>2020-02-08T10:37:44.634Z</time>
      </trkpt>
      <trkpt lat="45.34351" lon="6.14323">
        <ele>2145</ele>
        <time>2020-02-08T10:38:00.619Z</time>
      </trkpt>
      <trkpt lat="45.34358" lon="6.14331">
        <ele>2147.0189952</ele>
        <time>2020-02-08T10:38:16.619Z</time>
      </trkpt>
      <trkpt lat="45.34364" lon="6.14341">
        <ele>2150.0199936</ele>
        <time>2020-02-08T10:38:35.620Z</time>
      </trkpt>
      <trkpt lat="45.34368" lon="6.14328">
        <ele>2156.0290048</ele>
        <time>2020-02-08T10:39:29.629Z</time>
      </trkpt>
      <trkpt lat="45.34371" lon="6.14315">
        <ele>2160</ele>
        <time>2020-02-08T10:39:45.589Z</time>
      </trkpt>
      <trkpt lat="45.34379" lon="6.14307">
        <ele>2163</ele>
        <time>2020-02-08T10:39:59.629Z</time>
      </trkpt>
      <trkpt lat="45.34388" lon="6.14302">
        <ele>2165</ele>
        <time>2020-02-08T10:40:15.619Z</time>
      </trkpt>
      <trkpt lat="45.34396" lon="6.14295">
        <ele>2168</ele>
        <time>2020-02-08T10:42:35.660Z</time>
      </trkpt>
      <trkpt lat="45.34388" lon="6.143">
        <ele>2169</ele>
        <time>2020-02-08T10:49:56.631Z</time>
      </trkpt>
      <trkpt lat="45.34395" lon="6.14293">
        <ele>2169</ele>
        <time>2020-02-08T10:51:59.631Z</time>
      </trkpt>
      <trkpt lat="45.34402" lon="6.14284">
        <ele>2168</ele>
        <time>2020-02-08T10:52:07.621Z</time>
      </trkpt>
      <trkpt lat="45.34393" lon="6.14284">
        <ele>2167</ele>
        <time>2020-02-08T10:53:20.631Z</time>
      </trkpt>
      <trkpt lat="45.34401" lon="6.14278">
        <ele>2167</ele>
        <time>2020-02-08T10:53:57.631Z</time>
      </trkpt>
      <trkpt lat="45.34401" lon="6.14291">
        <ele>2168</ele>
        <time>2020-02-08T10:57:47.631Z</time>
      </trkpt>
      <trkpt lat="45.34393" lon="6.14297">
        <ele>2171</ele>
        <time>2020-02-08T11:06:57.619Z</time>
      </trkpt>
      <trkpt lat="45.34383" lon="6.14298">
        <ele>2170</ele>
        <time>2020-02-08T11:11:45.587Z</time>
      </trkpt>
      <trkpt lat="45.34377" lon="6.14309">
        <ele>2166.9820032</ele>
        <time>2020-02-08T11:11:48.618Z</time>
      </trkpt>
      <trkpt lat="45.34367" lon="6.14313">
        <ele>2165.9820032</ele>
        <time>2020-02-08T11:11:51.618Z</time>
      </trkpt>
      <trkpt lat="45.34357" lon="6.14318">
        <ele>2162.9689984</ele>
        <time>2020-02-08T11:11:54.631Z</time>
      </trkpt>
      <trkpt lat="45.34347" lon="6.14314">
        <ele>2158.9789952</ele>
        <time>2020-02-08T11:11:57.621Z</time>
      </trkpt>
      <trkpt lat="45.34337" lon="6.14313">
        <ele>2154.9729370777</ele>
        <time>2020-02-08T11:12:00.618Z</time>
      </trkpt>
      <trkpt lat="45.34328" lon="6.14316">
        <ele>2149</ele>
        <time>2020-02-08T11:12:03.646Z</time>
      </trkpt>
      <trkpt lat="45.34315" lon="6.14319">
        <ele>2142.9579904</ele>
        <time>2020-02-08T11:12:06.621Z</time>
      </trkpt>
      <trkpt lat="45.34303" lon="6.14328">
        <ele>2135.9069952</ele>
        <time>2020-02-08T11:12:09.631Z</time>
      </trkpt>
      <trkpt lat="45.34294" lon="6.14339">
        <ele>2126.9594056166</ele>
        <time>2020-02-08T11:12:12.618Z</time>
      </trkpt>
      <trkpt lat="45.34284" lon="6.1434">
        <ele>2120.9190144</ele>
        <time>2020-02-08T11:12:14.627Z</time>
      </trkpt>
      <trkpt lat="45.34271" lon="6.14349">
        <ele>2111.9640064</ele>
        <time>2020-02-08T11:12:17.618Z</time>
      </trkpt>
      <trkpt lat="45.34262" lon="6.14357">
        <ele>2106.872</ele>
        <time>2020-02-08T11:12:19.632Z</time>
      </trkpt>
      <trkpt lat="45.34253" lon="6.14363">
        <ele>2100.6618267803</ele>
        <time>2020-02-08T11:12:21.621Z</time>
      </trkpt>
      <trkpt lat="45.34241" lon="6.14372">
        <ele>2093.9320064</ele>
        <time>2020-02-08T11:12:23.617Z</time>
      </trkpt>
      <trkpt lat="45.34232" lon="6.14385">
        <ele>2086.9320064</ele>
        <time>2020-02-08T11:12:25.617Z</time>
      </trkpt>
      <trkpt lat="45.34221" lon="6.14396">
        <ele>2080.696976113</ele>
        <time>2020-02-08T11:12:27.621Z</time>
      </trkpt>
      <trkpt lat="45.34215" lon="6.1441">
        <ele>2075.995495929</ele>
        <time>2020-02-08T11:12:29.602Z</time>
      </trkpt>
      <trkpt lat="45.34209" lon="6.14423">
        <ele>2068.9200256</ele>
        <time>2020-02-08T11:12:31.620Z</time>
      </trkpt>
      <trkpt lat="45.34204" lon="6.14437">
        <ele>2058.968</ele>
        <time>2020-02-08T11:12:34.632Z</time>
      </trkpt>
      <trkpt lat="45.3422" lon="6.14421">
        <ele>2058</ele>
        <time>2020-02-08T11:12:41.631Z</time>
      </trkpt>
      <trkpt lat="45.34223" lon="6.14406">
        <ele>2058</ele>
        <time>2020-02-08T11:12:44.631Z</time>
      </trkpt>
      <trkpt lat="45.3423" lon="6.14415">
        <ele>2057</ele>
        <time>2020-02-08T11:13:02.618Z</time>
      </trkpt>
      <trkpt lat="45.34239" lon="6.14412">
        <ele>2057</ele>
        <time>2020-02-08T11:13:28.621Z</time>
      </trkpt>
      <trkpt lat="45.34249" lon="6.1441">
        <ele>2058</ele>
        <time>2020-02-08T11:14:30.631Z</time>
      </trkpt>
      <trkpt lat="45.34249" lon="6.14425">
        <ele>2057</ele>
        <time>2020-02-08T11:15:43.617Z</time>
      </trkpt>
      <trkpt lat="45.34249" lon="6.14438">
        <ele>2055.9842068793</ele>
        <time>2020-02-08T11:15:45.621Z</time>
      </trkpt>
      <trkpt lat="45.34245" lon="6.14453">
        <ele>2050.915008</ele>
        <time>2020-02-08T11:15:47.617Z</time>
      </trkpt>
      <trkpt lat="45.34243" lon="6.14471">
        <ele>2041.9518975221</ele>
        <time>2020-02-08T11:15:49.621Z</time>
      </trkpt>
      <trkpt lat="45.34242" lon="6.14494">
        <ele>2033.7599744</ele>
        <time>2020-02-08T11:15:51.660Z</time>
      </trkpt>
      <trkpt lat="45.34238" lon="6.14516">
        <ele>2027.9368275172</ele>
        <time>2020-02-08T11:15:53.621Z</time>
      </trkpt>
      <trkpt lat="45.34238" lon="6.14542">
        <ele>2021</ele>
        <time>2020-02-08T11:15:55.646Z</time>
      </trkpt>
      <trkpt lat="45.3424" lon="6.14567">
        <ele>2015.9159808</ele>
        <time>2020-02-08T11:15:57.621Z</time>
      </trkpt>
      <trkpt lat="45.34244" lon="6.14581">
        <ele>2011.9526206379</ele>
        <time>2020-02-08T11:15:58.621Z</time>
      </trkpt>
      <trkpt lat="45.34252" lon="6.14603">
        <ele>2004.894976</ele>
        <time>2020-02-08T11:16:00.621Z</time>
      </trkpt>
      <trkpt lat="45.34254" lon="6.1462">
        <ele>1997.9369856</ele>
        <time>2020-02-08T11:16:02.621Z</time>
      </trkpt>
      <trkpt lat="45.34257" lon="6.14633">
        <ele>1992.9660032</ele>
        <time>2020-02-08T11:16:04.617Z</time>
      </trkpt>
      <trkpt lat="45.34259" lon="6.14647">
        <ele>1988.9766904702</ele>
        <time>2020-02-08T11:16:06.631Z</time>
      </trkpt>
      <trkpt lat="45.34261" lon="6.14661">
        <ele>1986.9839658407</ele>
        <time>2020-02-08T11:16:08.621Z</time>
      </trkpt>
      <trkpt lat="45.34266" lon="6.14676">
        <ele>1984.9539968</ele>
        <time>2020-02-08T11:16:10.646Z</time>
      </trkpt>
      <trkpt lat="45.34263" lon="6.14688">
        <ele>1982.9789952</ele>
        <time>2020-02-08T11:16:12.621Z</time>
      </trkpt>
      <trkpt lat="45.34248" lon="6.14695">
        <ele>1981</ele>
        <time>2020-02-08T11:16:14.621Z</time>
      </trkpt>
      <trkpt lat="45.34237" lon="6.147">
        <ele>1980.9730048</ele>
        <time>2020-02-08T11:16:16.627Z</time>
      </trkpt>
      <trkpt lat="45.34227" lon="6.14708">
        <ele>1979.9800064</ele>
        <time>2020-02-08T11:16:19.620Z</time>
      </trkpt>
      <trkpt lat="45.34218" lon="6.14713">
        <ele>1978</ele>
        <time>2020-02-08T11:16:23.620Z</time>
      </trkpt>
      <trkpt lat="45.34205" lon="6.14712">
        <ele>1977.0460032</ele>
        <time>2020-02-08T11:16:29.646Z</time>
      </trkpt>
      <trkpt lat="45.34196" lon="6.14712">
        <ele>1978</ele>
        <time>2020-02-08T11:16:34.621Z</time>
      </trkpt>
      <trkpt lat="45.34194" lon="6.14725">
        <ele>1976.9730048</ele>
        <time>2020-02-08T11:16:41.627Z</time>
      </trkpt>
      <trkpt lat="45.34196" lon="6.14743">
        <ele>1971.9660032</ele>
        <time>2020-02-08T11:16:44.617Z</time>
      </trkpt>
      <trkpt lat="45.342" lon="6.14757">
        <ele>1966.0199936</ele>
        <time>2020-02-08T11:16:49.590Z</time>
      </trkpt>
      <trkpt lat="45.34211" lon="6.14777">
        <ele>1962.9548822975</ele>
        <time>2020-02-08T11:16:51.630Z</time>
      </trkpt>
      <trkpt lat="45.34218" lon="6.14791">
        <ele>1957.9800064</ele>
        <time>2020-02-08T11:16:53.620Z</time>
      </trkpt>
      <trkpt lat="45.34198" lon="6.14769">
        <ele>1953</ele>
        <time>2020-02-08T11:17:02.630Z</time>
      </trkpt>
      <trkpt lat="45.34188" lon="6.1477">
        <ele>1953</ele>
        <time>2020-02-08T11:17:03.621Z</time>
      </trkpt>
      <trkpt lat="45.34174" lon="6.1477">
        <ele>1953</ele>
        <time>2020-02-08T11:17:05.620Z</time>
      </trkpt>
      <trkpt lat="45.34165" lon="6.14767">
        <ele>1953</ele>
        <time>2020-02-08T11:17:12.631Z</time>
      </trkpt>
      <trkpt lat="45.34155" lon="6.14769">
        <ele>1953</ele>
        <time>2020-02-08T11:17:53.621Z</time>
      </trkpt>
      <trkpt lat="45.34148" lon="6.14778">
        <ele>1953</ele>
        <time>2020-02-08T11:18:15.631Z</time>
      </trkpt>
      <trkpt lat="45.34145" lon="6.1479">
        <ele>1951</ele>
        <time>2020-02-08T11:18:21.618Z</time>
      </trkpt>
      <trkpt lat="45.34139" lon="6.14804">
        <ele>1950.9789952</ele>
        <time>2020-02-08T11:18:26.621Z</time>
      </trkpt>
      <trkpt lat="45.34144" lon="6.14822">
        <ele>1947.9579904</ele>
        <time>2020-02-08T11:18:28.621Z</time>
      </trkpt>
      <trkpt lat="45.34151" lon="6.14839">
        <ele>1942.9379968</ele>
        <time>2020-02-08T11:18:30.631Z</time>
      </trkpt>
      <trkpt lat="45.3416" lon="6.14856">
        <ele>1938.999237857</ele>
        <time>2020-02-08T11:18:32.621Z</time>
      </trkpt>
      <trkpt lat="45.34158" lon="6.14872">
        <ele>1936.9579904</ele>
        <time>2020-02-08T11:18:34.621Z</time>
      </trkpt>
      <trkpt lat="45.34161" lon="6.14886">
        <ele>1933.9789952</ele>
        <time>2020-02-08T11:18:36.621Z</time>
      </trkpt>
      <trkpt lat="45.34166" lon="6.14901">
        <ele>1931.9789952</ele>
        <time>2020-02-08T11:18:38.621Z</time>
      </trkpt>
      <trkpt lat="45.34173" lon="6.14916">
        <ele>1930.9813242653</ele>
        <time>2020-02-08T11:18:40.631Z</time>
      </trkpt>
      <trkpt lat="45.34177" lon="6.1493">
        <ele>1930</ele>
        <time>2020-02-08T11:18:43.591Z</time>
      </trkpt>
      <trkpt lat="45.34179" lon="6.14943">
        <ele>1929</ele>
        <time>2020-02-08T11:18:50.631Z</time>
      </trkpt>
      <trkpt lat="45.3419" lon="6.14951">
        <ele>1928</ele>
        <time>2020-02-08T11:18:53.621Z</time>
      </trkpt>
      <trkpt lat="45.34196" lon="6.14964">
        <ele>1928</ele>
        <time>2020-02-08T11:18:56.621Z</time>
      </trkpt>
      <trkpt lat="45.34202" lon="6.14975">
        <ele>1928</ele>
        <time>2020-02-08T11:18:59.621Z</time>
      </trkpt>
      <trkpt lat="45.34206" lon="6.14987">
        <ele>1925</ele>
        <time>2020-02-08T11:19:38.621Z</time>
      </trkpt>
      <trkpt lat="45.34216" lon="6.1499">
        <ele>1923</ele>
        <time>2020-02-08T11:19:45.631Z</time>
      </trkpt>
      <trkpt lat="45.34227" lon="6.15003">
        <ele>1921.9579904</ele>
        <time>2020-02-08T11:19:48.621Z</time>
      </trkpt>
      <trkpt lat="45.34233" lon="6.15022">
        <ele>1917.9300714107</ele>
        <time>2020-02-08T11:19:50.631Z</time>
      </trkpt>
      <trkpt lat="45.34238" lon="6.15039">
        <ele>1913.7339904</ele>
        <time>2020-02-08T11:19:52.733Z</time>
      </trkpt>
      <trkpt lat="45.34244" lon="6.15052">
        <ele>1907.9689984</ele>
        <time>2020-02-08T11:19:55.631Z</time>
      </trkpt>
      <trkpt lat="45.34259" lon="6.15063">
        <ele>1897.6902200065</ele>
        <time>2020-02-08T11:19:59.703Z</time>
      </trkpt>
      <trkpt lat="45.34283" lon="6.15073">
        <ele>1890</ele>
        <time>2020-02-08T11:20:01.631Z</time>
      </trkpt>
      <trkpt lat="45.3429" lon="6.1508">
        <ele>1889.9379968</ele>
        <time>2020-02-08T11:20:02.631Z</time>
      </trkpt>
      <trkpt lat="45.34298" lon="6.1509">
        <ele>1887.9879936</ele>
        <time>2020-02-08T11:20:03.606Z</time>
      </trkpt>
      <trkpt lat="45.34317" lon="6.15118">
        <ele>1881.7112775008</ele>
        <time>2020-02-08T11:20:06.728Z</time>
      </trkpt>
      <trkpt lat="45.34327" lon="6.15128">
        <ele>1879.6744268858</ele>
        <time>2020-02-08T11:20:07.631Z</time>
      </trkpt>
      <trkpt lat="45.34338" lon="6.15145">
        <ele>1872.9766904702</ele>
        <time>2020-02-08T11:20:09.631Z</time>
      </trkpt>
      <trkpt lat="45.34343" lon="6.15155">
        <ele>1872.2248089619</ele>
        <time>2020-02-08T11:20:10.631Z</time>
      </trkpt>
      <trkpt lat="45.34343" lon="6.15169">
        <ele>1867.9579904</ele>
        <time>2020-02-08T11:20:13.621Z</time>
      </trkpt>
      <trkpt lat="45.34354" lon="6.15183">
        <ele>1863.976152498</ele>
        <time>2020-02-08T11:20:15.631Z</time>
      </trkpt>
      <trkpt lat="45.34363" lon="6.15198">
        <ele>1860.8619904</ele>
        <time>2020-02-08T11:20:17.646Z</time>
      </trkpt>
      <trkpt lat="45.34372" lon="6.15209">
        <ele>1855.9684137586</ele>
        <time>2020-02-08T11:20:19.621Z</time>
      </trkpt>
      <trkpt lat="45.34385" lon="6.1522">
        <ele>1845</ele>
        <time>2020-02-08T11:20:26.630Z</time>
      </trkpt>
      <trkpt lat="45.34401" lon="6.15223">
        <ele>1844</ele>
        <time>2020-02-08T11:20:30.631Z</time>
      </trkpt>
      <trkpt lat="45.34394" lon="6.15215">
        <ele>1844</ele>
        <time>2020-02-08T11:20:34.628Z</time>
      </trkpt>
      <trkpt lat="45.34404" lon="6.15215">
        <ele>1844</ele>
        <time>2020-02-08T11:20:51.733Z</time>
      </trkpt>
      <trkpt lat="45.34395" lon="6.15219">
        <ele>1843</ele>
        <time>2020-02-08T11:21:00.631Z</time>
      </trkpt>
      <trkpt lat="45.34385" lon="6.15217">
        <ele>1842</ele>
        <time>2020-02-08T11:21:07.618Z</time>
      </trkpt>
      <trkpt lat="45.34395" lon="6.15216">
        <ele>1842</ele>
        <time>2020-02-08T11:21:40.631Z</time>
      </trkpt>
      <trkpt lat="45.34405" lon="6.15218">
        <ele>1840.9766904702</ele>
        <time>2020-02-08T11:21:44.631Z</time>
      </trkpt>
      <trkpt lat="45.34422" lon="6.15222">
        <ele>1839.9689984</ele>
        <time>2020-02-08T11:21:46.631Z</time>
      </trkpt>
      <trkpt lat="45.34432" lon="6.15229">
        <ele>1837.9799936</ele>
        <time>2020-02-08T11:21:48.620Z</time>
      </trkpt>
      <trkpt lat="45.34437" lon="6.15241">
        <ele>1835.9694559525</ele>
        <time>2020-02-08T11:21:50.620Z</time>
      </trkpt>
      <trkpt lat="45.34435" lon="6.15255">
        <ele>1832</ele>
        <time>2020-02-08T11:21:52.658Z</time>
      </trkpt>
      <trkpt lat="45.3444" lon="6.15271">
        <ele>1825.9458741555</ele>
        <time>2020-02-08T11:21:55.618Z</time>
      </trkpt>
      <trkpt lat="45.34441" lon="6.15284">
        <ele>1812</ele>
        <time>2020-02-08T11:22:06.630Z</time>
      </trkpt>
      <trkpt lat="45.34452" lon="6.15293">
        <ele>1810.9839658407</ele>
        <time>2020-02-08T11:22:09.621Z</time>
      </trkpt>
      <trkpt lat="45.34461" lon="6.153">
        <ele>1809</ele>
        <time>2020-02-08T11:22:11.661Z</time>
      </trkpt>
      <trkpt lat="45.3446" lon="6.15316">
        <ele>1803.9842068793</ele>
        <time>2020-02-08T11:22:14.621Z</time>
      </trkpt>
      <trkpt lat="45.34459" lon="6.15331">
        <ele>1796.9369856</ele>
        <time>2020-02-08T11:22:17.621Z</time>
      </trkpt>
      <trkpt lat="45.34462" lon="6.15344">
        <ele>1784.9099904</ele>
        <time>2020-02-08T11:22:21.630Z</time>
      </trkpt>
      <trkpt lat="45.34467" lon="6.1536">
        <ele>1775.9600128</ele>
        <time>2020-02-08T11:22:25.620Z</time>
      </trkpt>
      <trkpt lat="45.34475" lon="6.15376">
        <ele>1767.9541839287</ele>
        <time>2020-02-08T11:22:28.620Z</time>
      </trkpt>
      <trkpt lat="45.34481" lon="6.15389">
        <ele>1762</ele>
        <time>2020-02-08T11:22:30.645Z</time>
      </trkpt>
      <trkpt lat="45.34487" lon="6.15406">
        <ele>1758.910016</ele>
        <time>2020-02-08T11:22:32.618Z</time>
      </trkpt>
      <trkpt lat="45.34488" lon="6.1542">
        <ele>1749.9199744</ele>
        <time>2020-02-08T11:22:34.620Z</time>
      </trkpt>
      <trkpt lat="45.34497" lon="6.15426">
        <ele>1740.9800064</ele>
        <time>2020-02-08T11:22:37.620Z</time>
      </trkpt>
      <trkpt lat="45.34507" lon="6.15429">
        <ele>1738</ele>
        <time>2020-02-08T11:22:44.620Z</time>
      </trkpt>
      <trkpt lat="45.34517" lon="6.15431">
        <ele>1738</ele>
        <time>2020-02-08T11:22:48.620Z</time>
      </trkpt>
      <trkpt lat="45.34531" lon="6.15433">
        <ele>1738</ele>
        <time>2020-02-08T11:22:54.620Z</time>
      </trkpt>
      <trkpt lat="45.34539" lon="6.15442">
        <ele>1737.9699968</ele>
        <time>2020-02-08T11:22:56.630Z</time>
      </trkpt>
      <trkpt lat="45.34546" lon="6.15454">
        <ele>1734.9599872</ele>
        <time>2020-02-08T11:22:58.620Z</time>
      </trkpt>
      <trkpt lat="45.34554" lon="6.1547">
        <ele>1731.9548726734</ele>
        <time>2020-02-08T11:23:00.620Z</time>
      </trkpt>
      <trkpt lat="45.34559" lon="6.15483">
        <ele>1727.9640064</ele>
        <time>2020-02-08T11:23:02.618Z</time>
      </trkpt>
      <trkpt lat="45.34567" lon="6.15493">
        <ele>1724</ele>
        <time>2020-02-08T11:23:07.618Z</time>
      </trkpt>
      <trkpt lat="45.34558" lon="6.15493">
        <ele>1724</ele>
        <time>2020-02-08T11:23:39.620Z</time>
      </trkpt>
      <trkpt lat="45.34548" lon="6.15494">
        <ele>1724</ele>
        <time>2020-02-08T11:23:53.633Z</time>
      </trkpt>
      <trkpt lat="45.34542" lon="6.15507">
        <ele>1724</ele>
        <time>2020-02-08T11:24:22.618Z</time>
      </trkpt>
      <trkpt lat="45.34536" lon="6.1552">
        <ele>1722</ele>
        <time>2020-02-08T11:24:28.632Z</time>
      </trkpt>
      <trkpt lat="45.34539" lon="6.15532">
        <ele>1721</ele>
        <time>2020-02-08T11:24:39.618Z</time>
      </trkpt>
      <trkpt lat="45.3454" lon="6.15545">
        <ele>1720</ele>
        <time>2020-02-08T11:24:42.630Z</time>
      </trkpt>
      <trkpt lat="45.34544" lon="6.15558">
        <ele>1719</ele>
        <time>2020-02-08T11:24:52.632Z</time>
      </trkpt>
      <trkpt lat="45.34542" lon="6.15574">
        <ele>1718</ele>
        <time>2020-02-08T11:24:58.618Z</time>
      </trkpt>
      <trkpt lat="45.34547" lon="6.15587">
        <ele>1718</ele>
        <time>2020-02-08T11:25:03.588Z</time>
      </trkpt>
      <trkpt lat="45.34548" lon="6.15603">
        <ele>1717</ele>
        <time>2020-02-08T11:25:07.633Z</time>
      </trkpt>
      <trkpt lat="45.34546" lon="6.15622">
        <ele>1715.9820032</ele>
        <time>2020-02-08T11:25:10.618Z</time>
      </trkpt>
      <trkpt lat="45.34543" lon="6.15638">
        <ele>1715</ele>
        <time>2020-02-08T11:25:13.619Z</time>
      </trkpt>
      <trkpt lat="45.34532" lon="6.15639">
        <ele>1714</ele>
        <time>2020-02-08T11:25:31.618Z</time>
      </trkpt>
      <trkpt lat="45.3452" lon="6.15635">
        <ele>1714</ele>
        <time>2020-02-08T11:25:35.617Z</time>
      </trkpt>
      <trkpt lat="45.34509" lon="6.15631">
        <ele>1714</ele>
        <time>2020-02-08T11:25:41.588Z</time>
      </trkpt>
      <trkpt lat="45.34501" lon="6.15626">
        <ele>1714</ele>
        <time>2020-02-08T11:25:43.619Z</time>
      </trkpt>
      <trkpt lat="45.34484" lon="6.15589">
        <ele>1713.9689984</ele>
        <time>2020-02-08T11:25:47.631Z</time>
      </trkpt>
      <trkpt lat="45.34496" lon="6.15577">
        <ele>1713.0234860606</ele>
        <time>2020-02-08T11:25:50.631Z</time>
      </trkpt>
      <trkpt lat="45.3449" lon="6.15595">
        <ele>1714</ele>
        <time>2020-02-08T11:25:57.631Z</time>
      </trkpt>
      <trkpt lat="45.34476" lon="6.15616">
        <ele>1714</ele>
        <time>2020-02-08T11:25:58.631Z</time>
      </trkpt>
      <trkpt lat="45.34469" lon="6.15629">
        <ele>1712.952</ele>
        <time>2020-02-08T11:25:59.648Z</time>
      </trkpt>
      <trkpt lat="45.34461" lon="6.1564">
        <ele>1712.0119936</ele>
        <time>2020-02-08T11:26:00.588Z</time>
      </trkpt>
      <trkpt lat="45.34455" lon="6.15655">
        <ele>1710.9799936</ele>
        <time>2020-02-08T11:26:02.620Z</time>
      </trkpt>
      <trkpt lat="45.34448" lon="6.15664">
        <ele>1708.9799936</ele>
        <time>2020-02-08T11:26:04.620Z</time>
      </trkpt>
      <trkpt lat="45.3444" lon="6.15674">
        <ele>1706.0189952</ele>
        <time>2020-02-08T11:26:11.619Z</time>
      </trkpt>
      <trkpt lat="45.34443" lon="6.15688">
        <ele>1706</ele>
        <time>2020-02-08T11:26:22.631Z</time>
      </trkpt>
      <trkpt lat="45.34442" lon="6.15701">
        <ele>1703</ele>
        <time>2020-02-08T11:26:29.618Z</time>
      </trkpt>
      <trkpt lat="45.34439" lon="6.15714">
        <ele>1698</ele>
        <time>2020-02-08T11:27:08.630Z</time>
      </trkpt>
      <trkpt lat="45.34438" lon="6.1573">
        <ele>1697.9379968</ele>
        <time>2020-02-08T11:27:10.631Z</time>
      </trkpt>
      <trkpt lat="45.34433" lon="6.15742">
        <ele>1694.9689984</ele>
        <time>2020-02-08T11:27:12.631Z</time>
      </trkpt>
      <trkpt lat="45.34442" lon="6.15748">
        <ele>1691</ele>
        <time>2020-02-08T11:27:19.630Z</time>
      </trkpt>
      <trkpt lat="45.34433" lon="6.15751">
        <ele>1691</ele>
        <time>2020-02-08T11:27:50.631Z</time>
      </trkpt>
      <trkpt lat="45.34423" lon="6.15748">
        <ele>1691</ele>
        <time>2020-02-08T11:28:33.589Z</time>
      </trkpt>
      <trkpt lat="45.34433" lon="6.1575">
        <ele>1691</ele>
        <time>2020-02-08T11:29:29.634Z</time>
      </trkpt>
      <trkpt lat="45.34423" lon="6.1575">
        <ele>1691</ele>
        <time>2020-02-08T11:30:37.617Z</time>
      </trkpt>
      <trkpt lat="45.34415" lon="6.15741">
        <ele>1691</ele>
        <time>2020-02-08T11:30:48.620Z</time>
      </trkpt>
      <trkpt lat="45.34409" lon="6.15751">
        <ele>1691</ele>
        <time>2020-02-08T11:31:09.631Z</time>
      </trkpt>
      <trkpt lat="45.3441" lon="6.15738">
        <ele>1691</ele>
        <time>2020-02-08T11:31:26.620Z</time>
      </trkpt>
      <trkpt lat="45.34401" lon="6.15737">
        <ele>1690</ele>
        <time>2020-02-08T11:31:41.631Z</time>
      </trkpt>
      <trkpt lat="45.34409" lon="6.15741">
        <ele>1690</ele>
        <time>2020-02-08T11:32:08.631Z</time>
      </trkpt>
      <trkpt lat="45.34401" lon="6.15744">
        <ele>1691</ele>
        <time>2020-02-08T11:32:30.631Z</time>
      </trkpt>
      <trkpt lat="45.34398" lon="6.1573">
        <ele>1692</ele>
        <time>2020-02-08T11:33:13.630Z</time>
      </trkpt>
      <trkpt lat="45.34408" lon="6.15724">
        <ele>1692</ele>
        <time>2020-02-08T11:33:19.619Z</time>
      </trkpt>
      <trkpt lat="45.34418" lon="6.15718">
        <ele>1692</ele>
        <time>2020-02-08T11:33:25.631Z</time>
      </trkpt>
      <trkpt lat="45.34422" lon="6.15707">
        <ele>1693</ele>
        <time>2020-02-08T11:33:36.631Z</time>
      </trkpt>
      <trkpt lat="45.34431" lon="6.15704">
        <ele>1694</ele>
        <time>2020-02-08T11:33:44.619Z</time>
      </trkpt>
      <trkpt lat="45.34438" lon="6.15692">
        <ele>1696</ele>
        <time>2020-02-08T11:33:56.631Z</time>
      </trkpt>
      <trkpt lat="45.34429" lon="6.15702">
        <ele>1696</ele>
        <time>2020-02-08T11:34:52.631Z</time>
      </trkpt>
      <trkpt lat="45.34438" lon="6.15708">
        <ele>1697</ele>
        <time>2020-02-08T11:35:01.620Z</time>
      </trkpt>
      <trkpt lat="45.34429" lon="6.15705">
        <ele>1697</ele>
        <time>2020-02-08T11:35:16.618Z</time>
      </trkpt>
      <trkpt lat="45.34427" lon="6.15692">
        <ele>1699.0179968</ele>
        <time>2020-02-08T11:35:33.618Z</time>
      </trkpt>
      <trkpt lat="45.3443" lon="6.1568">
        <ele>1702</ele>
        <time>2020-02-08T11:35:53.619Z</time>
      </trkpt>
      <trkpt lat="45.34429" lon="6.15667">
        <ele>1704</ele>
        <time>2020-02-08T11:37:11.618Z</time>
      </trkpt>
      <trkpt lat="45.34425" lon="6.15656">
        <ele>1704</ele>
        <time>2020-02-08T11:40:22.620Z</time>
      </trkpt>
      <trkpt lat="45.34426" lon="6.15642">
        <ele>1706</ele>
        <time>2020-02-08T11:40:33.648Z</time>
      </trkpt>
      <trkpt lat="45.34425" lon="6.15629">
        <ele>1708.0200064</ele>
        <time>2020-02-08T11:40:46.620Z</time>
      </trkpt>
      <trkpt lat="45.3443" lon="6.15617">
        <ele>1712</ele>
        <time>2020-02-08T11:41:00.631Z</time>
      </trkpt>
      <trkpt lat="45.34432" lon="6.15604">
        <ele>1713</ele>
        <time>2020-02-08T11:41:08.630Z</time>
      </trkpt>
      <trkpt lat="45.34431" lon="6.15591">
        <ele>1713</ele>
        <time>2020-02-08T11:41:16.620Z</time>
      </trkpt>
      <trkpt lat="45.34437" lon="6.1558">
        <ele>1713</ele>
        <time>2020-02-08T11:41:23.630Z</time>
      </trkpt>
      <trkpt lat="45.3444" lon="6.15567">
        <ele>1714.0200064</ele>
        <time>2020-02-08T11:41:32.620Z</time>
      </trkpt>
      <trkpt lat="45.34437" lon="6.15555">
        <ele>1715</ele>
        <time>2020-02-08T11:41:40.617Z</time>
      </trkpt>
      <trkpt lat="45.34438" lon="6.15542">
        <ele>1716</ele>
        <time>2020-02-08T11:41:49.649Z</time>
      </trkpt>
      <trkpt lat="45.3444" lon="6.15526">
        <ele>1715.968</ele>
        <time>2020-02-08T11:41:56.632Z</time>
      </trkpt>
      <trkpt lat="45.34452" lon="6.15523">
        <ele>1712.9800064</ele>
        <time>2020-02-08T11:41:59.620Z</time>
      </trkpt>
      <trkpt lat="45.34461" lon="6.15539">
        <ele>1704.6070144</ele>
        <time>2020-02-08T11:42:04.731Z</time>
      </trkpt>
      <trkpt lat="45.34467" lon="6.15553">
        <ele>1699.9626485307</ele>
        <time>2020-02-08T11:42:06.631Z</time>
      </trkpt>
      <trkpt lat="45.34475" lon="6.15563">
        <ele>1696</ele>
        <time>2020-02-08T11:42:08.645Z</time>
      </trkpt>
      <trkpt lat="45.34486" lon="6.15571">
        <ele>1693.9599872</ele>
        <time>2020-02-08T11:42:10.620Z</time>
      </trkpt>
      <trkpt lat="45.34488" lon="6.15583">
        <ele>1689.9699968</ele>
        <time>2020-02-08T11:42:12.630Z</time>
      </trkpt>
      <trkpt lat="45.34492" lon="6.15596">
        <ele>1686.9399808</ele>
        <time>2020-02-08T11:42:14.620Z</time>
      </trkpt>
      <trkpt lat="45.34502" lon="6.15607">
        <ele>1682.9703609591</ele>
        <time>2020-02-08T11:42:16.620Z</time>
      </trkpt>
      <trkpt lat="45.34512" lon="6.15608">
        <ele>1678.9660032</ele>
        <time>2020-02-08T11:42:18.617Z</time>
      </trkpt>
      <trkpt lat="45.34521" lon="6.15609">
        <ele>1675.9799936</ele>
        <time>2020-02-08T11:42:20.620Z</time>
      </trkpt>
      <trkpt lat="45.34532" lon="6.15613">
        <ele>1671.9800064</ele>
        <time>2020-02-08T11:42:23.620Z</time>
      </trkpt>
      <trkpt lat="45.34533" lon="6.15626">
        <ele>1668</ele>
        <time>2020-02-08T11:42:37.633Z</time>
      </trkpt>
      <trkpt lat="45.34525" lon="6.15631">
        <ele>1668</ele>
        <time>2020-02-08T11:42:51.631Z</time>
      </trkpt>
      <trkpt lat="45.34535" lon="6.15641">
        <ele>1668</ele>
        <time>2020-02-08T11:43:14.731Z</time>
      </trkpt>
      <trkpt lat="45.34528" lon="6.15649">
        <ele>1668</ele>
        <time>2020-02-08T11:43:19.620Z</time>
      </trkpt>
      <trkpt lat="45.34537" lon="6.15638">
        <ele>1668</ele>
        <time>2020-02-08T11:43:24.631Z</time>
      </trkpt>
      <trkpt lat="45.34527" lon="6.15641">
        <ele>1668</ele>
        <time>2020-02-08T11:43:33.631Z</time>
      </trkpt>
      <trkpt lat="45.34522" lon="6.15651">
        <ele>1668</ele>
        <time>2020-02-08T11:43:48.620Z</time>
      </trkpt>
      <trkpt lat="45.34516" lon="6.15639">
        <ele>1667</ele>
        <time>2020-02-08T11:43:59.618Z</time>
      </trkpt>
      <trkpt lat="45.34511" lon="6.15628">
        <ele>1668</ele>
        <time>2020-02-08T11:44:20.620Z</time>
      </trkpt>
      <trkpt lat="45.34521" lon="6.15626">
        <ele>1668</ele>
        <time>2020-02-08T11:44:31.620Z</time>
      </trkpt>
      <trkpt lat="45.3453" lon="6.15624">
        <ele>1668</ele>
        <time>2020-02-08T11:44:36.618Z</time>
      </trkpt>
      <trkpt lat="45.3452" lon="6.15629">
        <ele>1668</ele>
        <time>2020-02-08T11:44:43.618Z</time>
      </trkpt>
      <trkpt lat="45.34512" lon="6.15636">
        <ele>1668</ele>
        <time>2020-02-08T11:44:50.620Z</time>
      </trkpt>
      <trkpt lat="45.34521" lon="6.15636">
        <ele>1668</ele>
        <time>2020-02-08T11:44:59.648Z</time>
      </trkpt>
      <trkpt lat="45.34529" lon="6.15629">
        <ele>1669</ele>
        <time>2020-02-08T11:45:46.631Z</time>
      </trkpt>
      <trkpt lat="45.34521" lon="6.15623">
        <ele>1669</ele>
        <time>2020-02-08T11:45:57.631Z</time>
      </trkpt>
      <trkpt lat="45.3451" lon="6.1562">
        <ele>1669</ele>
        <time>2020-02-08T11:46:07.618Z</time>
      </trkpt>
      <trkpt lat="45.3452" lon="6.15625">
        <ele>1669</ele>
        <time>2020-02-08T11:46:26.621Z</time>
      </trkpt>
      <trkpt lat="45.3451" lon="6.15634">
        <ele>1669</ele>
        <time>2020-02-08T11:47:10.619Z</time>
      </trkpt>
      <trkpt lat="45.34519" lon="6.1564">
        <ele>1669</ele>
        <time>2020-02-08T11:47:28.619Z</time>
      </trkpt>
      <trkpt lat="45.34528" lon="6.15638">
        <ele>1669</ele>
        <time>2020-02-08T11:47:31.631Z</time>
      </trkpt>
      <trkpt lat="45.34518" lon="6.15632">
        <ele>1669</ele>
        <time>2020-02-08T11:47:38.618Z</time>
      </trkpt>
      <trkpt lat="45.34527" lon="6.15626">
        <ele>1670</ele>
        <time>2020-02-08T11:48:28.649Z</time>
      </trkpt>
      <trkpt lat="45.34518" lon="6.15623">
        <ele>1669.7846065989</ele>
        <time>2020-02-08T11:50:21.620Z</time>
      </trkpt>
      <trkpt lat="45.3451" lon="6.15616">
        <ele>1670</ele>
        <time>2020-02-08T11:51:46.619Z</time>
      </trkpt>
      <trkpt lat="45.34513" lon="6.15603">
        <ele>1674</ele>
        <time>2020-02-08T11:52:08.620Z</time>
      </trkpt>
      <trkpt lat="45.3452" lon="6.15594">
        <ele>1677</ele>
        <time>2020-02-08T11:52:20.631Z</time>
      </trkpt>
      <trkpt lat="45.34519" lon="6.15581">
        <ele>1678</ele>
        <time>2020-02-08T11:52:37.629Z</time>
      </trkpt>
      <trkpt lat="45.3451" lon="6.15578">
        <ele>1682.0199936</ele>
        <time>2020-02-08T11:53:03.620Z</time>
      </trkpt>
      <trkpt lat="45.34502" lon="6.15568">
        <ele>1687</ele>
        <time>2020-02-08T11:53:42.619Z</time>
      </trkpt>
      <trkpt lat="45.34492" lon="6.15564">
        <ele>1687</ele>
        <time>2020-02-08T11:53:47.619Z</time>
      </trkpt>
      <trkpt lat="45.34483" lon="6.15561">
        <ele>1690</ele>
        <time>2020-02-08T11:54:09.619Z</time>
      </trkpt>
      <trkpt lat="45.34478" lon="6.1555">
        <ele>1694</ele>
        <time>2020-02-08T11:54:34.620Z</time>
      </trkpt>
      <trkpt lat="45.34475" lon="6.15538">
        <ele>1696</ele>
        <time>2020-02-08T11:54:44.621Z</time>
      </trkpt>
      <trkpt lat="45.34482" lon="6.1553">
        <ele>1698</ele>
        <time>2020-02-08T11:54:59.630Z</time>
      </trkpt>
      <trkpt lat="45.34473" lon="6.15532">
        <ele>1700</ele>
        <time>2020-02-08T11:55:12.620Z</time>
      </trkpt>
      <trkpt lat="45.34464" lon="6.15535">
        <ele>1704</ele>
        <time>2020-02-08T11:55:38.619Z</time>
      </trkpt>
      <trkpt lat="45.34458" lon="6.15525">
        <ele>1705.0210048</ele>
        <time>2020-02-08T11:55:50.621Z</time>
      </trkpt>
      <trkpt lat="45.3446" lon="6.15511">
        <ele>1707.0200064</ele>
        <time>2020-02-08T11:56:06.620Z</time>
      </trkpt>
      <trkpt lat="45.34456" lon="6.155">
        <ele>1711</ele>
        <time>2020-02-08T11:56:29.629Z</time>
      </trkpt>
      <trkpt lat="45.34443" lon="6.15497">
        <ele>1711</ele>
        <time>2020-02-08T11:56:34.629Z</time>
      </trkpt>
      <trkpt lat="45.34441" lon="6.1551">
        <ele>1714</ele>
        <time>2020-02-08T11:56:55.619Z</time>
      </trkpt>
      <trkpt lat="45.34442" lon="6.15524">
        <ele>1715.0189952</ele>
        <time>2020-02-08T11:57:08.619Z</time>
      </trkpt>
      <trkpt lat="45.3444" lon="6.15537">
        <ele>1717</ele>
        <time>2020-02-08T11:57:39.651Z</time>
      </trkpt>
      <trkpt lat="45.34433" lon="6.15547">
        <ele>1717</ele>
        <time>2020-02-08T11:57:51.620Z</time>
      </trkpt>
      <trkpt lat="45.34423" lon="6.15549">
        <ele>1720</ele>
        <time>2020-02-08T11:58:07.660Z</time>
      </trkpt>
      <trkpt lat="45.34415" lon="6.15553">
        <ele>1721.0152622528</ele>
        <time>2020-02-08T11:58:19.620Z</time>
      </trkpt>
      <trkpt lat="45.34409" lon="6.15563">
        <ele>1724</ele>
        <time>2020-02-08T11:58:33.620Z</time>
      </trkpt>
      <trkpt lat="45.344" lon="6.1557">
        <ele>1725</ele>
        <time>2020-02-08T11:58:44.620Z</time>
      </trkpt>
      <trkpt lat="45.34393" lon="6.15579">
        <ele>1727</ele>
        <time>2020-02-08T11:58:56.590Z</time>
      </trkpt>
      <trkpt lat="45.34383" lon="6.15584">
        <ele>1729</ele>
        <time>2020-02-08T11:59:04.620Z</time>
      </trkpt>
      <trkpt lat="45.34388" lon="6.15595">
        <ele>1731</ele>
        <time>2020-02-08T11:59:22.631Z</time>
      </trkpt>
      <trkpt lat="45.34383" lon="6.15607">
        <ele>1730</ele>
        <time>2020-02-08T11:59:30.631Z</time>
      </trkpt>
      <trkpt lat="45.34376" lon="6.15619">
        <ele>1730</ele>
        <time>2020-02-08T12:00:23.619Z</time>
      </trkpt>
      <trkpt lat="45.34374" lon="6.15633">
        <ele>1728.9699968</ele>
        <time>2020-02-08T12:00:25.630Z</time>
      </trkpt>
      <trkpt lat="45.34373" lon="6.15646">
        <ele>1726.9810048</ele>
        <time>2020-02-08T12:00:27.619Z</time>
      </trkpt>
      <trkpt lat="45.34375" lon="6.15661">
        <ele>1725</ele>
        <time>2020-02-08T12:00:30.660Z</time>
      </trkpt>
      <trkpt lat="45.34368" lon="6.15671">
        <ele>1723</ele>
        <time>2020-02-08T12:00:39.631Z</time>
      </trkpt>
      <trkpt lat="45.34358" lon="6.15675">
        <ele>1723</ele>
        <time>2020-02-08T12:00:45.620Z</time>
      </trkpt>
      <trkpt lat="45.34355" lon="6.15688">
        <ele>1722</ele>
        <time>2020-02-08T12:00:52.621Z</time>
      </trkpt>
      <trkpt lat="45.3435" lon="6.157">
        <ele>1720.9789952</ele>
        <time>2020-02-08T12:00:59.621Z</time>
      </trkpt>
      <trkpt lat="45.34345" lon="6.15713">
        <ele>1719</ele>
        <time>2020-02-08T12:01:04.621Z</time>
      </trkpt>
      <trkpt lat="45.34344" lon="6.15727">
        <ele>1717.9813242653</ele>
        <time>2020-02-08T12:01:06.631Z</time>
      </trkpt>
      <trkpt lat="45.34345" lon="6.15744">
        <ele>1715</ele>
        <time>2020-02-08T12:01:08.651Z</time>
      </trkpt>
      <trkpt lat="45.34346" lon="6.15759">
        <ele>1710</ele>
        <time>2020-02-08T12:01:11.630Z</time>
      </trkpt>
      <trkpt lat="45.34348" lon="6.15774">
        <ele>1708</ele>
        <time>2020-02-08T12:01:16.629Z</time>
      </trkpt>
      <trkpt lat="45.34349" lon="6.15786">
        <ele>1706.0159127273</ele>
        <time>2020-02-08T12:01:23.621Z</time>
      </trkpt>
      <trkpt lat="45.34351" lon="6.158">
        <ele>1709</ele>
        <time>2020-02-08T12:01:35.620Z</time>
      </trkpt>
      <trkpt lat="45.34355" lon="6.15812">
        <ele>1711</ele>
        <time>2020-02-08T12:01:46.660Z</time>
      </trkpt>
      <trkpt lat="45.34359" lon="6.15824">
        <ele>1712.0199936</ele>
        <time>2020-02-08T12:01:57.620Z</time>
      </trkpt>
      <trkpt lat="45.34353" lon="6.15834">
        <ele>1714</ele>
        <time>2020-02-08T12:02:07.621Z</time>
      </trkpt>
      <trkpt lat="45.34348" lon="6.15846">
        <ele>1715.0199936</ele>
        <time>2020-02-08T12:02:17.620Z</time>
      </trkpt>
      <trkpt lat="45.34347" lon="6.15858">
        <ele>1717</ele>
        <time>2020-02-08T12:02:26.631Z</time>
      </trkpt>
      <trkpt lat="45.34345" lon="6.15871">
        <ele>1721</ele>
        <time>2020-02-08T12:02:42.619Z</time>
      </trkpt>
      <trkpt lat="45.34336" lon="6.15879">
        <ele>1723</ele>
        <time>2020-02-08T12:02:57.619Z</time>
      </trkpt>
      <trkpt lat="45.34327" lon="6.1588">
        <ele>1728</ele>
        <time>2020-02-08T12:03:18.619Z</time>
      </trkpt>
      <trkpt lat="45.34327" lon="6.15893">
        <ele>1730.0200064</ele>
        <time>2020-02-08T12:03:32.620Z</time>
      </trkpt>
      <trkpt lat="45.34317" lon="6.15891">
        <ele>1732</ele>
        <time>2020-02-08T12:04:11.631Z</time>
      </trkpt>
      <trkpt lat="45.34325" lon="6.159">
        <ele>1732</ele>
        <time>2020-02-08T12:04:38.589Z</time>
      </trkpt>
      <trkpt lat="45.34333" lon="6.15895">
        <ele>1733</ele>
        <time>2020-02-08T12:11:03.629Z</time>
      </trkpt>
      <trkpt lat="45.34342" lon="6.15898">
        <ele>1729</ele>
        <time>2020-02-08T12:11:24.619Z</time>
      </trkpt>
      <trkpt lat="45.34337" lon="6.15887">
        <ele>1728</ele>
        <time>2020-02-08T12:12:06.619Z</time>
      </trkpt>
      <trkpt lat="45.34344" lon="6.15896">
        <ele>1728</ele>
        <time>2020-02-08T12:13:37.619Z</time>
      </trkpt>
      <trkpt lat="45.34335" lon="6.15894">
        <ele>1728</ele>
        <time>2020-02-08T12:14:01.619Z</time>
      </trkpt>
      <trkpt lat="45.34343" lon="6.15886">
        <ele>1727</ele>
        <time>2020-02-08T12:15:11.620Z</time>
      </trkpt>
      <trkpt lat="45.34332" lon="6.15887">
        <ele>1728</ele>
        <time>2020-02-08T12:17:01.622Z</time>
      </trkpt>
      <trkpt lat="45.3434" lon="6.15896">
        <ele>1729</ele>
        <time>2020-02-08T12:17:53.634Z</time>
      </trkpt>
      <trkpt lat="45.3433" lon="6.15899">
        <ele>1729</ele>
        <time>2020-02-08T12:18:05.620Z</time>
      </trkpt>
      <trkpt lat="45.34338" lon="6.15892">
        <ele>1730</ele>
        <time>2020-02-08T12:18:38.619Z</time>
      </trkpt>
      <trkpt lat="45.34328" lon="6.15892">
        <ele>1729</ele>
        <time>2020-02-08T12:20:07.618Z</time>
      </trkpt>
      <trkpt lat="45.34337" lon="6.15895">
        <ele>1728</ele>
        <time>2020-02-08T12:21:44.588Z</time>
      </trkpt>
      <trkpt lat="45.34346" lon="6.159">
        <ele>1730</ele>
        <time>2020-02-08T12:24:42.618Z</time>
      </trkpt>
      <trkpt lat="45.34338" lon="6.15891">
        <ele>1730</ele>
        <time>2020-02-08T12:24:51.620Z</time>
      </trkpt>
      <trkpt lat="45.34346" lon="6.15897">
        <ele>1730</ele>
        <time>2020-02-08T12:26:23.618Z</time>
      </trkpt>
      <trkpt lat="45.34337" lon="6.15888">
        <ele>1730</ele>
        <time>2020-02-08T12:26:39.620Z</time>
      </trkpt>
      <trkpt lat="45.34341" lon="6.159">
        <ele>1729</ele>
        <time>2020-02-08T12:28:41.650Z</time>
      </trkpt>
      <trkpt lat="45.34333" lon="6.15895">
        <ele>1729</ele>
        <time>2020-02-08T12:29:11.620Z</time>
      </trkpt>
      <trkpt lat="45.34342" lon="6.15896">
        <ele>1729</ele>
        <time>2020-02-08T12:29:34.620Z</time>
      </trkpt>
      <trkpt lat="45.34334" lon="6.15889">
        <ele>1729.9872192174</ele>
        <time>2020-02-08T12:31:55.617Z</time>
      </trkpt>
      <trkpt lat="45.34326" lon="6.15883">
        <ele>1730</ele>
        <time>2020-02-08T12:31:58.619Z</time>
      </trkpt>
      <trkpt lat="45.34334" lon="6.15889">
        <ele>1730</ele>
        <time>2020-02-08T12:32:10.650Z</time>
      </trkpt>
      <trkpt lat="45.34344" lon="6.15892">
        <ele>1730</ele>
        <time>2020-02-08T12:32:32.618Z</time>
      </trkpt>
      <trkpt lat="45.34334" lon="6.1589">
        <ele>1730</ele>
        <time>2020-02-08T12:33:50.618Z</time>
      </trkpt>
      <trkpt lat="45.34325" lon="6.15885">
        <ele>1728</ele>
        <time>2020-02-08T12:38:04.618Z</time>
      </trkpt>
      <trkpt lat="45.34328" lon="6.15873">
        <ele>1727</ele>
        <time>2020-02-08T12:39:21.631Z</time>
      </trkpt>
      <trkpt lat="45.34319" lon="6.15873">
        <ele>1727</ele>
        <time>2020-02-08T12:39:31.621Z</time>
      </trkpt>
      <trkpt lat="45.3431" lon="6.1587">
        <ele>1727</ele>
        <time>2020-02-08T12:40:11.617Z</time>
      </trkpt>
      <trkpt lat="45.3432" lon="6.15876">
        <ele>1723</ele>
        <time>2020-02-08T12:41:40.631Z</time>
      </trkpt>
      <trkpt lat="45.34328" lon="6.15884">
        <ele>1721</ele>
        <time>2020-02-08T12:42:00.631Z</time>
      </trkpt>
      <trkpt lat="45.34334" lon="6.15894">
        <ele>1720</ele>
        <time>2020-02-08T12:42:41.621Z</time>
      </trkpt>
      <trkpt lat="45.3434" lon="6.15885">
        <ele>1723</ele>
        <time>2020-02-08T12:48:16.618Z</time>
      </trkpt>
      <trkpt lat="45.34332" lon="6.15892">
        <ele>1723</ele>
        <time>2020-02-08T12:54:09.621Z</time>
      </trkpt>
      <trkpt lat="45.34323" lon="6.15895">
        <ele>1726</ele>
        <time>2020-02-08T12:54:38.632Z</time>
      </trkpt>
      <trkpt lat="45.34316" lon="6.15905">
        <ele>1734</ele>
        <time>2020-02-08T13:05:32.621Z</time>
      </trkpt>
      <trkpt lat="45.34307" lon="6.1591">
        <ele>1735</ele>
        <time>2020-02-08T13:06:37.617Z</time>
      </trkpt>
      <trkpt lat="45.34301" lon="6.15919">
        <ele>1737</ele>
        <time>2020-02-08T13:06:51.617Z</time>
      </trkpt>
      <trkpt lat="45.34294" lon="6.1593">
        <ele>1740.0269952</ele>
        <time>2020-02-08T13:07:10.627Z</time>
      </trkpt>
      <trkpt lat="45.34288" lon="6.1594">
        <ele>1742</ele>
        <time>2020-02-08T13:07:23.622Z</time>
      </trkpt>
      <trkpt lat="45.3428" lon="6.15946">
        <ele>1745</ele>
        <time>2020-02-08T13:07:37.617Z</time>
      </trkpt>
      <trkpt lat="45.34272" lon="6.15954">
        <ele>1746</ele>
        <time>2020-02-08T13:07:51.617Z</time>
      </trkpt>
      <trkpt lat="45.34264" lon="6.15959">
        <ele>1747</ele>
        <time>2020-02-08T13:08:06.617Z</time>
      </trkpt>
      <trkpt lat="45.34254" lon="6.1596">
        <ele>1749</ele>
        <time>2020-02-08T13:08:19.617Z</time>
      </trkpt>
      <trkpt lat="45.34247" lon="6.15968">
        <ele>1750</ele>
        <time>2020-02-08T13:10:01.620Z</time>
      </trkpt>
      <trkpt lat="45.34237" lon="6.1597">
        <ele>1750.2113648485</ele>
        <time>2020-02-08T13:10:09.631Z</time>
      </trkpt>
      <trkpt lat="45.34228" lon="6.15972">
        <ele>1750</ele>
        <time>2020-02-08T13:10:14.632Z</time>
      </trkpt>
      <trkpt lat="45.34219" lon="6.15977">
        <ele>1749</ele>
        <time>2020-02-08T13:10:23.617Z</time>
      </trkpt>
      <trkpt lat="45.34211" lon="6.15985">
        <ele>1751</ele>
        <time>2020-02-08T13:10:34.627Z</time>
      </trkpt>
      <trkpt lat="45.34202" lon="6.15993">
        <ele>1751</ele>
        <time>2020-02-08T13:10:44.627Z</time>
      </trkpt>
      <trkpt lat="45.34195" lon="6.16001">
        <ele>1751</ele>
        <time>2020-02-08T13:10:57.620Z</time>
      </trkpt>
      <trkpt lat="45.34187" lon="6.16009">
        <ele>1751</ele>
        <time>2020-02-08T13:11:16.617Z</time>
      </trkpt>
      <trkpt lat="45.34178" lon="6.16014">
        <ele>1752</ele>
        <time>2020-02-08T13:11:25.617Z</time>
      </trkpt>
      <trkpt lat="45.34171" lon="6.16022">
        <ele>1752</ele>
        <time>2020-02-08T13:11:36.620Z</time>
      </trkpt>
      <trkpt lat="45.34165" lon="6.16032">
        <ele>1752</ele>
        <time>2020-02-08T13:11:45.621Z</time>
      </trkpt>
      <trkpt lat="45.34165" lon="6.16045">
        <ele>1752</ele>
        <time>2020-02-08T13:12:29.630Z</time>
      </trkpt>
      <trkpt lat="45.34158" lon="6.16053">
        <ele>1753</ele>
        <time>2020-02-08T13:12:41.622Z</time>
      </trkpt>
      <trkpt lat="45.34149" lon="6.16056">
        <ele>1754</ele>
        <time>2020-02-08T13:12:52.622Z</time>
      </trkpt>
      <trkpt lat="45.3414" lon="6.16059">
        <ele>1755</ele>
        <time>2020-02-08T13:13:01.619Z</time>
      </trkpt>
      <trkpt lat="45.3413" lon="6.1606">
        <ele>1756</ele>
        <time>2020-02-08T13:13:15.620Z</time>
      </trkpt>
      <trkpt lat="45.34121" lon="6.16063">
        <ele>1756.0262346063</ele>
        <time>2020-02-08T13:13:25.617Z</time>
      </trkpt>
      <trkpt lat="45.34112" lon="6.16064">
        <ele>1758</ele>
        <time>2020-02-08T13:13:34.630Z</time>
      </trkpt>
      <trkpt lat="45.34102" lon="6.16065">
        <ele>1758</ele>
        <time>2020-02-08T13:13:42.617Z</time>
      </trkpt>
      <trkpt lat="45.34093" lon="6.16066">
        <ele>1758.9730048</ele>
        <time>2020-02-08T13:13:52.617Z</time>
      </trkpt>
      <trkpt lat="45.34083" lon="6.16069">
        <ele>1759.04</ele>
        <time>2020-02-08T13:14:04.630Z</time>
      </trkpt>
      <trkpt lat="45.34075" lon="6.16075">
        <ele>1762</ele>
        <time>2020-02-08T13:14:16.631Z</time>
      </trkpt>
      <trkpt lat="45.34066" lon="6.1608">
        <ele>1765</ele>
        <time>2020-02-08T13:14:32.617Z</time>
      </trkpt>
      <trkpt lat="45.34056" lon="6.16084">
        <ele>1767</ele>
        <time>2020-02-08T13:14:45.617Z</time>
      </trkpt>
      <trkpt lat="45.34048" lon="6.16091">
        <ele>1770</ele>
        <time>2020-02-08T13:15:00.617Z</time>
      </trkpt>
      <trkpt lat="45.34039" lon="6.16094">
        <ele>1770</ele>
        <time>2020-02-08T13:15:15.622Z</time>
      </trkpt>
      <trkpt lat="45.34029" lon="6.16095">
        <ele>1771</ele>
        <time>2020-02-08T13:15:27.622Z</time>
      </trkpt>
      <trkpt lat="45.34019" lon="6.16094">
        <ele>1772</ele>
        <time>2020-02-08T13:16:04.632Z</time>
      </trkpt>
      <trkpt lat="45.34009" lon="6.16096">
        <ele>1773</ele>
        <time>2020-02-08T13:16:14.633Z</time>
      </trkpt>
      <trkpt lat="45.34" lon="6.16097">
        <ele>1773</ele>
        <time>2020-02-08T13:16:23.617Z</time>
      </trkpt>
      <trkpt lat="45.33991" lon="6.16101">
        <ele>1775</ele>
        <time>2020-02-08T13:16:33.617Z</time>
      </trkpt>
      <trkpt lat="45.33982" lon="6.16104">
        <ele>1775</ele>
        <time>2020-02-08T13:16:44.632Z</time>
      </trkpt>
      <trkpt lat="45.33973" lon="6.1611">
        <ele>1777</ele>
        <time>2020-02-08T13:16:55.620Z</time>
      </trkpt>
      <trkpt lat="45.33966" lon="6.16119">
        <ele>1778</ele>
        <time>2020-02-08T13:17:07.617Z</time>
      </trkpt>
      <trkpt lat="45.33958" lon="6.16125">
        <ele>1778</ele>
        <time>2020-02-08T13:17:18.620Z</time>
      </trkpt>
      <trkpt lat="45.33949" lon="6.16131">
        <ele>1779</ele>
        <time>2020-02-08T13:17:29.632Z</time>
      </trkpt>
      <trkpt lat="45.3394" lon="6.16136">
        <ele>1780</ele>
        <time>2020-02-08T13:17:40.617Z</time>
      </trkpt>
      <trkpt lat="45.33931" lon="6.16139">
        <ele>1782</ele>
        <time>2020-02-08T13:17:51.617Z</time>
      </trkpt>
      <trkpt lat="45.33923" lon="6.16142">
        <ele>1782.0300032</ele>
        <time>2020-02-08T13:18:02.620Z</time>
      </trkpt>
      <trkpt lat="45.33913" lon="6.16142">
        <ele>1783</ele>
        <time>2020-02-08T13:18:12.622Z</time>
      </trkpt>
      <trkpt lat="45.33904" lon="6.16147">
        <ele>1784</ele>
        <time>2020-02-08T13:18:23.620Z</time>
      </trkpt>
      <trkpt lat="45.33895" lon="6.16144">
        <ele>1785</ele>
        <time>2020-02-08T13:18:32.618Z</time>
      </trkpt>
      <trkpt lat="45.33886" lon="6.16142">
        <ele>1786</ele>
        <time>2020-02-08T13:18:42.617Z</time>
      </trkpt>
      <trkpt lat="45.33877" lon="6.16142">
        <ele>1787</ele>
        <time>2020-02-08T13:18:54.632Z</time>
      </trkpt>
      <trkpt lat="45.33867" lon="6.16139">
        <ele>1789</ele>
        <time>2020-02-08T13:19:05.617Z</time>
      </trkpt>
      <trkpt lat="45.33858" lon="6.16135">
        <ele>1790</ele>
        <time>2020-02-08T13:19:19.632Z</time>
      </trkpt>
      <trkpt lat="45.3385" lon="6.16127">
        <ele>1791</ele>
        <time>2020-02-08T13:19:32.617Z</time>
      </trkpt>
      <trkpt lat="45.33842" lon="6.16121">
        <ele>1793</ele>
        <time>2020-02-08T13:19:46.617Z</time>
      </trkpt>
      <trkpt lat="45.33832" lon="6.1612">
        <ele>1795</ele>
        <time>2020-02-08T13:20:00.618Z</time>
      </trkpt>
      <trkpt lat="45.33823" lon="6.16122">
        <ele>1798</ele>
        <time>2020-02-08T13:20:15.617Z</time>
      </trkpt>
      <trkpt lat="45.33814" lon="6.16126">
        <ele>1801</ele>
        <time>2020-02-08T13:20:29.635Z</time>
      </trkpt>
      <trkpt lat="45.33806" lon="6.16133">
        <ele>1803</ele>
        <time>2020-02-08T13:20:42.617Z</time>
      </trkpt>
      <trkpt lat="45.33797" lon="6.16135">
        <ele>1804.9730048</ele>
        <time>2020-02-08T13:20:56.617Z</time>
      </trkpt>
      <trkpt lat="45.33787" lon="6.16135">
        <ele>1806</ele>
        <time>2020-02-08T13:21:08.617Z</time>
      </trkpt>
      <trkpt lat="45.33782" lon="6.16124">
        <ele>1808</ele>
        <time>2020-02-08T13:21:25.618Z</time>
      </trkpt>
      <trkpt lat="45.33772" lon="6.16124">
        <ele>1811.0310678646</ele>
        <time>2020-02-08T13:21:47.622Z</time>
      </trkpt>
      <trkpt lat="45.33764" lon="6.16131">
        <ele>1813.0313727459</ele>
        <time>2020-02-08T13:21:58.622Z</time>
      </trkpt>
      <trkpt lat="45.33755" lon="6.16132">
        <ele>1815</ele>
        <time>2020-02-08T13:22:09.635Z</time>
      </trkpt>
      <trkpt lat="45.33747" lon="6.16138">
        <ele>1815.9580032</ele>
        <time>2020-02-08T13:22:19.632Z</time>
      </trkpt>
      <trkpt lat="45.33738" lon="6.16135">
        <ele>1816</ele>
        <time>2020-02-08T13:22:29.632Z</time>
      </trkpt>
      <trkpt lat="45.33729" lon="6.16133">
        <ele>1816</ele>
        <time>2020-02-08T13:22:39.632Z</time>
      </trkpt>
      <trkpt lat="45.33719" lon="6.16134">
        <ele>1817</ele>
        <time>2020-02-08T13:22:48.617Z</time>
      </trkpt>
      <trkpt lat="45.3371" lon="6.16131">
        <ele>1819</ele>
        <time>2020-02-08T13:23:07.618Z</time>
      </trkpt>
      <trkpt lat="45.33701" lon="6.16132">
        <ele>1820</ele>
        <time>2020-02-08T13:23:21.620Z</time>
      </trkpt>
      <trkpt lat="45.33692" lon="6.16135">
        <ele>1821</ele>
        <time>2020-02-08T13:23:31.620Z</time>
      </trkpt>
      <trkpt lat="45.33683" lon="6.16138">
        <ele>1822</ele>
        <time>2020-02-08T13:23:43.618Z</time>
      </trkpt>
      <trkpt lat="45.33674" lon="6.16142">
        <ele>1823</ele>
        <time>2020-02-08T13:23:53.618Z</time>
      </trkpt>
      <trkpt lat="45.33665" lon="6.16147">
        <ele>1824</ele>
        <time>2020-02-08T13:24:05.618Z</time>
      </trkpt>
      <trkpt lat="45.33657" lon="6.16153">
        <ele>1823</ele>
        <time>2020-02-08T13:24:15.618Z</time>
      </trkpt>
      <trkpt lat="45.33649" lon="6.16161">
        <ele>1823</ele>
        <time>2020-02-08T13:24:25.620Z</time>
      </trkpt>
      <trkpt lat="45.33641" lon="6.16165">
        <ele>1825</ele>
        <time>2020-02-08T13:24:37.620Z</time>
      </trkpt>
      <trkpt lat="45.33632" lon="6.16169">
        <ele>1825</ele>
        <time>2020-02-08T13:24:51.618Z</time>
      </trkpt>
      <trkpt lat="45.33624" lon="6.16177">
        <ele>1825</ele>
        <time>2020-02-08T13:25:03.618Z</time>
      </trkpt>
      <trkpt lat="45.33615" lon="6.16182">
        <ele>1827</ele>
        <time>2020-02-08T13:25:14.632Z</time>
      </trkpt>
      <trkpt lat="45.33606" lon="6.16187">
        <ele>1828</ele>
        <time>2020-02-08T13:25:25.619Z</time>
      </trkpt>
      <trkpt lat="45.33596" lon="6.1619">
        <ele>1828</ele>
        <time>2020-02-08T13:25:38.617Z</time>
      </trkpt>
      <trkpt lat="45.33587" lon="6.16195">
        <ele>1831</ele>
        <time>2020-02-08T13:25:50.622Z</time>
      </trkpt>
      <trkpt lat="45.33579" lon="6.16203">
        <ele>1833</ele>
        <time>2020-02-08T13:26:04.632Z</time>
      </trkpt>
      <trkpt lat="45.33571" lon="6.1621">
        <ele>1835</ele>
        <time>2020-02-08T13:26:17.617Z</time>
      </trkpt>
      <trkpt lat="45.33565" lon="6.1622">
        <ele>1836.028992</ele>
        <time>2020-02-08T13:26:27.619Z</time>
      </trkpt>
      <trkpt lat="45.33561" lon="6.16232">
        <ele>1838</ele>
        <time>2020-02-08T13:27:42.618Z</time>
      </trkpt>
      <trkpt lat="45.33553" lon="6.16238">
        <ele>1839</ele>
        <time>2020-02-08T13:28:52.618Z</time>
      </trkpt>
      <trkpt lat="45.3355" lon="6.16251">
        <ele>1839.028992</ele>
        <time>2020-02-08T13:29:37.619Z</time>
      </trkpt>
      <trkpt lat="45.33543" lon="6.1626">
        <ele>1840.0269952</ele>
        <time>2020-02-08T13:29:52.617Z</time>
      </trkpt>
      <trkpt lat="45.33541" lon="6.16273">
        <ele>1842</ele>
        <time>2020-02-08T13:30:09.619Z</time>
      </trkpt>
      <trkpt lat="45.33538" lon="6.16285">
        <ele>1843</ele>
        <time>2020-02-08T13:30:23.620Z</time>
      </trkpt>
      <trkpt lat="45.33534" lon="6.16297">
        <ele>1846</ele>
        <time>2020-02-08T13:30:34.618Z</time>
      </trkpt>
      <trkpt lat="45.3353" lon="6.1631">
        <ele>1847</ele>
        <time>2020-02-08T13:30:46.618Z</time>
      </trkpt>
      <trkpt lat="45.33524" lon="6.1632">
        <ele>1849</ele>
        <time>2020-02-08T13:30:57.628Z</time>
      </trkpt>
      <trkpt lat="45.33522" lon="6.16333">
        <ele>1851</ele>
        <time>2020-02-08T13:31:12.627Z</time>
      </trkpt>
      <trkpt lat="45.33518" lon="6.16346">
        <ele>1853</ele>
        <time>2020-02-08T13:31:25.618Z</time>
      </trkpt>
      <trkpt lat="45.33515" lon="6.16359">
        <ele>1854.0411735917</ele>
        <time>2020-02-08T13:31:47.632Z</time>
      </trkpt>
      <trkpt lat="45.33517" lon="6.16372">
        <ele>1856</ele>
        <time>2020-02-08T13:32:17.631Z</time>
      </trkpt>
      <trkpt lat="45.33518" lon="6.16385">
        <ele>1858</ele>
        <time>2020-02-08T13:32:31.621Z</time>
      </trkpt>
      <trkpt lat="45.33518" lon="6.16398">
        <ele>1861</ele>
        <time>2020-02-08T13:32:48.618Z</time>
      </trkpt>
      <trkpt lat="45.33519" lon="6.16411">
        <ele>1862</ele>
        <time>2020-02-08T13:33:00.621Z</time>
      </trkpt>
      <trkpt lat="45.33527" lon="6.16406">
        <ele>1865</ele>
        <time>2020-02-08T13:33:21.618Z</time>
      </trkpt>
      <trkpt lat="45.33535" lon="6.16401">
        <ele>1867</ele>
        <time>2020-02-08T13:33:36.618Z</time>
      </trkpt>
      <trkpt lat="45.33542" lon="6.16392">
        <ele>1870</ele>
        <time>2020-02-08T13:33:53.618Z</time>
      </trkpt>
      <trkpt lat="45.33539" lon="6.16405">
        <ele>1875</ele>
        <time>2020-02-08T13:34:12.633Z</time>
      </trkpt>
      <trkpt lat="45.33537" lon="6.16417">
        <ele>1877</ele>
        <time>2020-02-08T13:34:29.618Z</time>
      </trkpt>
      <trkpt lat="45.33536" lon="6.1643">
        <ele>1880</ele>
        <time>2020-02-08T13:35:02.628Z</time>
      </trkpt>
      <trkpt lat="45.33537" lon="6.16443">
        <ele>1883</ele>
        <time>2020-02-08T13:35:42.631Z</time>
      </trkpt>
      <trkpt lat="45.33538" lon="6.16456">
        <ele>1886</ele>
        <time>2020-02-08T13:35:56.631Z</time>
      </trkpt>
      <trkpt lat="45.33548" lon="6.16456">
        <ele>1891</ele>
        <time>2020-02-08T13:36:35.617Z</time>
      </trkpt>
      <trkpt lat="45.33554" lon="6.16447">
        <ele>1893.0300032</ele>
        <time>2020-02-08T13:36:50.620Z</time>
      </trkpt>
      <trkpt lat="45.33562" lon="6.1644">
        <ele>1897</ele>
        <time>2020-02-08T13:37:10.619Z</time>
      </trkpt>
      <trkpt lat="45.33558" lon="6.16451">
        <ele>1900</ele>
        <time>2020-02-08T13:38:04.633Z</time>
      </trkpt>
      <trkpt lat="45.33555" lon="6.16463">
        <ele>1903</ele>
        <time>2020-02-08T13:38:45.622Z</time>
      </trkpt>
      <trkpt lat="45.33564" lon="6.1646">
        <ele>1910</ele>
        <time>2020-02-08T13:39:52.621Z</time>
      </trkpt>
      <trkpt lat="45.33569" lon="6.16471">
        <ele>1912</ele>
        <time>2020-02-08T13:40:06.620Z</time>
      </trkpt>
      <trkpt lat="45.33567" lon="6.16485">
        <ele>1914</ele>
        <time>2020-02-08T13:40:30.618Z</time>
      </trkpt>
      <trkpt lat="45.33563" lon="6.16496">
        <ele>1916</ele>
        <time>2020-02-08T13:41:32.618Z</time>
      </trkpt>
      <trkpt lat="45.33568" lon="6.16486">
        <ele>1916</ele>
        <time>2020-02-08T13:42:19.631Z</time>
      </trkpt>
      <trkpt lat="45.33564" lon="6.16498">
        <ele>1918</ele>
        <time>2020-02-08T13:44:00.619Z</time>
      </trkpt>
      <trkpt lat="45.33559" lon="6.16508">
        <ele>1921</ele>
        <time>2020-02-08T13:44:13.619Z</time>
      </trkpt>
      <trkpt lat="45.33559" lon="6.16522">
        <ele>1924</ele>
        <time>2020-02-08T13:44:45.619Z</time>
      </trkpt>
      <trkpt lat="45.33567" lon="6.16516">
        <ele>1926</ele>
        <time>2020-02-08T13:45:07.622Z</time>
      </trkpt>
      <trkpt lat="45.33575" lon="6.16509">
        <ele>1928</ele>
        <time>2020-02-08T13:45:18.622Z</time>
      </trkpt>
      <trkpt lat="45.33584" lon="6.16512">
        <ele>1930</ele>
        <time>2020-02-08T13:45:30.622Z</time>
      </trkpt>
      <trkpt lat="45.33585" lon="6.16525">
        <ele>1932</ele>
        <time>2020-02-08T13:45:43.631Z</time>
      </trkpt>
      <trkpt lat="45.33583" lon="6.16538">
        <ele>1934</ele>
        <time>2020-02-08T13:46:07.634Z</time>
      </trkpt>
      <trkpt lat="45.33578" lon="6.16549">
        <ele>1937</ele>
        <time>2020-02-08T13:46:18.619Z</time>
      </trkpt>
      <trkpt lat="45.33573" lon="6.1656">
        <ele>1938.028992</ele>
        <time>2020-02-08T13:46:31.619Z</time>
      </trkpt>
      <trkpt lat="45.33567" lon="6.16572">
        <ele>1941</ele>
        <time>2020-02-08T13:46:44.619Z</time>
      </trkpt>
      <trkpt lat="45.33564" lon="6.16584">
        <ele>1945</ele>
        <time>2020-02-08T13:47:01.620Z</time>
      </trkpt>
      <trkpt lat="45.33561" lon="6.16596">
        <ele>1946</ele>
        <time>2020-02-08T13:47:13.619Z</time>
      </trkpt>
      <trkpt lat="45.33558" lon="6.16609">
        <ele>1947</ele>
        <time>2020-02-08T13:47:24.619Z</time>
      </trkpt>
      <trkpt lat="45.33563" lon="6.1662">
        <ele>1948.9718521648</ele>
        <time>2020-02-08T13:48:34.619Z</time>
      </trkpt>
      <trkpt lat="45.33562" lon="6.16634">
        <ele>1947</ele>
        <time>2020-02-08T13:48:46.635Z</time>
      </trkpt>
      <trkpt lat="45.33558" lon="6.16646">
        <ele>1947</ele>
        <time>2020-02-08T13:48:57.619Z</time>
      </trkpt>
      <trkpt lat="45.33561" lon="6.1666">
        <ele>1947</ele>
        <time>2020-02-08T13:49:21.631Z</time>
      </trkpt>
      <trkpt lat="45.33557" lon="6.16671">
        <ele>1947.0439936</ele>
        <time>2020-02-08T13:49:28.634Z</time>
      </trkpt>
      <trkpt lat="45.33549" lon="6.16681">
        <ele>1947</ele>
        <time>2020-02-08T13:49:37.631Z</time>
      </trkpt>
      <trkpt lat="45.33544" lon="6.16695">
        <ele>1946</ele>
        <time>2020-02-08T13:49:45.631Z</time>
      </trkpt>
      <trkpt lat="45.33535" lon="6.16703">
        <ele>1947</ele>
        <time>2020-02-08T13:49:53.619Z</time>
      </trkpt>
      <trkpt lat="45.33532" lon="6.16717">
        <ele>1947</ele>
        <time>2020-02-08T13:50:02.631Z</time>
      </trkpt>
      <trkpt lat="45.3353" lon="6.1673">
        <ele>1947</ele>
        <time>2020-02-08T13:50:13.631Z</time>
      </trkpt>
      <trkpt lat="45.33526" lon="6.16743">
        <ele>1947.028992</ele>
        <time>2020-02-08T13:50:25.619Z</time>
      </trkpt>
      <trkpt lat="45.33517" lon="6.1675">
        <ele>1948</ele>
        <time>2020-02-08T13:50:33.619Z</time>
      </trkpt>
      <trkpt lat="45.33513" lon="6.16764">
        <ele>1948</ele>
        <time>2020-02-08T13:50:42.629Z</time>
      </trkpt>
      <trkpt lat="45.33507" lon="6.16775">
        <ele>1949</ele>
        <time>2020-02-08T13:50:53.619Z</time>
      </trkpt>
      <trkpt lat="45.33502" lon="6.16787">
        <ele>1949</ele>
        <time>2020-02-08T13:51:03.619Z</time>
      </trkpt>
      <trkpt lat="45.33497" lon="6.16798">
        <ele>1950</ele>
        <time>2020-02-08T13:51:10.619Z</time>
      </trkpt>
      <trkpt lat="45.33494" lon="6.16811">
        <ele>1950</ele>
        <time>2020-02-08T13:51:18.619Z</time>
      </trkpt>
      <trkpt lat="45.33489" lon="6.16823">
        <ele>1951</ele>
        <time>2020-02-08T13:51:27.633Z</time>
      </trkpt>
      <trkpt lat="45.33485" lon="6.16835">
        <ele>1951</ele>
        <time>2020-02-08T13:51:36.619Z</time>
      </trkpt>
      <trkpt lat="45.33481" lon="6.16847">
        <ele>1953</ele>
        <time>2020-02-08T13:51:47.629Z</time>
      </trkpt>
      <trkpt lat="45.33476" lon="6.16859">
        <ele>1954</ele>
        <time>2020-02-08T13:51:57.629Z</time>
      </trkpt>
      <trkpt lat="45.33469" lon="6.16869">
        <ele>1954</ele>
        <time>2020-02-08T13:52:04.619Z</time>
      </trkpt>
      <trkpt lat="45.33463" lon="6.1688">
        <ele>1953</ele>
        <time>2020-02-08T13:52:08.619Z</time>
      </trkpt>
      <trkpt lat="45.33458" lon="6.16892">
        <ele>1950</ele>
        <time>2020-02-08T13:52:14.619Z</time>
      </trkpt>
      <trkpt lat="45.33453" lon="6.16904">
        <ele>1951</ele>
        <time>2020-02-08T13:52:29.619Z</time>
      </trkpt>
      <trkpt lat="45.33451" lon="6.16917">
        <ele>1952</ele>
        <time>2020-02-08T13:52:39.619Z</time>
      </trkpt>
      <trkpt lat="45.3345" lon="6.1693">
        <ele>1954</ele>
        <time>2020-02-08T13:52:51.619Z</time>
      </trkpt>
      <trkpt lat="45.33449" lon="6.16943">
        <ele>1953</ele>
        <time>2020-02-08T13:52:58.619Z</time>
      </trkpt>
      <trkpt lat="45.3345" lon="6.16956">
        <ele>1954.0390016</ele>
        <time>2020-02-08T13:53:07.629Z</time>
      </trkpt>
      <trkpt lat="45.33452" lon="6.16969">
        <ele>1956</ele>
        <time>2020-02-08T13:53:17.632Z</time>
      </trkpt>
      <trkpt lat="45.33453" lon="6.16983">
        <ele>1956</ele>
        <time>2020-02-08T13:53:24.619Z</time>
      </trkpt>
      <trkpt lat="45.33454" lon="6.16996">
        <ele>1955</ele>
        <time>2020-02-08T13:53:32.633Z</time>
      </trkpt>
      <trkpt lat="45.3345" lon="6.17009">
        <ele>1955</ele>
        <time>2020-02-08T13:53:38.619Z</time>
      </trkpt>
      <trkpt lat="45.33442" lon="6.17015">
        <ele>1954</ele>
        <time>2020-02-08T13:53:46.619Z</time>
      </trkpt>
      <trkpt lat="45.33438" lon="6.17035">
        <ele>1955</ele>
        <time>2020-02-08T14:02:20.631Z</time>
      </trkpt>
      <trkpt lat="45.33444" lon="6.17024">
        <ele>1955</ele>
        <time>2020-02-08T14:02:23.631Z</time>
      </trkpt>
      <trkpt lat="45.33435" lon="6.17021">
        <ele>1954</ele>
        <time>2020-02-08T14:03:42.620Z</time>
      </trkpt>
      <trkpt lat="45.33427" lon="6.17028">
        <ele>1954</ele>
        <time>2020-02-08T14:04:42.619Z</time>
      </trkpt>
      <trkpt lat="45.33437" lon="6.17029">
        <ele>1954</ele>
        <time>2020-02-08T14:04:47.619Z</time>
      </trkpt>
      <trkpt lat="45.33438" lon="6.17015">
        <ele>1954</ele>
        <time>2020-02-08T14:05:30.631Z</time>
      </trkpt>
      <trkpt lat="45.33446" lon="6.1701">
        <ele>1956</ele>
        <time>2020-02-08T14:07:41.617Z</time>
      </trkpt>
      <trkpt lat="45.33455" lon="6.17014">
        <ele>1955</ele>
        <time>2020-02-08T14:11:48.634Z</time>
      </trkpt>
      <trkpt lat="45.33447" lon="6.17009">
        <ele>1954</ele>
        <time>2020-02-08T14:13:01.631Z</time>
      </trkpt>
      <trkpt lat="45.33447" lon="6.17023">
        <ele>1955</ele>
        <time>2020-02-08T14:16:50.631Z</time>
      </trkpt>
      <trkpt lat="45.33438" lon="6.17026">
        <ele>1955</ele>
        <time>2020-02-08T14:19:07.620Z</time>
      </trkpt>
      <trkpt lat="45.33429" lon="6.17032">
        <ele>1954</ele>
        <time>2020-02-08T14:19:26.629Z</time>
      </trkpt>
      <trkpt lat="45.3342" lon="6.17038">
        <ele>1952</ele>
        <time>2020-02-08T14:19:34.620Z</time>
      </trkpt>
      <trkpt lat="45.33418" lon="6.1705">
        <ele>1955</ele>
        <time>2020-02-08T14:20:19.620Z</time>
      </trkpt>
      <trkpt lat="45.33417" lon="6.17064">
        <ele>1956</ele>
        <time>2020-02-08T14:20:35.620Z</time>
      </trkpt>
      <trkpt lat="45.33417" lon="6.17077">
        <ele>1958</ele>
        <time>2020-02-08T14:20:49.619Z</time>
      </trkpt>
      <trkpt lat="45.33419" lon="6.1709">
        <ele>1958</ele>
        <time>2020-02-08T14:21:01.630Z</time>
      </trkpt>
      <trkpt lat="45.33412" lon="6.17099">
        <ele>1960</ele>
        <time>2020-02-08T14:21:17.620Z</time>
      </trkpt>
      <trkpt lat="45.33405" lon="6.17106">
        <ele>1963</ele>
        <time>2020-02-08T14:21:37.620Z</time>
      </trkpt>
      <trkpt lat="45.334" lon="6.17118">
        <ele>1967</ele>
        <time>2020-02-08T14:21:57.619Z</time>
      </trkpt>
      <trkpt lat="45.33399" lon="6.17131">
        <ele>1968</ele>
        <time>2020-02-08T14:22:19.619Z</time>
      </trkpt>
      <trkpt lat="45.3339" lon="6.17138">
        <ele>1966</ele>
        <time>2020-02-08T14:22:41.620Z</time>
      </trkpt>
      <trkpt lat="45.33383" lon="6.17146">
        <ele>1968</ele>
        <time>2020-02-08T14:22:51.619Z</time>
      </trkpt>
      <trkpt lat="45.33374" lon="6.1715">
        <ele>1969</ele>
        <time>2020-02-08T14:23:03.630Z</time>
      </trkpt>
      <trkpt lat="45.33365" lon="6.17154">
        <ele>1971.0217985487</ele>
        <time>2020-02-08T14:23:16.619Z</time>
      </trkpt>
      <trkpt lat="45.33359" lon="6.17164">
        <ele>1974</ele>
        <time>2020-02-08T14:23:29.620Z</time>
      </trkpt>
      <trkpt lat="45.33354" lon="6.17176">
        <ele>1976</ele>
        <time>2020-02-08T14:23:40.621Z</time>
      </trkpt>
      <trkpt lat="45.33346" lon="6.17186">
        <ele>1978.04</ele>
        <time>2020-02-08T14:23:53.630Z</time>
      </trkpt>
      <trkpt lat="45.33341" lon="6.17196">
        <ele>1980</ele>
        <time>2020-02-08T14:24:06.620Z</time>
      </trkpt>
      <trkpt lat="45.33334" lon="6.17205">
        <ele>1983</ele>
        <time>2020-02-08T14:24:22.620Z</time>
      </trkpt>
      <trkpt lat="45.33329" lon="6.17218">
        <ele>1985.0299904</ele>
        <time>2020-02-08T14:24:37.620Z</time>
      </trkpt>
      <trkpt lat="45.3333" lon="6.17231">
        <ele>1985</ele>
        <time>2020-02-08T14:24:50.620Z</time>
      </trkpt>
      <trkpt lat="45.33326" lon="6.17244">
        <ele>1988</ele>
        <time>2020-02-08T14:25:10.620Z</time>
      </trkpt>
      <trkpt lat="45.33328" lon="6.17257">
        <ele>1990</ele>
        <time>2020-02-08T14:25:23.630Z</time>
      </trkpt>
      <trkpt lat="45.33329" lon="6.17269">
        <ele>1992</ele>
        <time>2020-02-08T14:25:40.620Z</time>
      </trkpt>
      <trkpt lat="45.33329" lon="6.17282">
        <ele>1995.0300032</ele>
        <time>2020-02-08T14:26:03.630Z</time>
      </trkpt>
      <trkpt lat="45.33331" lon="6.17296">
        <ele>1997</ele>
        <time>2020-02-08T14:26:17.620Z</time>
      </trkpt>
      <trkpt lat="45.33331" lon="6.17309">
        <ele>1999</ele>
        <time>2020-02-08T14:26:37.620Z</time>
      </trkpt>
      <trkpt lat="45.33334" lon="6.17322">
        <ele>2003</ele>
        <time>2020-02-08T14:26:59.620Z</time>
      </trkpt>
      <trkpt lat="45.33335" lon="6.17336">
        <ele>2006</ele>
        <time>2020-02-08T14:27:15.620Z</time>
      </trkpt>
      <trkpt lat="45.33329" lon="6.17346">
        <ele>2008.0142821396</ele>
        <time>2020-02-08T14:27:36.619Z</time>
      </trkpt>
      <trkpt lat="45.33321" lon="6.17353">
        <ele>2013</ele>
        <time>2020-02-08T14:28:00.631Z</time>
      </trkpt>
      <trkpt lat="45.33312" lon="6.17348">
        <ele>2015</ele>
        <time>2020-02-08T14:28:16.631Z</time>
      </trkpt>
      <trkpt lat="45.33304" lon="6.17343">
        <ele>2018</ele>
        <time>2020-02-08T14:28:33.631Z</time>
      </trkpt>
      <trkpt lat="45.33295" lon="6.17339">
        <ele>2019.0210048</ele>
        <time>2020-02-08T14:28:51.621Z</time>
      </trkpt>
      <trkpt lat="45.33286" lon="6.17335">
        <ele>2021</ele>
        <time>2020-02-08T14:29:03.621Z</time>
      </trkpt>
      <trkpt lat="45.33285" lon="6.17348">
        <ele>2023</ele>
        <time>2020-02-08T14:29:37.619Z</time>
      </trkpt>
      <trkpt lat="45.33278" lon="6.17356">
        <ele>2029</ele>
        <time>2020-02-08T14:30:18.621Z</time>
      </trkpt>
      <trkpt lat="45.3327" lon="6.17348">
        <ele>2030.0210048</ele>
        <time>2020-02-08T14:30:33.621Z</time>
      </trkpt>
      <trkpt lat="45.33261" lon="6.17351">
        <ele>2031</ele>
        <time>2020-02-08T14:30:43.621Z</time>
      </trkpt>
      <trkpt lat="45.33251" lon="6.17346">
        <ele>2034</ele>
        <time>2020-02-08T14:31:03.617Z</time>
      </trkpt>
      <trkpt lat="45.33245" lon="6.17336">
        <ele>2036.0310016</ele>
        <time>2020-02-08T14:31:16.631Z</time>
      </trkpt>
      <trkpt lat="45.33236" lon="6.17333">
        <ele>2038</ele>
        <time>2020-02-08T14:31:44.619Z</time>
      </trkpt>
      <trkpt lat="45.33237" lon="6.17346">
        <ele>2038</ele>
        <time>2020-02-08T14:32:01.629Z</time>
      </trkpt>
      <trkpt lat="45.33233" lon="6.17359">
        <ele>2040</ele>
        <time>2020-02-08T14:32:15.619Z</time>
      </trkpt>
      <trkpt lat="45.33237" lon="6.17372">
        <ele>2042</ele>
        <time>2020-02-08T14:32:34.619Z</time>
      </trkpt>
      <trkpt lat="45.33237" lon="6.17385">
        <ele>2044</ele>
        <time>2020-02-08T14:32:56.631Z</time>
      </trkpt>
      <trkpt lat="45.33242" lon="6.17396">
        <ele>2047</ele>
        <time>2020-02-08T14:33:23.619Z</time>
      </trkpt>
      <trkpt lat="45.33251" lon="6.174">
        <ele>2049</ele>
        <time>2020-02-08T14:35:12.621Z</time>
      </trkpt>
      <trkpt lat="45.33251" lon="6.17414">
        <ele>2052</ele>
        <time>2020-02-08T14:35:29.619Z</time>
      </trkpt>
      <trkpt lat="45.33249" lon="6.17426">
        <ele>2053</ele>
        <time>2020-02-08T14:35:42.620Z</time>
      </trkpt>
      <trkpt lat="45.33242" lon="6.17437">
        <ele>2054.0150328181</ele>
        <time>2020-02-08T14:35:49.620Z</time>
      </trkpt>
      <trkpt lat="45.33234" lon="6.17446">
        <ele>2056</ele>
        <time>2020-02-08T14:35:57.619Z</time>
      </trkpt>
      <trkpt lat="45.33228" lon="6.17458">
        <ele>2058</ele>
        <time>2020-02-08T14:36:08.621Z</time>
      </trkpt>
      <trkpt lat="45.3322" lon="6.17467">
        <ele>2059</ele>
        <time>2020-02-08T14:36:15.620Z</time>
      </trkpt>
      <trkpt lat="45.33224" lon="6.17479">
        <ele>2064</ele>
        <time>2020-02-08T14:36:46.629Z</time>
      </trkpt>
      <trkpt lat="45.3322" lon="6.1749">
        <ele>2068</ele>
        <time>2020-02-08T14:37:03.620Z</time>
      </trkpt>
      <trkpt lat="45.33212" lon="6.17498">
        <ele>2070</ele>
        <time>2020-02-08T14:37:17.620Z</time>
      </trkpt>
      <trkpt lat="45.33207" lon="6.17508">
        <ele>2072.0210048</ele>
        <time>2020-02-08T14:37:28.621Z</time>
      </trkpt>
      <trkpt lat="45.33214" lon="6.17517">
        <ele>2074</ele>
        <time>2020-02-08T14:37:46.629Z</time>
      </trkpt>
      <trkpt lat="45.33217" lon="6.17529">
        <ele>2078</ele>
        <time>2020-02-08T14:38:05.619Z</time>
      </trkpt>
      <trkpt lat="45.33211" lon="6.17539">
        <ele>2082</ele>
        <time>2020-02-08T14:38:24.631Z</time>
      </trkpt>
      <trkpt lat="45.33221" lon="6.17526">
        <ele>2085</ele>
        <time>2020-02-08T14:39:16.631Z</time>
      </trkpt>
      <trkpt lat="45.33217" lon="6.1754">
        <ele>2084</ele>
        <time>2020-02-08T14:39:22.616Z</time>
      </trkpt>
      <trkpt lat="45.33209" lon="6.17545">
        <ele>2083</ele>
        <time>2020-02-08T14:46:13.618Z</time>
      </trkpt>
      <trkpt lat="45.33199" lon="6.1755">
        <ele>2085</ele>
        <time>2020-02-08T14:46:24.631Z</time>
      </trkpt>
      <trkpt lat="45.3319" lon="6.17545">
        <ele>2086</ele>
        <time>2020-02-08T14:46:54.618Z</time>
      </trkpt>
      <trkpt lat="45.33186" lon="6.17534">
        <ele>2085.9799936</ele>
        <time>2020-02-08T14:47:00.620Z</time>
      </trkpt>
      <trkpt lat="45.33177" lon="6.17525">
        <ele>2085</ele>
        <time>2020-02-08T14:47:07.620Z</time>
      </trkpt>
      <trkpt lat="45.33167" lon="6.17521">
        <ele>2084</ele>
        <time>2020-02-08T14:47:12.617Z</time>
      </trkpt>
      <trkpt lat="45.33158" lon="6.17518">
        <ele>2084</ele>
        <time>2020-02-08T14:47:19.630Z</time>
      </trkpt>
      <trkpt lat="45.33148" lon="6.17515">
        <ele>2086</ele>
        <time>2020-02-08T14:47:57.617Z</time>
      </trkpt>
      <trkpt lat="45.33143" lon="6.17527">
        <ele>2089</ele>
        <time>2020-02-08T14:48:10.618Z</time>
      </trkpt>
      <trkpt lat="45.33135" lon="6.17534">
        <ele>2091</ele>
        <time>2020-02-08T14:48:22.620Z</time>
      </trkpt>
      <trkpt lat="45.33126" lon="6.17543">
        <ele>2091.0169984</ele>
        <time>2020-02-08T14:48:32.617Z</time>
      </trkpt>
      <trkpt lat="45.33119" lon="6.17552">
        <ele>2093</ele>
        <time>2020-02-08T14:48:44.631Z</time>
      </trkpt>
      <trkpt lat="45.33113" lon="6.17562">
        <ele>2094</ele>
        <time>2020-02-08T14:48:55.631Z</time>
      </trkpt>
      <trkpt lat="45.33103" lon="6.17569">
        <ele>2096</ele>
        <time>2020-02-08T14:49:07.620Z</time>
      </trkpt>
      <trkpt lat="45.33095" lon="6.17576">
        <ele>2097</ele>
        <time>2020-02-08T14:49:17.620Z</time>
      </trkpt>
      <trkpt lat="45.33085" lon="6.17581">
        <ele>2098</ele>
        <time>2020-02-08T14:49:25.617Z</time>
      </trkpt>
      <trkpt lat="45.33078" lon="6.1759">
        <ele>2100</ele>
        <time>2020-02-08T14:49:35.617Z</time>
      </trkpt>
      <trkpt lat="45.33071" lon="6.17599">
        <ele>2103</ele>
        <time>2020-02-08T14:49:51.633Z</time>
      </trkpt>
      <trkpt lat="45.33063" lon="6.17607">
        <ele>2104.0169984</ele>
        <time>2020-02-08T14:50:02.617Z</time>
      </trkpt>
      <trkpt lat="45.33061" lon="6.1762">
        <ele>2107</ele>
        <time>2020-02-08T14:50:15.617Z</time>
      </trkpt>
      <trkpt lat="45.33058" lon="6.17635">
        <ele>2109</ele>
        <time>2020-02-08T14:50:30.617Z</time>
      </trkpt>
      <trkpt lat="45.33055" lon="6.17647">
        <ele>2111</ele>
        <time>2020-02-08T14:50:46.632Z</time>
      </trkpt>
      <trkpt lat="45.33052" lon="6.1766">
        <ele>2114</ele>
        <time>2020-02-08T14:51:02.617Z</time>
      </trkpt>
      <trkpt lat="45.33051" lon="6.17675">
        <ele>2116</ele>
        <time>2020-02-08T14:51:17.617Z</time>
      </trkpt>
      <trkpt lat="45.33054" lon="6.17687">
        <ele>2118</ele>
        <time>2020-02-08T14:51:30.618Z</time>
      </trkpt>
      <trkpt lat="45.33058" lon="6.17699">
        <ele>2119</ele>
        <time>2020-02-08T14:51:45.622Z</time>
      </trkpt>
      <trkpt lat="45.33062" lon="6.17712">
        <ele>2122</ele>
        <time>2020-02-08T14:52:03.622Z</time>
      </trkpt>
      <trkpt lat="45.33067" lon="6.17723">
        <ele>2123</ele>
        <time>2020-02-08T14:52:16.634Z</time>
      </trkpt>
      <trkpt lat="45.33072" lon="6.17734">
        <ele>2127</ele>
        <time>2020-02-08T14:52:29.619Z</time>
      </trkpt>
      <trkpt lat="45.33074" lon="6.17746">
        <ele>2128</ele>
        <time>2020-02-08T14:52:41.632Z</time>
      </trkpt>
      <trkpt lat="45.3307" lon="6.17757">
        <ele>2130.0169984</ele>
        <time>2020-02-08T14:52:54.617Z</time>
      </trkpt>
      <trkpt lat="45.33065" lon="6.17769">
        <ele>2131.0169984</ele>
        <time>2020-02-08T14:53:08.617Z</time>
      </trkpt>
      <trkpt lat="45.33069" lon="6.17781">
        <ele>2134</ele>
        <time>2020-02-08T14:53:23.617Z</time>
      </trkpt>
      <trkpt lat="45.33077" lon="6.1779">
        <ele>2134</ele>
        <time>2020-02-08T14:54:36.631Z</time>
      </trkpt>
      <trkpt lat="45.33068" lon="6.17787">
        <ele>2135</ele>
        <time>2020-02-08T14:59:47.620Z</time>
      </trkpt>
      <trkpt lat="45.33058" lon="6.17788">
        <ele>2140.9820032</ele>
        <time>2020-02-08T15:00:14.618Z</time>
      </trkpt>
      <trkpt lat="45.33049" lon="6.17793">
        <ele>2142</ele>
        <time>2020-02-08T15:00:25.620Z</time>
      </trkpt>
      <trkpt lat="45.33038" lon="6.17799">
        <ele>2146</ele>
        <time>2020-02-08T15:00:46.631Z</time>
      </trkpt>
      <trkpt lat="45.3303" lon="6.17794">
        <ele>2148</ele>
        <time>2020-02-08T15:01:03.631Z</time>
      </trkpt>
      <trkpt lat="45.33034" lon="6.17805">
        <ele>2151</ele>
        <time>2020-02-08T15:01:24.618Z</time>
      </trkpt>
      <trkpt lat="45.3304" lon="6.17816">
        <ele>2152</ele>
        <time>2020-02-08T15:01:34.616Z</time>
      </trkpt>
      <trkpt lat="45.33046" lon="6.17826">
        <ele>2155</ele>
        <time>2020-02-08T15:01:48.618Z</time>
      </trkpt>
      <trkpt lat="45.33053" lon="6.17835">
        <ele>2158</ele>
        <time>2020-02-08T15:02:06.633Z</time>
      </trkpt>
      <trkpt lat="45.33051" lon="6.17849">
        <ele>2160</ele>
        <time>2020-02-08T15:02:30.621Z</time>
      </trkpt>
      <trkpt lat="45.33041" lon="6.17848">
        <ele>2162</ele>
        <time>2020-02-08T15:02:41.629Z</time>
      </trkpt>
      <trkpt lat="45.33029" lon="6.17849">
        <ele>2164</ele>
        <time>2020-02-08T15:02:59.631Z</time>
      </trkpt>
      <trkpt lat="45.3302" lon="6.1785">
        <ele>2166</ele>
        <time>2020-02-08T15:03:07.631Z</time>
      </trkpt>
      <trkpt lat="45.33011" lon="6.17856">
        <ele>2171</ele>
        <time>2020-02-08T15:03:39.735Z</time>
      </trkpt>
      <trkpt lat="45.32999" lon="6.17856">
        <ele>2174</ele>
        <time>2020-02-08T15:04:10.631Z</time>
      </trkpt>
      <trkpt lat="45.32992" lon="6.17848">
        <ele>2175</ele>
        <time>2020-02-08T15:04:16.631Z</time>
      </trkpt>
      <trkpt lat="45.3298" lon="6.17843">
        <ele>2177</ele>
        <time>2020-02-08T15:04:33.631Z</time>
      </trkpt>
      <trkpt lat="45.32971" lon="6.17839">
        <ele>2178</ele>
        <time>2020-02-08T15:04:40.631Z</time>
      </trkpt>
      <trkpt lat="45.3297" lon="6.17853">
        <ele>2182</ele>
        <time>2020-02-08T15:05:08.620Z</time>
      </trkpt>
      <trkpt lat="45.32974" lon="6.17866">
        <ele>2182</ele>
        <time>2020-02-08T15:05:20.621Z</time>
      </trkpt>
      <trkpt lat="45.32972" lon="6.17878">
        <ele>2185</ele>
        <time>2020-02-08T15:05:41.631Z</time>
      </trkpt>
      <trkpt lat="45.32963" lon="6.17877">
        <ele>2187</ele>
        <time>2020-02-08T15:05:54.617Z</time>
      </trkpt>
      <trkpt lat="45.32952" lon="6.17871">
        <ele>2189</ele>
        <time>2020-02-08T15:06:08.631Z</time>
      </trkpt>
      <trkpt lat="45.32949" lon="6.17859">
        <ele>2193.0112196651</ele>
        <time>2020-02-08T15:06:32.631Z</time>
      </trkpt>
      <trkpt lat="45.32952" lon="6.17871">
        <ele>2194</ele>
        <time>2020-02-08T15:06:48.621Z</time>
      </trkpt>
      <trkpt lat="45.32948" lon="6.17883">
        <ele>2197</ele>
        <time>2020-02-08T15:07:06.621Z</time>
      </trkpt>
      <trkpt lat="45.3295" lon="6.17897">
        <ele>2199</ele>
        <time>2020-02-08T15:07:21.621Z</time>
      </trkpt>
      <trkpt lat="45.32956" lon="6.17909">
        <ele>2201</ele>
        <time>2020-02-08T15:07:39.618Z</time>
      </trkpt>
      <trkpt lat="45.32947" lon="6.17903">
        <ele>2202</ele>
        <time>2020-02-08T15:07:51.631Z</time>
      </trkpt>
      <trkpt lat="45.32936" lon="6.179">
        <ele>2204</ele>
        <time>2020-02-08T15:08:06.631Z</time>
      </trkpt>
      <trkpt lat="45.32929" lon="6.1789">
        <ele>2205</ele>
        <time>2020-02-08T15:08:19.631Z</time>
      </trkpt>
      <trkpt lat="45.32922" lon="6.17879">
        <ele>2208</ele>
        <time>2020-02-08T15:08:43.619Z</time>
      </trkpt>
      <trkpt lat="45.32924" lon="6.17892">
        <ele>2212</ele>
        <time>2020-02-08T15:09:32.621Z</time>
      </trkpt>
      <trkpt lat="45.32928" lon="6.17904">
        <ele>2214</ele>
        <time>2020-02-08T15:09:50.621Z</time>
      </trkpt>
      <trkpt lat="45.3293" lon="6.17918">
        <ele>2218.0127807826</ele>
        <time>2020-02-08T15:10:21.617Z</time>
      </trkpt>
      <trkpt lat="45.32935" lon="6.1793">
        <ele>2219</ele>
        <time>2020-02-08T15:10:33.621Z</time>
      </trkpt>
      <trkpt lat="45.32923" lon="6.17926">
        <ele>2220.0306947507</ele>
        <time>2020-02-08T15:11:12.631Z</time>
      </trkpt>
      <trkpt lat="45.3292" lon="6.17914">
        <ele>2222</ele>
        <time>2020-02-08T15:11:27.631Z</time>
      </trkpt>
      <trkpt lat="45.32909" lon="6.1792">
        <ele>2225</ele>
        <time>2020-02-08T15:11:55.631Z</time>
      </trkpt>
      <trkpt lat="45.32901" lon="6.17912">
        <ele>2225</ele>
        <time>2020-02-08T15:11:59.631Z</time>
      </trkpt>
      <trkpt lat="45.32908" lon="6.17902">
        <ele>2226</ele>
        <time>2020-02-08T15:12:37.617Z</time>
      </trkpt>
      <trkpt lat="45.32914" lon="6.17914">
        <ele>2226.0310016</ele>
        <time>2020-02-08T15:12:54.631Z</time>
      </trkpt>
      <trkpt lat="45.32916" lon="6.17927">
        <ele>2229</ele>
        <time>2020-02-08T15:13:10.621Z</time>
      </trkpt>
      <trkpt lat="45.3292" lon="6.17938">
        <ele>2230</ele>
        <time>2020-02-08T15:13:23.617Z</time>
      </trkpt>
      <trkpt lat="45.32925" lon="6.17951">
        <ele>2234</ele>
        <time>2020-02-08T15:13:53.621Z</time>
      </trkpt>
      <trkpt lat="45.32916" lon="6.17944">
        <ele>2237</ele>
        <time>2020-02-08T15:14:31.631Z</time>
      </trkpt>
      <trkpt lat="45.32907" lon="6.17951">
        <ele>2239</ele>
        <time>2020-02-08T15:15:02.631Z</time>
      </trkpt>
      <trkpt lat="45.32899" lon="6.17943">
        <ele>2240</ele>
        <time>2020-02-08T15:15:10.631Z</time>
      </trkpt>
      <trkpt lat="45.3289" lon="6.17937">
        <ele>2241</ele>
        <time>2020-02-08T15:15:33.631Z</time>
      </trkpt>
      <trkpt lat="45.32882" lon="6.1793">
        <ele>2244</ele>
        <time>2020-02-08T15:15:49.631Z</time>
      </trkpt>
      <trkpt lat="45.32877" lon="6.17919">
        <ele>2246</ele>
        <time>2020-02-08T15:16:05.632Z</time>
      </trkpt>
      <trkpt lat="45.32884" lon="6.17926">
        <ele>2246</ele>
        <time>2020-02-08T15:16:12.631Z</time>
      </trkpt>
      <trkpt lat="45.32877" lon="6.17917">
        <ele>2246</ele>
        <time>2020-02-08T15:16:54.619Z</time>
      </trkpt>
      <trkpt lat="45.32885" lon="6.17924">
        <ele>2247</ele>
        <time>2020-02-08T15:17:39.620Z</time>
      </trkpt>
      <trkpt lat="45.32887" lon="6.17938">
        <ele>2251</ele>
        <time>2020-02-08T15:18:13.618Z</time>
      </trkpt>
      <trkpt lat="45.32887" lon="6.17951">
        <ele>2253</ele>
        <time>2020-02-08T15:18:34.620Z</time>
      </trkpt>
      <trkpt lat="45.32886" lon="6.17964">
        <ele>2258</ele>
        <time>2020-02-08T15:21:11.631Z</time>
      </trkpt>
      <trkpt lat="45.32877" lon="6.17965">
        <ele>2260</ele>
        <time>2020-02-08T15:21:24.631Z</time>
      </trkpt>
      <trkpt lat="45.32868" lon="6.17964">
        <ele>2262</ele>
        <time>2020-02-08T15:21:51.633Z</time>
      </trkpt>
      <trkpt lat="45.32859" lon="6.17956">
        <ele>2265</ele>
        <time>2020-02-08T15:22:12.631Z</time>
      </trkpt>
      <trkpt lat="45.32854" lon="6.17937">
        <ele>2265</ele>
        <time>2020-02-08T15:22:23.631Z</time>
      </trkpt>
      <trkpt lat="45.32849" lon="6.17948">
        <ele>2269</ele>
        <time>2020-02-08T15:23:11.620Z</time>
      </trkpt>
      <trkpt lat="45.32854" lon="6.1796">
        <ele>2271</ele>
        <time>2020-02-08T15:23:25.621Z</time>
      </trkpt>
      <trkpt lat="45.32859" lon="6.1797">
        <ele>2274</ele>
        <time>2020-02-08T15:23:44.631Z</time>
      </trkpt>
      <trkpt lat="45.32865" lon="6.17982">
        <ele>2276</ele>
        <time>2020-02-08T15:24:09.630Z</time>
      </trkpt>
      <trkpt lat="45.32874" lon="6.17987">
        <ele>2279</ele>
        <time>2020-02-08T15:24:27.620Z</time>
      </trkpt>
      <trkpt lat="45.32864" lon="6.17995">
        <ele>2281.0405926039</ele>
        <time>2020-02-08T15:25:10.631Z</time>
      </trkpt>
      <trkpt lat="45.32854" lon="6.17998">
        <ele>2282</ele>
        <time>2020-02-08T15:25:20.633Z</time>
      </trkpt>
      <trkpt lat="45.32844" lon="6.17996">
        <ele>2286</ele>
        <time>2020-02-08T15:26:00.631Z</time>
      </trkpt>
      <trkpt lat="45.32836" lon="6.17993">
        <ele>2287</ele>
        <time>2020-02-08T15:26:06.631Z</time>
      </trkpt>
      <trkpt lat="45.32825" lon="6.17993">
        <ele>2289</ele>
        <time>2020-02-08T15:26:29.631Z</time>
      </trkpt>
      <trkpt lat="45.32814" lon="6.17988">
        <ele>2291</ele>
        <time>2020-02-08T15:26:43.631Z</time>
      </trkpt>
      <trkpt lat="45.3282" lon="6.18">
        <ele>2294</ele>
        <time>2020-02-08T15:27:06.620Z</time>
      </trkpt>
      <trkpt lat="45.32826" lon="6.18009">
        <ele>2296</ele>
        <time>2020-02-08T15:27:25.621Z</time>
      </trkpt>
      <trkpt lat="45.32834" lon="6.18015">
        <ele>2298</ele>
        <time>2020-02-08T15:27:47.630Z</time>
      </trkpt>
      <trkpt lat="45.32843" lon="6.18019">
        <ele>2299.0225588513</ele>
        <time>2020-02-08T15:28:02.630Z</time>
      </trkpt>
      <trkpt lat="45.32835" lon="6.18025">
        <ele>2303</ele>
        <time>2020-02-08T15:28:39.617Z</time>
      </trkpt>
      <trkpt lat="45.32826" lon="6.18028">
        <ele>2304.0290048</ele>
        <time>2020-02-08T15:28:58.629Z</time>
      </trkpt>
      <trkpt lat="45.32819" lon="6.18036">
        <ele>2307</ele>
        <time>2020-02-08T15:29:27.618Z</time>
      </trkpt>
      <trkpt lat="45.32813" lon="6.18026">
        <ele>2307</ele>
        <time>2020-02-08T15:30:05.634Z</time>
      </trkpt>
      <trkpt lat="45.32809" lon="6.18038">
        <ele>2308</ele>
        <time>2020-02-08T15:30:26.618Z</time>
      </trkpt>
      <trkpt lat="45.328" lon="6.18044">
        <ele>2313</ele>
        <time>2020-02-08T15:31:08.631Z</time>
      </trkpt>
      <trkpt lat="45.328" lon="6.18057">
        <ele>2313</ele>
        <time>2020-02-08T15:31:16.631Z</time>
      </trkpt>
      <trkpt lat="45.32808" lon="6.18064">
        <ele>2313</ele>
        <time>2020-02-08T15:31:35.631Z</time>
      </trkpt>
      <trkpt lat="45.32818" lon="6.1808">
        <ele>2313</ele>
        <time>2020-02-08T15:31:37.631Z</time>
      </trkpt>
      <trkpt lat="45.32819" lon="6.18066">
        <ele>2313</ele>
        <time>2020-02-08T15:31:40.631Z</time>
      </trkpt>
      <trkpt lat="45.32815" lon="6.18053">
        <ele>2313</ele>
        <time>2020-02-08T15:31:43.631Z</time>
      </trkpt>
      <trkpt lat="45.32807" lon="6.18044">
        <ele>2313</ele>
        <time>2020-02-08T15:31:46.631Z</time>
      </trkpt>
      <trkpt lat="45.32802" lon="6.18033">
        <ele>2314.0339968</ele>
        <time>2020-02-08T15:32:04.634Z</time>
      </trkpt>
      <trkpt lat="45.32796" lon="6.18043">
        <ele>2317</ele>
        <time>2020-02-08T15:33:18.620Z</time>
      </trkpt>
      <trkpt lat="45.32786" lon="6.18046">
        <ele>2317</ele>
        <time>2020-02-08T15:34:15.621Z</time>
      </trkpt>
      <trkpt lat="45.32793" lon="6.18029">
        <ele>2318</ele>
        <time>2020-02-08T15:34:39.631Z</time>
      </trkpt>
      <trkpt lat="45.32785" lon="6.18036">
        <ele>2318</ele>
        <time>2020-02-08T15:34:45.619Z</time>
      </trkpt>
      <trkpt lat="45.32789" lon="6.18049">
        <ele>2317</ele>
        <time>2020-02-08T15:35:46.620Z</time>
      </trkpt>
      <trkpt lat="45.32792" lon="6.18062">
        <ele>2319</ele>
        <time>2020-02-08T15:36:09.620Z</time>
      </trkpt>
      <trkpt lat="45.32785" lon="6.18053">
        <ele>2319</ele>
        <time>2020-02-08T15:37:30.631Z</time>
      </trkpt>
      <trkpt lat="45.32779" lon="6.18044">
        <ele>2320</ele>
        <time>2020-02-08T15:37:47.631Z</time>
      </trkpt>
      <trkpt lat="45.32769" lon="6.18039">
        <ele>2322</ele>
        <time>2020-02-08T15:38:14.618Z</time>
      </trkpt>
      <trkpt lat="45.32762" lon="6.18031">
        <ele>2324</ele>
        <time>2020-02-08T15:38:50.631Z</time>
      </trkpt>
      <trkpt lat="45.32759" lon="6.18019">
        <ele>2326</ele>
        <time>2020-02-08T15:40:13.619Z</time>
      </trkpt>
      <trkpt lat="45.32754" lon="6.18007">
        <ele>2327</ele>
        <time>2020-02-08T15:40:27.619Z</time>
      </trkpt>
      <trkpt lat="45.32745" lon="6.18002">
        <ele>2329</ele>
        <time>2020-02-08T15:41:43.629Z</time>
      </trkpt>
      <trkpt lat="45.32754" lon="6.18006">
        <ele>2328</ele>
        <time>2020-02-08T15:42:21.631Z</time>
      </trkpt>
      <trkpt lat="45.32764" lon="6.18004">
        <ele>2327</ele>
        <time>2020-02-08T15:43:20.631Z</time>
      </trkpt>
      <trkpt lat="45.32766" lon="6.17992">
        <ele>2327</ele>
        <time>2020-02-08T15:43:43.618Z</time>
      </trkpt>
      <trkpt lat="45.32771" lon="6.18003">
        <ele>2326</ele>
        <time>2020-02-08T15:49:37.620Z</time>
      </trkpt>
      <trkpt lat="45.32769" lon="6.18015">
        <ele>2326</ele>
        <time>2020-02-08T15:51:54.620Z</time>
      </trkpt>
      <trkpt lat="45.32765" lon="6.18028">
        <ele>2329.7786191667</ele>
        <time>2020-02-08T15:52:17.620Z</time>
      </trkpt>
      <trkpt lat="45.32761" lon="6.18039">
        <ele>2335</ele>
        <time>2020-02-08T15:52:47.631Z</time>
      </trkpt>
      <trkpt lat="45.32763" lon="6.18052">
        <ele>2338</ele>
        <time>2020-02-08T15:53:19.619Z</time>
      </trkpt>
      <trkpt lat="45.32764" lon="6.18065">
        <ele>2342</ele>
        <time>2020-02-08T15:53:58.620Z</time>
      </trkpt>
      <trkpt lat="45.32767" lon="6.18077">
        <ele>2348</ele>
        <time>2020-02-08T15:55:03.619Z</time>
      </trkpt>
      <trkpt lat="45.32771" lon="6.18089">
        <ele>2352.0200064</ele>
        <time>2020-02-08T15:55:34.620Z</time>
      </trkpt>
      <trkpt lat="45.32777" lon="6.181">
        <ele>2359</ele>
        <time>2020-02-08T15:56:09.620Z</time>
      </trkpt>
      <trkpt lat="45.32778" lon="6.18113">
        <ele>2364</ele>
        <time>2020-02-08T15:56:49.620Z</time>
      </trkpt>
      <trkpt lat="45.32777" lon="6.18126">
        <ele>2368</ele>
        <time>2020-02-08T15:57:15.618Z</time>
      </trkpt>
      <trkpt lat="45.3278" lon="6.18138">
        <ele>2374</ele>
        <time>2020-02-08T15:58:00.648Z</time>
      </trkpt>
      <trkpt lat="45.32779" lon="6.18151">
        <ele>2380</ele>
        <time>2020-02-08T15:58:32.620Z</time>
      </trkpt>
      <trkpt lat="45.3278" lon="6.18164">
        <ele>2385</ele>
        <time>2020-02-08T15:59:01.630Z</time>
      </trkpt>
      <trkpt lat="45.32785" lon="6.18175">
        <ele>2388</ele>
        <time>2020-02-08T15:59:21.630Z</time>
      </trkpt>
      <trkpt lat="45.32794" lon="6.18178">
        <ele>2389</ele>
        <time>2020-02-08T15:59:35.650Z</time>
      </trkpt>
      <trkpt lat="45.32801" lon="6.18186">
        <ele>2394</ele>
        <time>2020-02-08T16:00:07.618Z</time>
      </trkpt>
      <trkpt lat="45.32804" lon="6.18198">
        <ele>2401</ele>
        <time>2020-02-08T16:00:41.633Z</time>
      </trkpt>
      <trkpt lat="45.32807" lon="6.1821">
        <ele>2403</ele>
        <time>2020-02-08T16:00:59.618Z</time>
      </trkpt>
      <trkpt lat="45.32815" lon="6.18218">
        <ele>2407</ele>
        <time>2020-02-08T16:01:22.621Z</time>
      </trkpt>
      <trkpt lat="45.32824" lon="6.18217">
        <ele>2409</ele>
        <time>2020-02-08T16:01:42.621Z</time>
      </trkpt>
      <trkpt lat="45.32833" lon="6.18218">
        <ele>2415</ele>
        <time>2020-02-08T16:02:21.633Z</time>
      </trkpt>
      <trkpt lat="45.32839" lon="6.18229">
        <ele>2417</ele>
        <time>2020-02-08T16:02:41.633Z</time>
      </trkpt>
      <trkpt lat="45.32839" lon="6.18242">
        <ele>2424</ele>
        <time>2020-02-08T16:03:17.631Z</time>
      </trkpt>
      <trkpt lat="45.32842" lon="6.18254">
        <ele>2427</ele>
        <time>2020-02-08T16:03:45.620Z</time>
      </trkpt>
      <trkpt lat="45.32851" lon="6.18259">
        <ele>2429</ele>
        <time>2020-02-08T16:04:13.619Z</time>
      </trkpt>
      <trkpt lat="45.32857" lon="6.18268">
        <ele>2432</ele>
        <time>2020-02-08T16:04:48.621Z</time>
      </trkpt>
      <trkpt lat="45.32854" lon="6.18256">
        <ele>2432</ele>
        <time>2020-02-08T16:15:11.619Z</time>
      </trkpt>
      <trkpt lat="45.32851" lon="6.18244">
        <ele>2427</ele>
        <time>2020-02-08T16:15:42.621Z</time>
      </trkpt>
      <trkpt lat="45.32852" lon="6.18231">
        <ele>2420.9810048</ele>
        <time>2020-02-08T16:16:57.619Z</time>
      </trkpt>
      <trkpt lat="45.32852" lon="6.18218">
        <ele>2414</ele>
        <time>2020-02-08T16:17:27.619Z</time>
      </trkpt>
      <trkpt lat="45.32849" lon="6.18203">
        <ele>2410.9620096</ele>
        <time>2020-02-08T16:17:33.619Z</time>
      </trkpt>
      <trkpt lat="45.32846" lon="6.1819">
        <ele>2403.9781918272</ele>
        <time>2020-02-08T16:18:24.629Z</time>
      </trkpt>
      <trkpt lat="45.32848" lon="6.18176">
        <ele>2396.9810048</ele>
        <time>2020-02-08T16:18:30.619Z</time>
      </trkpt>
      <trkpt lat="45.32846" lon="6.18164">
        <ele>2391</ele>
        <time>2020-02-08T16:18:54.626Z</time>
      </trkpt>
      <trkpt lat="45.32839" lon="6.18154">
        <ele>2382.9789952</ele>
        <time>2020-02-08T16:19:33.621Z</time>
      </trkpt>
      <trkpt lat="45.32843" lon="6.18139">
        <ele>2377.9386104986</ele>
        <time>2020-02-08T16:19:37.631Z</time>
      </trkpt>
      <trkpt lat="45.32842" lon="6.18125">
        <ele>2364.9684137586</ele>
        <time>2020-02-08T16:19:43.621Z</time>
      </trkpt>
      <trkpt lat="45.32847" lon="6.18113">
        <ele>2361</ele>
        <time>2020-02-08T16:19:50.621Z</time>
      </trkpt>
      <trkpt lat="45.32854" lon="6.18106">
        <ele>2354</ele>
        <time>2020-02-08T16:19:57.631Z</time>
      </trkpt>
      <trkpt lat="45.32856" lon="6.1809">
        <ele>2345.9793930274</ele>
        <time>2020-02-08T16:20:27.627Z</time>
      </trkpt>
      <trkpt lat="45.32858" lon="6.18073">
        <ele>2338.9430144</ele>
        <time>2020-02-08T16:20:31.619Z</time>
      </trkpt>
      <trkpt lat="45.32858" lon="6.1806">
        <ele>2332.957473636</ele>
        <time>2020-02-08T16:20:33.619Z</time>
      </trkpt>
      <trkpt lat="45.32859" lon="6.1804">
        <ele>2322.9240192</ele>
        <time>2020-02-08T16:20:36.619Z</time>
      </trkpt>
      <trkpt lat="45.32862" lon="6.18024">
        <ele>2315.9159808</ele>
        <time>2020-02-08T16:20:38.621Z</time>
      </trkpt>
      <trkpt lat="45.32864" lon="6.1801">
        <ele>2308.9369856</ele>
        <time>2020-02-08T16:20:40.621Z</time>
      </trkpt>
      <trkpt lat="45.32866" lon="6.17997">
        <ele>2302.9333238519</ele>
        <time>2020-02-08T16:20:42.632Z</time>
      </trkpt>
      <trkpt lat="45.32858" lon="6.18004">
        <ele>2297</ele>
        <time>2020-02-08T16:20:51.620Z</time>
      </trkpt>
      <trkpt lat="45.32854" lon="6.18015">
        <ele>2298</ele>
        <time>2020-02-08T16:21:07.629Z</time>
      </trkpt>
      <trkpt lat="45.32848" lon="6.18003">
        <ele>2296</ele>
        <time>2020-02-08T16:22:51.618Z</time>
      </trkpt>
      <trkpt lat="45.32859" lon="6.17996">
        <ele>2295.9620096</ele>
        <time>2020-02-08T16:22:55.619Z</time>
      </trkpt>
      <trkpt lat="45.32864" lon="6.17985">
        <ele>2291.9340032</ele>
        <time>2020-02-08T16:22:57.633Z</time>
      </trkpt>
      <trkpt lat="45.32873" lon="6.17978">
        <ele>2286.967475788</ele>
        <time>2020-02-08T16:22:59.618Z</time>
      </trkpt>
      <trkpt lat="45.32883" lon="6.1797">
        <ele>2279.9940096</ele>
        <time>2020-02-08T16:23:02.603Z</time>
      </trkpt>
      <trkpt lat="45.32892" lon="6.17959">
        <ele>2272.9369856</ele>
        <time>2020-02-08T16:23:04.621Z</time>
      </trkpt>
      <trkpt lat="45.32899" lon="6.17946">
        <ele>2265.9460096</ele>
        <time>2020-02-08T16:23:06.618Z</time>
      </trkpt>
      <trkpt lat="45.32905" lon="6.17932">
        <ele>2259.9338248032</ele>
        <time>2020-02-08T16:23:08.622Z</time>
      </trkpt>
      <trkpt lat="45.32916" lon="6.17925">
        <ele>2251.910016</ele>
        <time>2020-02-08T16:23:10.618Z</time>
      </trkpt>
      <trkpt lat="45.32927" lon="6.17929">
        <ele>2241.9160192</ele>
        <time>2020-02-08T16:23:12.628Z</time>
      </trkpt>
      <trkpt lat="45.32937" lon="6.17923">
        <ele>2237.9460096</ele>
        <time>2020-02-08T16:23:14.618Z</time>
      </trkpt>
      <trkpt lat="45.32946" lon="6.17907">
        <ele>2228.9278193752</ele>
        <time>2020-02-08T16:23:17.632Z</time>
      </trkpt>
      <trkpt lat="45.32945" lon="6.17888">
        <ele>2218.764992</ele>
        <time>2020-02-08T16:23:20.647Z</time>
      </trkpt>
      <trkpt lat="45.32935" lon="6.17886">
        <ele>2207</ele>
        <time>2020-02-08T16:24:05.618Z</time>
      </trkpt>
      <trkpt lat="45.32931" lon="6.17874">
        <ele>2207</ele>
        <time>2020-02-08T16:24:16.617Z</time>
      </trkpt>
      <trkpt lat="45.32932" lon="6.17854">
        <ele>2205</ele>
        <time>2020-02-08T16:24:18.600Z</time>
      </trkpt>
      <trkpt lat="45.32938" lon="6.17837">
        <ele>2200.9696872727</ele>
        <time>2020-02-08T16:24:20.620Z</time>
      </trkpt>
      <trkpt lat="45.3295" lon="6.17824">
        <ele>2195.9199744</ele>
        <time>2020-02-08T16:24:22.620Z</time>
      </trkpt>
      <trkpt lat="45.32958" lon="6.17818">
        <ele>2191.84</ele>
        <time>2020-02-08T16:24:23.632Z</time>
      </trkpt>
      <trkpt lat="45.32968" lon="6.17812">
        <ele>2186.9159808</ele>
        <time>2020-02-08T16:24:24.621Z</time>
      </trkpt>
      <trkpt lat="45.32978" lon="6.17803">
        <ele>2182.9368275172</ele>
        <time>2020-02-08T16:24:25.621Z</time>
      </trkpt>
      <trkpt lat="45.32988" lon="6.17796">
        <ele>2179.9353454083</ele>
        <time>2020-02-08T16:24:26.619Z</time>
      </trkpt>
      <trkpt lat="45.32998" lon="6.17788">
        <ele>2173.9280128</ele>
        <time>2020-02-08T16:24:27.618Z</time>
      </trkpt>
      <trkpt lat="45.33005" lon="6.17779">
        <ele>2169.8680064</ele>
        <time>2020-02-08T16:24:28.633Z</time>
      </trkpt>
      <trkpt lat="45.33012" lon="6.17768">
        <ele>2161.9594056166</ele>
        <time>2020-02-08T16:24:30.618Z</time>
      </trkpt>
      <trkpt lat="45.33026" lon="6.1776">
        <ele>2155.9369856</ele>
        <time>2020-02-08T16:24:32.621Z</time>
      </trkpt>
      <trkpt lat="45.3304" lon="6.17751">
        <ele>2149.9584691275</ele>
        <time>2020-02-08T16:24:34.618Z</time>
      </trkpt>
      <trkpt lat="45.3305" lon="6.17746">
        <ele>2147.6507881807</ele>
        <time>2020-02-08T16:24:35.618Z</time>
      </trkpt>
      <trkpt lat="45.33063" lon="6.17743">
        <ele>2138.060032</ele>
        <time>2020-02-08T16:24:37.588Z</time>
      </trkpt>
      <trkpt lat="45.33076" lon="6.17742">
        <ele>2132.9460096</ele>
        <time>2020-02-08T16:24:39.618Z</time>
      </trkpt>
      <trkpt lat="45.33082" lon="6.1773">
        <ele>2125.9460096</ele>
        <time>2020-02-08T16:24:42.618Z</time>
      </trkpt>
      <trkpt lat="45.33088" lon="6.17744">
        <ele>2118</ele>
        <time>2020-02-08T16:24:51.617Z</time>
      </trkpt>
      <trkpt lat="45.33083" lon="6.17755">
        <ele>2118</ele>
        <time>2020-02-08T16:25:09.617Z</time>
      </trkpt>
      <trkpt lat="45.33079" lon="6.17741">
        <ele>2117.9820032</ele>
        <time>2020-02-08T16:25:41.618Z</time>
      </trkpt>
      <trkpt lat="45.3307" lon="6.17725">
        <ele>2116</ele>
        <time>2020-02-08T16:25:44.619Z</time>
      </trkpt>
      <trkpt lat="45.33064" lon="6.17708">
        <ele>2113.9430144</ele>
        <time>2020-02-08T16:25:46.619Z</time>
      </trkpt>
      <trkpt lat="45.33063" lon="6.17684">
        <ele>2109.9751891132</ele>
        <time>2020-02-08T16:25:48.633Z</time>
      </trkpt>
      <trkpt lat="45.33064" lon="6.17671">
        <ele>2109.2345870306</ele>
        <time>2020-02-08T16:25:49.618Z</time>
      </trkpt>
      <trkpt lat="45.33065" lon="6.17658">
        <ele>2108.9725240366</ele>
        <time>2020-02-08T16:25:50.618Z</time>
      </trkpt>
      <trkpt lat="45.33069" lon="6.17633">
        <ele>2105.856</ele>
        <time>2020-02-08T16:25:52.648Z</time>
      </trkpt>
      <trkpt lat="45.33071" lon="6.17621">
        <ele>2102.9977479645</ele>
        <time>2020-02-08T16:25:53.603Z</time>
      </trkpt>
      <trkpt lat="45.33075" lon="6.17608">
        <ele>2102.2345870306</ele>
        <time>2020-02-08T16:25:54.618Z</time>
      </trkpt>
      <trkpt lat="45.33086" lon="6.17589">
        <ele>2097.9640064</ele>
        <time>2020-02-08T16:25:56.618Z</time>
      </trkpt>
      <trkpt lat="45.33093" lon="6.17582">
        <ele>2095.9820032</ele>
        <time>2020-02-08T16:25:57.618Z</time>
      </trkpt>
      <trkpt lat="45.33102" lon="6.17574">
        <ele>2094.9670016</ele>
        <time>2020-02-08T16:25:58.633Z</time>
      </trkpt>
      <trkpt lat="45.3311" lon="6.17567">
        <ele>2093.9729370777</ele>
        <time>2020-02-08T16:25:59.618Z</time>
      </trkpt>
      <trkpt lat="45.33118" lon="6.17561">
        <ele>2092.464650742</ele>
        <time>2020-02-08T16:26:00.621Z</time>
      </trkpt>
      <trkpt lat="45.33126" lon="6.17553">
        <ele>2089.9820032</ele>
        <time>2020-02-08T16:26:01.618Z</time>
      </trkpt>
      <trkpt lat="45.33133" lon="6.17544">
        <ele>2088.9820032</ele>
        <time>2020-02-08T16:26:02.618Z</time>
      </trkpt>
      <trkpt lat="45.3314" lon="6.17534">
        <ele>2087.936</ele>
        <time>2020-02-08T16:26:03.632Z</time>
      </trkpt>
      <trkpt lat="45.33146" lon="6.17523">
        <ele>2085.9864685389</ele>
        <time>2020-02-08T16:26:04.618Z</time>
      </trkpt>
      <trkpt lat="45.33152" lon="6.17513">
        <ele>2085.2345870306</ele>
        <time>2020-02-08T16:26:05.618Z</time>
      </trkpt>
      <trkpt lat="45.33158" lon="6.17502">
        <ele>2083.9460096</ele>
        <time>2020-02-08T16:26:06.618Z</time>
      </trkpt>
      <trkpt lat="45.33166" lon="6.17495">
        <ele>2080.9600128</ele>
        <time>2020-02-08T16:26:07.620Z</time>
      </trkpt>
      <trkpt lat="45.33177" lon="6.17494">
        <ele>2078.9099904</ele>
        <time>2020-02-08T16:26:08.630Z</time>
      </trkpt>
      <trkpt lat="45.33186" lon="6.17496">
        <ele>2075.9566343841</ele>
        <time>2020-02-08T16:26:09.618Z</time>
      </trkpt>
      <trkpt lat="45.33192" lon="6.17506">
        <ele>2073.54700512</ele>
        <time>2020-02-08T16:26:10.618Z</time>
      </trkpt>
      <trkpt lat="45.33203" lon="6.17522">
        <ele>2071.0090892635</ele>
        <time>2020-02-08T16:26:12.619Z</time>
      </trkpt>
      <trkpt lat="45.33194" lon="6.17522">
        <ele>2071</ele>
        <time>2020-02-08T16:26:34.618Z</time>
      </trkpt>
      <trkpt lat="45.33204" lon="6.17524">
        <ele>2071</ele>
        <time>2020-02-08T16:26:55.618Z</time>
      </trkpt>
      <trkpt lat="45.33213" lon="6.17533">
        <ele>2071</ele>
        <time>2020-02-08T16:27:55.620Z</time>
      </trkpt>
      <trkpt lat="45.33226" lon="6.17532">
        <ele>2070</ele>
        <time>2020-02-08T16:27:58.633Z</time>
      </trkpt>
      <trkpt lat="45.33237" lon="6.17527">
        <ele>2069.9559936</ele>
        <time>2020-02-08T16:28:00.622Z</time>
      </trkpt>
      <trkpt lat="45.33242" lon="6.17512">
        <ele>2067.9810048</ele>
        <time>2020-02-08T16:28:02.619Z</time>
      </trkpt>
      <trkpt lat="45.33247" lon="6.17494">
        <ele>2064.6841018182</ele>
        <time>2020-02-08T16:28:04.619Z</time>
      </trkpt>
      <trkpt lat="45.33256" lon="6.17478">
        <ele>2059.8920192</ele>
        <time>2020-02-08T16:28:06.618Z</time>
      </trkpt>
      <trkpt lat="45.33268" lon="6.17461">
        <ele>2050.9340032</ele>
        <time>2020-02-08T16:28:08.633Z</time>
      </trkpt>
      <trkpt lat="45.33269" lon="6.17445">
        <ele>2046.9744384347</ele>
        <time>2020-02-08T16:28:10.617Z</time>
      </trkpt>
      <trkpt lat="45.3326" lon="6.17435">
        <ele>2041.9670016</ele>
        <time>2020-02-08T16:28:13.633Z</time>
      </trkpt>
      <trkpt lat="45.33254" lon="6.17422">
        <ele>2039</ele>
        <time>2020-02-08T16:28:48.633Z</time>
      </trkpt>
      <trkpt lat="45.3325" lon="6.1741">
        <ele>2038.968</ele>
        <time>2020-02-08T16:28:53.632Z</time>
      </trkpt>
      <trkpt lat="45.3326" lon="6.17403">
        <ele>2036</ele>
        <time>2020-02-08T16:29:35.616Z</time>
      </trkpt>
      <trkpt lat="45.33268" lon="6.17395">
        <ele>2036</ele>
        <time>2020-02-08T16:29:37.618Z</time>
      </trkpt>
      <trkpt lat="45.33271" lon="6.17377">
        <ele>2033.8669952</ele>
        <time>2020-02-08T16:29:39.621Z</time>
      </trkpt>
      <trkpt lat="45.33279" lon="6.17364">
        <ele>2026.9640064</ele>
        <time>2020-02-08T16:29:41.618Z</time>
      </trkpt>
      <trkpt lat="45.33291" lon="6.17352">
        <ele>2023.9010048</ele>
        <time>2020-02-08T16:29:43.633Z</time>
      </trkpt>
      <trkpt lat="45.33308" lon="6.17348">
        <ele>2016.9462784655</ele>
        <time>2020-02-08T16:29:45.618Z</time>
      </trkpt>
      <trkpt lat="45.33325" lon="6.17336">
        <ele>2009.910016</ele>
        <time>2020-02-08T16:29:47.618Z</time>
      </trkpt>
      <trkpt lat="45.33335" lon="6.17327">
        <ele>2004.8680064</ele>
        <time>2020-02-08T16:29:48.633Z</time>
      </trkpt>
      <trkpt lat="45.33342" lon="6.17315">
        <ele>2000.9571535811</ele>
        <time>2020-02-08T16:29:49.619Z</time>
      </trkpt>
      <trkpt lat="45.33349" lon="6.17303">
        <ele>1998.7037610918</ele>
        <time>2020-02-08T16:29:50.618Z</time>
      </trkpt>
      <trkpt lat="45.33353" lon="6.17291">
        <ele>1994.8920192</ele>
        <time>2020-02-08T16:29:51.618Z</time>
      </trkpt>
      <trkpt lat="45.33356" lon="6.17277">
        <ele>1988.9240192</ele>
        <time>2020-02-08T16:29:52.619Z</time>
      </trkpt>
      <trkpt lat="45.33353" lon="6.17263">
        <ele>1984.8839808</ele>
        <time>2020-02-08T16:29:53.629Z</time>
      </trkpt>
      <trkpt lat="45.33356" lon="6.17249">
        <ele>1980.9594056166</ele>
        <time>2020-02-08T16:29:54.618Z</time>
      </trkpt>
      <trkpt lat="45.3336" lon="6.17237">
        <ele>1978.7060131272</ele>
        <time>2020-02-08T16:29:55.617Z</time>
      </trkpt>
      <trkpt lat="45.33366" lon="6.17218">
        <ele>1970.9862620183</ele>
        <time>2020-02-08T16:29:57.618Z</time>
      </trkpt>
      <trkpt lat="45.33367" lon="6.17201">
        <ele>1967.9821813297</ele>
        <time>2020-02-08T16:29:59.618Z</time>
      </trkpt>
      <trkpt lat="45.33362" lon="6.17184">
        <ele>1966.9864685389</ele>
        <time>2020-02-08T16:30:01.618Z</time>
      </trkpt>
      <trkpt lat="45.33361" lon="6.1716">
        <ele>1962.9159808</ele>
        <time>2020-02-08T16:30:03.628Z</time>
      </trkpt>
      <trkpt lat="45.33366" lon="6.17147">
        <ele>1959.9640064</ele>
        <time>2020-02-08T16:30:04.618Z</time>
      </trkpt>
      <trkpt lat="45.33372" lon="6.17136">
        <ele>1957.9460096</ele>
        <time>2020-02-08T16:30:05.618Z</time>
      </trkpt>
      <trkpt lat="45.33379" lon="6.17127">
        <ele>1954.9820032</ele>
        <time>2020-02-08T16:30:06.618Z</time>
      </trkpt>
      <trkpt lat="45.33394" lon="6.17124">
        <ele>1951.9518795835</ele>
        <time>2020-02-08T16:30:08.632Z</time>
      </trkpt>
      <trkpt lat="45.33407" lon="6.17119">
        <ele>1948.9820032</ele>
        <time>2020-02-08T16:30:10.618Z</time>
      </trkpt>
      <trkpt lat="45.33418" lon="6.17111">
        <ele>1945.9799936</ele>
        <time>2020-02-08T16:30:12.620Z</time>
      </trkpt>
      <trkpt lat="45.33424" lon="6.17094">
        <ele>1942.9849575578</ele>
        <time>2020-02-08T16:30:14.620Z</time>
      </trkpt>
      <trkpt lat="45.33424" lon="6.17071">
        <ele>1939.9587860549</ele>
        <time>2020-02-08T16:30:16.618Z</time>
      </trkpt>
      <trkpt lat="45.33426" lon="6.1705">
        <ele>1935</ele>
        <time>2020-02-08T16:30:18.633Z</time>
      </trkpt>
      <trkpt lat="45.33431" lon="6.17034">
        <ele>1934</ele>
        <time>2020-02-08T16:30:20.618Z</time>
      </trkpt>
      <trkpt lat="45.3344" lon="6.17028">
        <ele>1930.0009913663</ele>
        <time>2020-02-08T16:30:24.619Z</time>
      </trkpt>
      <trkpt lat="45.33446" lon="6.17018">
        <ele>1932</ele>
        <time>2020-02-08T16:31:03.618Z</time>
      </trkpt>
      <trkpt lat="45.33446" lon="6.17017">
        <ele>1934</ele>
        <time>2020-02-08T16:32:21.619Z</time>
      </trkpt>
    </trkseg>
  </trk>
  <trk>
    <name><![CDATA[J3 - Brèche de la Passoire - Col de la Colombière]]></name>
    <trkseg>
      <trkpt lat="45.32713" lon="6.16947">
        <ele>1940</ele>
        <time>2020-02-09T09:41:42.000Z</time>
      </trkpt>
      <trkpt lat="45.32709" lon="6.16953">
        <ele>1928</ele>
        <time>2020-02-09T09:41:49.972Z</time>
      </trkpt>
      <trkpt lat="45.327" lon="6.16958">
        <ele>1931</ele>
        <time>2020-02-09T09:42:06.991Z</time>
      </trkpt>
      <trkpt lat="45.32691" lon="6.16958">
        <ele>1933</ele>
        <time>2020-02-09T09:42:18.002Z</time>
      </trkpt>
      <trkpt lat="45.32684" lon="6.16967">
        <ele>1935</ele>
        <time>2020-02-09T09:42:34.992Z</time>
      </trkpt>
      <trkpt lat="45.32677" lon="6.16975">
        <ele>1938</ele>
        <time>2020-02-09T09:42:54.987Z</time>
      </trkpt>
      <trkpt lat="45.32668" lon="6.16978">
        <ele>1941</ele>
        <time>2020-02-09T09:43:18.988Z</time>
      </trkpt>
      <trkpt lat="45.3266" lon="6.16985">
        <ele>1944</ele>
        <time>2020-02-09T09:43:35.987Z</time>
      </trkpt>
      <trkpt lat="45.3265" lon="6.16986">
        <ele>1945</ele>
        <time>2020-02-09T09:43:46.987Z</time>
      </trkpt>
      <trkpt lat="45.32641" lon="6.1699">
        <ele>1947</ele>
        <time>2020-02-09T09:43:59.076Z</time>
      </trkpt>
      <trkpt lat="45.32632" lon="6.16988">
        <ele>1949</ele>
        <time>2020-02-09T09:44:16.001Z</time>
      </trkpt>
      <trkpt lat="45.32623" lon="6.16992">
        <ele>1950</ele>
        <time>2020-02-09T09:44:33.001Z</time>
      </trkpt>
      <trkpt lat="45.32614" lon="6.16995">
        <ele>1952</ele>
        <time>2020-02-09T09:44:44.991Z</time>
      </trkpt>
      <trkpt lat="45.32606" lon="6.17002">
        <ele>1954</ele>
        <time>2020-02-09T09:44:58.001Z</time>
      </trkpt>
      <trkpt lat="45.32597" lon="6.17005">
        <ele>1955</ele>
        <time>2020-02-09T09:45:14.001Z</time>
      </trkpt>
      <trkpt lat="45.32587" lon="6.17005">
        <ele>1957</ele>
        <time>2020-02-09T09:45:29.991Z</time>
      </trkpt>
      <trkpt lat="45.32579" lon="6.17009">
        <ele>1959</ele>
        <time>2020-02-09T09:45:47.001Z</time>
      </trkpt>
      <trkpt lat="45.32569" lon="6.1701">
        <ele>1962</ele>
        <time>2020-02-09T09:46:03.001Z</time>
      </trkpt>
      <trkpt lat="45.32561" lon="6.17016">
        <ele>1965</ele>
        <time>2020-02-09T09:46:22.991Z</time>
      </trkpt>
      <trkpt lat="45.32553" lon="6.17022">
        <ele>1967</ele>
        <time>2020-02-09T09:46:43.001Z</time>
      </trkpt>
      <trkpt lat="45.32543" lon="6.17026">
        <ele>1969</ele>
        <time>2020-02-09T09:47:00.001Z</time>
      </trkpt>
      <trkpt lat="45.32534" lon="6.17027">
        <ele>1970</ele>
        <time>2020-02-09T09:47:18.001Z</time>
      </trkpt>
      <trkpt lat="45.32525" lon="6.17032">
        <ele>1974</ele>
        <time>2020-02-09T09:47:39.001Z</time>
      </trkpt>
      <trkpt lat="45.32518" lon="6.17041">
        <ele>1976</ele>
        <time>2020-02-09T09:48:24.020Z</time>
      </trkpt>
      <trkpt lat="45.32509" lon="6.17046">
        <ele>1979</ele>
        <time>2020-02-09T09:49:23.001Z</time>
      </trkpt>
      <trkpt lat="45.325" lon="6.1705">
        <ele>1982</ele>
        <time>2020-02-09T09:49:40.016Z</time>
      </trkpt>
      <trkpt lat="45.32492" lon="6.17054">
        <ele>1984.3859968</ele>
        <time>2020-02-09T09:49:59.016Z</time>
      </trkpt>
      <trkpt lat="45.32483" lon="6.17057">
        <ele>1989</ele>
        <time>2020-02-09T09:50:12.990Z</time>
      </trkpt>
      <trkpt lat="45.32474" lon="6.17061">
        <ele>1991</ele>
        <time>2020-02-09T09:50:30.991Z</time>
      </trkpt>
      <trkpt lat="45.32464" lon="6.17067">
        <ele>1993</ele>
        <time>2020-02-09T09:50:52.991Z</time>
      </trkpt>
      <trkpt lat="45.32456" lon="6.17074">
        <ele>1996</ele>
        <time>2020-02-09T09:51:11.991Z</time>
      </trkpt>
      <trkpt lat="45.32447" lon="6.17078">
        <ele>1999</ele>
        <time>2020-02-09T09:51:34.026Z</time>
      </trkpt>
      <trkpt lat="45.32439" lon="6.17085">
        <ele>2002</ele>
        <time>2020-02-09T09:51:53.016Z</time>
      </trkpt>
      <trkpt lat="45.3243" lon="6.17088">
        <ele>2004</ele>
        <time>2020-02-09T09:52:09.991Z</time>
      </trkpt>
      <trkpt lat="45.32423" lon="6.17097">
        <ele>2006</ele>
        <time>2020-02-09T09:52:35.988Z</time>
      </trkpt>
      <trkpt lat="45.32415" lon="6.17104">
        <ele>2008</ele>
        <time>2020-02-09T09:52:50.959Z</time>
      </trkpt>
      <trkpt lat="45.3241" lon="6.17114">
        <ele>2011</ele>
        <time>2020-02-09T09:53:07.991Z</time>
      </trkpt>
      <trkpt lat="45.32405" lon="6.17126">
        <ele>2012.7180032</ele>
        <time>2020-02-09T09:53:26.989Z</time>
      </trkpt>
      <trkpt lat="45.32397" lon="6.1713">
        <ele>2017</ele>
        <time>2020-02-09T09:53:43.999Z</time>
      </trkpt>
      <trkpt lat="45.32388" lon="6.17134">
        <ele>2020</ele>
        <time>2020-02-09T09:54:45.989Z</time>
      </trkpt>
      <trkpt lat="45.32378" lon="6.17134">
        <ele>2027</ele>
        <time>2020-02-09T09:58:09.992Z</time>
      </trkpt>
      <trkpt lat="45.3237" lon="6.17141">
        <ele>2031</ele>
        <time>2020-02-09T09:58:29.988Z</time>
      </trkpt>
      <trkpt lat="45.32374" lon="6.17154">
        <ele>2034</ele>
        <time>2020-02-09T09:58:52.001Z</time>
      </trkpt>
      <trkpt lat="45.32373" lon="6.17167">
        <ele>2038</ele>
        <time>2020-02-09T09:59:20.992Z</time>
      </trkpt>
      <trkpt lat="45.32369" lon="6.17179">
        <ele>2042</ele>
        <time>2020-02-09T09:59:44.997Z</time>
      </trkpt>
      <trkpt lat="45.32374" lon="6.17191">
        <ele>2047</ele>
        <time>2020-02-09T10:00:20.003Z</time>
      </trkpt>
      <trkpt lat="45.32381" lon="6.172">
        <ele>2051</ele>
        <time>2020-02-09T10:00:42.987Z</time>
      </trkpt>
      <trkpt lat="45.32388" lon="6.17208">
        <ele>2053.067144529</ele>
        <time>2020-02-09T10:01:01.987Z</time>
      </trkpt>
      <trkpt lat="45.32395" lon="6.17217">
        <ele>2057</ele>
        <time>2020-02-09T10:01:25.002Z</time>
      </trkpt>
      <trkpt lat="45.32402" lon="6.17226">
        <ele>2058</ele>
        <time>2020-02-09T10:01:38.987Z</time>
      </trkpt>
      <trkpt lat="45.32406" lon="6.17238">
        <ele>2063</ele>
        <time>2020-02-09T10:02:06.972Z</time>
      </trkpt>
      <trkpt lat="45.32407" lon="6.17251">
        <ele>2067</ele>
        <time>2020-02-09T10:02:29.991Z</time>
      </trkpt>
      <trkpt lat="45.32412" lon="6.17263">
        <ele>2070</ele>
        <time>2020-02-09T10:02:47.987Z</time>
      </trkpt>
      <trkpt lat="45.32413" lon="6.17276">
        <ele>2073</ele>
        <time>2020-02-09T10:03:06.992Z</time>
      </trkpt>
      <trkpt lat="45.32418" lon="6.17287">
        <ele>2075.277692444</ele>
        <time>2020-02-09T10:03:29.991Z</time>
      </trkpt>
      <trkpt lat="45.3241" lon="6.17295">
        <ele>2078</ele>
        <time>2020-02-09T10:03:49.991Z</time>
      </trkpt>
      <trkpt lat="45.32402" lon="6.17302">
        <ele>2081</ele>
        <time>2020-02-09T10:04:08.001Z</time>
      </trkpt>
      <trkpt lat="45.32393" lon="6.17307">
        <ele>2083</ele>
        <time>2020-02-09T10:04:28.003Z</time>
      </trkpt>
      <trkpt lat="45.32385" lon="6.17314">
        <ele>2086</ele>
        <time>2020-02-09T10:04:48.986Z</time>
      </trkpt>
      <trkpt lat="45.32379" lon="6.17323">
        <ele>2089</ele>
        <time>2020-02-09T10:05:06.991Z</time>
      </trkpt>
      <trkpt lat="45.32371" lon="6.17329">
        <ele>2092</ele>
        <time>2020-02-09T10:05:23.991Z</time>
      </trkpt>
      <trkpt lat="45.32362" lon="6.17332">
        <ele>2096</ele>
        <time>2020-02-09T10:05:53.001Z</time>
      </trkpt>
      <trkpt lat="45.32368" lon="6.17342">
        <ele>2100.6440064</ele>
        <time>2020-02-09T10:06:22.986Z</time>
      </trkpt>
      <trkpt lat="45.32373" lon="6.17352">
        <ele>2103</ele>
        <time>2020-02-09T10:06:40.001Z</time>
      </trkpt>
      <trkpt lat="45.32375" lon="6.17365">
        <ele>2106</ele>
        <time>2020-02-09T10:07:01.991Z</time>
      </trkpt>
      <trkpt lat="45.32381" lon="6.17375">
        <ele>2110</ele>
        <time>2020-02-09T10:07:26.991Z</time>
      </trkpt>
      <trkpt lat="45.32372" lon="6.17381">
        <ele>2113.3499943529</ele>
        <time>2020-02-09T10:07:46.987Z</time>
      </trkpt>
      <trkpt lat="45.32364" lon="6.17387">
        <ele>2116</ele>
        <time>2020-02-09T10:08:12.001Z</time>
      </trkpt>
      <trkpt lat="45.32356" lon="6.17393">
        <ele>2120</ele>
        <time>2020-02-09T10:08:37.001Z</time>
      </trkpt>
      <trkpt lat="45.32359" lon="6.17405">
        <ele>2125</ele>
        <time>2020-02-09T10:09:07.001Z</time>
      </trkpt>
      <trkpt lat="45.32363" lon="6.17417">
        <ele>2128</ele>
        <time>2020-02-09T10:09:26.991Z</time>
      </trkpt>
      <trkpt lat="45.3237" lon="6.17425">
        <ele>2132</ele>
        <time>2020-02-09T10:09:54.001Z</time>
      </trkpt>
      <trkpt lat="45.32377" lon="6.17432">
        <ele>2134</ele>
        <time>2020-02-09T10:10:14.001Z</time>
      </trkpt>
      <trkpt lat="45.3237" lon="6.17441">
        <ele>2139</ele>
        <time>2020-02-09T10:10:41.987Z</time>
      </trkpt>
      <trkpt lat="45.32362" lon="6.17445">
        <ele>2142</ele>
        <time>2020-02-09T10:11:01.987Z</time>
      </trkpt>
      <trkpt lat="45.32353" lon="6.17447">
        <ele>2144</ele>
        <time>2020-02-09T10:11:12.017Z</time>
      </trkpt>
      <trkpt lat="45.32356" lon="6.17459">
        <ele>2150</ele>
        <time>2020-02-09T10:11:49.001Z</time>
      </trkpt>
      <trkpt lat="45.32362" lon="6.17468">
        <ele>2153</ele>
        <time>2020-02-09T10:12:09.961Z</time>
      </trkpt>
      <trkpt lat="45.3237" lon="6.17477">
        <ele>2156</ele>
        <time>2020-02-09T10:12:30.016Z</time>
      </trkpt>
      <trkpt lat="45.32377" lon="6.17485">
        <ele>2159</ele>
        <time>2020-02-09T10:12:50.991Z</time>
      </trkpt>
      <trkpt lat="45.32382" lon="6.17495">
        <ele>2163</ele>
        <time>2020-02-09T10:13:14.991Z</time>
      </trkpt>
      <trkpt lat="45.32385" lon="6.17508">
        <ele>2167</ele>
        <time>2020-02-09T10:13:45.991Z</time>
      </trkpt>
      <trkpt lat="45.32377" lon="6.17515">
        <ele>2171</ele>
        <time>2020-02-09T10:14:05.987Z</time>
      </trkpt>
      <trkpt lat="45.32371" lon="6.17524">
        <ele>2176</ele>
        <time>2020-02-09T10:14:37.991Z</time>
      </trkpt>
      <trkpt lat="45.32374" lon="6.17537">
        <ele>2178</ele>
        <time>2020-02-09T10:14:51.991Z</time>
      </trkpt>
      <trkpt lat="45.32381" lon="6.17546">
        <ele>2181</ele>
        <time>2020-02-09T10:15:12.991Z</time>
      </trkpt>
      <trkpt lat="45.3239" lon="6.1755">
        <ele>2185</ele>
        <time>2020-02-09T10:15:38.020Z</time>
      </trkpt>
      <trkpt lat="45.32398" lon="6.17555">
        <ele>2187</ele>
        <time>2020-02-09T10:15:55.991Z</time>
      </trkpt>
      <trkpt lat="45.32394" lon="6.17567">
        <ele>2190</ele>
        <time>2020-02-09T10:16:13.997Z</time>
      </trkpt>
      <trkpt lat="45.32388" lon="6.17578">
        <ele>2194</ele>
        <time>2020-02-09T10:16:36.988Z</time>
      </trkpt>
      <trkpt lat="45.32381" lon="6.17586">
        <ele>2198</ele>
        <time>2020-02-09T10:16:57.987Z</time>
      </trkpt>
      <trkpt lat="45.32372" lon="6.1759">
        <ele>2202</ele>
        <time>2020-02-09T10:17:27.988Z</time>
      </trkpt>
      <trkpt lat="45.32375" lon="6.17603">
        <ele>2207</ele>
        <time>2020-02-09T10:18:19.991Z</time>
      </trkpt>
      <trkpt lat="45.32383" lon="6.17609">
        <ele>2209</ele>
        <time>2020-02-09T10:18:32.988Z</time>
      </trkpt>
      <trkpt lat="45.32388" lon="6.17619">
        <ele>2211</ele>
        <time>2020-02-09T10:18:50.991Z</time>
      </trkpt>
      <trkpt lat="45.32395" lon="6.17629">
        <ele>2213</ele>
        <time>2020-02-09T10:19:07.018Z</time>
      </trkpt>
      <trkpt lat="45.32403" lon="6.17636">
        <ele>2215</ele>
        <time>2020-02-09T10:19:31.988Z</time>
      </trkpt>
      <trkpt lat="45.32407" lon="6.17648">
        <ele>2220</ele>
        <time>2020-02-09T10:20:42.960Z</time>
      </trkpt>
      <trkpt lat="45.32414" lon="6.17656">
        <ele>2224</ele>
        <time>2020-02-09T10:21:04.990Z</time>
      </trkpt>
      <trkpt lat="45.32422" lon="6.17649">
        <ele>2230</ele>
        <time>2020-02-09T10:22:47.001Z</time>
      </trkpt>
      <trkpt lat="45.32426" lon="6.17662">
        <ele>2235</ele>
        <time>2020-02-09T10:23:14.959Z</time>
      </trkpt>
      <trkpt lat="45.3243" lon="6.17675">
        <ele>2237</ele>
        <time>2020-02-09T10:23:29.001Z</time>
      </trkpt>
      <trkpt lat="45.3243" lon="6.17689">
        <ele>2240.273274447</ele>
        <time>2020-02-09T10:23:43.988Z</time>
      </trkpt>
      <trkpt lat="45.32424" lon="6.17699">
        <ele>2243</ele>
        <time>2020-02-09T10:24:01.988Z</time>
      </trkpt>
      <trkpt lat="45.32416" lon="6.17705">
        <ele>2246.7160064</ele>
        <time>2020-02-09T10:24:18.988Z</time>
      </trkpt>
      <trkpt lat="45.3242" lon="6.17718">
        <ele>2252</ele>
        <time>2020-02-09T10:24:59.990Z</time>
      </trkpt>
      <trkpt lat="45.32428" lon="6.17722">
        <ele>2255</ele>
        <time>2020-02-09T10:25:27.020Z</time>
      </trkpt>
      <trkpt lat="45.32428" lon="6.17736">
        <ele>2261</ele>
        <time>2020-02-09T10:26:18.988Z</time>
      </trkpt>
      <trkpt lat="45.32436" lon="6.17743">
        <ele>2268</ele>
        <time>2020-02-09T10:27:59.970Z</time>
      </trkpt>
      <trkpt lat="45.32434" lon="6.17756">
        <ele>2276</ele>
        <time>2020-02-09T10:29:34.974Z</time>
      </trkpt>
      <trkpt lat="45.32426" lon="6.17762">
        <ele>2279</ele>
        <time>2020-02-09T10:30:12.959Z</time>
      </trkpt>
      <trkpt lat="45.32417" lon="6.17763">
        <ele>2283</ele>
        <time>2020-02-09T10:30:57.990Z</time>
      </trkpt>
      <trkpt lat="45.32424" lon="6.17771">
        <ele>2285</ele>
        <time>2020-02-09T10:31:52.988Z</time>
      </trkpt>
      <trkpt lat="45.32432" lon="6.17778">
        <ele>2287</ele>
        <time>2020-02-09T10:32:07.989Z</time>
      </trkpt>
      <trkpt lat="45.3244" lon="6.17784">
        <ele>2291</ele>
        <time>2020-02-09T10:32:25.019Z</time>
      </trkpt>
      <trkpt lat="45.32443" lon="6.17796">
        <ele>2293.3590016</ele>
        <time>2020-02-09T10:32:53.989Z</time>
      </trkpt>
      <trkpt lat="45.32434" lon="6.17798">
        <ele>2295</ele>
        <time>2020-02-09T10:33:51.999Z</time>
      </trkpt>
      <trkpt lat="45.32441" lon="6.17806">
        <ele>2294</ele>
        <time>2020-02-09T10:34:05.001Z</time>
      </trkpt>
      <trkpt lat="45.32442" lon="6.17793">
        <ele>2294</ele>
        <time>2020-02-09T10:34:30.001Z</time>
      </trkpt>
      <trkpt lat="45.32448" lon="6.17815">
        <ele>2295</ele>
        <time>2020-02-09T10:34:40.001Z</time>
      </trkpt>
      <trkpt lat="45.32445" lon="6.17802">
        <ele>2295</ele>
        <time>2020-02-09T10:34:43.989Z</time>
      </trkpt>
      <trkpt lat="45.32444" lon="6.1779">
        <ele>2296</ele>
        <time>2020-02-09T10:35:11.987Z</time>
      </trkpt>
      <trkpt lat="45.32434" lon="6.17776">
        <ele>2296</ele>
        <time>2020-02-09T10:35:30.001Z</time>
      </trkpt>
      <trkpt lat="45.32443" lon="6.17785">
        <ele>2296</ele>
        <time>2020-02-09T10:35:32.001Z</time>
      </trkpt>
      <trkpt lat="45.3244" lon="6.17772">
        <ele>2296</ele>
        <time>2020-02-09T10:35:39.989Z</time>
      </trkpt>
      <trkpt lat="45.3244" lon="6.17758">
        <ele>2296</ele>
        <time>2020-02-09T10:35:42.989Z</time>
      </trkpt>
      <trkpt lat="45.32447" lon="6.17784">
        <ele>2297</ele>
        <time>2020-02-09T10:35:52.001Z</time>
      </trkpt>
      <trkpt lat="45.32448" lon="6.17798">
        <ele>2296.632676856</ele>
        <time>2020-02-09T10:35:58.001Z</time>
      </trkpt>
      <trkpt lat="45.32439" lon="6.17794">
        <ele>2298</ele>
        <time>2020-02-09T10:36:37.101Z</time>
      </trkpt>
      <trkpt lat="45.32448" lon="6.17797">
        <ele>2296.3709952</ele>
        <time>2020-02-09T10:36:52.001Z</time>
      </trkpt>
      <trkpt lat="45.3244" lon="6.17806">
        <ele>2297</ele>
        <time>2020-02-09T10:37:05.989Z</time>
      </trkpt>
      <trkpt lat="45.32435" lon="6.17795">
        <ele>2297</ele>
        <time>2020-02-09T10:37:27.989Z</time>
      </trkpt>
      <trkpt lat="45.32439" lon="6.17782">
        <ele>2298</ele>
        <time>2020-02-09T10:37:57.004Z</time>
      </trkpt>
      <trkpt lat="45.32445" lon="6.17793">
        <ele>2300</ele>
        <time>2020-02-09T10:38:17.990Z</time>
      </trkpt>
      <trkpt lat="45.32435" lon="6.17798">
        <ele>2300.6409984</ele>
        <time>2020-02-09T10:38:52.989Z</time>
      </trkpt>
      <trkpt lat="45.32445" lon="6.17797">
        <ele>2302</ele>
        <time>2020-02-09T10:39:13.989Z</time>
      </trkpt>
      <trkpt lat="45.32439" lon="6.17808">
        <ele>2302</ele>
        <time>2020-02-09T10:39:49.001Z</time>
      </trkpt>
      <trkpt lat="45.32444" lon="6.17796">
        <ele>2302</ele>
        <time>2020-02-09T10:40:09.001Z</time>
      </trkpt>
      <trkpt lat="45.32436" lon="6.17805">
        <ele>2302</ele>
        <time>2020-02-09T10:40:27.990Z</time>
      </trkpt>
      <trkpt lat="45.32441" lon="6.17794">
        <ele>2302</ele>
        <time>2020-02-09T10:40:55.990Z</time>
      </trkpt>
      <trkpt lat="45.32432" lon="6.17796">
        <ele>2303</ele>
        <time>2020-02-09T10:42:35.001Z</time>
      </trkpt>
      <trkpt lat="45.32441" lon="6.17795">
        <ele>2305</ele>
        <time>2020-02-09T10:43:04.990Z</time>
      </trkpt>
      <trkpt lat="45.32437" lon="6.17806">
        <ele>2307</ele>
        <time>2020-02-09T10:44:14.988Z</time>
      </trkpt>
      <trkpt lat="45.32437" lon="6.1782">
        <ele>2308</ele>
        <time>2020-02-09T10:44:27.028Z</time>
      </trkpt>
      <trkpt lat="45.32431" lon="6.17832">
        <ele>2309</ele>
        <time>2020-02-09T10:44:48.990Z</time>
      </trkpt>
      <trkpt lat="45.32423" lon="6.17839">
        <ele>2308.6300032</ele>
        <time>2020-02-09T10:44:58.000Z</time>
      </trkpt>
      <trkpt lat="45.32418" lon="6.17851">
        <ele>2308.0972266667</ele>
        <time>2020-02-09T10:45:22.000Z</time>
      </trkpt>
      <trkpt lat="45.32415" lon="6.17863">
        <ele>2310</ele>
        <time>2020-02-09T10:45:46.990Z</time>
      </trkpt>
      <trkpt lat="45.32408" lon="6.17871">
        <ele>2311</ele>
        <time>2020-02-09T10:45:58.988Z</time>
      </trkpt>
      <trkpt lat="45.32401" lon="6.17879">
        <ele>2313</ele>
        <time>2020-02-09T10:46:08.990Z</time>
      </trkpt>
      <trkpt lat="45.32396" lon="6.1789">
        <ele>2314</ele>
        <time>2020-02-09T10:46:22.990Z</time>
      </trkpt>
      <trkpt lat="45.32392" lon="6.17902">
        <ele>2317</ele>
        <time>2020-02-09T10:46:41.990Z</time>
      </trkpt>
      <trkpt lat="45.32391" lon="6.17915">
        <ele>2319</ele>
        <time>2020-02-09T10:46:59.958Z</time>
      </trkpt>
      <trkpt lat="45.32385" lon="6.17925">
        <ele>2321</ele>
        <time>2020-02-09T10:47:21.003Z</time>
      </trkpt>
      <trkpt lat="45.32382" lon="6.17937">
        <ele>2326</ele>
        <time>2020-02-09T10:47:41.988Z</time>
      </trkpt>
      <trkpt lat="45.32381" lon="6.1795">
        <ele>2328</ele>
        <time>2020-02-09T10:47:59.988Z</time>
      </trkpt>
      <trkpt lat="45.32379" lon="6.17963">
        <ele>2330</ele>
        <time>2020-02-09T10:48:18.987Z</time>
      </trkpt>
      <trkpt lat="45.32385" lon="6.17974">
        <ele>2332</ele>
        <time>2020-02-09T10:48:31.988Z</time>
      </trkpt>
      <trkpt lat="45.32386" lon="6.17987">
        <ele>2334</ele>
        <time>2020-02-09T10:48:51.003Z</time>
      </trkpt>
      <trkpt lat="45.32382" lon="6.17999">
        <ele>2337</ele>
        <time>2020-02-09T10:49:12.020Z</time>
      </trkpt>
      <trkpt lat="45.32381" lon="6.18011">
        <ele>2340</ele>
        <time>2020-02-09T10:49:31.960Z</time>
      </trkpt>
      <trkpt lat="45.32375" lon="6.18022">
        <ele>2344</ele>
        <time>2020-02-09T10:49:52.990Z</time>
      </trkpt>
      <trkpt lat="45.32367" lon="6.1803">
        <ele>2346</ele>
        <time>2020-02-09T10:50:13.002Z</time>
      </trkpt>
      <trkpt lat="45.3236" lon="6.18039">
        <ele>2348</ele>
        <time>2020-02-09T10:50:28.030Z</time>
      </trkpt>
      <trkpt lat="45.32357" lon="6.18052">
        <ele>2350</ele>
        <time>2020-02-09T10:50:47.001Z</time>
      </trkpt>
      <trkpt lat="45.3235" lon="6.18061">
        <ele>2355</ele>
        <time>2020-02-09T10:51:10.001Z</time>
      </trkpt>
      <trkpt lat="45.32341" lon="6.18061">
        <ele>2357</ele>
        <time>2020-02-09T10:51:31.990Z</time>
      </trkpt>
      <trkpt lat="45.32331" lon="6.18062">
        <ele>2361</ele>
        <time>2020-02-09T10:51:55.991Z</time>
      </trkpt>
      <trkpt lat="45.3233" lon="6.18076">
        <ele>2365</ele>
        <time>2020-02-09T10:52:20.002Z</time>
      </trkpt>
      <trkpt lat="45.32329" lon="6.18089">
        <ele>2367</ele>
        <time>2020-02-09T10:52:37.988Z</time>
      </trkpt>
      <trkpt lat="45.32326" lon="6.18101">
        <ele>2370</ele>
        <time>2020-02-09T10:53:57.961Z</time>
      </trkpt>
      <trkpt lat="45.32334" lon="6.18093">
        <ele>2373</ele>
        <time>2020-02-09T10:56:22.991Z</time>
      </trkpt>
      <trkpt lat="45.32343" lon="6.18092">
        <ele>2374</ele>
        <time>2020-02-09T10:57:07.960Z</time>
      </trkpt>
      <trkpt lat="45.32353" lon="6.18091">
        <ele>2374</ele>
        <time>2020-02-09T10:57:31.991Z</time>
      </trkpt>
      <trkpt lat="45.32343" lon="6.18095">
        <ele>2375</ele>
        <time>2020-02-09T10:57:49.991Z</time>
      </trkpt>
      <trkpt lat="45.32334" lon="6.18092">
        <ele>2376</ele>
        <time>2020-02-09T10:58:19.991Z</time>
      </trkpt>
      <trkpt lat="45.32342" lon="6.18099">
        <ele>2376</ele>
        <time>2020-02-09T10:59:04.001Z</time>
      </trkpt>
      <trkpt lat="45.32333" lon="6.18097">
        <ele>2376</ele>
        <time>2020-02-09T10:59:20.961Z</time>
      </trkpt>
      <trkpt lat="45.32324" lon="6.18091">
        <ele>2378</ele>
        <time>2020-02-09T10:59:51.991Z</time>
      </trkpt>
      <trkpt lat="45.32332" lon="6.18097">
        <ele>2378</ele>
        <time>2020-02-09T11:00:30.992Z</time>
      </trkpt>
      <trkpt lat="45.32324" lon="6.181">
        <ele>2380.3709952</ele>
        <time>2020-02-09T11:01:36.001Z</time>
      </trkpt>
      <trkpt lat="45.32314" lon="6.18098">
        <ele>2383.3709952</ele>
        <time>2020-02-09T11:01:51.001Z</time>
      </trkpt>
      <trkpt lat="45.32305" lon="6.18098">
        <ele>2385</ele>
        <time>2020-02-09T11:02:07.001Z</time>
      </trkpt>
      <trkpt lat="45.32297" lon="6.18105">
        <ele>2389.3869952</ele>
        <time>2020-02-09T11:02:30.017Z</time>
      </trkpt>
      <trkpt lat="45.32288" lon="6.18111">
        <ele>2392</ele>
        <time>2020-02-09T11:02:46.987Z</time>
      </trkpt>
      <trkpt lat="45.3228" lon="6.18118">
        <ele>2394.0607870696</ele>
        <time>2020-02-09T11:03:05.992Z</time>
      </trkpt>
      <trkpt lat="45.3227" lon="6.18119">
        <ele>2396</ele>
        <time>2020-02-09T11:03:14.992Z</time>
      </trkpt>
      <trkpt lat="45.32261" lon="6.18121">
        <ele>2396.3619968</ele>
        <time>2020-02-09T11:03:21.992Z</time>
      </trkpt>
      <trkpt lat="45.32256" lon="6.18131">
        <ele>2400</ele>
        <time>2020-02-09T11:03:39.991Z</time>
      </trkpt>
      <trkpt lat="45.32255" lon="6.18144">
        <ele>2404.3270016</ele>
        <time>2020-02-09T11:04:05.957Z</time>
      </trkpt>
      <trkpt lat="45.32247" lon="6.18151">
        <ele>2407</ele>
        <time>2020-02-09T11:04:24.032Z</time>
      </trkpt>
      <trkpt lat="45.32238" lon="6.18155">
        <ele>2409</ele>
        <time>2020-02-09T11:04:36.992Z</time>
      </trkpt>
      <trkpt lat="45.32229" lon="6.18158">
        <ele>2411</ele>
        <time>2020-02-09T11:04:54.001Z</time>
      </trkpt>
      <trkpt lat="45.32223" lon="6.18168">
        <ele>2415</ele>
        <time>2020-02-09T11:05:19.987Z</time>
      </trkpt>
      <trkpt lat="45.32218" lon="6.18157">
        <ele>2420.2784604478</ele>
        <time>2020-02-09T11:05:55.992Z</time>
      </trkpt>
      <trkpt lat="45.32224" lon="6.18145">
        <ele>2424</ele>
        <time>2020-02-09T11:06:19.992Z</time>
      </trkpt>
      <trkpt lat="45.32219" lon="6.18134">
        <ele>2427</ele>
        <time>2020-02-09T11:06:43.987Z</time>
      </trkpt>
      <trkpt lat="45.32209" lon="6.18129">
        <ele>2432</ele>
        <time>2020-02-09T11:07:06.987Z</time>
      </trkpt>
      <trkpt lat="45.32199" lon="6.18128">
        <ele>2434</ele>
        <time>2020-02-09T11:07:25.987Z</time>
      </trkpt>
      <trkpt lat="45.3219" lon="6.18135">
        <ele>2437</ele>
        <time>2020-02-09T11:07:40.992Z</time>
      </trkpt>
      <trkpt lat="45.32185" lon="6.18146">
        <ele>2441</ele>
        <time>2020-02-09T11:08:08.991Z</time>
      </trkpt>
      <trkpt lat="45.32177" lon="6.18152">
        <ele>2443</ele>
        <time>2020-02-09T11:08:26.991Z</time>
      </trkpt>
      <trkpt lat="45.32179" lon="6.18166">
        <ele>2445</ele>
        <time>2020-02-09T11:08:41.987Z</time>
      </trkpt>
      <trkpt lat="45.3218" lon="6.1818">
        <ele>2447.356992</ele>
        <time>2020-02-09T11:08:58.987Z</time>
      </trkpt>
      <trkpt lat="45.32173" lon="6.1819">
        <ele>2450</ele>
        <time>2020-02-09T11:09:16.987Z</time>
      </trkpt>
      <trkpt lat="45.32176" lon="6.18202">
        <ele>2453</ele>
        <time>2020-02-09T11:09:36.991Z</time>
      </trkpt>
      <trkpt lat="45.3218" lon="6.18214">
        <ele>2457</ele>
        <time>2020-02-09T11:09:53.001Z</time>
      </trkpt>
      <trkpt lat="45.32183" lon="6.18226">
        <ele>2458.328</ele>
        <time>2020-02-09T11:10:06.958Z</time>
      </trkpt>
      <trkpt lat="45.32187" lon="6.18238">
        <ele>2461.1000018028</ele>
        <time>2020-02-09T11:10:23.001Z</time>
      </trkpt>
      <trkpt lat="45.32188" lon="6.18251">
        <ele>2464</ele>
        <time>2020-02-09T11:10:45.991Z</time>
      </trkpt>
      <trkpt lat="45.32187" lon="6.18264">
        <ele>2468</ele>
        <time>2020-02-09T11:11:05.991Z</time>
      </trkpt>
      <trkpt lat="45.32183" lon="6.18275">
        <ele>2469</ele>
        <time>2020-02-09T11:11:24.987Z</time>
      </trkpt>
      <trkpt lat="45.32177" lon="6.18288">
        <ele>2472</ele>
        <time>2020-02-09T11:12:06.987Z</time>
      </trkpt>
      <trkpt lat="45.32168" lon="6.18291">
        <ele>2472</ele>
        <time>2020-02-09T11:12:23.001Z</time>
      </trkpt>
      <trkpt lat="45.32178" lon="6.18287">
        <ele>2472</ele>
        <time>2020-02-09T11:12:29.002Z</time>
      </trkpt>
      <trkpt lat="45.32191" lon="6.18288">
        <ele>2472</ele>
        <time>2020-02-09T11:12:44.987Z</time>
      </trkpt>
      <trkpt lat="45.32182" lon="6.18293">
        <ele>2474</ele>
        <time>2020-02-09T11:12:55.001Z</time>
      </trkpt>
      <trkpt lat="45.32192" lon="6.18293">
        <ele>2472</ele>
        <time>2020-02-09T11:13:11.001Z</time>
      </trkpt>
      <trkpt lat="45.32202" lon="6.18292">
        <ele>2472</ele>
        <time>2020-02-09T11:13:40.001Z</time>
      </trkpt>
      <trkpt lat="45.32192" lon="6.18287">
        <ele>2474</ele>
        <time>2020-02-09T11:14:26.003Z</time>
      </trkpt>
      <trkpt lat="45.32183" lon="6.18291">
        <ele>2475</ele>
        <time>2020-02-09T11:14:53.988Z</time>
      </trkpt>
      <trkpt lat="45.32172" lon="6.18294">
        <ele>2475</ele>
        <time>2020-02-09T11:15:00.001Z</time>
      </trkpt>
      <trkpt lat="45.32165" lon="6.18302">
        <ele>2475</ele>
        <time>2020-02-09T11:15:05.002Z</time>
      </trkpt>
      <trkpt lat="45.32174" lon="6.18294">
        <ele>2475</ele>
        <time>2020-02-09T11:15:14.001Z</time>
      </trkpt>
      <trkpt lat="45.32182" lon="6.18288">
        <ele>2476</ele>
        <time>2020-02-09T11:15:27.997Z</time>
      </trkpt>
      <trkpt lat="45.32193" lon="6.18287">
        <ele>2476</ele>
        <time>2020-02-09T11:15:56.001Z</time>
      </trkpt>
      <trkpt lat="45.32182" lon="6.18288">
        <ele>2476</ele>
        <time>2020-02-09T11:16:03.001Z</time>
      </trkpt>
      <trkpt lat="45.32191" lon="6.1829">
        <ele>2477</ele>
        <time>2020-02-09T11:16:24.001Z</time>
      </trkpt>
      <trkpt lat="45.32182" lon="6.18287">
        <ele>2480</ele>
        <time>2020-02-09T11:17:42.973Z</time>
      </trkpt>
      <trkpt lat="45.32176" lon="6.18297">
        <ele>2482</ele>
        <time>2020-02-09T11:17:54.988Z</time>
      </trkpt>
      <trkpt lat="45.32178" lon="6.1831">
        <ele>2484.7160064</ele>
        <time>2020-02-09T11:18:10.988Z</time>
      </trkpt>
      <trkpt lat="45.32171" lon="6.1832">
        <ele>2488</ele>
        <time>2020-02-09T11:18:28.001Z</time>
      </trkpt>
      <trkpt lat="45.32175" lon="6.18334">
        <ele>2490</ele>
        <time>2020-02-09T11:18:53.991Z</time>
      </trkpt>
      <trkpt lat="45.32179" lon="6.18346">
        <ele>2494</ele>
        <time>2020-02-09T11:19:10.987Z</time>
      </trkpt>
      <trkpt lat="45.32173" lon="6.18356">
        <ele>2499</ele>
        <time>2020-02-09T11:19:44.001Z</time>
      </trkpt>
      <trkpt lat="45.32164" lon="6.18353">
        <ele>2501</ele>
        <time>2020-02-09T11:19:53.001Z</time>
      </trkpt>
      <trkpt lat="45.32157" lon="6.18343">
        <ele>2505</ele>
        <time>2020-02-09T11:20:17.001Z</time>
      </trkpt>
      <trkpt lat="45.32148" lon="6.18335">
        <ele>2507</ele>
        <time>2020-02-09T11:20:36.002Z</time>
      </trkpt>
      <trkpt lat="45.32141" lon="6.18325">
        <ele>2512</ele>
        <time>2020-02-09T11:21:00.987Z</time>
      </trkpt>
      <trkpt lat="45.32132" lon="6.18319">
        <ele>2515</ele>
        <time>2020-02-09T11:21:23.988Z</time>
      </trkpt>
      <trkpt lat="45.32123" lon="6.18313">
        <ele>2517</ele>
        <time>2020-02-09T11:21:37.989Z</time>
      </trkpt>
      <trkpt lat="45.32117" lon="6.18303">
        <ele>2519</ele>
        <time>2020-02-09T11:21:53.987Z</time>
      </trkpt>
      <trkpt lat="45.32108" lon="6.18306">
        <ele>2519</ele>
        <time>2020-02-09T11:22:01.988Z</time>
      </trkpt>
      <trkpt lat="45.32115" lon="6.18297">
        <ele>2520</ele>
        <time>2020-02-09T11:22:17.001Z</time>
      </trkpt>
      <trkpt lat="45.32123" lon="6.1829">
        <ele>2522</ele>
        <time>2020-02-09T11:22:32.989Z</time>
      </trkpt>
      <trkpt lat="45.32124" lon="6.18304">
        <ele>2525</ele>
        <time>2020-02-09T11:22:56.001Z</time>
      </trkpt>
      <trkpt lat="45.32121" lon="6.18316">
        <ele>2528</ele>
        <time>2020-02-09T11:23:12.001Z</time>
      </trkpt>
      <trkpt lat="45.32117" lon="6.18328">
        <ele>2530.3709952</ele>
        <time>2020-02-09T11:23:31.001Z</time>
      </trkpt>
      <trkpt lat="45.32109" lon="6.18337">
        <ele>2532</ele>
        <time>2020-02-09T11:23:49.991Z</time>
      </trkpt>
      <trkpt lat="45.32107" lon="6.1835">
        <ele>2533</ele>
        <time>2020-02-09T11:24:04.990Z</time>
      </trkpt>
      <trkpt lat="45.32109" lon="6.18363">
        <ele>2538</ele>
        <time>2020-02-09T11:24:23.988Z</time>
      </trkpt>
      <trkpt lat="45.32109" lon="6.18376">
        <ele>2539.2712048485</ele>
        <time>2020-02-09T11:24:43.988Z</time>
      </trkpt>
      <trkpt lat="45.32114" lon="6.18387">
        <ele>2542</ele>
        <time>2020-02-09T11:25:02.990Z</time>
      </trkpt>
      <trkpt lat="45.32107" lon="6.18395">
        <ele>2549</ele>
        <time>2020-02-09T11:25:59.001Z</time>
      </trkpt>
      <trkpt lat="45.32097" lon="6.18394">
        <ele>2551</ele>
        <time>2020-02-09T11:26:13.001Z</time>
      </trkpt>
      <trkpt lat="45.32088" lon="6.18389">
        <ele>2554</ele>
        <time>2020-02-09T11:26:28.001Z</time>
      </trkpt>
      <trkpt lat="45.3208" lon="6.18384">
        <ele>2555</ele>
        <time>2020-02-09T11:26:37.001Z</time>
      </trkpt>
      <trkpt lat="45.32075" lon="6.18373">
        <ele>2557</ele>
        <time>2020-02-09T11:26:58.001Z</time>
      </trkpt>
      <trkpt lat="45.32076" lon="6.1836">
        <ele>2561</ele>
        <time>2020-02-09T11:27:15.003Z</time>
      </trkpt>
      <trkpt lat="45.32067" lon="6.18353">
        <ele>2562.3709952</ele>
        <time>2020-02-09T11:28:04.001Z</time>
      </trkpt>
      <trkpt lat="45.32075" lon="6.18347">
        <ele>2563</ele>
        <time>2020-02-09T11:28:13.990Z</time>
      </trkpt>
      <trkpt lat="45.32085" lon="6.18354">
        <ele>2562</ele>
        <time>2020-02-09T11:28:29.001Z</time>
      </trkpt>
      <trkpt lat="45.32075" lon="6.18351">
        <ele>2563</ele>
        <time>2020-02-09T11:28:36.001Z</time>
      </trkpt>
      <trkpt lat="45.32074" lon="6.18365">
        <ele>2567</ele>
        <time>2020-02-09T11:29:07.990Z</time>
      </trkpt>
      <trkpt lat="45.32077" lon="6.18378">
        <ele>2571</ele>
        <time>2020-02-09T11:29:37.999Z</time>
      </trkpt>
      <trkpt lat="45.32076" lon="6.18391">
        <ele>2572</ele>
        <time>2020-02-09T11:29:49.990Z</time>
      </trkpt>
      <trkpt lat="45.32077" lon="6.18403">
        <ele>2575</ele>
        <time>2020-02-09T11:30:03.000Z</time>
      </trkpt>
      <trkpt lat="45.32084" lon="6.18413">
        <ele>2576</ele>
        <time>2020-02-09T11:30:18.990Z</time>
      </trkpt>
      <trkpt lat="45.32086" lon="6.18426">
        <ele>2580</ele>
        <time>2020-02-09T11:30:41.020Z</time>
      </trkpt>
      <trkpt lat="45.32092" lon="6.18436">
        <ele>2583</ele>
        <time>2020-02-09T11:30:58.990Z</time>
      </trkpt>
      <trkpt lat="45.32095" lon="6.18448">
        <ele>2586</ele>
        <time>2020-02-09T11:31:16.990Z</time>
      </trkpt>
      <trkpt lat="45.32099" lon="6.18461">
        <ele>2588</ele>
        <time>2020-02-09T11:31:39.990Z</time>
      </trkpt>
      <trkpt lat="45.32091" lon="6.18467">
        <ele>2592</ele>
        <time>2020-02-09T11:32:28.990Z</time>
      </trkpt>
      <trkpt lat="45.32094" lon="6.18479">
        <ele>2596</ele>
        <time>2020-02-09T11:32:52.990Z</time>
      </trkpt>
      <trkpt lat="45.32102" lon="6.18488">
        <ele>2598</ele>
        <time>2020-02-09T11:33:10.001Z</time>
      </trkpt>
      <trkpt lat="45.3211" lon="6.18495">
        <ele>2600</ele>
        <time>2020-02-09T11:33:40.990Z</time>
      </trkpt>
      <trkpt lat="45.32117" lon="6.18504">
        <ele>2603</ele>
        <time>2020-02-09T11:33:58.988Z</time>
      </trkpt>
      <trkpt lat="45.32126" lon="6.18504">
        <ele>2607</ele>
        <time>2020-02-09T11:34:56.990Z</time>
      </trkpt>
      <trkpt lat="45.32116" lon="6.18507">
        <ele>2607</ele>
        <time>2020-02-09T11:36:02.988Z</time>
      </trkpt>
      <trkpt lat="45.32125" lon="6.18504">
        <ele>2608</ele>
        <time>2020-02-09T11:36:40.990Z</time>
      </trkpt>
      <trkpt lat="45.32138" lon="6.18512">
        <ele>2610</ele>
        <time>2020-02-09T11:39:38.001Z</time>
      </trkpt>
      <trkpt lat="45.32128" lon="6.18514">
        <ele>2613</ele>
        <time>2020-02-09T11:40:01.001Z</time>
      </trkpt>
      <trkpt lat="45.32118" lon="6.18518">
        <ele>2614</ele>
        <time>2020-02-09T11:40:11.001Z</time>
      </trkpt>
      <trkpt lat="45.32121" lon="6.1853">
        <ele>2621</ele>
        <time>2020-02-09T11:40:53.990Z</time>
      </trkpt>
      <trkpt lat="45.32113" lon="6.18535">
        <ele>2624</ele>
        <time>2020-02-09T11:41:12.988Z</time>
      </trkpt>
      <trkpt lat="45.32104" lon="6.1854">
        <ele>2624</ele>
        <time>2020-02-09T11:41:24.999Z</time>
      </trkpt>
      <trkpt lat="45.32096" lon="6.18546">
        <ele>2628</ele>
        <time>2020-02-09T11:41:49.001Z</time>
      </trkpt>
      <trkpt lat="45.32087" lon="6.18545">
        <ele>2633</ele>
        <time>2020-02-09T11:42:12.988Z</time>
      </trkpt>
      <trkpt lat="45.32079" lon="6.18551">
        <ele>2634</ele>
        <time>2020-02-09T11:42:26.990Z</time>
      </trkpt>
      <trkpt lat="45.32089" lon="6.18551">
        <ele>2637</ele>
        <time>2020-02-09T11:42:52.987Z</time>
      </trkpt>
      <trkpt lat="45.32083" lon="6.18562">
        <ele>2641</ele>
        <time>2020-02-09T11:43:23.001Z</time>
      </trkpt>
      <trkpt lat="45.3208" lon="6.18574">
        <ele>2647.0704357389</ele>
        <time>2020-02-09T11:44:15.990Z</time>
      </trkpt>
      <trkpt lat="45.32071" lon="6.18575">
        <ele>2648.3709952</ele>
        <time>2020-02-09T11:44:24.001Z</time>
      </trkpt>
      <trkpt lat="45.32081" lon="6.18578">
        <ele>2651</ele>
        <time>2020-02-09T11:45:07.989Z</time>
      </trkpt>
      <trkpt lat="45.32073" lon="6.18586">
        <ele>2658</ele>
        <time>2020-02-09T11:46:09.989Z</time>
      </trkpt>
      <trkpt lat="45.32069" lon="6.18574">
        <ele>2663</ele>
        <time>2020-02-09T11:47:24.001Z</time>
      </trkpt>
      <trkpt lat="45.32067" lon="6.18587">
        <ele>2663</ele>
        <time>2020-02-09T11:47:32.001Z</time>
      </trkpt>
      <trkpt lat="45.3206" lon="6.18594">
        <ele>2666</ele>
        <time>2020-02-09T11:48:30.989Z</time>
      </trkpt>
      <trkpt lat="45.3207" lon="6.18593">
        <ele>2673</ele>
        <time>2020-02-09T11:50:55.001Z</time>
      </trkpt>
      <trkpt lat="45.32061" lon="6.18594">
        <ele>2675</ele>
        <time>2020-02-09T11:51:16.030Z</time>
      </trkpt>
      <trkpt lat="45.32052" lon="6.18598">
        <ele>2677</ele>
        <time>2020-02-09T11:51:28.101Z</time>
      </trkpt>
      <trkpt lat="45.32042" lon="6.186">
        <ele>2682</ele>
        <time>2020-02-09T11:52:08.001Z</time>
      </trkpt>
      <trkpt lat="45.32032" lon="6.18603">
        <ele>2685</ele>
        <time>2020-02-09T11:52:34.990Z</time>
      </trkpt>
      <trkpt lat="45.32024" lon="6.18607">
        <ele>2687.6290048</ele>
        <time>2020-02-09T11:53:10.001Z</time>
      </trkpt>
      <trkpt lat="45.32014" lon="6.18604">
        <ele>2689</ele>
        <time>2020-02-09T11:53:24.001Z</time>
      </trkpt>
      <trkpt lat="45.32006" lon="6.18598">
        <ele>2690</ele>
        <time>2020-02-09T11:53:35.001Z</time>
      </trkpt>
      <trkpt lat="45.31998" lon="6.18591">
        <ele>2692</ele>
        <time>2020-02-09T11:53:53.990Z</time>
      </trkpt>
      <trkpt lat="45.31989" lon="6.18592">
        <ele>2693</ele>
        <time>2020-02-09T11:54:34.990Z</time>
      </trkpt>
      <trkpt lat="45.31997" lon="6.186">
        <ele>2697</ele>
        <time>2020-02-09T11:55:05.001Z</time>
      </trkpt>
      <trkpt lat="45.32001" lon="6.18612">
        <ele>2699</ele>
        <time>2020-02-09T11:55:18.001Z</time>
      </trkpt>
      <trkpt lat="45.32007" lon="6.18621">
        <ele>2701</ele>
        <time>2020-02-09T11:55:44.989Z</time>
      </trkpt>
      <trkpt lat="45.31998" lon="6.18625">
        <ele>2705</ele>
        <time>2020-02-09T11:56:05.990Z</time>
      </trkpt>
      <trkpt lat="45.32003" lon="6.18635">
        <ele>2712</ele>
        <time>2020-02-09T11:57:07.990Z</time>
      </trkpt>
      <trkpt lat="45.31997" lon="6.18645">
        <ele>2719</ele>
        <time>2020-02-09T11:58:12.991Z</time>
      </trkpt>
      <trkpt lat="45.31988" lon="6.1865">
        <ele>2721</ele>
        <time>2020-02-09T11:59:05.990Z</time>
      </trkpt>
      <trkpt lat="45.31996" lon="6.18642">
        <ele>2721</ele>
        <time>2020-02-09T12:00:35.990Z</time>
      </trkpt>
      <trkpt lat="45.31987" lon="6.18648">
        <ele>2728.3419904</ele>
        <time>2020-02-09T12:01:24.971Z</time>
      </trkpt>
      <trkpt lat="45.3198" lon="6.18654">
        <ele>2733</ele>
        <time>2020-02-09T12:02:02.960Z</time>
      </trkpt>
      <trkpt lat="45.31982" lon="6.18667">
        <ele>2737</ele>
        <time>2020-02-09T12:03:35.989Z</time>
      </trkpt>
      <trkpt lat="45.31984" lon="6.18654">
        <ele>2742</ele>
        <time>2020-02-09T12:23:01.988Z</time>
      </trkpt>
      <trkpt lat="45.31982" lon="6.18641">
        <ele>2738</ele>
        <time>2020-02-09T12:28:32.990Z</time>
      </trkpt>
      <trkpt lat="45.31989" lon="6.1865">
        <ele>2738</ele>
        <time>2020-02-09T12:29:32.990Z</time>
      </trkpt>
      <trkpt lat="45.31998" lon="6.18653">
        <ele>2740</ele>
        <time>2020-02-09T12:31:22.000Z</time>
      </trkpt>
      <trkpt lat="45.31989" lon="6.18646">
        <ele>2740</ele>
        <time>2020-02-09T12:31:34.990Z</time>
      </trkpt>
      <trkpt lat="45.31998" lon="6.1864">
        <ele>2735.2839936</ele>
        <time>2020-02-09T12:31:42.988Z</time>
      </trkpt>
      <trkpt lat="45.32008" lon="6.18632">
        <ele>2729.809902797</ele>
        <time>2020-02-09T12:31:45.988Z</time>
      </trkpt>
      <trkpt lat="45.32015" lon="6.18623">
        <ele>2722.2200192</ele>
        <time>2020-02-09T12:31:48.020Z</time>
      </trkpt>
      <trkpt lat="45.3202" lon="6.18606">
        <ele>2715.56</ele>
        <time>2020-02-09T12:31:50.990Z</time>
      </trkpt>
      <trkpt lat="45.32027" lon="6.18599">
        <ele>2709</ele>
        <time>2020-02-09T12:32:02.987Z</time>
      </trkpt>
      <trkpt lat="45.32037" lon="6.18602">
        <ele>2708.6500056471</ele>
        <time>2020-02-09T12:32:08.987Z</time>
      </trkpt>
      <trkpt lat="45.32048" lon="6.186">
        <ele>2706.7274850258</ele>
        <time>2020-02-09T12:32:10.987Z</time>
      </trkpt>
      <trkpt lat="45.32058" lon="6.18599">
        <ele>2703.929024</ele>
        <time>2020-02-09T12:32:12.987Z</time>
      </trkpt>
      <trkpt lat="45.3207" lon="6.18598">
        <ele>2699.6419968</ele>
        <time>2020-02-09T12:32:14.988Z</time>
      </trkpt>
      <trkpt lat="45.32081" lon="6.18597">
        <ele>2697.6408186722</ele>
        <time>2020-02-09T12:32:17.002Z</time>
      </trkpt>
      <trkpt lat="45.32092" lon="6.18598">
        <ele>2694.175574533</ele>
        <time>2020-02-09T12:32:19.990Z</time>
      </trkpt>
      <trkpt lat="45.32104" lon="6.18598">
        <ele>2686.4549700517</ele>
        <time>2020-02-09T12:32:22.987Z</time>
      </trkpt>
      <trkpt lat="45.32097" lon="6.18582">
        <ele>2676.2580096</ele>
        <time>2020-02-09T12:32:28.001Z</time>
      </trkpt>
      <trkpt lat="45.3209" lon="6.18564">
        <ele>2673.3333416994</ele>
        <time>2020-02-09T12:32:29.970Z</time>
      </trkpt>
      <trkpt lat="45.32091" lon="6.1855">
        <ele>2668.5680384</ele>
        <time>2020-02-09T12:32:31.988Z</time>
      </trkpt>
      <trkpt lat="45.32097" lon="6.18536">
        <ele>2661.4305423918</ele>
        <time>2020-02-09T12:32:35.003Z</time>
      </trkpt>
      <trkpt lat="45.32105" lon="6.18523">
        <ele>2652.2840192</ele>
        <time>2020-02-09T12:32:37.988Z</time>
      </trkpt>
      <trkpt lat="45.32113" lon="6.18517">
        <ele>2648.2839936</ele>
        <time>2020-02-09T12:32:40.988Z</time>
      </trkpt>
      <trkpt lat="45.32122" lon="6.18506">
        <ele>2641.2969848986</ele>
        <time>2020-02-09T12:32:43.988Z</time>
      </trkpt>
      <trkpt lat="45.32117" lon="6.18496">
        <ele>2637</ele>
        <time>2020-02-09T12:33:34.990Z</time>
      </trkpt>
      <trkpt lat="45.32108" lon="6.18499">
        <ele>2638</ele>
        <time>2020-02-09T12:35:41.990Z</time>
      </trkpt>
      <trkpt lat="45.32099" lon="6.18489">
        <ele>2635.266678734</ele>
        <time>2020-02-09T12:35:49.003Z</time>
      </trkpt>
      <trkpt lat="45.32095" lon="6.18474">
        <ele>2628.725191511</ele>
        <time>2020-02-09T12:35:51.990Z</time>
      </trkpt>
      <trkpt lat="45.32103" lon="6.18459">
        <ele>2625.6363648117</ele>
        <time>2020-02-09T12:35:54.000Z</time>
      </trkpt>
      <trkpt lat="45.32103" lon="6.18441">
        <ele>2623.4961893223</ele>
        <time>2020-02-09T12:35:55.960Z</time>
      </trkpt>
      <trkpt lat="45.32095" lon="6.18426">
        <ele>2619.64</ele>
        <time>2020-02-09T12:35:57.990Z</time>
      </trkpt>
      <trkpt lat="45.32088" lon="6.18413">
        <ele>2616.28</ele>
        <time>2020-02-09T12:35:59.990Z</time>
      </trkpt>
      <trkpt lat="45.32085" lon="6.18398">
        <ele>2613.2760064</ele>
        <time>2020-02-09T12:36:01.992Z</time>
      </trkpt>
      <trkpt lat="45.32094" lon="6.18393">
        <ele>2607.5878019229</ele>
        <time>2020-02-09T12:36:04.000Z</time>
      </trkpt>
      <trkpt lat="45.32106" lon="6.18382">
        <ele>2598.56</ele>
        <time>2020-02-09T12:36:05.990Z</time>
      </trkpt>
      <trkpt lat="45.32121" lon="6.18371">
        <ele>2589.190016</ele>
        <time>2020-02-09T12:36:07.992Z</time>
      </trkpt>
      <trkpt lat="45.32139" lon="6.18363">
        <ele>2582.6297682326</ele>
        <time>2020-02-09T12:36:09.989Z</time>
      </trkpt>
      <trkpt lat="45.32149" lon="6.1836">
        <ele>2578.7000153602</ele>
        <time>2020-02-09T12:36:10.990Z</time>
      </trkpt>
      <trkpt lat="45.32158" lon="6.18354">
        <ele>2572.6478213056</ele>
        <time>2020-02-09T12:36:11.990Z</time>
      </trkpt>
      <trkpt lat="45.32176" lon="6.18352">
        <ele>2562.809024</ele>
        <time>2020-02-09T12:36:14.027Z</time>
      </trkpt>
      <trkpt lat="45.32191" lon="6.18352">
        <ele>2553.8946689596</ele>
        <time>2020-02-09T12:36:15.992Z</time>
      </trkpt>
      <trkpt lat="45.32209" lon="6.18353">
        <ele>2545.2</ele>
        <time>2020-02-09T12:36:17.990Z</time>
      </trkpt>
      <trkpt lat="45.32225" lon="6.18351">
        <ele>2537.28</ele>
        <time>2020-02-09T12:36:19.990Z</time>
      </trkpt>
      <trkpt lat="45.32237" lon="6.18353">
        <ele>2534.471314322</ele>
        <time>2020-02-09T12:36:21.991Z</time>
      </trkpt>
      <trkpt lat="45.32228" lon="6.1835">
        <ele>2532</ele>
        <time>2020-02-09T12:36:25.989Z</time>
      </trkpt>
      <trkpt lat="45.32219" lon="6.18346">
        <ele>2532</ele>
        <time>2020-02-09T12:36:30.992Z</time>
      </trkpt>
      <trkpt lat="45.32211" lon="6.1834">
        <ele>2532</ele>
        <time>2020-02-09T12:36:40.001Z</time>
      </trkpt>
      <trkpt lat="45.32201" lon="6.18342">
        <ele>2532</ele>
        <time>2020-02-09T12:37:14.002Z</time>
      </trkpt>
      <trkpt lat="45.32212" lon="6.18336">
        <ele>2526.1755664774</ele>
        <time>2020-02-09T12:37:24.990Z</time>
      </trkpt>
      <trkpt lat="45.32224" lon="6.1833">
        <ele>2519.1755664774</ele>
        <time>2020-02-09T12:37:26.990Z</time>
      </trkpt>
      <trkpt lat="45.32236" lon="6.18323">
        <ele>2511.2142810496</ele>
        <time>2020-02-09T12:37:29.000Z</time>
      </trkpt>
      <trkpt lat="45.32249" lon="6.18313">
        <ele>2505.0100096</ele>
        <time>2020-02-09T12:37:30.960Z</time>
      </trkpt>
      <trkpt lat="45.32265" lon="6.18311">
        <ele>2497.6259441291</ele>
        <time>2020-02-09T12:37:32.990Z</time>
      </trkpt>
      <trkpt lat="45.32276" lon="6.18311">
        <ele>2493.4608492404</ele>
        <time>2020-02-09T12:37:34.002Z</time>
      </trkpt>
      <trkpt lat="45.32288" lon="6.18311">
        <ele>2486.2</ele>
        <time>2020-02-09T12:37:34.990Z</time>
      </trkpt>
      <trkpt lat="45.32299" lon="6.18309">
        <ele>2481.2</ele>
        <time>2020-02-09T12:37:35.990Z</time>
      </trkpt>
      <trkpt lat="45.32311" lon="6.18306">
        <ele>2476.3511329549</ele>
        <time>2020-02-09T12:37:36.990Z</time>
      </trkpt>
      <trkpt lat="45.32318" lon="6.18295">
        <ele>2471.7275307474</ele>
        <time>2020-02-09T12:37:37.987Z</time>
      </trkpt>
      <trkpt lat="45.32334" lon="6.18284">
        <ele>2464.92</ele>
        <time>2020-02-09T12:37:39.990Z</time>
      </trkpt>
      <trkpt lat="45.3234" lon="6.18262">
        <ele>2460.725191511</ele>
        <time>2020-02-09T12:37:41.990Z</time>
      </trkpt>
      <trkpt lat="45.32342" lon="6.18247">
        <ele>2458.627008</ele>
        <time>2020-02-09T12:37:44.003Z</time>
      </trkpt>
      <trkpt lat="45.3235" lon="6.18241">
        <ele>2456.1778609396</ele>
        <time>2020-02-09T12:37:45.989Z</time>
      </trkpt>
      <trkpt lat="45.32359" lon="6.1823">
        <ele>2451.308151457</ele>
        <time>2020-02-09T12:37:47.989Z</time>
      </trkpt>
      <trkpt lat="45.32367" lon="6.18219">
        <ele>2447.6710016</ele>
        <time>2020-02-09T12:37:49.959Z</time>
      </trkpt>
      <trkpt lat="45.32377" lon="6.18211">
        <ele>2445.7259536465</ele>
        <time>2020-02-09T12:37:51.989Z</time>
      </trkpt>
      <trkpt lat="45.32384" lon="6.18201">
        <ele>2443.6310016</ele>
        <time>2020-02-09T12:37:53.999Z</time>
      </trkpt>
      <trkpt lat="45.32393" lon="6.18193">
        <ele>2440.6490142683</ele>
        <time>2020-02-09T12:37:56.988Z</time>
      </trkpt>
      <trkpt lat="45.32382" lon="6.18187">
        <ele>2439</ele>
        <time>2020-02-09T12:38:12.001Z</time>
      </trkpt>
      <trkpt lat="45.32373" lon="6.18189">
        <ele>2439</ele>
        <time>2020-02-09T12:38:49.988Z</time>
      </trkpt>
      <trkpt lat="45.32383" lon="6.18189">
        <ele>2438</ele>
        <time>2020-02-09T12:38:58.992Z</time>
      </trkpt>
      <trkpt lat="45.3239" lon="6.182">
        <ele>2438</ele>
        <time>2020-02-09T12:39:19.987Z</time>
      </trkpt>
      <trkpt lat="45.32399" lon="6.18201">
        <ele>2437</ele>
        <time>2020-02-09T12:39:24.017Z</time>
      </trkpt>
      <trkpt lat="45.32408" lon="6.18199">
        <ele>2436</ele>
        <time>2020-02-09T12:39:27.997Z</time>
      </trkpt>
      <trkpt lat="45.32418" lon="6.18197">
        <ele>2435</ele>
        <time>2020-02-09T12:39:33.001Z</time>
      </trkpt>
      <trkpt lat="45.32429" lon="6.18195">
        <ele>2434</ele>
        <time>2020-02-09T12:39:36.987Z</time>
      </trkpt>
      <trkpt lat="45.32441" lon="6.18193">
        <ele>2433</ele>
        <time>2020-02-09T12:39:39.989Z</time>
      </trkpt>
      <trkpt lat="45.32449" lon="6.1819">
        <ele>2433</ele>
        <time>2020-02-09T12:39:43.958Z</time>
      </trkpt>
      <trkpt lat="45.32458" lon="6.18188">
        <ele>2433</ele>
        <time>2020-02-09T12:40:14.992Z</time>
      </trkpt>
      <trkpt lat="45.32468" lon="6.18188">
        <ele>2438</ele>
        <time>2020-02-09T12:49:51.017Z</time>
      </trkpt>
      <trkpt lat="45.32477" lon="6.18185">
        <ele>2439</ele>
        <time>2020-02-09T12:50:02.992Z</time>
      </trkpt>
      <trkpt lat="45.32484" lon="6.18191">
        <ele>2441.3609984</ele>
        <time>2020-02-09T12:50:16.991Z</time>
      </trkpt>
      <trkpt lat="45.32492" lon="6.182">
        <ele>2445</ele>
        <time>2020-02-09T12:50:45.987Z</time>
      </trkpt>
      <trkpt lat="45.32499" lon="6.18208">
        <ele>2446.3609984</ele>
        <time>2020-02-09T12:50:56.991Z</time>
      </trkpt>
      <trkpt lat="45.32502" lon="6.1822">
        <ele>2449</ele>
        <time>2020-02-09T12:51:12.990Z</time>
      </trkpt>
      <trkpt lat="45.32497" lon="6.18232">
        <ele>2451</ele>
        <time>2020-02-09T12:51:27.991Z</time>
      </trkpt>
      <trkpt lat="45.32494" lon="6.18244">
        <ele>2453</ele>
        <time>2020-02-09T12:51:41.990Z</time>
      </trkpt>
      <trkpt lat="45.32488" lon="6.18254">
        <ele>2458</ele>
        <time>2020-02-09T12:52:04.960Z</time>
      </trkpt>
      <trkpt lat="45.32482" lon="6.18264">
        <ele>2459</ele>
        <time>2020-02-09T12:52:18.997Z</time>
      </trkpt>
      <trkpt lat="45.32483" lon="6.18277">
        <ele>2462</ele>
        <time>2020-02-09T12:52:56.991Z</time>
      </trkpt>
      <trkpt lat="45.3249" lon="6.18286">
        <ele>2464</ele>
        <time>2020-02-09T12:53:37.991Z</time>
      </trkpt>
      <trkpt lat="45.32498" lon="6.18293">
        <ele>2465</ele>
        <time>2020-02-09T12:53:48.997Z</time>
      </trkpt>
      <trkpt lat="45.32508" lon="6.18298">
        <ele>2468</ele>
        <time>2020-02-09T12:54:04.991Z</time>
      </trkpt>
      <trkpt lat="45.32517" lon="6.183">
        <ele>2470</ele>
        <time>2020-02-09T12:54:17.956Z</time>
      </trkpt>
      <trkpt lat="45.32526" lon="6.18305">
        <ele>2472</ele>
        <time>2020-02-09T12:54:32.991Z</time>
      </trkpt>
      <trkpt lat="45.32535" lon="6.18305">
        <ele>2477.3619968</ele>
        <time>2020-02-09T12:54:50.992Z</time>
      </trkpt>
      <trkpt lat="45.32544" lon="6.18308">
        <ele>2480</ele>
        <time>2020-02-09T12:55:05.991Z</time>
      </trkpt>
      <trkpt lat="45.32553" lon="6.18314">
        <ele>2483</ele>
        <time>2020-02-09T12:55:24.991Z</time>
      </trkpt>
      <trkpt lat="45.32561" lon="6.1832">
        <ele>2486</ele>
        <time>2020-02-09T12:55:40.991Z</time>
      </trkpt>
      <trkpt lat="45.32554" lon="6.18329">
        <ele>2489</ele>
        <time>2020-02-09T12:56:14.991Z</time>
      </trkpt>
      <trkpt lat="45.32545" lon="6.18334">
        <ele>2493</ele>
        <time>2020-02-09T12:56:30.972Z</time>
      </trkpt>
      <trkpt lat="45.32552" lon="6.18344">
        <ele>2496</ele>
        <time>2020-02-09T12:57:16.991Z</time>
      </trkpt>
      <trkpt lat="45.32561" lon="6.1835">
        <ele>2499</ele>
        <time>2020-02-09T12:57:28.991Z</time>
      </trkpt>
      <trkpt lat="45.32566" lon="6.18361">
        <ele>2503</ele>
        <time>2020-02-09T12:58:01.001Z</time>
      </trkpt>
      <trkpt lat="45.32573" lon="6.1837">
        <ele>2506</ele>
        <time>2020-02-09T12:58:18.001Z</time>
      </trkpt>
      <trkpt lat="45.32579" lon="6.1838">
        <ele>2510</ele>
        <time>2020-02-09T12:58:34.997Z</time>
      </trkpt>
      <trkpt lat="45.32585" lon="6.1839">
        <ele>2512</ele>
        <time>2020-02-09T12:58:51.991Z</time>
      </trkpt>
      <trkpt lat="45.32595" lon="6.18395">
        <ele>2515</ele>
        <time>2020-02-09T12:59:10.991Z</time>
      </trkpt>
      <trkpt lat="45.32604" lon="6.184">
        <ele>2517</ele>
        <time>2020-02-09T12:59:25.991Z</time>
      </trkpt>
      <trkpt lat="45.32613" lon="6.18402">
        <ele>2519</ele>
        <time>2020-02-09T12:59:35.991Z</time>
      </trkpt>
      <trkpt lat="45.32622" lon="6.18407">
        <ele>2523</ele>
        <time>2020-02-09T12:59:51.991Z</time>
      </trkpt>
      <trkpt lat="45.32614" lon="6.18415">
        <ele>2524</ele>
        <time>2020-02-09T13:00:12.987Z</time>
      </trkpt>
      <trkpt lat="45.32621" lon="6.18424">
        <ele>2527.36</ele>
        <time>2020-02-09T13:00:41.990Z</time>
      </trkpt>
      <trkpt lat="45.32626" lon="6.18436">
        <ele>2533</ele>
        <time>2020-02-09T13:01:06.990Z</time>
      </trkpt>
      <trkpt lat="45.32631" lon="6.18446">
        <ele>2536.3609984</ele>
        <time>2020-02-09T13:01:20.991Z</time>
      </trkpt>
      <trkpt lat="45.32637" lon="6.18456">
        <ele>2541</ele>
        <time>2020-02-09T13:01:43.992Z</time>
      </trkpt>
      <trkpt lat="45.32628" lon="6.1846">
        <ele>2542</ele>
        <time>2020-02-09T13:02:09.997Z</time>
      </trkpt>
      <trkpt lat="45.32619" lon="6.18463">
        <ele>2547</ele>
        <time>2020-02-09T13:03:10.987Z</time>
      </trkpt>
      <trkpt lat="45.32628" lon="6.18463">
        <ele>2548</ele>
        <time>2020-02-09T13:04:30.000Z</time>
      </trkpt>
      <trkpt lat="45.32637" lon="6.18468">
        <ele>2550.36</ele>
        <time>2020-02-09T13:06:02.990Z</time>
      </trkpt>
      <trkpt lat="45.32645" lon="6.18472">
        <ele>2553</ele>
        <time>2020-02-09T13:06:17.991Z</time>
      </trkpt>
      <trkpt lat="45.32653" lon="6.18481">
        <ele>2557</ele>
        <time>2020-02-09T13:06:42.990Z</time>
      </trkpt>
      <trkpt lat="45.32651" lon="6.18493">
        <ele>2562.2725123114</ele>
        <time>2020-02-09T13:07:11.987Z</time>
      </trkpt>
      <trkpt lat="45.32644" lon="6.18504">
        <ele>2565</ele>
        <time>2020-02-09T13:07:27.991Z</time>
      </trkpt>
      <trkpt lat="45.32654" lon="6.18509">
        <ele>2567.3900032</ele>
        <time>2020-02-09T13:08:51.020Z</time>
      </trkpt>
      <trkpt lat="45.32663" lon="6.18512">
        <ele>2569</ele>
        <time>2020-02-09T13:08:58.990Z</time>
      </trkpt>
      <trkpt lat="45.3267" lon="6.18521">
        <ele>2569</ele>
        <time>2020-02-09T13:09:10.029Z</time>
      </trkpt>
      <trkpt lat="45.32679" lon="6.18527">
        <ele>2572.2748111742</ele>
        <time>2020-02-09T13:09:20.990Z</time>
      </trkpt>
      <trkpt lat="45.32687" lon="6.18532">
        <ele>2575</ele>
        <time>2020-02-09T13:09:31.989Z</time>
      </trkpt>
      <trkpt lat="45.32695" lon="6.18539">
        <ele>2577.36</ele>
        <time>2020-02-09T13:09:43.990Z</time>
      </trkpt>
      <trkpt lat="45.32703" lon="6.18545">
        <ele>2580</ele>
        <time>2020-02-09T13:09:57.990Z</time>
      </trkpt>
      <trkpt lat="45.3271" lon="6.18555">
        <ele>2581.7419904</ele>
        <time>2020-02-09T13:10:11.001Z</time>
      </trkpt>
      <trkpt lat="45.32717" lon="6.18565">
        <ele>2585</ele>
        <time>2020-02-09T13:10:21.990Z</time>
      </trkpt>
      <trkpt lat="45.32723" lon="6.18574">
        <ele>2587</ele>
        <time>2020-02-09T13:10:31.990Z</time>
      </trkpt>
      <trkpt lat="45.32729" lon="6.18584">
        <ele>2590</ele>
        <time>2020-02-09T13:10:42.987Z</time>
      </trkpt>
      <trkpt lat="45.32736" lon="6.18594">
        <ele>2593</ele>
        <time>2020-02-09T13:10:54.989Z</time>
      </trkpt>
      <trkpt lat="45.32744" lon="6.18591">
        <ele>2599</ele>
        <time>2020-02-09T13:11:23.020Z</time>
      </trkpt>
      <trkpt lat="45.32752" lon="6.18598">
        <ele>2601</ele>
        <time>2020-02-09T13:12:15.990Z</time>
      </trkpt>
      <trkpt lat="45.32761" lon="6.18599">
        <ele>2603</ele>
        <time>2020-02-09T13:12:49.000Z</time>
      </trkpt>
      <trkpt lat="45.32755" lon="6.18589">
        <ele>2605</ele>
        <time>2020-02-09T13:13:17.958Z</time>
      </trkpt>
      <trkpt lat="45.32751" lon="6.18577">
        <ele>2609</ele>
        <time>2020-02-09T13:13:29.988Z</time>
      </trkpt>
      <trkpt lat="45.32747" lon="6.18565">
        <ele>2611</ele>
        <time>2020-02-09T13:13:44.003Z</time>
      </trkpt>
      <trkpt lat="45.32755" lon="6.18558">
        <ele>2616</ele>
        <time>2020-02-09T13:14:22.989Z</time>
      </trkpt>
      <trkpt lat="45.32754" lon="6.18545">
        <ele>2619.2618326429</ele>
        <time>2020-02-09T13:14:33.973Z</time>
      </trkpt>
      <trkpt lat="45.32754" lon="6.18532">
        <ele>2624</ele>
        <time>2020-02-09T13:16:11.988Z</time>
      </trkpt>
      <trkpt lat="45.32756" lon="6.18519">
        <ele>2628</ele>
        <time>2020-02-09T13:17:08.991Z</time>
      </trkpt>
      <trkpt lat="45.32746" lon="6.18506">
        <ele>2629</ele>
        <time>2020-02-09T13:19:18.959Z</time>
      </trkpt>
      <trkpt lat="45.32758" lon="6.18528">
        <ele>2631</ele>
        <time>2020-02-09T13:19:20.997Z</time>
      </trkpt>
      <trkpt lat="45.32765" lon="6.18518">
        <ele>2631</ele>
        <time>2020-02-09T13:19:30.988Z</time>
      </trkpt>
      <trkpt lat="45.32757" lon="6.1851">
        <ele>2631</ele>
        <time>2020-02-09T13:19:54.989Z</time>
      </trkpt>
      <trkpt lat="45.32754" lon="6.18523">
        <ele>2631</ele>
        <time>2020-02-09T13:20:47.001Z</time>
      </trkpt>
      <trkpt lat="45.32755" lon="6.18536">
        <ele>2628.627008</ele>
        <time>2020-02-09T13:25:14.003Z</time>
      </trkpt>
      <trkpt lat="45.32751" lon="6.18548">
        <ele>2626</ele>
        <time>2020-02-09T13:28:48.029Z</time>
      </trkpt>
      <trkpt lat="45.32744" lon="6.18562">
        <ele>2618.1458219339</ele>
        <time>2020-02-09T13:28:58.003Z</time>
      </trkpt>
      <trkpt lat="45.32737" lon="6.18577">
        <ele>2610.28</ele>
        <time>2020-02-09T13:29:00.990Z</time>
      </trkpt>
      <trkpt lat="45.32728" lon="6.18585">
        <ele>2602.534661496</ele>
        <time>2020-02-09T13:29:03.000Z</time>
      </trkpt>
      <trkpt lat="45.32714" lon="6.18568">
        <ele>2597.900996122</ele>
        <time>2020-02-09T13:29:04.990Z</time>
      </trkpt>
      <trkpt lat="45.32704" lon="6.18553">
        <ele>2593.8360192</ele>
        <time>2020-02-09T13:29:07.018Z</time>
      </trkpt>
      <trkpt lat="45.32692" lon="6.18543">
        <ele>2590</ele>
        <time>2020-02-09T13:29:08.990Z</time>
      </trkpt>
      <trkpt lat="45.3268" lon="6.18536">
        <ele>2588.2839936</ele>
        <time>2020-02-09T13:29:10.988Z</time>
      </trkpt>
      <trkpt lat="45.32673" lon="6.18522">
        <ele>2585.4381638217</ele>
        <time>2020-02-09T13:29:12.998Z</time>
      </trkpt>
      <trkpt lat="45.32664" lon="6.18517">
        <ele>2581</ele>
        <time>2020-02-09T13:29:15.988Z</time>
      </trkpt>
      <trkpt lat="45.32672" lon="6.18509">
        <ele>2580.372992</ele>
        <time>2020-02-09T13:29:58.003Z</time>
      </trkpt>
      <trkpt lat="45.32679" lon="6.18501">
        <ele>2581</ele>
        <time>2020-02-09T13:30:08.990Z</time>
      </trkpt>
      <trkpt lat="45.3267" lon="6.18499">
        <ele>2596.3709952</ele>
        <time>2020-02-09T14:12:31.001Z</time>
      </trkpt>
      <trkpt lat="45.32676" lon="6.1851">
        <ele>2595.716798249</ele>
        <time>2020-02-09T14:13:10.001Z</time>
      </trkpt>
      <trkpt lat="45.3268" lon="6.18497">
        <ele>2595</ele>
        <time>2020-02-09T14:14:24.001Z</time>
      </trkpt>
      <trkpt lat="45.32689" lon="6.18495">
        <ele>2596</ele>
        <time>2020-02-09T14:16:23.992Z</time>
      </trkpt>
      <trkpt lat="45.32681" lon="6.18503">
        <ele>2596</ele>
        <time>2020-02-09T14:17:48.990Z</time>
      </trkpt>
      <trkpt lat="45.32673" lon="6.1851">
        <ele>2595</ele>
        <time>2020-02-09T14:19:18.991Z</time>
      </trkpt>
      <trkpt lat="45.32666" lon="6.1852">
        <ele>2593</ele>
        <time>2020-02-09T14:19:24.991Z</time>
      </trkpt>
      <trkpt lat="45.32657" lon="6.18516">
        <ele>2593</ele>
        <time>2020-02-09T14:20:57.991Z</time>
      </trkpt>
      <trkpt lat="45.32645" lon="6.18508">
        <ele>2591</ele>
        <time>2020-02-09T14:21:00.991Z</time>
      </trkpt>
      <trkpt lat="45.32636" lon="6.18503">
        <ele>2590.6390016</ele>
        <time>2020-02-09T14:21:02.991Z</time>
      </trkpt>
      <trkpt lat="45.32624" lon="6.185">
        <ele>2589</ele>
        <time>2020-02-09T14:21:05.991Z</time>
      </trkpt>
      <trkpt lat="45.32614" lon="6.18503">
        <ele>2589</ele>
        <time>2020-02-09T14:21:23.992Z</time>
      </trkpt>
      <trkpt lat="45.32605" lon="6.18508">
        <ele>2589</ele>
        <time>2020-02-09T14:22:12.991Z</time>
      </trkpt>
      <trkpt lat="45.32615" lon="6.1851">
        <ele>2589</ele>
        <time>2020-02-09T14:22:35.991Z</time>
      </trkpt>
      <trkpt lat="45.32613" lon="6.18524">
        <ele>2576.6280064</ele>
        <time>2020-02-09T14:23:05.002Z</time>
      </trkpt>
      <trkpt lat="45.32611" lon="6.18537">
        <ele>2569</ele>
        <time>2020-02-09T14:23:27.997Z</time>
      </trkpt>
      <trkpt lat="45.32604" lon="6.18545">
        <ele>2559</ele>
        <time>2020-02-09T14:23:57.001Z</time>
      </trkpt>
      <trkpt lat="45.3261" lon="6.18556">
        <ele>2554</ele>
        <time>2020-02-09T14:24:05.001Z</time>
      </trkpt>
      <trkpt lat="45.326" lon="6.18561">
        <ele>2550.716798249</ele>
        <time>2020-02-09T14:24:10.001Z</time>
      </trkpt>
      <trkpt lat="45.3259" lon="6.18567">
        <ele>2546.2580096</ele>
        <time>2020-02-09T14:24:14.001Z</time>
      </trkpt>
      <trkpt lat="45.32581" lon="6.18562">
        <ele>2545</ele>
        <time>2020-02-09T14:24:41.989Z</time>
      </trkpt>
      <trkpt lat="45.32589" lon="6.18556">
        <ele>2544</ele>
        <time>2020-02-09T14:25:18.987Z</time>
      </trkpt>
      <trkpt lat="45.32581" lon="6.18548">
        <ele>2545</ele>
        <time>2020-02-09T14:26:36.991Z</time>
      </trkpt>
      <trkpt lat="45.3258" lon="6.18561">
        <ele>2537.286016</ele>
        <time>2020-02-09T14:27:10.987Z</time>
      </trkpt>
      <trkpt lat="45.32581" lon="6.18575">
        <ele>2530.6390016</ele>
        <time>2020-02-09T14:27:13.991Z</time>
      </trkpt>
      <trkpt lat="45.32585" lon="6.18588">
        <ele>2523.9229952</ele>
        <time>2020-02-09T14:27:17.989Z</time>
      </trkpt>
      <trkpt lat="45.32589" lon="6.18601">
        <ele>2518.776508054</ele>
        <time>2020-02-09T14:27:20.001Z</time>
      </trkpt>
      <trkpt lat="45.32582" lon="6.18612">
        <ele>2515.6310016</ele>
        <time>2020-02-09T14:27:24.999Z</time>
      </trkpt>
      <trkpt lat="45.32579" lon="6.18628">
        <ele>2509.572032</ele>
        <time>2020-02-09T14:27:28.987Z</time>
      </trkpt>
      <trkpt lat="45.32573" lon="6.18648">
        <ele>2499.6390016</ele>
        <time>2020-02-09T14:27:31.991Z</time>
      </trkpt>
      <trkpt lat="45.32569" lon="6.18665">
        <ele>2494.1801766591</ele>
        <time>2020-02-09T14:27:33.988Z</time>
      </trkpt>
      <trkpt lat="45.32566" lon="6.18684">
        <ele>2489.2780032</ele>
        <time>2020-02-09T14:27:35.991Z</time>
      </trkpt>
      <trkpt lat="45.32565" lon="6.18702">
        <ele>2483.2819968</ele>
        <time>2020-02-09T14:27:37.989Z</time>
      </trkpt>
      <trkpt lat="45.32561" lon="6.18715">
        <ele>2481</ele>
        <time>2020-02-09T14:27:39.997Z</time>
      </trkpt>
      <trkpt lat="45.32556" lon="6.18729">
        <ele>2477.7259509688</ele>
        <time>2020-02-09T14:27:42.989Z</time>
      </trkpt>
      <trkpt lat="45.3256" lon="6.18712">
        <ele>2475</ele>
        <time>2020-02-09T14:27:53.001Z</time>
      </trkpt>
      <trkpt lat="45.3257" lon="6.18711">
        <ele>2475.283201751</ele>
        <time>2020-02-09T14:27:58.001Z</time>
      </trkpt>
      <trkpt lat="45.32576" lon="6.18702">
        <ele>2475</ele>
        <time>2020-02-09T14:28:37.989Z</time>
      </trkpt>
      <trkpt lat="45.3257" lon="6.18711">
        <ele>2475</ele>
        <time>2020-02-09T14:28:58.989Z</time>
      </trkpt>
      <trkpt lat="45.32566" lon="6.18726">
        <ele>2469.4519019376</ele>
        <time>2020-02-09T14:29:02.989Z</time>
      </trkpt>
      <trkpt lat="45.32559" lon="6.18739">
        <ele>2463.9259904</ele>
        <time>2020-02-09T14:29:04.988Z</time>
      </trkpt>
      <trkpt lat="45.32556" lon="6.18758">
        <ele>2458.8779904</ele>
        <time>2020-02-09T14:29:07.004Z</time>
      </trkpt>
      <trkpt lat="45.32549" lon="6.18771">
        <ele>2452.643008</ele>
        <time>2020-02-09T14:29:08.987Z</time>
      </trkpt>
      <trkpt lat="45.32541" lon="6.18784">
        <ele>2450</ele>
        <time>2020-02-09T14:29:12.003Z</time>
      </trkpt>
      <trkpt lat="45.32533" lon="6.1879">
        <ele>2449</ele>
        <time>2020-02-09T14:29:21.997Z</time>
      </trkpt>
      <trkpt lat="45.32536" lon="6.18803">
        <ele>2448</ele>
        <time>2020-02-09T14:30:27.991Z</time>
      </trkpt>
      <trkpt lat="45.32529" lon="6.18814">
        <ele>2447</ele>
        <time>2020-02-09T14:30:34.988Z</time>
      </trkpt>
      <trkpt lat="45.32526" lon="6.18829">
        <ele>2445.6420096</ele>
        <time>2020-02-09T14:30:47.988Z</time>
      </trkpt>
      <trkpt lat="45.32519" lon="6.18843">
        <ele>2444</ele>
        <time>2020-02-09T14:30:50.991Z</time>
      </trkpt>
      <trkpt lat="45.32512" lon="6.1886">
        <ele>2441.2840192</ele>
        <time>2020-02-09T14:30:53.988Z</time>
      </trkpt>
      <trkpt lat="45.32514" lon="6.18877">
        <ele>2435.2519936</ele>
        <time>2020-02-09T14:30:57.004Z</time>
      </trkpt>
      <trkpt lat="45.32521" lon="6.18895">
        <ele>2429.5679872</ele>
        <time>2020-02-09T14:30:58.988Z</time>
      </trkpt>
      <trkpt lat="45.32526" lon="6.18907">
        <ele>2425.9038145861</ele>
        <time>2020-02-09T14:30:59.989Z</time>
      </trkpt>
      <trkpt lat="45.32532" lon="6.18928">
        <ele>2421.6290048</ele>
        <time>2020-02-09T14:31:02.001Z</time>
      </trkpt>
      <trkpt lat="45.32523" lon="6.18943">
        <ele>2419.6390016</ele>
        <time>2020-02-09T14:31:03.991Z</time>
      </trkpt>
      <trkpt lat="45.32516" lon="6.18957">
        <ele>2418.6484924493</ele>
        <time>2020-02-09T14:31:05.988Z</time>
      </trkpt>
      <trkpt lat="45.32507" lon="6.18973">
        <ele>2416.7843423011</ele>
        <time>2020-02-09T14:31:07.988Z</time>
      </trkpt>
      <trkpt lat="45.32501" lon="6.1899">
        <ele>2415.6425747091</ele>
        <time>2020-02-09T14:31:09.991Z</time>
      </trkpt>
      <trkpt lat="45.32494" lon="6.19006">
        <ele>2412.264</ele>
        <time>2020-02-09T14:31:11.998Z</time>
      </trkpt>
      <trkpt lat="45.32489" lon="6.19021">
        <ele>2409.6420096</ele>
        <time>2020-02-09T14:31:13.988Z</time>
      </trkpt>
      <trkpt lat="45.32482" lon="6.19033">
        <ele>2409</ele>
        <time>2020-02-09T14:31:15.988Z</time>
      </trkpt>
      <trkpt lat="45.32478" lon="6.19044">
        <ele>2408</ele>
        <time>2020-02-09T14:31:17.991Z</time>
      </trkpt>
      <trkpt lat="45.32473" lon="6.19056">
        <ele>2407</ele>
        <time>2020-02-09T14:31:20.988Z</time>
      </trkpt>
      <trkpt lat="45.32478" lon="6.1907">
        <ele>2402.5680384</ele>
        <time>2020-02-09T14:32:19.988Z</time>
      </trkpt>
      <trkpt lat="45.3249" lon="6.19077">
        <ele>2396.1526811538</ele>
        <time>2020-02-09T14:32:22.000Z</time>
      </trkpt>
      <trkpt lat="45.32502" lon="6.19088">
        <ele>2388.9007660439</ele>
        <time>2020-02-09T14:32:23.990Z</time>
      </trkpt>
      <trkpt lat="45.32514" lon="6.19099">
        <ele>2384.5560064</ele>
        <time>2020-02-09T14:32:25.991Z</time>
      </trkpt>
      <trkpt lat="45.32527" lon="6.19108">
        <ele>2376.204992</ele>
        <time>2020-02-09T14:32:27.989Z</time>
      </trkpt>
      <trkpt lat="45.3254" lon="6.19118">
        <ele>2367.9038145861</ele>
        <time>2020-02-09T14:32:29.989Z</time>
      </trkpt>
      <trkpt lat="45.32549" lon="6.19119">
        <ele>2364.7869624903</ele>
        <time>2020-02-09T14:32:30.989Z</time>
      </trkpt>
      <trkpt lat="45.32559" lon="6.1913">
        <ele>2356.92</ele>
        <time>2020-02-09T14:32:32.990Z</time>
      </trkpt>
      <trkpt lat="45.3257" lon="6.19146">
        <ele>2351.2871264543</ele>
        <time>2020-02-09T14:32:34.990Z</time>
      </trkpt>
      <trkpt lat="45.32567" lon="6.19161">
        <ele>2347.4351152497</ele>
        <time>2020-02-09T14:32:37.000Z</time>
      </trkpt>
      <trkpt lat="45.32574" lon="6.19177">
        <ele>2336.9170048</ele>
        <time>2020-02-09T14:32:40.991Z</time>
      </trkpt>
      <trkpt lat="45.32577" lon="6.19196">
        <ele>2329.9007553032</ele>
        <time>2020-02-09T14:32:42.990Z</time>
      </trkpt>
      <trkpt lat="45.3258" lon="6.19208">
        <ele>2327</ele>
        <time>2020-02-09T14:32:43.989Z</time>
      </trkpt>
      <trkpt lat="45.32583" lon="6.19231">
        <ele>2321.6259575549</ele>
        <time>2020-02-09T14:32:45.990Z</time>
      </trkpt>
      <trkpt lat="45.32593" lon="6.19243">
        <ele>2312.56</ele>
        <time>2020-02-09T14:32:47.990Z</time>
      </trkpt>
      <trkpt lat="45.32604" lon="6.19252">
        <ele>2306.28</ele>
        <time>2020-02-09T14:32:49.990Z</time>
      </trkpt>
      <trkpt lat="45.32613" lon="6.19251">
        <ele>2302.6420096</ele>
        <time>2020-02-09T14:32:53.988Z</time>
      </trkpt>
      <trkpt lat="45.32604" lon="6.19245">
        <ele>2302</ele>
        <time>2020-02-09T14:33:42.001Z</time>
      </trkpt>
      <trkpt lat="45.32612" lon="6.19239">
        <ele>2302.6420096</ele>
        <time>2020-02-09T14:33:49.988Z</time>
      </trkpt>
      <trkpt lat="45.32621" lon="6.19234">
        <ele>2302</ele>
        <time>2020-02-09T14:33:57.003Z</time>
      </trkpt>
      <trkpt lat="45.32613" lon="6.19242">
        <ele>2302</ele>
        <time>2020-02-09T14:34:10.001Z</time>
      </trkpt>
      <trkpt lat="45.32608" lon="6.19254">
        <ele>2301</ele>
        <time>2020-02-09T14:34:22.989Z</time>
      </trkpt>
      <trkpt lat="45.32603" lon="6.19269">
        <ele>2300.7183197678</ele>
        <time>2020-02-09T14:34:28.999Z</time>
      </trkpt>
      <trkpt lat="45.32598" lon="6.19282">
        <ele>2298</ele>
        <time>2020-02-09T14:34:31.992Z</time>
      </trkpt>
      <trkpt lat="45.32596" lon="6.19297">
        <ele>2296.6419968</ele>
        <time>2020-02-09T14:34:34.988Z</time>
      </trkpt>
      <trkpt lat="45.32602" lon="6.19309">
        <ele>2294</ele>
        <time>2020-02-09T14:34:37.990Z</time>
      </trkpt>
      <trkpt lat="45.32612" lon="6.19316">
        <ele>2288.8459904</ele>
        <time>2020-02-09T14:34:39.989Z</time>
      </trkpt>
      <trkpt lat="45.32627" lon="6.1932">
        <ele>2279.9007660439</ele>
        <time>2020-02-09T14:34:41.990Z</time>
      </trkpt>
      <trkpt lat="45.3264" lon="6.19331">
        <ele>2270.8900096</ele>
        <time>2020-02-09T14:34:44.000Z</time>
      </trkpt>
      <trkpt lat="45.32654" lon="6.19341">
        <ele>2265.9260288</ele>
        <time>2020-02-09T14:34:45.988Z</time>
      </trkpt>
      <trkpt lat="45.32657" lon="6.1936">
        <ele>2260.4534511061</ele>
        <time>2020-02-09T14:34:47.988Z</time>
      </trkpt>
      <trkpt lat="45.32657" lon="6.19376">
        <ele>2257.6409984</ele>
        <time>2020-02-09T14:34:49.989Z</time>
      </trkpt>
      <trkpt lat="45.3266" lon="6.19391">
        <ele>2251.92</ele>
        <time>2020-02-09T14:34:52.990Z</time>
      </trkpt>
      <trkpt lat="45.32669" lon="6.19401">
        <ele>2243.725191511</ele>
        <time>2020-02-09T14:34:55.990Z</time>
      </trkpt>
      <trkpt lat="45.32673" lon="6.19412">
        <ele>2238</ele>
        <time>2020-02-09T14:35:07.989Z</time>
      </trkpt>
      <trkpt lat="45.32662" lon="6.19422">
        <ele>2236.6455529364</ele>
        <time>2020-02-09T14:36:05.988Z</time>
      </trkpt>
      <trkpt lat="45.32656" lon="6.19431">
        <ele>2235.6409984</ele>
        <time>2020-02-09T14:36:07.989Z</time>
      </trkpt>
      <trkpt lat="45.32648" lon="6.19448">
        <ele>2233.6390016</ele>
        <time>2020-02-09T14:36:10.991Z</time>
      </trkpt>
      <trkpt lat="45.32643" lon="6.19462">
        <ele>2232</ele>
        <time>2020-02-09T14:36:12.991Z</time>
      </trkpt>
      <trkpt lat="45.32639" lon="6.19478">
        <ele>2230.4575709091</ele>
        <time>2020-02-09T14:36:14.988Z</time>
      </trkpt>
      <trkpt lat="45.32635" lon="6.19498">
        <ele>2226.2839936</ele>
        <time>2020-02-09T14:36:16.988Z</time>
      </trkpt>
      <trkpt lat="45.32628" lon="6.1952">
        <ele>2223.6290048</ele>
        <time>2020-02-09T14:36:19.001Z</time>
      </trkpt>
      <trkpt lat="45.32622" lon="6.19537">
        <ele>2223</ele>
        <time>2020-02-09T14:36:20.988Z</time>
      </trkpt>
      <trkpt lat="45.32619" lon="6.19552">
        <ele>2221.5200128</ele>
        <time>2020-02-09T14:36:24.000Z</time>
      </trkpt>
      <trkpt lat="45.32618" lon="6.19571">
        <ele>2214.6440064</ele>
        <time>2020-02-09T14:36:26.986Z</time>
      </trkpt>
      <trkpt lat="45.32613" lon="6.1959">
        <ele>2212.2560128</ele>
        <time>2020-02-09T14:36:29.002Z</time>
      </trkpt>
      <trkpt lat="45.32609" lon="6.1961">
        <ele>2209.5712544742</ele>
        <time>2020-02-09T14:36:30.988Z</time>
      </trkpt>
      <trkpt lat="45.32605" lon="6.1963">
        <ele>2207.3019689535</ele>
        <time>2020-02-09T14:36:32.986Z</time>
      </trkpt>
      <trkpt lat="45.326" lon="6.19652">
        <ele>2204.2839936</ele>
        <time>2020-02-09T14:36:34.988Z</time>
      </trkpt>
      <trkpt lat="45.32596" lon="6.19674">
        <ele>2201.4606157576</ele>
        <time>2020-02-09T14:36:36.986Z</time>
      </trkpt>
      <trkpt lat="45.32594" lon="6.19694">
        <ele>2198.6290048</ele>
        <time>2020-02-09T14:36:39.001Z</time>
      </trkpt>
      <trkpt lat="45.32593" lon="6.19714">
        <ele>2195.9320192</ele>
        <time>2020-02-09T14:36:40.986Z</time>
      </trkpt>
      <trkpt lat="45.32592" lon="6.19736">
        <ele>2192.7338473051</ele>
        <time>2020-02-09T14:36:42.986Z</time>
      </trkpt>
      <trkpt lat="45.32591" lon="6.19753">
        <ele>2192</ele>
        <time>2020-02-09T14:36:44.988Z</time>
      </trkpt>
      <trkpt lat="45.32593" lon="6.19767">
        <ele>2191</ele>
        <time>2020-02-09T14:36:46.988Z</time>
      </trkpt>
      <trkpt lat="45.32592" lon="6.19782">
        <ele>2189.6343478486</ele>
        <time>2020-02-09T14:36:49.002Z</time>
      </trkpt>
      <trkpt lat="45.3259" lon="6.19795">
        <ele>2189</ele>
        <time>2020-02-09T14:36:50.992Z</time>
      </trkpt>
      <trkpt lat="45.32585" lon="6.19808">
        <ele>2188.7236645398</ele>
        <time>2020-02-09T14:36:52.992Z</time>
      </trkpt>
      <trkpt lat="45.3258" lon="6.19819">
        <ele>2188</ele>
        <time>2020-02-09T14:36:54.988Z</time>
      </trkpt>
      <trkpt lat="45.32572" lon="6.19835">
        <ele>2187</ele>
        <time>2020-02-09T14:36:57.992Z</time>
      </trkpt>
      <trkpt lat="45.32564" lon="6.19848">
        <ele>2184.9170048</ele>
        <time>2020-02-09T14:36:59.991Z</time>
      </trkpt>
      <trkpt lat="45.32562" lon="6.19863">
        <ele>2182.2840192</ele>
        <time>2020-02-09T14:37:01.988Z</time>
      </trkpt>
      <trkpt lat="45.32569" lon="6.19878">
        <ele>2177.717430303</ele>
        <time>2020-02-09T14:37:04.003Z</time>
      </trkpt>
      <trkpt lat="45.3257" lon="6.199">
        <ele>2175.6420096</ele>
        <time>2020-02-09T14:37:05.988Z</time>
      </trkpt>
      <trkpt lat="45.32568" lon="6.19916">
        <ele>2174.6380032</ele>
        <time>2020-02-09T14:37:07.992Z</time>
      </trkpt>
      <trkpt lat="45.32564" lon="6.19929">
        <ele>2174</ele>
        <time>2020-02-09T14:37:12.989Z</time>
      </trkpt>
      <trkpt lat="45.32563" lon="6.19942">
        <ele>2174</ele>
        <time>2020-02-09T14:37:28.997Z</time>
      </trkpt>
      <trkpt lat="45.3256" lon="6.19957">
        <ele>2172</ele>
        <time>2020-02-09T14:37:31.992Z</time>
      </trkpt>
      <trkpt lat="45.32557" lon="6.19976">
        <ele>2170.6380032</ele>
        <time>2020-02-09T14:37:34.992Z</time>
      </trkpt>
      <trkpt lat="45.32554" lon="6.19993">
        <ele>2167.643008</ele>
        <time>2020-02-09T14:37:36.987Z</time>
      </trkpt>
      <trkpt lat="45.32551" lon="6.2001">
        <ele>2165.717430303</ele>
        <time>2020-02-09T14:37:39.003Z</time>
      </trkpt>
      <trkpt lat="45.32549" lon="6.20025">
        <ele>2163.6390016</ele>
        <time>2020-02-09T14:37:40.991Z</time>
      </trkpt>
      <trkpt lat="45.32546" lon="6.20039">
        <ele>2162</ele>
        <time>2020-02-09T14:37:42.992Z</time>
      </trkpt>
      <trkpt lat="45.32544" lon="6.20053">
        <ele>2161</ele>
        <time>2020-02-09T14:37:44.987Z</time>
      </trkpt>
      <trkpt lat="45.32543" lon="6.20067">
        <ele>2159.72576</ele>
        <time>2020-02-09T14:37:46.992Z</time>
      </trkpt>
      <trkpt lat="45.32542" lon="6.20081">
        <ele>2157.7152711959</ele>
        <time>2020-02-09T14:37:49.003Z</time>
      </trkpt>
      <trkpt lat="45.32545" lon="6.20099">
        <ele>2156</ele>
        <time>2020-02-09T14:37:51.988Z</time>
      </trkpt>
      <trkpt lat="45.32546" lon="6.20116">
        <ele>2155.6484795201</ele>
        <time>2020-02-09T14:37:54.988Z</time>
      </trkpt>
      <trkpt lat="45.32547" lon="6.20134">
        <ele>2154.643008</ele>
        <time>2020-02-09T14:37:57.987Z</time>
      </trkpt>
      <trkpt lat="45.32548" lon="6.20147">
        <ele>2152.726725553</ele>
        <time>2020-02-09T14:37:59.988Z</time>
      </trkpt>
      <trkpt lat="45.32548" lon="6.2016">
        <ele>2152</ele>
        <time>2020-02-09T14:38:01.988Z</time>
      </trkpt>
      <trkpt lat="45.32548" lon="6.20175">
        <ele>2150.627008</ele>
        <time>2020-02-09T14:38:04.003Z</time>
      </trkpt>
      <trkpt lat="45.32548" lon="6.20188">
        <ele>2149.7215395522</ele>
        <time>2020-02-09T14:38:05.992Z</time>
      </trkpt>
      <trkpt lat="45.32547" lon="6.20201">
        <ele>2148</ele>
        <time>2020-02-09T14:38:07.992Z</time>
      </trkpt>
      <trkpt lat="45.32546" lon="6.20214">
        <ele>2146.7236672399</ele>
        <time>2020-02-09T14:38:09.992Z</time>
      </trkpt>
      <trkpt lat="45.32545" lon="6.2023">
        <ele>2146</ele>
        <time>2020-02-09T14:38:11.992Z</time>
      </trkpt>
      <trkpt lat="45.32544" lon="6.20246">
        <ele>2145</ele>
        <time>2020-02-09T14:38:14.003Z</time>
      </trkpt>
      <trkpt lat="45.32543" lon="6.2026">
        <ele>2143.2760064</ele>
        <time>2020-02-09T14:38:15.992Z</time>
      </trkpt>
      <trkpt lat="45.32541" lon="6.20276">
        <ele>2141</ele>
        <time>2020-02-09T14:38:17.992Z</time>
      </trkpt>
      <trkpt lat="45.3254" lon="6.20292">
        <ele>2139.726725553</ele>
        <time>2020-02-09T14:38:19.988Z</time>
      </trkpt>
      <trkpt lat="45.32539" lon="6.20306">
        <ele>2138.6420096</ele>
        <time>2020-02-09T14:38:21.988Z</time>
      </trkpt>
      <trkpt lat="45.32538" lon="6.20323">
        <ele>2137</ele>
        <time>2020-02-09T14:38:24.992Z</time>
      </trkpt>
      <trkpt lat="45.32537" lon="6.20339">
        <ele>2137</ele>
        <time>2020-02-09T14:38:27.988Z</time>
      </trkpt>
      <trkpt lat="45.32536" lon="6.20353">
        <ele>2136.7244293754</ele>
        <time>2020-02-09T14:38:29.991Z</time>
      </trkpt>
      <trkpt lat="45.32537" lon="6.20367">
        <ele>2134.6420096</ele>
        <time>2020-02-09T14:38:31.988Z</time>
      </trkpt>
      <trkpt lat="45.32536" lon="6.20381">
        <ele>2134</ele>
        <time>2020-02-09T14:38:34.003Z</time>
      </trkpt>
      <trkpt lat="45.32535" lon="6.20395">
        <ele>2134</ele>
        <time>2020-02-09T14:38:35.988Z</time>
      </trkpt>
      <trkpt lat="45.32534" lon="6.20408">
        <ele>2134</ele>
        <time>2020-02-09T14:38:37.988Z</time>
      </trkpt>
      <trkpt lat="45.32531" lon="6.20425">
        <ele>2133</ele>
        <time>2020-02-09T14:38:40.988Z</time>
      </trkpt>
      <trkpt lat="45.32528" lon="6.20438">
        <ele>2132</ele>
        <time>2020-02-09T14:38:44.002Z</time>
      </trkpt>
      <trkpt lat="45.32525" lon="6.20451">
        <ele>2131</ele>
        <time>2020-02-09T14:38:46.988Z</time>
      </trkpt>
      <trkpt lat="45.32522" lon="6.20467">
        <ele>2129.6420096</ele>
        <time>2020-02-09T14:38:49.988Z</time>
      </trkpt>
      <trkpt lat="45.32519" lon="6.20485">
        <ele>2128</ele>
        <time>2020-02-09T14:38:52.991Z</time>
      </trkpt>
      <trkpt lat="45.32516" lon="6.20501">
        <ele>2128</ele>
        <time>2020-02-09T14:38:55.991Z</time>
      </trkpt>
      <trkpt lat="45.32515" lon="6.20514">
        <ele>2127</ele>
        <time>2020-02-09T14:39:42.991Z</time>
      </trkpt>
      <trkpt lat="45.32507" lon="6.20522">
        <ele>2127</ele>
        <time>2020-02-09T14:40:20.987Z</time>
      </trkpt>
      <trkpt lat="45.3251" lon="6.20539">
        <ele>2122.8840192</ele>
        <time>2020-02-09T14:40:24.002Z</time>
      </trkpt>
      <trkpt lat="45.32517" lon="6.20552">
        <ele>2118.1715306906</ele>
        <time>2020-02-09T14:40:25.989Z</time>
      </trkpt>
      <trkpt lat="45.32526" lon="6.2056">
        <ele>2111.5639936</ele>
        <time>2020-02-09T14:40:27.989Z</time>
      </trkpt>
      <trkpt lat="45.32542" lon="6.20568">
        <ele>2104.9229952</ele>
        <time>2020-02-09T14:40:29.989Z</time>
      </trkpt>
      <trkpt lat="45.32557" lon="6.20575">
        <ele>2098.5639936</ele>
        <time>2020-02-09T14:40:31.989Z</time>
      </trkpt>
      <trkpt lat="45.32567" lon="6.20589">
        <ele>2091.8646147181</ele>
        <time>2020-02-09T14:40:33.999Z</time>
      </trkpt>
      <trkpt lat="45.32575" lon="6.20604">
        <ele>2085.2819968</ele>
        <time>2020-02-09T14:40:35.989Z</time>
      </trkpt>
      <trkpt lat="45.32582" lon="6.2062">
        <ele>2081.4534511061</ele>
        <time>2020-02-09T14:40:37.988Z</time>
      </trkpt>
      <trkpt lat="45.3258" lon="6.2064">
        <ele>2078.6551075585</ele>
        <time>2020-02-09T14:40:39.988Z</time>
      </trkpt>
      <trkpt lat="45.32575" lon="6.20654">
        <ele>2076.726725553</ele>
        <time>2020-02-09T14:40:41.988Z</time>
      </trkpt>
      <trkpt lat="45.3258" lon="6.20669">
        <ele>2071.2819968</ele>
        <time>2020-02-09T14:40:45.989Z</time>
      </trkpt>
      <trkpt lat="45.32583" lon="6.20684">
        <ele>2067.9653226754</ele>
        <time>2020-02-09T14:40:47.988Z</time>
      </trkpt>
      <trkpt lat="45.32589" lon="6.20704">
        <ele>2061.2819968</ele>
        <time>2020-02-09T14:40:49.989Z</time>
      </trkpt>
      <trkpt lat="45.32593" lon="6.20727">
        <ele>2056.1824630657</ele>
        <time>2020-02-09T14:40:51.987Z</time>
      </trkpt>
      <trkpt lat="45.32598" lon="6.20749">
        <ele>2049.881024</ele>
        <time>2020-02-09T14:40:54.003Z</time>
      </trkpt>
      <trkpt lat="45.32598" lon="6.20762">
        <ele>2047.2819968</ele>
        <time>2020-02-09T14:40:54.989Z</time>
      </trkpt>
      <trkpt lat="45.32596" lon="6.20787">
        <ele>2044.5712544742</ele>
        <time>2020-02-09T14:40:56.988Z</time>
      </trkpt>
      <trkpt lat="45.32596" lon="6.20801">
        <ele>2043.3748629943</ele>
        <time>2020-02-09T14:40:57.987Z</time>
      </trkpt>
      <trkpt lat="45.32598" lon="6.20815">
        <ele>2041.8890958862</ele>
        <time>2020-02-09T14:40:59.004Z</time>
      </trkpt>
      <trkpt lat="45.32599" lon="6.20829">
        <ele>2038.2222279686</ele>
        <time>2020-02-09T14:40:59.992Z</time>
      </trkpt>
      <trkpt lat="45.326" lon="6.20843">
        <ele>2034.6419968</ele>
        <time>2020-02-09T14:41:00.988Z</time>
      </trkpt>
      <trkpt lat="45.326" lon="6.20857">
        <ele>2033.1732881263</ele>
        <time>2020-02-09T14:41:01.991Z</time>
      </trkpt>
      <trkpt lat="45.32601" lon="6.20871">
        <ele>2030.7782807109</ele>
        <time>2020-02-09T14:41:02.991Z</time>
      </trkpt>
      <trkpt lat="45.32602" lon="6.20886">
        <ele>2027.632</ele>
        <time>2020-02-09T14:41:03.998Z</time>
      </trkpt>
      <trkpt lat="45.32604" lon="6.209">
        <ele>2026.286016</ele>
        <time>2020-02-09T14:41:04.987Z</time>
      </trkpt>
      <trkpt lat="45.32606" lon="6.20914">
        <ele>2024.6409984</ele>
        <time>2020-02-09T14:41:05.989Z</time>
      </trkpt>
      <trkpt lat="45.32607" lon="6.20928">
        <ele>2023.7280290909</ele>
        <time>2020-02-09T14:41:06.989Z</time>
      </trkpt>
      <trkpt lat="45.32608" lon="6.20941">
        <ele>2022.9441317647</ele>
        <time>2020-02-09T14:41:07.988Z</time>
      </trkpt>
      <trkpt lat="45.32611" lon="6.20964">
        <ele>2020.6409984</ele>
        <time>2020-02-09T14:41:09.989Z</time>
      </trkpt>
      <trkpt lat="45.32613" lon="6.20984">
        <ele>2020</ele>
        <time>2020-02-09T14:41:11.988Z</time>
      </trkpt>
      <trkpt lat="45.32615" lon="6.21">
        <ele>2019.715273978</ele>
        <time>2020-02-09T14:41:14.003Z</time>
      </trkpt>
      <trkpt lat="45.32618" lon="6.21012">
        <ele>2019</ele>
        <time>2020-02-09T14:41:15.988Z</time>
      </trkpt>
      <trkpt lat="45.32625" lon="6.21022">
        <ele>2019</ele>
        <time>2020-02-09T14:41:19.989Z</time>
      </trkpt>
      <trkpt lat="45.32631" lon="6.21033">
        <ele>2019</ele>
        <time>2020-02-09T14:41:24.989Z</time>
      </trkpt>
      <trkpt lat="45.32639" lon="6.21043">
        <ele>2019</ele>
        <time>2020-02-09T14:41:31.987Z</time>
      </trkpt>
      <trkpt lat="45.32641" lon="6.21056">
        <ele>2019</ele>
        <time>2020-02-09T14:41:37.987Z</time>
      </trkpt>
      <trkpt lat="45.32645" lon="6.21068">
        <ele>2018</ele>
        <time>2020-02-09T14:41:44.992Z</time>
      </trkpt>
      <trkpt lat="45.3265" lon="6.2108">
        <ele>2018</ele>
        <time>2020-02-09T14:41:50.988Z</time>
      </trkpt>
      <trkpt lat="45.32652" lon="6.21094">
        <ele>2018</ele>
        <time>2020-02-09T14:41:57.988Z</time>
      </trkpt>
      <trkpt lat="45.32655" lon="6.21108">
        <ele>2017</ele>
        <time>2020-02-09T14:42:05.987Z</time>
      </trkpt>
      <trkpt lat="45.32661" lon="6.2112">
        <ele>2017</ele>
        <time>2020-02-09T14:42:09.989Z</time>
      </trkpt>
      <trkpt lat="45.32654" lon="6.2113">
        <ele>2015.6290048</ele>
        <time>2020-02-09T14:45:01.001Z</time>
      </trkpt>
      <trkpt lat="45.3265" lon="6.21141">
        <ele>2013.2580096</ele>
        <time>2020-02-09T14:45:03.001Z</time>
      </trkpt>
      <trkpt lat="45.32644" lon="6.21154">
        <ele>2011</ele>
        <time>2020-02-09T14:45:06.001Z</time>
      </trkpt>
      <trkpt lat="45.32637" lon="6.21166">
        <ele>2009.64</ele>
        <time>2020-02-09T14:45:08.990Z</time>
      </trkpt>
      <trkpt lat="45.32631" lon="6.21177">
        <ele>2009</ele>
        <time>2020-02-09T14:45:11.990Z</time>
      </trkpt>
      <trkpt lat="45.32629" lon="6.21191">
        <ele>2004.929024</ele>
        <time>2020-02-09T14:45:15.987Z</time>
      </trkpt>
      <trkpt lat="45.32633" lon="6.21204">
        <ele>2000.2626189491</ele>
        <time>2020-02-09T14:45:18.005Z</time>
      </trkpt>
      <trkpt lat="45.32623" lon="6.21219">
        <ele>1997.6420096</ele>
        <time>2020-02-09T14:45:19.988Z</time>
      </trkpt>
      <trkpt lat="45.32618" lon="6.21237">
        <ele>1994.4560581818</ele>
        <time>2020-02-09T14:45:21.989Z</time>
      </trkpt>
      <trkpt lat="45.32621" lon="6.21257">
        <ele>1992</ele>
        <time>2020-02-09T14:45:23.988Z</time>
      </trkpt>
      <trkpt lat="45.32617" lon="6.21272">
        <ele>1990.2819968</ele>
        <time>2020-02-09T14:45:25.989Z</time>
      </trkpt>
      <trkpt lat="45.32612" lon="6.21286">
        <ele>1985.254016</ele>
        <time>2020-02-09T14:45:28.003Z</time>
      </trkpt>
      <trkpt lat="45.3261" lon="6.21304">
        <ele>1980.1863854545</ele>
        <time>2020-02-09T14:45:29.988Z</time>
      </trkpt>
      <trkpt lat="45.32607" lon="6.21329">
        <ele>1975.286016</ele>
        <time>2020-02-09T14:45:31.987Z</time>
      </trkpt>
      <trkpt lat="45.32606" lon="6.21343">
        <ele>1972.8779904</ele>
        <time>2020-02-09T14:45:33.004Z</time>
      </trkpt>
      <trkpt lat="45.32605" lon="6.21358">
        <ele>1969.9229952</ele>
        <time>2020-02-09T14:45:33.989Z</time>
      </trkpt>
      <trkpt lat="45.32603" lon="6.21371">
        <ele>1967.1824550775</ele>
        <time>2020-02-09T14:45:34.987Z</time>
      </trkpt>
      <trkpt lat="45.32603" lon="6.21386">
        <ele>1964.7956480606</ele>
        <time>2020-02-09T14:45:35.987Z</time>
      </trkpt>
      <trkpt lat="45.32602" lon="6.21402">
        <ele>1960.9229952</ele>
        <time>2020-02-09T14:45:36.989Z</time>
      </trkpt>
      <trkpt lat="45.32601" lon="6.21419">
        <ele>1957.8840192</ele>
        <time>2020-02-09T14:45:38.002Z</time>
      </trkpt>
      <trkpt lat="45.32597" lon="6.21435">
        <ele>1955.286016</ele>
        <time>2020-02-09T14:45:38.987Z</time>
      </trkpt>
      <trkpt lat="45.32593" lon="6.21451">
        <ele>1953.4549753772</ele>
        <time>2020-02-09T14:45:39.987Z</time>
      </trkpt>
      <trkpt lat="45.32588" lon="6.21466">
        <ele>1951.8579749935</ele>
        <time>2020-02-09T14:45:40.989Z</time>
      </trkpt>
      <trkpt lat="45.32583" lon="6.21481">
        <ele>1949.7274876886</ele>
        <time>2020-02-09T14:45:41.987Z</time>
      </trkpt>
      <trkpt lat="45.3258" lon="6.21497">
        <ele>1949</ele>
        <time>2020-02-09T14:45:43.002Z</time>
      </trkpt>
      <trkpt lat="45.32577" lon="6.21512">
        <ele>1948.4549753772</ele>
        <time>2020-02-09T14:45:43.987Z</time>
      </trkpt>
      <trkpt lat="45.32573" lon="6.21526">
        <ele>1946.8579749935</ele>
        <time>2020-02-09T14:45:44.989Z</time>
      </trkpt>
      <trkpt lat="45.32571" lon="6.21541">
        <ele>1944.643008</ele>
        <time>2020-02-09T14:45:45.987Z</time>
      </trkpt>
      <trkpt lat="45.3257" lon="6.21554">
        <ele>1943.6409984</ele>
        <time>2020-02-09T14:45:46.989Z</time>
      </trkpt>
      <trkpt lat="45.32571" lon="6.21567">
        <ele>1943</ele>
        <time>2020-02-09T14:45:47.999Z</time>
      </trkpt>
      <trkpt lat="45.32572" lon="6.21589">
        <ele>1943</ele>
        <time>2020-02-09T14:45:49.988Z</time>
      </trkpt>
      <trkpt lat="45.32573" lon="6.21608">
        <ele>1942</ele>
        <time>2020-02-09T14:45:51.988Z</time>
      </trkpt>
      <trkpt lat="45.32574" lon="6.21625">
        <ele>1940.643008</ele>
        <time>2020-02-09T14:45:53.987Z</time>
      </trkpt>
      <trkpt lat="45.32574" lon="6.2164">
        <ele>1940</ele>
        <time>2020-02-09T14:45:55.992Z</time>
      </trkpt>
      <trkpt lat="45.32574" lon="6.21654">
        <ele>1940</ele>
        <time>2020-02-09T14:45:58.004Z</time>
      </trkpt>
      <trkpt lat="45.32571" lon="6.21669">
        <ele>1940</ele>
        <time>2020-02-09T14:46:00.990Z</time>
      </trkpt>
      <trkpt lat="45.32562" lon="6.21675">
        <ele>1941</ele>
        <time>2020-02-09T14:46:10.988Z</time>
      </trkpt>
      <trkpt lat="45.32566" lon="6.21688">
        <ele>1938.6419968</ele>
        <time>2020-02-09T14:46:40.988Z</time>
      </trkpt>
      <trkpt lat="45.32568" lon="6.21705">
        <ele>1937.7253894173</ele>
        <time>2020-02-09T14:46:43.987Z</time>
      </trkpt>
      <trkpt lat="45.32568" lon="6.21723">
        <ele>1935.643008</ele>
        <time>2020-02-09T14:46:45.987Z</time>
      </trkpt>
      <trkpt lat="45.32567" lon="6.21744">
        <ele>1933.6280064</ele>
        <time>2020-02-09T14:46:48.002Z</time>
      </trkpt>
      <trkpt lat="45.32566" lon="6.21768">
        <ele>1931.643008</ele>
        <time>2020-02-09T14:46:49.987Z</time>
      </trkpt>
      <trkpt lat="45.32563" lon="6.21792">
        <ele>1929.4549753772</ele>
        <time>2020-02-09T14:46:51.987Z</time>
      </trkpt>
      <trkpt lat="45.32558" lon="6.21815">
        <ele>1927</ele>
        <time>2020-02-09T14:46:53.988Z</time>
      </trkpt>
      <trkpt lat="45.32556" lon="6.21835">
        <ele>1926</ele>
        <time>2020-02-09T14:46:55.990Z</time>
      </trkpt>
      <trkpt lat="45.32554" lon="6.21854">
        <ele>1925.5518132118</ele>
        <time>2020-02-09T14:46:58.002Z</time>
      </trkpt>
      <trkpt lat="45.32553" lon="6.21874">
        <ele>1923.643008</ele>
        <time>2020-02-09T14:46:59.987Z</time>
      </trkpt>
      <trkpt lat="45.32551" lon="6.21896">
        <ele>1922.286016</ele>
        <time>2020-02-09T14:47:01.987Z</time>
      </trkpt>
      <trkpt lat="45.3255" lon="6.21921">
        <ele>1918.4534511061</ele>
        <time>2020-02-09T14:47:03.988Z</time>
      </trkpt>
      <trkpt lat="45.32548" lon="6.21934">
        <ele>1916.931899974</ele>
        <time>2020-02-09T14:47:04.987Z</time>
      </trkpt>
      <trkpt lat="45.32545" lon="6.21946">
        <ele>1915.6409984</ele>
        <time>2020-02-09T14:47:05.989Z</time>
      </trkpt>
      <trkpt lat="45.32538" lon="6.21968">
        <ele>1914</ele>
        <time>2020-02-09T14:47:08.004Z</time>
      </trkpt>
      <trkpt lat="45.32533" lon="6.21987">
        <ele>1913</ele>
        <time>2020-02-09T14:47:09.992Z</time>
      </trkpt>
      <trkpt lat="45.32527" lon="6.22004">
        <ele>1913</ele>
        <time>2020-02-09T14:47:11.992Z</time>
      </trkpt>
      <trkpt lat="45.32523" lon="6.22022">
        <ele>1911.6420096</ele>
        <time>2020-02-09T14:47:13.988Z</time>
      </trkpt>
      <trkpt lat="45.32517" lon="6.22039">
        <ele>1909.6420096</ele>
        <time>2020-02-09T14:47:15.988Z</time>
      </trkpt>
      <trkpt lat="45.32513" lon="6.22054">
        <ele>1909</ele>
        <time>2020-02-09T14:47:17.999Z</time>
      </trkpt>
      <trkpt lat="45.32509" lon="6.22068">
        <ele>1909</ele>
        <time>2020-02-09T14:47:19.988Z</time>
      </trkpt>
      <trkpt lat="45.32507" lon="6.22082">
        <ele>1909</ele>
        <time>2020-02-09T14:47:22.998Z</time>
      </trkpt>
      <trkpt lat="45.32506" lon="6.22095">
        <ele>1909</ele>
        <time>2020-02-09T14:47:58.002Z</time>
      </trkpt>
      <trkpt lat="45.32498" lon="6.22107">
        <ele>1908</ele>
        <time>2020-02-09T14:48:00.988Z</time>
      </trkpt>
      <trkpt lat="45.32488" lon="6.2211">
        <ele>1906.7160333389</ele>
        <time>2020-02-09T14:48:03.002Z</time>
      </trkpt>
      <trkpt lat="45.32483" lon="6.2213">
        <ele>1901.286016</ele>
        <time>2020-02-09T14:48:05.987Z</time>
      </trkpt>
      <trkpt lat="45.32478" lon="6.22147">
        <ele>1897.2520192</ele>
        <time>2020-02-09T14:48:08.004Z</time>
      </trkpt>
      <trkpt lat="45.32481" lon="6.22166">
        <ele>1894.643008</ele>
        <time>2020-02-09T14:48:09.987Z</time>
      </trkpt>
      <trkpt lat="45.32487" lon="6.22184">
        <ele>1893</ele>
        <time>2020-02-09T14:48:11.987Z</time>
      </trkpt>
      <trkpt lat="45.32491" lon="6.22203">
        <ele>1891.726725553</ele>
        <time>2020-02-09T14:48:13.988Z</time>
      </trkpt>
      <trkpt lat="45.32485" lon="6.22216">
        <ele>1890.286016</ele>
        <time>2020-02-09T14:48:15.987Z</time>
      </trkpt>
      <trkpt lat="45.32481" lon="6.22231">
        <ele>1887.627008</ele>
        <time>2020-02-09T14:48:18.003Z</time>
      </trkpt>
      <trkpt lat="45.32472" lon="6.22238">
        <ele>1885.726725553</ele>
        <time>2020-02-09T14:48:19.988Z</time>
      </trkpt>
      <trkpt lat="45.32466" lon="6.22248">
        <ele>1883.64</ele>
        <time>2020-02-09T14:48:21.990Z</time>
      </trkpt>
      <trkpt lat="45.32469" lon="6.22268">
        <ele>1881.6445517451</ele>
        <time>2020-02-09T14:48:24.989Z</time>
      </trkpt>
      <trkpt lat="45.32477" lon="6.22282">
        <ele>1879.6409984</ele>
        <time>2020-02-09T14:48:26.989Z</time>
      </trkpt>
      <trkpt lat="45.32481" lon="6.22294">
        <ele>1877.7236645398</ele>
        <time>2020-02-09T14:48:28.992Z</time>
      </trkpt>
      <trkpt lat="45.32486" lon="6.22309">
        <ele>1875</ele>
        <time>2020-02-09T14:48:31.988Z</time>
      </trkpt>
      <trkpt lat="45.32478" lon="6.22302">
        <ele>1875</ele>
        <time>2020-02-09T14:48:59.989Z</time>
      </trkpt>
      <trkpt lat="45.32485" lon="6.22315">
        <ele>1874</ele>
        <time>2020-02-09T14:49:08.004Z</time>
      </trkpt>
      <trkpt lat="45.32488" lon="6.22329">
        <ele>1872.7267131118</ele>
        <time>2020-02-09T14:49:10.988Z</time>
      </trkpt>
      <trkpt lat="45.32478" lon="6.22338">
        <ele>1871</ele>
        <time>2020-02-09T14:49:14.990Z</time>
      </trkpt>
      <trkpt lat="45.32466" lon="6.2234">
        <ele>1870</ele>
        <time>2020-02-09T14:49:18.005Z</time>
      </trkpt>
      <trkpt lat="45.32457" lon="6.22344">
        <ele>1869</ele>
        <time>2020-02-09T14:49:19.988Z</time>
      </trkpt>
      <trkpt lat="45.32452" lon="6.22358">
        <ele>1866.254016</ele>
        <time>2020-02-09T14:49:23.003Z</time>
      </trkpt>
      <trkpt lat="45.32451" lon="6.22372">
        <ele>1862.7330793013</ele>
        <time>2020-02-09T14:49:24.987Z</time>
      </trkpt>
      <trkpt lat="45.32457" lon="6.22381">
        <ele>1859.2840192</ele>
        <time>2020-02-09T14:49:43.988Z</time>
      </trkpt>
      <trkpt lat="45.32451" lon="6.22391">
        <ele>1856.6420096</ele>
        <time>2020-02-09T14:49:45.988Z</time>
      </trkpt>
      <trkpt lat="45.32443" lon="6.22397">
        <ele>1855</ele>
        <time>2020-02-09T14:49:49.988Z</time>
      </trkpt>
      <trkpt lat="45.32452" lon="6.22399">
        <ele>1854</ele>
        <time>2020-02-09T14:50:01.988Z</time>
      </trkpt>
      <trkpt lat="45.32452" lon="6.22412">
        <ele>1853</ele>
        <time>2020-02-09T14:50:45.988Z</time>
      </trkpt>
      <trkpt lat="45.32457" lon="6.22424">
        <ele>1849.7152711959</ele>
        <time>2020-02-09T14:51:13.003Z</time>
      </trkpt>
      <trkpt lat="45.32466" lon="6.22419">
        <ele>1848</ele>
        <time>2020-02-09T14:51:24.989Z</time>
      </trkpt>
      <trkpt lat="45.32471" lon="6.22433">
        <ele>1842.64</ele>
        <time>2020-02-09T14:51:29.990Z</time>
      </trkpt>
      <trkpt lat="45.32467" lon="6.22447">
        <ele>1838.64</ele>
        <time>2020-02-09T14:51:32.990Z</time>
      </trkpt>
      <trkpt lat="45.32464" lon="6.22459">
        <ele>1835.6409984</ele>
        <time>2020-02-09T14:51:35.989Z</time>
      </trkpt>
      <trkpt lat="45.32465" lon="6.22473">
        <ele>1830.715273978</ele>
        <time>2020-02-09T14:51:42.003Z</time>
      </trkpt>
      <trkpt lat="45.32463" lon="6.2249">
        <ele>1827.6420096</ele>
        <time>2020-02-09T14:51:45.988Z</time>
      </trkpt>
      <trkpt lat="45.32466" lon="6.22503">
        <ele>1823</ele>
        <time>2020-02-09T14:51:52.002Z</time>
      </trkpt>
      <trkpt lat="45.32475" lon="6.22512">
        <ele>1820</ele>
        <time>2020-02-09T14:52:27.003Z</time>
      </trkpt>
      <trkpt lat="45.32476" lon="6.22527">
        <ele>1816</ele>
        <time>2020-02-09T14:52:42.988Z</time>
      </trkpt>
      <trkpt lat="45.32471" lon="6.22539">
        <ele>1815</ele>
        <time>2020-02-09T14:53:18.988Z</time>
      </trkpt>
      <trkpt lat="45.32462" lon="6.22547">
        <ele>1813.6290048</ele>
        <time>2020-02-09T14:53:22.001Z</time>
      </trkpt>
      <trkpt lat="45.32453" lon="6.22551">
        <ele>1812.6390016</ele>
        <time>2020-02-09T14:53:23.991Z</time>
      </trkpt>
      <trkpt lat="45.32453" lon="6.22567">
        <ele>1804.2819968</ele>
        <time>2020-02-09T14:53:27.989Z</time>
      </trkpt>
      <trkpt lat="45.32454" lon="6.22581">
        <ele>1800.7267131118</ele>
        <time>2020-02-09T14:53:30.988Z</time>
      </trkpt>
      <trkpt lat="45.32454" lon="6.22595">
        <ele>1795.627008</ele>
        <time>2020-02-09T14:53:47.003Z</time>
      </trkpt>
      <trkpt lat="45.32448" lon="6.22604">
        <ele>1792.6420096</ele>
        <time>2020-02-09T14:53:49.988Z</time>
      </trkpt>
      <trkpt lat="45.32458" lon="6.22608">
        <ele>1784.6420096</ele>
        <time>2020-02-09T14:54:09.988Z</time>
      </trkpt>
      <trkpt lat="45.32459" lon="6.22622">
        <ele>1779.6419968</ele>
        <time>2020-02-09T14:54:18.988Z</time>
      </trkpt>
      <trkpt lat="45.32453" lon="6.22611">
        <ele>1778</ele>
        <time>2020-02-09T14:54:54.989Z</time>
      </trkpt>
      <trkpt lat="45.32461" lon="6.22616">
        <ele>1777</ele>
        <time>2020-02-09T14:55:36.988Z</time>
      </trkpt>
      <trkpt lat="45.32452" lon="6.22611">
        <ele>1778</ele>
        <time>2020-02-09T14:56:09.003Z</time>
      </trkpt>
      <trkpt lat="45.32462" lon="6.22612">
        <ele>1777</ele>
        <time>2020-02-09T14:56:20.001Z</time>
      </trkpt>
      <trkpt lat="45.32471" lon="6.22616">
        <ele>1773.6419968</ele>
        <time>2020-02-09T14:56:26.988Z</time>
      </trkpt>
      <trkpt lat="45.32467" lon="6.22629">
        <ele>1766</ele>
        <time>2020-02-09T14:57:35.991Z</time>
      </trkpt>
      <trkpt lat="45.32476" lon="6.22636">
        <ele>1761.7152711959</ele>
        <time>2020-02-09T14:58:31.003Z</time>
      </trkpt>
      <trkpt lat="45.32482" lon="6.22647">
        <ele>1752.6420096</ele>
        <time>2020-02-09T14:58:37.988Z</time>
      </trkpt>
      <trkpt lat="45.3249" lon="6.22653">
        <ele>1749.7152711959</ele>
        <time>2020-02-09T14:58:41.003Z</time>
      </trkpt>
      <trkpt lat="45.32499" lon="6.22663">
        <ele>1746.6409984</ele>
        <time>2020-02-09T14:58:43.989Z</time>
      </trkpt>
      <trkpt lat="45.32503" lon="6.22676">
        <ele>1745</ele>
        <time>2020-02-09T14:58:46.003Z</time>
      </trkpt>
      <trkpt lat="45.32504" lon="6.22693">
        <ele>1742.7267131118</ele>
        <time>2020-02-09T14:58:48.988Z</time>
      </trkpt>
      <trkpt lat="45.32504" lon="6.22707">
        <ele>1741.627008</ele>
        <time>2020-02-09T14:58:51.003Z</time>
      </trkpt>
      <trkpt lat="45.32502" lon="6.22723">
        <ele>1738.2839936</ele>
        <time>2020-02-09T14:58:52.988Z</time>
      </trkpt>
      <trkpt lat="45.32497" lon="6.2274">
        <ele>1734.6409984</ele>
        <time>2020-02-09T14:58:54.989Z</time>
      </trkpt>
      <trkpt lat="45.32498" lon="6.22755">
        <ele>1731.7244266828</ele>
        <time>2020-02-09T14:58:56.991Z</time>
      </trkpt>
      <trkpt lat="45.32501" lon="6.22769">
        <ele>1728.6380032</ele>
        <time>2020-02-09T14:58:58.992Z</time>
      </trkpt>
      <trkpt lat="45.32502" lon="6.22785">
        <ele>1725</ele>
        <time>2020-02-09T14:59:01.001Z</time>
      </trkpt>
      <trkpt lat="45.32505" lon="6.22799">
        <ele>1723.6409984</ele>
        <time>2020-02-09T14:59:02.989Z</time>
      </trkpt>
      <trkpt lat="45.32508" lon="6.22817">
        <ele>1723</ele>
        <time>2020-02-09T14:59:05.998Z</time>
      </trkpt>
      <trkpt lat="45.3251" lon="6.22833">
        <ele>1721.7259509688</ele>
        <time>2020-02-09T14:59:08.989Z</time>
      </trkpt>
      <trkpt lat="45.32511" lon="6.22851">
        <ele>1720</ele>
        <time>2020-02-09T14:59:11.989Z</time>
      </trkpt>
      <trkpt lat="45.32509" lon="6.22866">
        <ele>1718</ele>
        <time>2020-02-09T14:59:14.989Z</time>
      </trkpt>
      <trkpt lat="45.32509" lon="6.22885">
        <ele>1717</ele>
        <time>2020-02-09T14:59:17.988Z</time>
      </trkpt>
      <trkpt lat="45.32506" lon="6.22898">
        <ele>1715.9514745206</ele>
        <time>2020-02-09T14:59:19.989Z</time>
      </trkpt>
      <trkpt lat="45.32506" lon="6.22914">
        <ele>1713.2840192</ele>
        <time>2020-02-09T14:59:21.988Z</time>
      </trkpt>
      <trkpt lat="45.32504" lon="6.22929">
        <ele>1711</ele>
        <time>2020-02-09T14:59:23.992Z</time>
      </trkpt>
      <trkpt lat="45.32503" lon="6.22948">
        <ele>1710</ele>
        <time>2020-02-09T14:59:26.988Z</time>
      </trkpt>
      <trkpt lat="45.32505" lon="6.2296">
        <ele>1708.7267131118</ele>
        <time>2020-02-09T14:59:28.988Z</time>
      </trkpt>
      <trkpt lat="45.3251" lon="6.22972">
        <ele>1706.632</ele>
        <time>2020-02-09T14:59:30.998Z</time>
      </trkpt>
      <trkpt lat="45.32514" lon="6.22984">
        <ele>1705.6419968</ele>
        <time>2020-02-09T14:59:32.988Z</time>
      </trkpt>
      <trkpt lat="45.32519" lon="6.22997">
        <ele>1703.6409984</ele>
        <time>2020-02-09T14:59:34.989Z</time>
      </trkpt>
      <trkpt lat="45.32521" lon="6.23014">
        <ele>1700.7238435635</ele>
        <time>2020-02-09T14:59:37.989Z</time>
      </trkpt>
      <trkpt lat="45.32512" lon="6.23019">
        <ele>1699</ele>
        <time>2020-02-09T14:59:48.991Z</time>
      </trkpt>
      <trkpt lat="45.32503" lon="6.23022">
        <ele>1698</ele>
        <time>2020-02-09T14:59:57.988Z</time>
      </trkpt>
      <trkpt lat="45.32498" lon="6.23011">
        <ele>1699</ele>
        <time>2020-02-09T15:00:22.991Z</time>
      </trkpt>
      <trkpt lat="45.32504" lon="6.23">
        <ele>1699</ele>
        <time>2020-02-09T15:00:30.001Z</time>
      </trkpt>
      <trkpt lat="45.32514" lon="6.23001">
        <ele>1698</ele>
        <time>2020-02-09T15:00:44.988Z</time>
      </trkpt>
      <trkpt lat="45.32523" lon="6.23007">
        <ele>1698</ele>
        <time>2020-02-09T15:01:08.987Z</time>
      </trkpt>
      <trkpt lat="45.32514" lon="6.23003">
        <ele>1699</ele>
        <time>2020-02-09T15:01:58.987Z</time>
      </trkpt>
      <trkpt lat="45.32521" lon="6.23011">
        <ele>1699</ele>
        <time>2020-02-09T15:03:58.002Z</time>
      </trkpt>
      <trkpt lat="45.32513" lon="6.23004">
        <ele>1699</ele>
        <time>2020-02-09T15:04:19.987Z</time>
      </trkpt>
      <trkpt lat="45.32504" lon="6.22994">
        <ele>1698</ele>
        <time>2020-02-09T15:04:27.001Z</time>
      </trkpt>
      <trkpt lat="45.32493" lon="6.22994">
        <ele>1699</ele>
        <time>2020-02-09T15:05:21.001Z</time>
      </trkpt>
      <trkpt lat="45.32502" lon="6.22996">
        <ele>1698</ele>
        <time>2020-02-09T15:05:29.991Z</time>
      </trkpt>
      <trkpt lat="45.32492" lon="6.22998">
        <ele>1699</ele>
        <time>2020-02-09T15:06:34.001Z</time>
      </trkpt>
      <trkpt lat="45.32483" lon="6.23004">
        <ele>1698</ele>
        <time>2020-02-09T15:06:38.001Z</time>
      </trkpt>
      <trkpt lat="45.32479" lon="6.23016">
        <ele>1697</ele>
        <time>2020-02-09T15:07:02.991Z</time>
      </trkpt>
      <trkpt lat="45.32493" lon="6.2302">
        <ele>1697</ele>
        <time>2020-02-09T15:08:30.001Z</time>
      </trkpt>
      <trkpt lat="45.325" lon="6.23009">
        <ele>1697</ele>
        <time>2020-02-09T15:08:33.961Z</time>
      </trkpt>
      <trkpt lat="45.3251" lon="6.23014">
        <ele>1697</ele>
        <time>2020-02-09T15:08:41.991Z</time>
      </trkpt>
      <trkpt lat="45.32523" lon="6.23008">
        <ele>1697</ele>
        <time>2020-02-09T15:08:53.001Z</time>
      </trkpt>
      <trkpt lat="45.32511" lon="6.23013">
        <ele>1697</ele>
        <time>2020-02-09T15:09:00.001Z</time>
      </trkpt>
      <trkpt lat="45.32502" lon="6.23008">
        <ele>1697</ele>
        <time>2020-02-09T15:09:06.003Z</time>
      </trkpt>
      <trkpt lat="45.32492" lon="6.2301">
        <ele>1698</ele>
        <time>2020-02-09T15:09:13.986Z</time>
      </trkpt>
      <trkpt lat="45.32482" lon="6.23009">
        <ele>1698</ele>
        <time>2020-02-09T15:09:25.998Z</time>
      </trkpt>
      <trkpt lat="45.32486" lon="6.23022">
        <ele>1697</ele>
        <time>2020-02-09T15:10:57.989Z</time>
      </trkpt>
      <trkpt lat="45.32487" lon="6.23035">
        <ele>1694.735657161</ele>
        <time>2020-02-09T15:11:03.991Z</time>
      </trkpt>
      <trkpt lat="45.3249" lon="6.2305">
        <ele>1692</ele>
        <time>2020-02-09T15:11:07.991Z</time>
      </trkpt>
      <trkpt lat="45.32495" lon="6.23066">
        <ele>1691.64</ele>
        <time>2020-02-09T15:11:12.990Z</time>
      </trkpt>
      <trkpt lat="45.32494" lon="6.2308">
        <ele>1689.6420096</ele>
        <time>2020-02-09T15:11:15.988Z</time>
      </trkpt>
      <trkpt lat="45.325" lon="6.23097">
        <ele>1685.6409984</ele>
        <time>2020-02-09T15:11:19.989Z</time>
      </trkpt>
      <trkpt lat="45.32501" lon="6.23116">
        <ele>1683.7379764043</ele>
        <time>2020-02-09T15:11:22.988Z</time>
      </trkpt>
      <trkpt lat="45.32506" lon="6.23131">
        <ele>1681.6390016</ele>
        <time>2020-02-09T15:11:24.991Z</time>
      </trkpt>
      <trkpt lat="45.32507" lon="6.23145">
        <ele>1679.6290048</ele>
        <time>2020-02-09T15:11:27.001Z</time>
      </trkpt>
      <trkpt lat="45.32508" lon="6.23163">
        <ele>1679</ele>
        <time>2020-02-09T15:11:29.989Z</time>
      </trkpt>
      <trkpt lat="45.32511" lon="6.23178">
        <ele>1678.7259509688</ele>
        <time>2020-02-09T15:11:32.989Z</time>
      </trkpt>
      <trkpt lat="45.32512" lon="6.23194">
        <ele>1677</ele>
        <time>2020-02-09T15:11:35.991Z</time>
      </trkpt>
      <trkpt lat="45.32509" lon="6.23207">
        <ele>1676</ele>
        <time>2020-02-09T15:11:39.991Z</time>
      </trkpt>
      <trkpt lat="45.32505" lon="6.23219">
        <ele>1675</ele>
        <time>2020-02-09T15:11:44.991Z</time>
      </trkpt>
      <trkpt lat="45.325" lon="6.23235">
        <ele>1674.6390016</ele>
        <time>2020-02-09T15:11:48.991Z</time>
      </trkpt>
      <trkpt lat="45.32495" lon="6.23247">
        <ele>1672.722307556</ele>
        <time>2020-02-09T15:11:50.991Z</time>
      </trkpt>
      <trkpt lat="45.32487" lon="6.23254">
        <ele>1672</ele>
        <time>2020-02-09T15:11:53.986Z</time>
      </trkpt>
      <trkpt lat="45.32482" lon="6.23268">
        <ele>1672</ele>
        <time>2020-02-09T15:12:07.001Z</time>
      </trkpt>
      <trkpt lat="45.32474" lon="6.23278">
        <ele>1670.6390016</ele>
        <time>2020-02-09T15:12:10.991Z</time>
      </trkpt>
      <trkpt lat="45.32467" lon="6.23287">
        <ele>1669.6280064</ele>
        <time>2020-02-09T15:12:17.002Z</time>
      </trkpt>
      <trkpt lat="45.32476" lon="6.2328">
        <ele>1666</ele>
        <time>2020-02-09T15:12:22.992Z</time>
      </trkpt>
      <trkpt lat="45.32485" lon="6.23277">
        <ele>1665</ele>
        <time>2020-02-09T15:12:42.102Z</time>
      </trkpt>
      <trkpt lat="45.32496" lon="6.23276">
        <ele>1664</ele>
        <time>2020-02-09T15:12:49.986Z</time>
      </trkpt>
      <trkpt lat="45.32505" lon="6.23274">
        <ele>1659.64</ele>
        <time>2020-02-09T15:13:02.990Z</time>
      </trkpt>
      <trkpt lat="45.32515" lon="6.23267">
        <ele>1651.6390016</ele>
        <time>2020-02-09T15:13:07.991Z</time>
      </trkpt>
      <trkpt lat="45.32521" lon="6.23277">
        <ele>1646.7259509688</ele>
        <time>2020-02-09T15:13:12.989Z</time>
      </trkpt>
      <trkpt lat="45.32527" lon="6.23289">
        <ele>1643.6409984</ele>
        <time>2020-02-09T15:13:17.989Z</time>
      </trkpt>
      <trkpt lat="45.32526" lon="6.23302">
        <ele>1640.6290048</ele>
        <time>2020-02-09T15:13:22.001Z</time>
      </trkpt>
      <trkpt lat="45.32519" lon="6.23316">
        <ele>1639</ele>
        <time>2020-02-09T15:13:25.001Z</time>
      </trkpt>
      <trkpt lat="45.32512" lon="6.23325">
        <ele>1636.6390016</ele>
        <time>2020-02-09T15:13:48.991Z</time>
      </trkpt>
      <trkpt lat="45.32503" lon="6.23333">
        <ele>1628.6452350234</ele>
        <time>2020-02-09T15:14:05.127Z</time>
      </trkpt>
      <trkpt lat="45.32499" lon="6.23348">
        <ele>1626.6290048</ele>
        <time>2020-02-09T15:14:08.001Z</time>
      </trkpt>
      <trkpt lat="45.32495" lon="6.23363">
        <ele>1623</ele>
        <time>2020-02-09T15:14:19.002Z</time>
      </trkpt>
      <trkpt lat="45.32493" lon="6.23375">
        <ele>1615</ele>
        <time>2020-02-09T15:14:40.991Z</time>
      </trkpt>
      <trkpt lat="45.32485" lon="6.23387">
        <ele>1612.7265163636</ele>
        <time>2020-02-09T15:14:46.991Z</time>
      </trkpt>
      <trkpt lat="45.32475" lon="6.23395">
        <ele>1606</ele>
        <time>2020-02-09T15:15:06.989Z</time>
      </trkpt>
      <trkpt lat="45.32473" lon="6.23409">
        <ele>1603.64</ele>
        <time>2020-02-09T15:15:10.990Z</time>
      </trkpt>
      <trkpt lat="45.32473" lon="6.23423">
        <ele>1596.6460777793</ele>
        <time>2020-02-09T15:15:15.991Z</time>
      </trkpt>
      <trkpt lat="45.32473" lon="6.23437">
        <ele>1592.6290048</ele>
        <time>2020-02-09T15:15:19.001Z</time>
      </trkpt>
      <trkpt lat="45.32469" lon="6.23451">
        <ele>1589.721806248</ele>
        <time>2020-02-09T15:15:24.000Z</time>
      </trkpt>
      <trkpt lat="45.32466" lon="6.23463">
        <ele>1585.6259968</ele>
        <time>2020-02-09T15:15:31.004Z</time>
      </trkpt>
      <trkpt lat="45.32461" lon="6.23474">
        <ele>1584</ele>
        <time>2020-02-09T15:15:51.001Z</time>
      </trkpt>
      <trkpt lat="45.32458" lon="6.23491">
        <ele>1581</ele>
        <time>2020-02-09T15:15:55.989Z</time>
      </trkpt>
      <trkpt lat="45.32457" lon="6.23508">
        <ele>1578.6259968</ele>
        <time>2020-02-09T15:15:59.004Z</time>
      </trkpt>
      <trkpt lat="45.32454" lon="6.23524">
        <ele>1573.7189430303</ele>
        <time>2020-02-09T15:16:04.001Z</time>
      </trkpt>
      <trkpt lat="45.32452" lon="6.23542">
        <ele>1568.9414303216</ele>
        <time>2020-02-09T15:16:06.991Z</time>
      </trkpt>
      <trkpt lat="45.32448" lon="6.23554">
        <ele>1567</ele>
        <time>2020-02-09T15:16:09.001Z</time>
      </trkpt>
      <trkpt lat="45.32439" lon="6.23562">
        <ele>1566</ele>
        <time>2020-02-09T15:16:14.001Z</time>
      </trkpt>
      <trkpt lat="45.32435" lon="6.23574">
        <ele>1565</ele>
        <time>2020-02-09T15:16:26.001Z</time>
      </trkpt>
      <trkpt lat="45.3243" lon="6.23589">
        <ele>1564</ele>
        <time>2020-02-09T15:16:28.987Z</time>
      </trkpt>
      <trkpt lat="45.32421" lon="6.23594">
        <ele>1561.6362769335</ele>
        <time>2020-02-09T15:16:34.001Z</time>
      </trkpt>
      <trkpt lat="45.32416" lon="6.23605">
        <ele>1552.7057348498</ele>
        <time>2020-02-09T15:16:40.989Z</time>
      </trkpt>
      <trkpt lat="45.32404" lon="6.23601">
        <ele>1550</ele>
        <time>2020-02-09T15:16:46.001Z</time>
      </trkpt>
      <trkpt lat="45.32395" lon="6.23609">
        <ele>1549.7160361135</ele>
        <time>2020-02-09T15:16:58.002Z</time>
      </trkpt>
      <trkpt lat="45.32387" lon="6.23618">
        <ele>1547</ele>
        <time>2020-02-09T15:17:02.001Z</time>
      </trkpt>
      <trkpt lat="45.32378" lon="6.23612">
        <ele>1544</ele>
        <time>2020-02-09T15:17:19.001Z</time>
      </trkpt>
      <trkpt lat="45.32386" lon="6.23621">
        <ele>1543</ele>
        <time>2020-02-09T15:18:02.001Z</time>
      </trkpt>
      <trkpt lat="45.32379" lon="6.23631">
        <ele>1539.6290048</ele>
        <time>2020-02-09T15:18:07.001Z</time>
      </trkpt>
      <trkpt lat="45.32377" lon="6.23645">
        <ele>1539</ele>
        <time>2020-02-09T15:18:11.001Z</time>
      </trkpt>
      <trkpt lat="45.32368" lon="6.23648">
        <ele>1539.9128510825</ele>
        <time>2020-02-09T15:18:20.001Z</time>
      </trkpt>
      <trkpt lat="45.32374" lon="6.23658">
        <ele>1535.6290048</ele>
        <time>2020-02-09T15:18:28.001Z</time>
      </trkpt>
      <trkpt lat="45.32367" lon="6.23669">
        <ele>1528.6290048</ele>
        <time>2020-02-09T15:18:52.001Z</time>
      </trkpt>
      <trkpt lat="45.32367" lon="6.23683">
        <ele>1527.6290048</ele>
        <time>2020-02-09T15:18:56.001Z</time>
      </trkpt>
      <trkpt lat="45.32357" lon="6.23684">
        <ele>1527</ele>
        <time>2020-02-09T15:19:02.001Z</time>
      </trkpt>
      <trkpt lat="45.32348" lon="6.2369">
        <ele>1524</ele>
        <time>2020-02-09T15:19:09.001Z</time>
      </trkpt>
      <trkpt lat="45.32338" lon="6.23693">
        <ele>1522.6290048</ele>
        <time>2020-02-09T15:19:11.001Z</time>
      </trkpt>
      <trkpt lat="45.32328" lon="6.23695">
        <ele>1521</ele>
        <time>2020-02-09T15:19:13.001Z</time>
      </trkpt>
      <trkpt lat="45.32319" lon="6.23701">
        <ele>1520</ele>
        <time>2020-02-09T15:19:16.001Z</time>
      </trkpt>
      <trkpt lat="45.32315" lon="6.23713">
        <ele>1519</ele>
        <time>2020-02-09T15:19:35.001Z</time>
      </trkpt>
      <trkpt lat="45.32308" lon="6.23721">
        <ele>1516</ele>
        <time>2020-02-09T15:19:46.001Z</time>
      </trkpt>
      <trkpt lat="45.32317" lon="6.23723">
        <ele>1509</ele>
        <time>2020-02-09T15:20:11.001Z</time>
      </trkpt>
      <trkpt lat="45.32329" lon="6.23726">
        <ele>1509</ele>
        <time>2020-02-09T15:20:19.001Z</time>
      </trkpt>
      <trkpt lat="45.32324" lon="6.23737">
        <ele>1505.8305422222</ele>
        <time>2020-02-09T15:20:32.991Z</time>
      </trkpt>
      <trkpt lat="45.32321" lon="6.2375">
        <ele>1500</ele>
        <time>2020-02-09T15:20:42.991Z</time>
      </trkpt>
      <trkpt lat="45.32332" lon="6.23767">
        <ele>1500</ele>
        <time>2020-02-09T15:20:47.001Z</time>
      </trkpt>
      <trkpt lat="45.3234" lon="6.23772">
        <ele>1497.6290048</ele>
        <time>2020-02-09T15:20:53.001Z</time>
      </trkpt>
      <trkpt lat="45.32337" lon="6.23759">
        <ele>1496</ele>
        <time>2020-02-09T15:21:03.001Z</time>
      </trkpt>
      <trkpt lat="45.32349" lon="6.23757">
        <ele>1496</ele>
        <time>2020-02-09T15:21:09.001Z</time>
      </trkpt>
      <trkpt lat="45.3234" lon="6.23748">
        <ele>1496</ele>
        <time>2020-02-09T15:21:18.001Z</time>
      </trkpt>
      <trkpt lat="45.32331" lon="6.23747">
        <ele>1496</ele>
        <time>2020-02-09T15:21:23.001Z</time>
      </trkpt>
      <trkpt lat="45.32339" lon="6.23752">
        <ele>1496</ele>
        <time>2020-02-09T15:21:33.991Z</time>
      </trkpt>
      <trkpt lat="45.32348" lon="6.23749">
        <ele>1496</ele>
        <time>2020-02-09T15:21:41.991Z</time>
      </trkpt>
      <trkpt lat="45.32339" lon="6.23745">
        <ele>1496</ele>
        <time>2020-02-09T15:21:50.991Z</time>
      </trkpt>
      <trkpt lat="45.32345" lon="6.23756">
        <ele>1495</ele>
        <time>2020-02-09T15:22:01.001Z</time>
      </trkpt>
      <trkpt lat="45.32341" lon="6.23771">
        <ele>1494.6290048</ele>
        <time>2020-02-09T15:22:03.001Z</time>
      </trkpt>
      <trkpt lat="45.32332" lon="6.23782">
        <ele>1492.643008</ele>
        <time>2020-02-09T15:22:04.987Z</time>
      </trkpt>
      <trkpt lat="45.32321" lon="6.23788">
        <ele>1489.9180444444</ele>
        <time>2020-02-09T15:22:07.989Z</time>
      </trkpt>
      <trkpt lat="45.32331" lon="6.23792">
        <ele>1488</ele>
        <time>2020-02-09T15:22:18.991Z</time>
      </trkpt>
      <trkpt lat="45.32325" lon="6.23803">
        <ele>1487.6290048</ele>
        <time>2020-02-09T15:22:24.001Z</time>
      </trkpt>
      <trkpt lat="45.32313" lon="6.23807">
        <ele>1487</ele>
        <time>2020-02-09T15:22:30.001Z</time>
      </trkpt>
      <trkpt lat="45.32303" lon="6.23813">
        <ele>1486</ele>
        <time>2020-02-09T15:22:32.989Z</time>
      </trkpt>
      <trkpt lat="45.32294" lon="6.23812">
        <ele>1484.6390016</ele>
        <time>2020-02-09T15:22:34.991Z</time>
      </trkpt>
      <trkpt lat="45.32279" lon="6.23811">
        <ele>1482.714617672</ele>
        <time>2020-02-09T15:22:38.001Z</time>
      </trkpt>
      <trkpt lat="45.32271" lon="6.23818">
        <ele>1479.6290048</ele>
        <time>2020-02-09T15:22:40.001Z</time>
      </trkpt>
      <trkpt lat="45.32262" lon="6.23828">
        <ele>1478.6280064</ele>
        <time>2020-02-09T15:22:42.002Z</time>
      </trkpt>
      <trkpt lat="45.3225" lon="6.23834">
        <ele>1476.6520381908</ele>
        <time>2020-02-09T15:22:43.991Z</time>
      </trkpt>
      <trkpt lat="45.32236" lon="6.23835">
        <ele>1474.9441195663</ele>
        <time>2020-02-09T15:22:45.987Z</time>
      </trkpt>
      <trkpt lat="45.32227" lon="6.23834">
        <ele>1472.6409984</ele>
        <time>2020-02-09T15:22:47.989Z</time>
      </trkpt>
      <trkpt lat="45.32217" lon="6.23838">
        <ele>1469</ele>
        <time>2020-02-09T15:22:56.001Z</time>
      </trkpt>
      <trkpt lat="45.32224" lon="6.23848">
        <ele>1469</ele>
        <time>2020-02-09T15:23:08.005Z</time>
      </trkpt>
      <trkpt lat="45.32215" lon="6.23854">
        <ele>1468</ele>
        <time>2020-02-09T15:23:16.000Z</time>
      </trkpt>
      <trkpt lat="45.32198" lon="6.23867">
        <ele>1461.7751539882</ele>
        <time>2020-02-09T15:23:23.001Z</time>
      </trkpt>
      <trkpt lat="45.32189" lon="6.23871">
        <ele>1456.6259968</ele>
        <time>2020-02-09T15:23:29.004Z</time>
      </trkpt>
      <trkpt lat="45.32182" lon="6.23886">
        <ele>1451.632676856</ele>
        <time>2020-02-09T15:23:39.001Z</time>
      </trkpt>
      <trkpt lat="45.32176" lon="6.23897">
        <ele>1450</ele>
        <time>2020-02-09T15:23:41.001Z</time>
      </trkpt>
      <trkpt lat="45.32163" lon="6.23904">
        <ele>1448.7631578947</ele>
        <time>2020-02-09T15:23:44.990Z</time>
      </trkpt>
      <trkpt lat="45.32153" lon="6.23904">
        <ele>1446.6290048</ele>
        <time>2020-02-09T15:23:50.001Z</time>
      </trkpt>
      <trkpt lat="45.32144" lon="6.23912">
        <ele>1444</ele>
        <time>2020-02-09T15:23:53.989Z</time>
      </trkpt>
      <trkpt lat="45.32138" lon="6.23927">
        <ele>1444</ele>
        <time>2020-02-09T15:23:59.999Z</time>
      </trkpt>
      <trkpt lat="45.3214" lon="6.2394">
        <ele>1437.7824228508</ele>
        <time>2020-02-09T15:24:19.989Z</time>
      </trkpt>
      <trkpt lat="45.32133" lon="6.23951">
        <ele>1434</ele>
        <time>2020-02-09T15:24:27.001Z</time>
      </trkpt>
      <trkpt lat="45.32126" lon="6.23962">
        <ele>1432.643008</ele>
        <time>2020-02-09T15:24:35.987Z</time>
      </trkpt>
      <trkpt lat="45.32129" lon="6.23975">
        <ele>1424</ele>
        <time>2020-02-09T15:25:01.997Z</time>
      </trkpt>
      <trkpt lat="45.32121" lon="6.23987">
        <ele>1423</ele>
        <time>2020-02-09T15:25:04.987Z</time>
      </trkpt>
      <trkpt lat="45.32114" lon="6.23999">
        <ele>1421.7259536465</ele>
        <time>2020-02-09T15:25:07.989Z</time>
      </trkpt>
      <trkpt lat="45.32104" lon="6.24009">
        <ele>1419.6445517451</ele>
        <time>2020-02-09T15:25:12.989Z</time>
      </trkpt>
      <trkpt lat="45.32094" lon="6.24019">
        <ele>1418.7167954819</ele>
        <time>2020-02-09T15:25:17.001Z</time>
      </trkpt>
      <trkpt lat="45.3209" lon="6.24033">
        <ele>1417</ele>
        <time>2020-02-09T15:25:27.001Z</time>
      </trkpt>
      <trkpt lat="45.32079" lon="6.24038">
        <ele>1415.716798249</ele>
        <time>2020-02-09T15:25:32.001Z</time>
      </trkpt>
      <trkpt lat="45.3207" lon="6.24045">
        <ele>1413.6290048</ele>
        <time>2020-02-09T15:25:34.001Z</time>
      </trkpt>
      <trkpt lat="45.3206" lon="6.24052">
        <ele>1410.9300016457</ele>
        <time>2020-02-09T15:25:36.989Z</time>
      </trkpt>
      <trkpt lat="45.3205" lon="6.24053">
        <ele>1407.6420096</ele>
        <time>2020-02-09T15:25:41.988Z</time>
      </trkpt>
      <trkpt lat="45.32041" lon="6.24061">
        <ele>1406</ele>
        <time>2020-02-09T15:25:48.001Z</time>
      </trkpt>
      <trkpt lat="45.32031" lon="6.24061">
        <ele>1405</ele>
        <time>2020-02-09T15:25:56.988Z</time>
      </trkpt>
      <trkpt lat="45.32022" lon="6.24066">
        <ele>1402.6290048</ele>
        <time>2020-02-09T15:26:02.001Z</time>
      </trkpt>
      <trkpt lat="45.32014" lon="6.24076">
        <ele>1401.6259968</ele>
        <time>2020-02-09T15:26:05.004Z</time>
      </trkpt>
      <trkpt lat="45.32005" lon="6.24074">
        <ele>1399.627008</ele>
        <time>2020-02-09T15:26:10.003Z</time>
      </trkpt>
      <trkpt lat="45.31997" lon="6.24083">
        <ele>1397</ele>
        <time>2020-02-09T15:26:23.989Z</time>
      </trkpt>
      <trkpt lat="45.31996" lon="6.24099">
        <ele>1393.9039002108</ele>
        <time>2020-02-09T15:26:33.989Z</time>
      </trkpt>
      <trkpt lat="45.31987" lon="6.24108">
        <ele>1390.6300032</ele>
        <time>2020-02-09T15:26:36.000Z</time>
      </trkpt>
      <trkpt lat="45.31978" lon="6.24117">
        <ele>1388.64</ele>
        <time>2020-02-09T15:26:37.990Z</time>
      </trkpt>
      <trkpt lat="45.31971" lon="6.2413">
        <ele>1385.627008</ele>
        <time>2020-02-09T15:26:41.003Z</time>
      </trkpt>
      <trkpt lat="45.31965" lon="6.24147">
        <ele>1381.7259509688</ele>
        <time>2020-02-09T15:26:44.989Z</time>
      </trkpt>
      <trkpt lat="45.31958" lon="6.24162">
        <ele>1378.6390016</ele>
        <time>2020-02-09T15:26:47.991Z</time>
      </trkpt>
      <trkpt lat="45.31953" lon="6.24177">
        <ele>1376.633339367</ele>
        <time>2020-02-09T15:26:51.003Z</time>
      </trkpt>
      <trkpt lat="45.3195" lon="6.24189">
        <ele>1374.6420096</ele>
        <time>2020-02-09T15:26:53.988Z</time>
      </trkpt>
      <trkpt lat="45.31945" lon="6.24205">
        <ele>1372</ele>
        <time>2020-02-09T15:26:57.991Z</time>
      </trkpt>
      <trkpt lat="45.31942" lon="6.24217">
        <ele>1370</ele>
        <time>2020-02-09T15:27:06.003Z</time>
      </trkpt>
      <trkpt lat="45.31933" lon="6.24214">
        <ele>1370</ele>
        <time>2020-02-09T15:28:09.991Z</time>
      </trkpt>
      <trkpt lat="45.31928" lon="6.24226">
        <ele>1369</ele>
        <time>2020-02-09T15:28:22.003Z</time>
      </trkpt>
      <trkpt lat="45.31922" lon="6.24238">
        <ele>1366.6409984</ele>
        <time>2020-02-09T15:28:24.989Z</time>
      </trkpt>
      <trkpt lat="45.31917" lon="6.24249">
        <ele>1365</ele>
        <time>2020-02-09T15:28:27.003Z</time>
      </trkpt>
      <trkpt lat="45.31913" lon="6.24263">
        <ele>1363.7379764043</ele>
        <time>2020-02-09T15:28:28.988Z</time>
      </trkpt>
      <trkpt lat="45.31904" lon="6.24277">
        <ele>1361</ele>
        <time>2020-02-09T15:28:31.999Z</time>
      </trkpt>
      <trkpt lat="45.31894" lon="6.24284">
        <ele>1359</ele>
        <time>2020-02-09T15:28:34.990Z</time>
      </trkpt>
      <trkpt lat="45.31885" lon="6.2429">
        <ele>1357</ele>
        <time>2020-02-09T15:28:38.989Z</time>
      </trkpt>
      <trkpt lat="45.31877" lon="6.24296">
        <ele>1356</ele>
        <time>2020-02-09T15:28:46.001Z</time>
      </trkpt>
      <trkpt lat="45.31871" lon="6.24308">
        <ele>1356</ele>
        <time>2020-02-09T15:29:09.001Z</time>
      </trkpt>
      <trkpt lat="45.31862" lon="6.24303">
        <ele>1354.6409984</ele>
        <time>2020-02-09T15:29:34.989Z</time>
      </trkpt>
      <trkpt lat="45.31852" lon="6.24306">
        <ele>1354</ele>
        <time>2020-02-09T15:29:39.988Z</time>
      </trkpt>
      <trkpt lat="45.3184" lon="6.24299">
        <ele>1353</ele>
        <time>2020-02-09T15:29:42.989Z</time>
      </trkpt>
      <trkpt lat="45.31828" lon="6.24295">
        <ele>1351.7244293754</ele>
        <time>2020-02-09T15:29:45.991Z</time>
      </trkpt>
      <trkpt lat="45.31819" lon="6.24291">
        <ele>1349.6420096</ele>
        <time>2020-02-09T15:29:47.988Z</time>
      </trkpt>
      <trkpt lat="45.31807" lon="6.24286">
        <ele>1346.6455402631</ele>
        <time>2020-02-09T15:29:50.988Z</time>
      </trkpt>
      <trkpt lat="45.31798" lon="6.24282">
        <ele>1345.6419968</ele>
        <time>2020-02-09T15:29:52.988Z</time>
      </trkpt>
      <trkpt lat="45.31789" lon="6.24284">
        <ele>1344</ele>
        <time>2020-02-09T15:30:04.990Z</time>
      </trkpt>
      <trkpt lat="45.31779" lon="6.24283">
        <ele>1342</ele>
        <time>2020-02-09T15:30:30.989Z</time>
      </trkpt>
      <trkpt lat="45.31771" lon="6.24277">
        <ele>1341</ele>
        <time>2020-02-09T15:31:42.989Z</time>
      </trkpt>
      <trkpt lat="45.31761" lon="6.24273">
        <ele>1341</ele>
        <time>2020-02-09T15:31:46.989Z</time>
      </trkpt>
      <trkpt lat="45.3175" lon="6.24273">
        <ele>1340</ele>
        <time>2020-02-09T15:31:49.990Z</time>
      </trkpt>
      <trkpt lat="45.31739" lon="6.24273">
        <ele>1338</ele>
        <time>2020-02-09T15:31:52.991Z</time>
      </trkpt>
      <trkpt lat="45.31746" lon="6.24282">
        <ele>1338.7757590803</ele>
        <time>2020-02-09T15:32:34.000Z</time>
      </trkpt>
      <trkpt lat="45.31752" lon="6.24292">
        <ele>1337.28</ele>
        <time>2020-02-09T15:32:35.990Z</time>
      </trkpt>
      <trkpt lat="45.31755" lon="6.24309">
        <ele>1333.28</ele>
        <time>2020-02-09T15:32:37.990Z</time>
      </trkpt>
      <trkpt lat="45.31756" lon="6.24326">
        <ele>1329.28</ele>
        <time>2020-02-09T15:32:40.990Z</time>
      </trkpt>
      <trkpt lat="45.31758" lon="6.24345">
        <ele>1326</ele>
        <time>2020-02-09T15:32:44.001Z</time>
      </trkpt>
      <trkpt lat="45.31758" lon="6.24357">
        <ele>1325</ele>
        <time>2020-02-09T15:32:46.990Z</time>
      </trkpt>
      <trkpt lat="45.3175" lon="6.24365">
        <ele>1323</ele>
        <time>2020-02-09T15:32:55.988Z</time>
      </trkpt>
      <trkpt lat="45.31743" lon="6.24377">
        <ele>1321.6310016</ele>
        <time>2020-02-09T15:32:58.999Z</time>
      </trkpt>
      <trkpt lat="45.31737" lon="6.24386">
        <ele>1320.6409984</ele>
        <time>2020-02-09T15:33:04.989Z</time>
      </trkpt>
      <trkpt lat="45.31737" lon="6.24401">
        <ele>1317.725191511</ele>
        <time>2020-02-09T15:33:07.990Z</time>
      </trkpt>
      <trkpt lat="45.31735" lon="6.24415">
        <ele>1315.726725553</ele>
        <time>2020-02-09T15:33:11.988Z</time>
      </trkpt>
      <trkpt lat="45.31734" lon="6.24429">
        <ele>1312</ele>
        <time>2020-02-09T15:33:19.004Z</time>
      </trkpt>
      <trkpt lat="45.31735" lon="6.24444">
        <ele>1309</ele>
        <time>2020-02-09T15:33:24.000Z</time>
      </trkpt>
      <trkpt lat="45.31729" lon="6.24458">
        <ele>1307</ele>
        <time>2020-02-09T15:33:29.000Z</time>
      </trkpt>
      <trkpt lat="45.31725" lon="6.2447">
        <ele>1304.7183225201</ele>
        <time>2020-02-09T15:33:33.999Z</time>
      </trkpt>
      <trkpt lat="45.31727" lon="6.24483">
        <ele>1301.928575347</ele>
        <time>2020-02-09T15:33:50.990Z</time>
      </trkpt>
      <trkpt lat="45.31722" lon="6.24494">
        <ele>1299</ele>
        <time>2020-02-09T15:33:59.001Z</time>
      </trkpt>
      <trkpt lat="45.31714" lon="6.245">
        <ele>1297</ele>
        <time>2020-02-09T15:34:06.991Z</time>
      </trkpt>
      <trkpt lat="45.31706" lon="6.2451">
        <ele>1297</ele>
        <time>2020-02-09T15:34:13.989Z</time>
      </trkpt>
      <trkpt lat="45.31711" lon="6.24522">
        <ele>1297</ele>
        <time>2020-02-09T15:34:24.001Z</time>
      </trkpt>
      <trkpt lat="45.31702" lon="6.24515">
        <ele>1297</ele>
        <time>2020-02-09T15:34:30.004Z</time>
      </trkpt>
      <trkpt lat="45.31693" lon="6.24511">
        <ele>1297</ele>
        <time>2020-02-09T15:34:47.989Z</time>
      </trkpt>
      <trkpt lat="45.31682" lon="6.24513">
        <ele>1297</ele>
        <time>2020-02-09T15:34:53.001Z</time>
      </trkpt>
      <trkpt lat="45.31677" lon="6.24525">
        <ele>1295</ele>
        <time>2020-02-09T15:35:30.001Z</time>
      </trkpt>
      <trkpt lat="45.31667" lon="6.24527">
        <ele>1294</ele>
        <time>2020-02-09T15:36:29.989Z</time>
      </trkpt>
      <trkpt lat="45.31658" lon="6.24526">
        <ele>1294</ele>
        <time>2020-02-09T15:37:05.989Z</time>
      </trkpt>
      <trkpt lat="45.31649" lon="6.24524">
        <ele>1293</ele>
        <time>2020-02-09T15:37:16.989Z</time>
      </trkpt>
      <trkpt lat="45.31644" lon="6.24536">
        <ele>1293</ele>
        <time>2020-02-09T15:37:28.991Z</time>
      </trkpt>
      <trkpt lat="45.31636" lon="6.24548">
        <ele>1290.64</ele>
        <time>2020-02-09T15:37:31.990Z</time>
      </trkpt>
      <trkpt lat="45.3163" lon="6.24562">
        <ele>1288.7251888258</ele>
        <time>2020-02-09T15:37:34.990Z</time>
      </trkpt>
      <trkpt lat="45.31633" lon="6.24576">
        <ele>1286.28</ele>
        <time>2020-02-09T15:37:36.990Z</time>
      </trkpt>
      <trkpt lat="45.31638" lon="6.24589">
        <ele>1282.8281892262</ele>
        <time>2020-02-09T15:37:39.001Z</time>
      </trkpt>
      <trkpt lat="45.31638" lon="6.24607">
        <ele>1278</ele>
        <time>2020-02-09T15:37:42.001Z</time>
      </trkpt>
      <trkpt lat="45.31635" lon="6.24619">
        <ele>1276.6290048</ele>
        <time>2020-02-09T15:37:44.001Z</time>
      </trkpt>
      <trkpt lat="45.31627" lon="6.2463">
        <ele>1274.714617672</ele>
        <time>2020-02-09T15:37:46.001Z</time>
      </trkpt>
      <trkpt lat="45.31625" lon="6.24643">
        <ele>1271.6290048</ele>
        <time>2020-02-09T15:37:48.001Z</time>
      </trkpt>
      <trkpt lat="45.3162" lon="6.24657">
        <ele>1267</ele>
        <time>2020-02-09T15:38:06.001Z</time>
      </trkpt>
      <trkpt lat="45.31616" lon="6.2467">
        <ele>1265.6290048</ele>
        <time>2020-02-09T15:38:08.001Z</time>
      </trkpt>
      <trkpt lat="45.31616" lon="6.24684">
        <ele>1262.64</ele>
        <time>2020-02-09T15:38:10.990Z</time>
      </trkpt>
      <trkpt lat="45.3162" lon="6.24697">
        <ele>1261</ele>
        <time>2020-02-09T15:38:14.990Z</time>
      </trkpt>
      <trkpt lat="45.31617" lon="6.2471">
        <ele>1255</ele>
        <time>2020-02-09T15:38:49.001Z</time>
      </trkpt>
      <trkpt lat="45.31623" lon="6.2472">
        <ele>1253.6464625569</ele>
        <time>2020-02-09T15:38:51.990Z</time>
      </trkpt>
      <trkpt lat="45.31628" lon="6.24734">
        <ele>1251</ele>
        <time>2020-02-09T15:38:56.990Z</time>
      </trkpt>
      <trkpt lat="45.3163" lon="6.2475">
        <ele>1247.632676856</ele>
        <time>2020-02-09T15:39:05.001Z</time>
      </trkpt>
      <trkpt lat="45.31632" lon="6.24763">
        <ele>1247</ele>
        <time>2020-02-09T15:39:07.001Z</time>
      </trkpt>
      <trkpt lat="45.31628" lon="6.24776">
        <ele>1246</ele>
        <time>2020-02-09T15:39:13.000Z</time>
      </trkpt>
      <trkpt lat="45.3163" lon="6.24792">
        <ele>1244</ele>
        <time>2020-02-09T15:40:06.001Z</time>
      </trkpt>
      <trkpt lat="45.31621" lon="6.24797">
        <ele>1244</ele>
        <time>2020-02-09T15:40:16.990Z</time>
      </trkpt>
      <trkpt lat="45.31616" lon="6.24808">
        <ele>1242</ele>
        <time>2020-02-09T15:40:21.989Z</time>
      </trkpt>
      <trkpt lat="45.31615" lon="6.24821">
        <ele>1240.7238435635</ele>
        <time>2020-02-09T15:40:25.989Z</time>
      </trkpt>
      <trkpt lat="45.31609" lon="6.24831">
        <ele>1239</ele>
        <time>2020-02-09T15:40:33.999Z</time>
      </trkpt>
      <trkpt lat="45.31605" lon="6.24844">
        <ele>1238</ele>
        <time>2020-02-09T15:40:39.001Z</time>
      </trkpt>
      <trkpt lat="45.31601" lon="6.24856">
        <ele>1237.64</ele>
        <time>2020-02-09T15:40:45.990Z</time>
      </trkpt>
      <trkpt lat="45.31593" lon="6.24863">
        <ele>1237</ele>
        <time>2020-02-09T15:40:52.005Z</time>
      </trkpt>
      <trkpt lat="45.31593" lon="6.24876">
        <ele>1234.7167954819</ele>
        <time>2020-02-09T15:41:15.001Z</time>
      </trkpt>
      <trkpt lat="45.31589" lon="6.24889">
        <ele>1233.6290048</ele>
        <time>2020-02-09T15:41:17.001Z</time>
      </trkpt>
      <trkpt lat="45.31585" lon="6.24903">
        <ele>1231.64</ele>
        <time>2020-02-09T15:41:18.990Z</time>
      </trkpt>
      <trkpt lat="45.31583" lon="6.2492">
        <ele>1230.64</ele>
        <time>2020-02-09T15:41:20.990Z</time>
      </trkpt>
      <trkpt lat="45.31581" lon="6.24935">
        <ele>1227.6300032</ele>
        <time>2020-02-09T15:41:23.000Z</time>
      </trkpt>
      <trkpt lat="45.31578" lon="6.2495">
        <ele>1224.4488533656</ele>
        <time>2020-02-09T15:41:24.991Z</time>
      </trkpt>
      <trkpt lat="45.31571" lon="6.24964">
        <ele>1221.928575347</ele>
        <time>2020-02-09T15:41:26.990Z</time>
      </trkpt>
      <trkpt lat="45.31562" lon="6.24971">
        <ele>1220</ele>
        <time>2020-02-09T15:41:28.990Z</time>
      </trkpt>
      <trkpt lat="45.31557" lon="6.24989">
        <ele>1217.28</ele>
        <time>2020-02-09T15:41:31.990Z</time>
      </trkpt>
      <trkpt lat="45.31559" lon="6.25007">
        <ele>1214.725191511</ele>
        <time>2020-02-09T15:41:33.990Z</time>
      </trkpt>
      <trkpt lat="45.31558" lon="6.25025">
        <ele>1211.64</ele>
        <time>2020-02-09T15:41:35.990Z</time>
      </trkpt>
      <trkpt lat="45.31557" lon="6.25043">
        <ele>1208.6300032</ele>
        <time>2020-02-09T15:41:38.000Z</time>
      </trkpt>
      <trkpt lat="45.31562" lon="6.25055">
        <ele>1205.6420096</ele>
        <time>2020-02-09T15:41:39.988Z</time>
      </trkpt>
      <trkpt lat="45.31571" lon="6.25061">
        <ele>1203.722307556</ele>
        <time>2020-02-09T15:41:41.991Z</time>
      </trkpt>
      <trkpt lat="45.31579" lon="6.25054">
        <ele>1200.6420096</ele>
        <time>2020-02-09T15:41:55.988Z</time>
      </trkpt>
      <trkpt lat="45.31588" lon="6.25057">
        <ele>1199</ele>
        <time>2020-02-09T15:42:09.000Z</time>
      </trkpt>
      <trkpt lat="45.3159" lon="6.25044">
        <ele>1199</ele>
        <time>2020-02-09T15:42:48.001Z</time>
      </trkpt>
      <trkpt lat="45.31596" lon="6.25055">
        <ele>1199</ele>
        <time>2020-02-09T15:42:58.001Z</time>
      </trkpt>
      <trkpt lat="45.31604" lon="6.25048">
        <ele>1199</ele>
        <time>2020-02-09T15:43:08.001Z</time>
      </trkpt>
      <trkpt lat="45.31612" lon="6.25053">
        <ele>1197.6300032</ele>
        <time>2020-02-09T15:43:19.000Z</time>
      </trkpt>
      <trkpt lat="45.31615" lon="6.25068">
        <ele>1197</ele>
        <time>2020-02-09T15:43:30.001Z</time>
      </trkpt>
      <trkpt lat="45.31605" lon="6.25064">
        <ele>1197</ele>
        <time>2020-02-09T15:43:45.001Z</time>
      </trkpt>
      <trkpt lat="45.31607" lon="6.25049">
        <ele>1197.2725123114</ele>
        <time>2020-02-09T15:43:57.987Z</time>
      </trkpt>
      <trkpt lat="45.31611" lon="6.25037">
        <ele>1200</ele>
        <time>2020-02-09T15:44:10.990Z</time>
      </trkpt>
      <trkpt lat="45.31611" lon="6.25023">
        <ele>1200</ele>
        <time>2020-02-09T15:44:30.001Z</time>
      </trkpt>
      <trkpt lat="45.31619" lon="6.25031">
        <ele>1200</ele>
        <time>2020-02-09T15:44:59.990Z</time>
      </trkpt>
      <trkpt lat="45.3162" lon="6.25044">
        <ele>1199</ele>
        <time>2020-02-09T15:45:08.990Z</time>
      </trkpt>
      <trkpt lat="45.3162" lon="6.2506">
        <ele>1198</ele>
        <time>2020-02-09T15:45:16.000Z</time>
      </trkpt>
      <trkpt lat="45.31616" lon="6.25072">
        <ele>1196</ele>
        <time>2020-02-09T15:45:25.098Z</time>
      </trkpt>
      <trkpt lat="45.31617" lon="6.25071">
        <ele>1065.5</ele>
        <time>2020-02-09T15:46:31.000Z</time>
      </trkpt>
    </trkseg>
  </trk>
</gpx>